<?xml version="1.0" encoding="UTF-8" standalone="no" ?>
<gpx xmlns="http://www.topografix.com/GPX/1/1" xmlns:xsi="http://www.w3.org/2001/XMLSchema-instance" xsi:schemaLocation="http://www.topografix.com/GPX/1/1 http://www.topografix.com/GPX/1/1/gpx.xsd" version="1.1" creator="VisuGPX - https://www.visugpx.com">
  <metadata>
    <name>Charmette, top</name>
  </metadata>
  <trk>
    <name><![CDATA[Charmette, top_1]]></name>
    <trkseg>
      <trkpt lat="45.28162" lon="5.75348">
        <ele>1116.3</ele>
        <time>2021-01-26T07:35:32Z</time>
      </trkpt>
      <trkpt lat="45.28163" lon="5.75347">
        <ele>1116.6</ele>
        <time>2021-01-26T07:35:34Z</time>
      </trkpt>
      <trkpt lat="45.28165" lon="5.75334">
        <ele>1117.8</ele>
        <time>2021-01-26T07:35:45Z</time>
      </trkpt>
      <trkpt lat="45.28162" lon="5.75322">
        <ele>1119</ele>
        <time>2021-01-26T07:35:53Z</time>
      </trkpt>
      <trkpt lat="45.28162" lon="5.75313">
        <ele>1120.1</ele>
        <time>2021-01-26T07:36:00Z</time>
      </trkpt>
      <trkpt lat="45.28165" lon="5.75308">
        <ele>1120.7</ele>
        <time>2021-01-26T07:36:18Z</time>
      </trkpt>
      <trkpt lat="45.28169" lon="5.75302">
        <ele>1121.9</ele>
        <time>2021-01-26T07:36:23Z</time>
      </trkpt>
      <trkpt lat="45.28171" lon="5.75297">
        <ele>1123</ele>
        <time>2021-01-26T07:36:27Z</time>
      </trkpt>
      <trkpt lat="45.28173" lon="5.75295">
        <ele>1123.6</ele>
        <time>2021-01-26T07:36:31Z</time>
      </trkpt>
      <trkpt lat="45.28181" lon="5.75287">
        <ele>1125.4</ele>
        <time>2021-01-26T07:36:41Z</time>
      </trkpt>
      <trkpt lat="45.28183" lon="5.75286">
        <ele>1125.6</ele>
        <time>2021-01-26T07:36:45Z</time>
      </trkpt>
      <trkpt lat="45.2819" lon="5.75276">
        <ele>1127.2</ele>
        <time>2021-01-26T07:37:00Z</time>
      </trkpt>
      <trkpt lat="45.28199" lon="5.7527">
        <ele>1129.5</ele>
        <time>2021-01-26T07:37:08Z</time>
      </trkpt>
      <trkpt lat="45.28209" lon="5.75266">
        <ele>1131.8</ele>
        <time>2021-01-26T07:37:18Z</time>
      </trkpt>
      <trkpt lat="45.28217" lon="5.75259">
        <ele>1133.7</ele>
        <time>2021-01-26T07:37:26Z</time>
      </trkpt>
      <trkpt lat="45.28224" lon="5.7525">
        <ele>1135.4</ele>
        <time>2021-01-26T07:37:36Z</time>
      </trkpt>
      <trkpt lat="45.28228" lon="5.75238">
        <ele>1139.1</ele>
        <time>2021-01-26T07:37:46Z</time>
      </trkpt>
      <trkpt lat="45.28234" lon="5.75227">
        <ele>1142.4</ele>
        <time>2021-01-26T07:37:58Z</time>
      </trkpt>
      <trkpt lat="45.28236" lon="5.75214">
        <ele>1150.8</ele>
        <time>2021-01-26T07:38:09Z</time>
      </trkpt>
      <trkpt lat="45.28243" lon="5.75203">
        <ele>1150.8</ele>
        <time>2021-01-26T07:38:23Z</time>
      </trkpt>
      <trkpt lat="45.28245" lon="5.75189">
        <ele>1150.8</ele>
        <time>2021-01-26T07:38:33Z</time>
      </trkpt>
      <trkpt lat="45.28252" lon="5.75179">
        <ele>1150.8</ele>
        <time>2021-01-26T07:38:52Z</time>
      </trkpt>
      <trkpt lat="45.28258" lon="5.75169">
        <ele>1150.8</ele>
        <time>2021-01-26T07:39:04Z</time>
      </trkpt>
      <trkpt lat="45.28261" lon="5.75156">
        <ele>1150.8</ele>
        <time>2021-01-26T07:39:15Z</time>
      </trkpt>
      <trkpt lat="45.28264" lon="5.75144">
        <ele>1150.8</ele>
        <time>2021-01-26T07:39:38Z</time>
      </trkpt>
      <trkpt lat="45.2826" lon="5.75133">
        <ele>1150.8</ele>
        <time>2021-01-26T07:40:00Z</time>
      </trkpt>
      <trkpt lat="45.28266" lon="5.75122">
        <ele>1150.8</ele>
        <time>2021-01-26T07:40:12Z</time>
      </trkpt>
      <trkpt lat="45.2827" lon="5.75111">
        <ele>1150.8</ele>
        <time>2021-01-26T07:40:25Z</time>
      </trkpt>
      <trkpt lat="45.28279" lon="5.75106">
        <ele>1150.8</ele>
        <time>2021-01-26T07:40:35Z</time>
      </trkpt>
      <trkpt lat="45.28283" lon="5.75093">
        <ele>1150.8</ele>
        <time>2021-01-26T07:40:50Z</time>
      </trkpt>
      <trkpt lat="45.28289" lon="5.75084">
        <ele>1150.8</ele>
        <time>2021-01-26T07:41:01Z</time>
      </trkpt>
      <trkpt lat="45.28284" lon="5.75073">
        <ele>1150.8</ele>
        <time>2021-01-26T07:41:31Z</time>
      </trkpt>
      <trkpt lat="45.28287" lon="5.75061">
        <ele>1150.8</ele>
        <time>2021-01-26T07:41:42Z</time>
      </trkpt>
      <trkpt lat="45.28278" lon="5.75059">
        <ele>1150.8</ele>
        <time>2021-01-26T07:42:05Z</time>
      </trkpt>
      <trkpt lat="45.28279" lon="5.75046">
        <ele>1150.8</ele>
        <time>2021-01-26T07:42:13Z</time>
      </trkpt>
      <trkpt lat="45.28281" lon="5.75033">
        <ele>1200.8</ele>
        <time>2021-01-26T07:42:29Z</time>
      </trkpt>
      <trkpt lat="45.28278" lon="5.75021">
        <ele>1200.8</ele>
        <time>2021-01-26T07:42:41Z</time>
      </trkpt>
      <trkpt lat="45.28288" lon="5.75018">
        <ele>1200.8</ele>
        <time>2021-01-26T07:42:53Z</time>
      </trkpt>
      <trkpt lat="45.28279" lon="5.75011">
        <ele>1200.8</ele>
        <time>2021-01-26T07:43:22Z</time>
      </trkpt>
      <trkpt lat="45.28269" lon="5.75013">
        <ele>1200.8</ele>
        <time>2021-01-26T07:43:40Z</time>
      </trkpt>
      <trkpt lat="45.2826" lon="5.75006">
        <ele>1200.8</ele>
        <time>2021-01-26T07:43:56Z</time>
      </trkpt>
      <trkpt lat="45.28262" lon="5.74993">
        <ele>1200.8</ele>
        <time>2021-01-26T07:44:07Z</time>
      </trkpt>
      <trkpt lat="45.28255" lon="5.74984">
        <ele>1200.8</ele>
        <time>2021-01-26T07:44:30Z</time>
      </trkpt>
      <trkpt lat="45.2826" lon="5.74973">
        <ele>1200.8</ele>
        <time>2021-01-26T07:44:38Z</time>
      </trkpt>
      <trkpt lat="45.28257" lon="5.74986">
        <ele>1215</ele>
        <time>2021-01-26T07:44:59Z</time>
      </trkpt>
      <trkpt lat="45.28249" lon="5.74976">
        <ele>1215.6</ele>
        <time>2021-01-26T07:45:09Z</time>
      </trkpt>
      <trkpt lat="45.28243" lon="5.74965">
        <ele>1215.6</ele>
        <time>2021-01-26T07:45:22Z</time>
      </trkpt>
      <trkpt lat="45.28243" lon="5.74952">
        <ele>1215.6</ele>
        <time>2021-01-26T07:45:36Z</time>
      </trkpt>
      <trkpt lat="45.28242" lon="5.74938">
        <ele>1215.6</ele>
        <time>2021-01-26T07:45:43Z</time>
      </trkpt>
      <trkpt lat="45.2824" lon="5.74925">
        <ele>1215.6</ele>
        <time>2021-01-26T07:45:56Z</time>
      </trkpt>
      <trkpt lat="45.28242" lon="5.7491">
        <ele>1215.6</ele>
        <time>2021-01-26T07:46:04Z</time>
      </trkpt>
      <trkpt lat="45.28242" lon="5.74898">
        <ele>1215.6</ele>
        <time>2021-01-26T07:46:12Z</time>
      </trkpt>
      <trkpt lat="45.28243" lon="5.74884">
        <ele>1228.6</ele>
        <time>2021-01-26T07:46:29Z</time>
      </trkpt>
      <trkpt lat="45.28248" lon="5.74872">
        <ele>1228.6</ele>
        <time>2021-01-26T07:46:40Z</time>
      </trkpt>
      <trkpt lat="45.28251" lon="5.74859">
        <ele>1228.6</ele>
        <time>2021-01-26T07:46:50Z</time>
      </trkpt>
      <trkpt lat="45.28257" lon="5.74849">
        <ele>1228.6</ele>
        <time>2021-01-26T07:47:01Z</time>
      </trkpt>
      <trkpt lat="45.2826" lon="5.74837">
        <ele>1228.6</ele>
        <time>2021-01-26T07:47:14Z</time>
      </trkpt>
      <trkpt lat="45.28259" lon="5.74823">
        <ele>1228.6</ele>
        <time>2021-01-26T07:47:27Z</time>
      </trkpt>
      <trkpt lat="45.28259" lon="5.74809">
        <ele>1228.6</ele>
        <time>2021-01-26T07:47:34Z</time>
      </trkpt>
      <trkpt lat="45.28258" lon="5.74795">
        <ele>1228.6</ele>
        <time>2021-01-26T07:47:42Z</time>
      </trkpt>
      <trkpt lat="45.28252" lon="5.74785">
        <ele>1228.6</ele>
        <time>2021-01-26T07:47:55Z</time>
      </trkpt>
      <trkpt lat="45.28244" lon="5.74777">
        <ele>1228.6</ele>
        <time>2021-01-26T07:48:06Z</time>
      </trkpt>
      <trkpt lat="45.28235" lon="5.74773">
        <ele>1228.6</ele>
        <time>2021-01-26T07:48:13Z</time>
      </trkpt>
      <trkpt lat="45.28226" lon="5.74771">
        <ele>1228.6</ele>
        <time>2021-01-26T07:48:26Z</time>
      </trkpt>
      <trkpt lat="45.28219" lon="5.74762">
        <ele>1248</ele>
        <time>2021-01-26T07:48:39Z</time>
      </trkpt>
      <trkpt lat="45.28211" lon="5.74756">
        <ele>1248</ele>
        <time>2021-01-26T07:48:58Z</time>
      </trkpt>
      <trkpt lat="45.28202" lon="5.74749">
        <ele>1252.8</ele>
        <time>2021-01-26T07:49:09Z</time>
      </trkpt>
      <trkpt lat="45.28198" lon="5.74737">
        <ele>1252.8</ele>
        <time>2021-01-26T07:49:20Z</time>
      </trkpt>
      <trkpt lat="45.28191" lon="5.74728">
        <ele>1252.8</ele>
        <time>2021-01-26T07:49:33Z</time>
      </trkpt>
      <trkpt lat="45.28183" lon="5.7472">
        <ele>1252.8</ele>
        <time>2021-01-26T07:49:46Z</time>
      </trkpt>
      <trkpt lat="45.28174" lon="5.74717">
        <ele>1252.8</ele>
        <time>2021-01-26T07:49:56Z</time>
      </trkpt>
      <trkpt lat="45.28171" lon="5.74705">
        <ele>1265.4</ele>
        <time>2021-01-26T07:50:09Z</time>
      </trkpt>
      <trkpt lat="45.28167" lon="5.74692">
        <ele>1265.4</ele>
        <time>2021-01-26T07:50:22Z</time>
      </trkpt>
      <trkpt lat="45.28158" lon="5.74688">
        <ele>1265.4</ele>
        <time>2021-01-26T07:50:33Z</time>
      </trkpt>
      <trkpt lat="45.28155" lon="5.74675">
        <ele>1265.4</ele>
        <time>2021-01-26T07:50:47Z</time>
      </trkpt>
      <trkpt lat="45.28154" lon="5.74662">
        <ele>1265.4</ele>
        <time>2021-01-26T07:50:54Z</time>
      </trkpt>
      <trkpt lat="45.28145" lon="5.74657">
        <ele>1265.4</ele>
        <time>2021-01-26T07:51:06Z</time>
      </trkpt>
      <trkpt lat="45.28137" lon="5.74651">
        <ele>1265.4</ele>
        <time>2021-01-26T07:51:18Z</time>
      </trkpt>
      <trkpt lat="45.28133" lon="5.74639">
        <ele>1265.4</ele>
        <time>2021-01-26T07:51:28Z</time>
      </trkpt>
      <trkpt lat="45.28126" lon="5.7463">
        <ele>1283.6</ele>
        <time>2021-01-26T07:51:39Z</time>
      </trkpt>
      <trkpt lat="45.28119" lon="5.74621">
        <ele>1283.6</ele>
        <time>2021-01-26T07:51:51Z</time>
      </trkpt>
      <trkpt lat="45.28118" lon="5.74607">
        <ele>1283.6</ele>
        <time>2021-01-26T07:52:01Z</time>
      </trkpt>
      <trkpt lat="45.28117" lon="5.74595">
        <ele>1283.6</ele>
        <time>2021-01-26T07:52:10Z</time>
      </trkpt>
      <trkpt lat="45.28116" lon="5.74592">
        <ele>1283.6</ele>
        <time>2021-01-26T07:52:12Z</time>
      </trkpt>
      <trkpt lat="45.28116" lon="5.74589">
        <ele>1283.6</ele>
        <time>2021-01-26T07:52:15Z</time>
      </trkpt>
      <trkpt lat="45.28117" lon="5.74586">
        <ele>1283.6</ele>
        <time>2021-01-26T07:52:18Z</time>
      </trkpt>
      <trkpt lat="45.28117" lon="5.74583">
        <ele>1283.6</ele>
        <time>2021-01-26T07:52:20Z</time>
      </trkpt>
      <trkpt lat="45.28121" lon="5.74576">
        <ele>1283.6</ele>
        <time>2021-01-26T07:52:24Z</time>
      </trkpt>
      <trkpt lat="45.28123" lon="5.74572">
        <ele>1283.6</ele>
        <time>2021-01-26T07:52:27Z</time>
      </trkpt>
      <trkpt lat="45.28125" lon="5.7456">
        <ele>1283.6</ele>
        <time>2021-01-26T07:52:41Z</time>
      </trkpt>
      <trkpt lat="45.28127" lon="5.74556">
        <ele>1283.6</ele>
        <time>2021-01-26T07:52:43Z</time>
      </trkpt>
      <trkpt lat="45.28129" lon="5.74543">
        <ele>1283.6</ele>
        <time>2021-01-26T07:52:57Z</time>
      </trkpt>
      <trkpt lat="45.28137" lon="5.74536">
        <ele>1283.6</ele>
        <time>2021-01-26T07:53:11Z</time>
      </trkpt>
      <trkpt lat="45.28145" lon="5.74529">
        <ele>1283.6</ele>
        <time>2021-01-26T07:53:28Z</time>
      </trkpt>
      <trkpt lat="45.28151" lon="5.74519">
        <ele>1283.6</ele>
        <time>2021-01-26T07:53:42Z</time>
      </trkpt>
      <trkpt lat="45.28156" lon="5.74511">
        <ele>1283.6</ele>
        <time>2021-01-26T07:54:00Z</time>
      </trkpt>
      <trkpt lat="45.28161" lon="5.745">
        <ele>1312.8</ele>
        <time>2021-01-26T07:54:19Z</time>
      </trkpt>
      <trkpt lat="45.28165" lon="5.74488">
        <ele>1312.8</ele>
        <time>2021-01-26T07:54:32Z</time>
      </trkpt>
      <trkpt lat="45.28172" lon="5.74479">
        <ele>1312.8</ele>
        <time>2021-01-26T07:54:42Z</time>
      </trkpt>
      <trkpt lat="45.2818" lon="5.7447">
        <ele>1312.8</ele>
        <time>2021-01-26T07:54:51Z</time>
      </trkpt>
      <trkpt lat="45.28188" lon="5.74464">
        <ele>1312.8</ele>
        <time>2021-01-26T07:55:02Z</time>
      </trkpt>
      <trkpt lat="45.28197" lon="5.74463">
        <ele>1312.8</ele>
        <time>2021-01-26T07:55:16Z</time>
      </trkpt>
      <trkpt lat="45.28206" lon="5.7447">
        <ele>1312.8</ele>
        <time>2021-01-26T07:55:28Z</time>
      </trkpt>
      <trkpt lat="45.28215" lon="5.74471">
        <ele>1312.8</ele>
        <time>2021-01-26T07:55:41Z</time>
      </trkpt>
      <trkpt lat="45.28225" lon="5.74473">
        <ele>1312.8</ele>
        <time>2021-01-26T07:55:55Z</time>
      </trkpt>
      <trkpt lat="45.28234" lon="5.74473">
        <ele>1312.8</ele>
        <time>2021-01-26T07:56:11Z</time>
      </trkpt>
      <trkpt lat="45.28244" lon="5.7447">
        <ele>1312.8</ele>
        <time>2021-01-26T07:56:24Z</time>
      </trkpt>
      <trkpt lat="45.28253" lon="5.74471">
        <ele>1345</ele>
        <time>2021-01-26T07:56:39Z</time>
      </trkpt>
      <trkpt lat="45.28261" lon="5.74466">
        <ele>1345</ele>
        <time>2021-01-26T07:56:56Z</time>
      </trkpt>
      <trkpt lat="45.28271" lon="5.74466">
        <ele>1345</ele>
        <time>2021-01-26T07:57:05Z</time>
      </trkpt>
      <trkpt lat="45.28281" lon="5.74466">
        <ele>1345</ele>
        <time>2021-01-26T07:57:28Z</time>
      </trkpt>
      <trkpt lat="45.2829" lon="5.74466">
        <ele>1345</ele>
        <time>2021-01-26T07:57:45Z</time>
      </trkpt>
      <trkpt lat="45.283" lon="5.74464">
        <ele>1345</ele>
        <time>2021-01-26T07:57:54Z</time>
      </trkpt>
      <trkpt lat="45.2831" lon="5.74463">
        <ele>1345</ele>
        <time>2021-01-26T07:58:02Z</time>
      </trkpt>
      <trkpt lat="45.28319" lon="5.7446">
        <ele>1345</ele>
        <time>2021-01-26T07:58:13Z</time>
      </trkpt>
      <trkpt lat="45.28327" lon="5.74451">
        <ele>1345</ele>
        <time>2021-01-26T07:58:26Z</time>
      </trkpt>
      <trkpt lat="45.28334" lon="5.74443">
        <ele>1372.2</ele>
        <time>2021-01-26T07:58:39Z</time>
      </trkpt>
      <trkpt lat="45.28336" lon="5.74431">
        <ele>1372.2</ele>
        <time>2021-01-26T07:58:53Z</time>
      </trkpt>
      <trkpt lat="45.28343" lon="5.74421">
        <ele>1372.2</ele>
        <time>2021-01-26T07:59:05Z</time>
      </trkpt>
      <trkpt lat="45.28349" lon="5.74411">
        <ele>1379.6</ele>
        <time>2021-01-26T07:59:19Z</time>
      </trkpt>
      <trkpt lat="45.28347" lon="5.74409">
        <ele>1379.6</ele>
        <time>2021-01-26T07:59:34Z</time>
      </trkpt>
      <trkpt lat="45.28347" lon="5.74407">
        <ele>1379.6</ele>
        <time>2021-01-26T07:59:37Z</time>
      </trkpt>
      <trkpt lat="45.28346" lon="5.74393">
        <ele>1379.6</ele>
        <time>2021-01-26T07:59:54Z</time>
      </trkpt>
      <trkpt lat="45.28348" lon="5.74379">
        <ele>1379.6</ele>
        <time>2021-01-26T08:00:06Z</time>
      </trkpt>
      <trkpt lat="45.28354" lon="5.7437">
        <ele>1379.6</ele>
        <time>2021-01-26T08:00:15Z</time>
      </trkpt>
      <trkpt lat="45.28354" lon="5.74357">
        <ele>1392.8</ele>
        <time>2021-01-26T08:00:29Z</time>
      </trkpt>
      <trkpt lat="45.28353" lon="5.74355">
        <ele>1392.8</ele>
        <time>2021-01-26T08:00:32Z</time>
      </trkpt>
      <trkpt lat="45.28352" lon="5.74352">
        <ele>1392.8</ele>
        <time>2021-01-26T08:00:34Z</time>
      </trkpt>
      <trkpt lat="45.28352" lon="5.74349">
        <ele>1392.8</ele>
        <time>2021-01-26T08:00:36Z</time>
      </trkpt>
      <trkpt lat="45.28352" lon="5.74343">
        <ele>1392.8</ele>
        <time>2021-01-26T08:00:44Z</time>
      </trkpt>
      <trkpt lat="45.28353" lon="5.74339">
        <ele>1392.8</ele>
        <time>2021-01-26T08:00:48Z</time>
      </trkpt>
      <trkpt lat="45.28354" lon="5.74333">
        <ele>1392.8</ele>
        <time>2021-01-26T08:00:52Z</time>
      </trkpt>
      <trkpt lat="45.28355" lon="5.7433">
        <ele>1392.8</ele>
        <time>2021-01-26T08:00:54Z</time>
      </trkpt>
      <trkpt lat="45.28356" lon="5.74328">
        <ele>1392.8</ele>
        <time>2021-01-26T08:00:56Z</time>
      </trkpt>
      <trkpt lat="45.28357" lon="5.74325">
        <ele>1392.8</ele>
        <time>2021-01-26T08:00:58Z</time>
      </trkpt>
      <trkpt lat="45.28359" lon="5.74323">
        <ele>1392.8</ele>
        <time>2021-01-26T08:01:01Z</time>
      </trkpt>
      <trkpt lat="45.2836" lon="5.74321">
        <ele>1392.8</ele>
        <time>2021-01-26T08:01:04Z</time>
      </trkpt>
      <trkpt lat="45.28361" lon="5.74318">
        <ele>1392.8</ele>
        <time>2021-01-26T08:01:06Z</time>
      </trkpt>
      <trkpt lat="45.28365" lon="5.74313">
        <ele>1392.8</ele>
        <time>2021-01-26T08:01:15Z</time>
      </trkpt>
      <trkpt lat="45.28367" lon="5.74312">
        <ele>1392.8</ele>
        <time>2021-01-26T08:01:18Z</time>
      </trkpt>
      <trkpt lat="45.28377" lon="5.74309">
        <ele>1392.8</ele>
        <time>2021-01-26T08:01:27Z</time>
      </trkpt>
      <trkpt lat="45.28384" lon="5.74305">
        <ele>1392.8</ele>
        <time>2021-01-26T08:01:36Z</time>
      </trkpt>
      <trkpt lat="45.28387" lon="5.74303">
        <ele>1392.8</ele>
        <time>2021-01-26T08:01:41Z</time>
      </trkpt>
      <trkpt lat="45.28397" lon="5.74301">
        <ele>1392.8</ele>
        <time>2021-01-26T08:01:55Z</time>
      </trkpt>
      <trkpt lat="45.28405" lon="5.74309">
        <ele>1392.8</ele>
        <time>2021-01-26T08:02:08Z</time>
      </trkpt>
      <trkpt lat="45.28412" lon="5.74318">
        <ele>1392.8</ele>
        <time>2021-01-26T08:02:22Z</time>
      </trkpt>
      <trkpt lat="45.28421" lon="5.7432">
        <ele>1392.8</ele>
        <time>2021-01-26T08:02:34Z</time>
      </trkpt>
      <trkpt lat="45.2843" lon="5.74322">
        <ele>1392.8</ele>
        <time>2021-01-26T08:02:45Z</time>
      </trkpt>
      <trkpt lat="45.28435" lon="5.74321">
        <ele>1392.8</ele>
        <time>2021-01-26T08:02:52Z</time>
      </trkpt>
      <trkpt lat="45.28437" lon="5.74321">
        <ele>1392.8</ele>
        <time>2021-01-26T08:02:55Z</time>
      </trkpt>
      <trkpt lat="45.28439" lon="5.7432">
        <ele>1425.2</ele>
        <time>2021-01-26T08:02:59Z</time>
      </trkpt>
      <trkpt lat="45.28441" lon="5.74319">
        <ele>1425.2</ele>
        <time>2021-01-26T08:03:03Z</time>
      </trkpt>
      <trkpt lat="45.28443" lon="5.74318">
        <ele>1425.2</ele>
        <time>2021-01-26T08:03:06Z</time>
      </trkpt>
      <trkpt lat="45.28446" lon="5.74316">
        <ele>1427.4</ele>
        <time>2021-01-26T08:03:09Z</time>
      </trkpt>
      <trkpt lat="45.28447" lon="5.74314">
        <ele>1427.4</ele>
        <time>2021-01-26T08:03:12Z</time>
      </trkpt>
      <trkpt lat="45.2845" lon="5.74315">
        <ele>1427.4</ele>
        <time>2021-01-26T08:03:16Z</time>
      </trkpt>
      <trkpt lat="45.28452" lon="5.74314">
        <ele>1427.4</ele>
        <time>2021-01-26T08:03:21Z</time>
      </trkpt>
      <trkpt lat="45.28454" lon="5.74314">
        <ele>1427.4</ele>
        <time>2021-01-26T08:03:24Z</time>
      </trkpt>
      <trkpt lat="45.28464" lon="5.74316">
        <ele>1427.4</ele>
        <time>2021-01-26T08:03:41Z</time>
      </trkpt>
      <trkpt lat="45.28472" lon="5.7432">
        <ele>1427.4</ele>
        <time>2021-01-26T08:03:58Z</time>
      </trkpt>
      <trkpt lat="45.28476" lon="5.74321">
        <ele>1427.4</ele>
        <time>2021-01-26T08:04:04Z</time>
      </trkpt>
      <trkpt lat="45.28479" lon="5.74319">
        <ele>1427.4</ele>
        <time>2021-01-26T08:04:10Z</time>
      </trkpt>
      <trkpt lat="45.28487" lon="5.74323">
        <ele>1427.4</ele>
        <time>2021-01-26T08:04:28Z</time>
      </trkpt>
      <trkpt lat="45.28495" lon="5.74329">
        <ele>1427.4</ele>
        <time>2021-01-26T08:04:47Z</time>
      </trkpt>
      <trkpt lat="45.28498" lon="5.74331">
        <ele>1427.4</ele>
        <time>2021-01-26T08:04:53Z</time>
      </trkpt>
      <trkpt lat="45.28507" lon="5.74329">
        <ele>1427.4</ele>
        <time>2021-01-26T08:05:21Z</time>
      </trkpt>
      <trkpt lat="45.28514" lon="5.74325">
        <ele>1427.4</ele>
        <time>2021-01-26T08:05:32Z</time>
      </trkpt>
      <trkpt lat="45.28516" lon="5.74323">
        <ele>1427.4</ele>
        <time>2021-01-26T08:05:35Z</time>
      </trkpt>
      <trkpt lat="45.28518" lon="5.74321">
        <ele>1456.8</ele>
        <time>2021-01-26T08:05:39Z</time>
      </trkpt>
      <trkpt lat="45.28519" lon="5.74318">
        <ele>1456.8</ele>
        <time>2021-01-26T08:05:44Z</time>
      </trkpt>
      <trkpt lat="45.28521" lon="5.74315">
        <ele>1456.8</ele>
        <time>2021-01-26T08:05:52Z</time>
      </trkpt>
      <trkpt lat="45.28523" lon="5.74313">
        <ele>1456.8</ele>
        <time>2021-01-26T08:05:55Z</time>
      </trkpt>
      <trkpt lat="45.28531" lon="5.74306">
        <ele>1456.8</ele>
        <time>2021-01-26T08:06:07Z</time>
      </trkpt>
      <trkpt lat="45.2854" lon="5.74307">
        <ele>1456.8</ele>
        <time>2021-01-26T08:06:16Z</time>
      </trkpt>
      <trkpt lat="45.2855" lon="5.74304">
        <ele>1468.6</ele>
        <time>2021-01-26T08:06:29Z</time>
      </trkpt>
      <trkpt lat="45.28558" lon="5.74312">
        <ele>1468.6</ele>
        <time>2021-01-26T08:06:45Z</time>
      </trkpt>
      <trkpt lat="45.28568" lon="5.74309">
        <ele>1468.6</ele>
        <time>2021-01-26T08:06:53Z</time>
      </trkpt>
      <trkpt lat="45.28577" lon="5.74309">
        <ele>1468.6</ele>
        <time>2021-01-26T08:07:04Z</time>
      </trkpt>
      <trkpt lat="45.28585" lon="5.74308">
        <ele>1479</ele>
        <time>2021-01-26T08:07:19Z</time>
      </trkpt>
      <trkpt lat="45.28587" lon="5.74308">
        <ele>1479</ele>
        <time>2021-01-26T08:07:27Z</time>
      </trkpt>
      <trkpt lat="45.28596" lon="5.74308">
        <ele>1479</ele>
        <time>2021-01-26T08:07:42Z</time>
      </trkpt>
      <trkpt lat="45.28606" lon="5.74311">
        <ele>1479</ele>
        <time>2021-01-26T08:07:58Z</time>
      </trkpt>
      <trkpt lat="45.28615" lon="5.74313">
        <ele>1479</ele>
        <time>2021-01-26T08:08:17Z</time>
      </trkpt>
      <trkpt lat="45.28624" lon="5.74312">
        <ele>1479</ele>
        <time>2021-01-26T08:08:32Z</time>
      </trkpt>
      <trkpt lat="45.28633" lon="5.74309">
        <ele>1495.8</ele>
        <time>2021-01-26T08:08:49Z</time>
      </trkpt>
      <trkpt lat="45.28642" lon="5.74304">
        <ele>1495.8</ele>
        <time>2021-01-26T08:09:10Z</time>
      </trkpt>
      <trkpt lat="45.28652" lon="5.74304">
        <ele>1495.8</ele>
        <time>2021-01-26T08:09:31Z</time>
      </trkpt>
      <trkpt lat="45.28661" lon="5.74301">
        <ele>1495.8</ele>
        <time>2021-01-26T08:09:46Z</time>
      </trkpt>
      <trkpt lat="45.2867" lon="5.74301">
        <ele>1495.8</ele>
        <time>2021-01-26T08:10:02Z</time>
      </trkpt>
      <trkpt lat="45.28677" lon="5.74292">
        <ele>1511.8</ele>
        <time>2021-01-26T08:10:19Z</time>
      </trkpt>
      <trkpt lat="45.28686" lon="5.7429">
        <ele>1511.8</ele>
        <time>2021-01-26T08:10:40Z</time>
      </trkpt>
      <trkpt lat="45.28696" lon="5.74286">
        <ele>1511.8</ele>
        <time>2021-01-26T08:11:01Z</time>
      </trkpt>
      <trkpt lat="45.28705" lon="5.74282">
        <ele>1511.8</ele>
        <time>2021-01-26T08:11:14Z</time>
      </trkpt>
      <trkpt lat="45.28714" lon="5.7428">
        <ele>1511.8</ele>
        <time>2021-01-26T08:11:34Z</time>
      </trkpt>
      <trkpt lat="45.28722" lon="5.74274">
        <ele>1511.8</ele>
        <time>2021-01-26T08:11:48Z</time>
      </trkpt>
      <trkpt lat="45.28731" lon="5.74273">
        <ele>1535.6</ele>
        <time>2021-01-26T08:12:09Z</time>
      </trkpt>
      <trkpt lat="45.2874" lon="5.74269">
        <ele>1535.6</ele>
        <time>2021-01-26T08:12:23Z</time>
      </trkpt>
      <trkpt lat="45.28749" lon="5.74267">
        <ele>1535.6</ele>
        <time>2021-01-26T08:12:43Z</time>
      </trkpt>
      <trkpt lat="45.28758" lon="5.74264">
        <ele>1535.6</ele>
        <time>2021-01-26T08:12:51Z</time>
      </trkpt>
      <trkpt lat="45.28761" lon="5.74265">
        <ele>1535.6</ele>
        <time>2021-01-26T08:12:56Z</time>
      </trkpt>
      <trkpt lat="45.28769" lon="5.74266">
        <ele>1535.6</ele>
        <time>2021-01-26T08:13:21Z</time>
      </trkpt>
      <trkpt lat="45.28773" lon="5.74261">
        <ele>1535.6</ele>
        <time>2021-01-26T08:13:34Z</time>
      </trkpt>
      <trkpt lat="45.28775" lon="5.74261">
        <ele>1535.6</ele>
        <time>2021-01-26T08:13:42Z</time>
      </trkpt>
      <trkpt lat="45.28784" lon="5.7426">
        <ele>1552.4</ele>
        <time>2021-01-26T08:13:59Z</time>
      </trkpt>
      <trkpt lat="45.28793" lon="5.74258">
        <ele>1552.4</ele>
        <time>2021-01-26T08:14:10Z</time>
      </trkpt>
      <trkpt lat="45.28801" lon="5.74251">
        <ele>1552.4</ele>
        <time>2021-01-26T08:14:27Z</time>
      </trkpt>
      <trkpt lat="45.2881" lon="5.74244">
        <ele>1552.4</ele>
        <time>2021-01-26T08:14:47Z</time>
      </trkpt>
      <trkpt lat="45.28818" lon="5.7424">
        <ele>1552.4</ele>
        <time>2021-01-26T08:15:02Z</time>
      </trkpt>
      <trkpt lat="45.28828" lon="5.7424">
        <ele>1552.4</ele>
        <time>2021-01-26T08:15:12Z</time>
      </trkpt>
      <trkpt lat="45.28837" lon="5.7424">
        <ele>1552.4</ele>
        <time>2021-01-26T08:15:23Z</time>
      </trkpt>
      <trkpt lat="45.28844" lon="5.74231">
        <ele>1552.4</ele>
        <time>2021-01-26T08:15:36Z</time>
      </trkpt>
      <trkpt lat="45.28854" lon="5.74229">
        <ele>1552.4</ele>
        <time>2021-01-26T08:15:47Z</time>
      </trkpt>
      <trkpt lat="45.28864" lon="5.74224">
        <ele>1552.4</ele>
        <time>2021-01-26T08:15:56Z</time>
      </trkpt>
      <trkpt lat="45.28873" lon="5.74224">
        <ele>1552.4</ele>
        <time>2021-01-26T08:16:07Z</time>
      </trkpt>
      <trkpt lat="45.28882" lon="5.74226">
        <ele>1576.6</ele>
        <time>2021-01-26T08:16:19Z</time>
      </trkpt>
      <trkpt lat="45.28891" lon="5.74223">
        <ele>1576.6</ele>
        <time>2021-01-26T08:16:33Z</time>
      </trkpt>
      <trkpt lat="45.28901" lon="5.74223">
        <ele>1576.6</ele>
        <time>2021-01-26T08:16:42Z</time>
      </trkpt>
      <trkpt lat="45.2891" lon="5.74223">
        <ele>1576.6</ele>
        <time>2021-01-26T08:16:51Z</time>
      </trkpt>
      <trkpt lat="45.2892" lon="5.7422">
        <ele>1576.6</ele>
        <time>2021-01-26T08:16:58Z</time>
      </trkpt>
      <trkpt lat="45.28929" lon="5.74216">
        <ele>1576.6</ele>
        <time>2021-01-26T08:17:06Z</time>
      </trkpt>
      <trkpt lat="45.28938" lon="5.74214">
        <ele>1576.6</ele>
        <time>2021-01-26T08:17:14Z</time>
      </trkpt>
      <trkpt lat="45.28948" lon="5.74212">
        <ele>1576.6</ele>
        <time>2021-01-26T08:17:22Z</time>
      </trkpt>
      <trkpt lat="45.28957" lon="5.74209">
        <ele>1576.6</ele>
        <time>2021-01-26T08:17:36Z</time>
      </trkpt>
      <trkpt lat="45.28966" lon="5.74204">
        <ele>1576.6</ele>
        <time>2021-01-26T08:17:44Z</time>
      </trkpt>
      <trkpt lat="45.28976" lon="5.74207">
        <ele>1576.6</ele>
        <time>2021-01-26T08:17:55Z</time>
      </trkpt>
      <trkpt lat="45.28986" lon="5.74212">
        <ele>1576.6</ele>
        <time>2021-01-26T08:18:05Z</time>
      </trkpt>
      <trkpt lat="45.28993" lon="5.74216">
        <ele>1576.6</ele>
        <time>2021-01-26T08:18:11Z</time>
      </trkpt>
      <trkpt lat="45.28995" lon="5.74215">
        <ele>1576.6</ele>
        <time>2021-01-26T08:18:15Z</time>
      </trkpt>
      <trkpt lat="45.28997" lon="5.74213">
        <ele>1576.6</ele>
        <time>2021-01-26T08:18:18Z</time>
      </trkpt>
      <trkpt lat="45.29006" lon="5.74217">
        <ele>1576.6</ele>
        <time>2021-01-26T08:18:31Z</time>
      </trkpt>
      <trkpt lat="45.29015" lon="5.74222">
        <ele>1576.6</ele>
        <time>2021-01-26T08:18:36Z</time>
      </trkpt>
      <trkpt lat="45.2902" lon="5.74228">
        <ele>1576.6</ele>
        <time>2021-01-26T08:18:42Z</time>
      </trkpt>
      <trkpt lat="45.29022" lon="5.74228">
        <ele>1576.6</ele>
        <time>2021-01-26T08:18:46Z</time>
      </trkpt>
      <trkpt lat="45.29025" lon="5.74229">
        <ele>1604.6</ele>
        <time>2021-01-26T08:18:49Z</time>
      </trkpt>
      <trkpt lat="45.2903" lon="5.7423">
        <ele>1604.6</ele>
        <time>2021-01-26T08:18:53Z</time>
      </trkpt>
      <trkpt lat="45.29032" lon="5.74231">
        <ele>1604.6</ele>
        <time>2021-01-26T08:18:55Z</time>
      </trkpt>
      <trkpt lat="45.29034" lon="5.74232">
        <ele>1604.6</ele>
        <time>2021-01-26T08:18:58Z</time>
      </trkpt>
      <trkpt lat="45.29043" lon="5.74236">
        <ele>1604.6</ele>
        <time>2021-01-26T08:19:07Z</time>
      </trkpt>
      <trkpt lat="45.29044" lon="5.74233">
        <ele>1604.6</ele>
        <time>2021-01-26T08:19:12Z</time>
      </trkpt>
      <trkpt lat="45.29043" lon="5.7423">
        <ele>1604.6</ele>
        <time>2021-01-26T08:19:14Z</time>
      </trkpt>
      <trkpt lat="45.29043" lon="5.74228">
        <ele>1604.6</ele>
        <time>2021-01-26T08:19:16Z</time>
      </trkpt>
      <trkpt lat="45.29042" lon="5.74225">
        <ele>1604.6</ele>
        <time>2021-01-26T08:19:18Z</time>
      </trkpt>
      <trkpt lat="45.2904" lon="5.74222">
        <ele>1604.6</ele>
        <time>2021-01-26T08:19:20Z</time>
      </trkpt>
      <trkpt lat="45.29039" lon="5.74219">
        <ele>1604.6</ele>
        <time>2021-01-26T08:19:22Z</time>
      </trkpt>
      <trkpt lat="45.29036" lon="5.74213">
        <ele>1604.6</ele>
        <time>2021-01-26T08:19:26Z</time>
      </trkpt>
      <trkpt lat="45.29034" lon="5.74211">
        <ele>1604.6</ele>
        <time>2021-01-26T08:19:28Z</time>
      </trkpt>
      <trkpt lat="45.29033" lon="5.74209">
        <ele>1604.6</ele>
        <time>2021-01-26T08:19:30Z</time>
      </trkpt>
      <trkpt lat="45.29032" lon="5.74206">
        <ele>1604.6</ele>
        <time>2021-01-26T08:19:32Z</time>
      </trkpt>
      <trkpt lat="45.2903" lon="5.74204">
        <ele>1604.6</ele>
        <time>2021-01-26T08:19:34Z</time>
      </trkpt>
      <trkpt lat="45.29029" lon="5.74201">
        <ele>1604.6</ele>
        <time>2021-01-26T08:19:36Z</time>
      </trkpt>
      <trkpt lat="45.29027" lon="5.74199">
        <ele>1614.8</ele>
        <time>2021-01-26T08:19:39Z</time>
      </trkpt>
      <trkpt lat="45.29026" lon="5.74197">
        <ele>1614.8</ele>
        <time>2021-01-26T08:19:42Z</time>
      </trkpt>
      <trkpt lat="45.29024" lon="5.74188">
        <ele>1616.6</ele>
        <time>2021-01-26T08:19:49Z</time>
      </trkpt>
      <trkpt lat="45.29023" lon="5.74185">
        <ele>1616.6</ele>
        <time>2021-01-26T08:19:51Z</time>
      </trkpt>
      <trkpt lat="45.29023" lon="5.74181">
        <ele>1616.6</ele>
        <time>2021-01-26T08:19:53Z</time>
      </trkpt>
      <trkpt lat="45.29023" lon="5.74179">
        <ele>1616.6</ele>
        <time>2021-01-26T08:19:55Z</time>
      </trkpt>
      <trkpt lat="45.29022" lon="5.74175">
        <ele>1616.6</ele>
        <time>2021-01-26T08:19:58Z</time>
      </trkpt>
      <trkpt lat="45.29022" lon="5.74172">
        <ele>1616.6</ele>
        <time>2021-01-26T08:20:00Z</time>
      </trkpt>
      <trkpt lat="45.29022" lon="5.74169">
        <ele>1616.6</ele>
        <time>2021-01-26T08:20:02Z</time>
      </trkpt>
      <trkpt lat="45.29021" lon="5.74162">
        <ele>1616.6</ele>
        <time>2021-01-26T08:20:06Z</time>
      </trkpt>
      <trkpt lat="45.2902" lon="5.74158">
        <ele>1616.6</ele>
        <time>2021-01-26T08:20:10Z</time>
      </trkpt>
      <trkpt lat="45.29018" lon="5.74157">
        <ele>1616.6</ele>
        <time>2021-01-26T08:20:13Z</time>
      </trkpt>
      <trkpt lat="45.29018" lon="5.74154">
        <ele>1616.6</ele>
        <time>2021-01-26T08:20:17Z</time>
      </trkpt>
      <trkpt lat="45.29017" lon="5.74151">
        <ele>1616.6</ele>
        <time>2021-01-26T08:20:30Z</time>
      </trkpt>
      <trkpt lat="45.29016" lon="5.74148">
        <ele>1616.6</ele>
        <time>2021-01-26T08:20:33Z</time>
      </trkpt>
      <trkpt lat="45.29016" lon="5.74144">
        <ele>1616.6</ele>
        <time>2021-01-26T08:20:36Z</time>
      </trkpt>
      <trkpt lat="45.29015" lon="5.74141">
        <ele>1616.6</ele>
        <time>2021-01-26T08:20:42Z</time>
      </trkpt>
      <trkpt lat="45.29014" lon="5.7414">
        <ele>1616.6</ele>
        <time>2021-01-26T08:20:53Z</time>
      </trkpt>
      <trkpt lat="45.29013" lon="5.74137">
        <ele>1616.6</ele>
        <time>2021-01-26T08:20:57Z</time>
      </trkpt>
      <trkpt lat="45.29011" lon="5.74134">
        <ele>1616.6</ele>
        <time>2021-01-26T08:21:01Z</time>
      </trkpt>
      <trkpt lat="45.2901" lon="5.74131">
        <ele>1616.6</ele>
        <time>2021-01-26T08:21:03Z</time>
      </trkpt>
      <trkpt lat="45.29009" lon="5.74128">
        <ele>1616.6</ele>
        <time>2021-01-26T08:21:05Z</time>
      </trkpt>
      <trkpt lat="45.29008" lon="5.74125">
        <ele>1616.6</ele>
        <time>2021-01-26T08:21:08Z</time>
      </trkpt>
      <trkpt lat="45.29007" lon="5.74122">
        <ele>1616.6</ele>
        <time>2021-01-26T08:21:11Z</time>
      </trkpt>
      <trkpt lat="45.29002" lon="5.74117">
        <ele>1616.6</ele>
        <time>2021-01-26T08:21:23Z</time>
      </trkpt>
      <trkpt lat="45.29001" lon="5.74113">
        <ele>1616.6</ele>
        <time>2021-01-26T08:21:26Z</time>
      </trkpt>
      <trkpt lat="45.29" lon="5.74111">
        <ele>1616.6</ele>
        <time>2021-01-26T08:21:28Z</time>
      </trkpt>
      <trkpt lat="45.28997" lon="5.7411">
        <ele>1616.6</ele>
        <time>2021-01-26T08:21:31Z</time>
      </trkpt>
      <trkpt lat="45.28988" lon="5.74104">
        <ele>1616.6</ele>
        <time>2021-01-26T08:21:41Z</time>
      </trkpt>
      <trkpt lat="45.2898" lon="5.74098">
        <ele>1616.6</ele>
        <time>2021-01-26T08:21:55Z</time>
      </trkpt>
      <trkpt lat="45.28978" lon="5.74096">
        <ele>1616.6</ele>
        <time>2021-01-26T08:21:57Z</time>
      </trkpt>
      <trkpt lat="45.28974" lon="5.74091">
        <ele>1616.6</ele>
        <time>2021-01-26T08:22:02Z</time>
      </trkpt>
      <trkpt lat="45.28973" lon="5.74089">
        <ele>1616.6</ele>
        <time>2021-01-26T08:22:03Z</time>
      </trkpt>
      <trkpt lat="45.28972" lon="5.74086">
        <ele>1616.6</ele>
        <time>2021-01-26T08:22:06Z</time>
      </trkpt>
      <trkpt lat="45.28973" lon="5.74081">
        <ele>1640.6</ele>
        <time>2021-01-26T08:22:09Z</time>
      </trkpt>
      <trkpt lat="45.28973" lon="5.74078">
        <ele>1640.6</ele>
        <time>2021-01-26T08:22:11Z</time>
      </trkpt>
      <trkpt lat="45.28972" lon="5.74074">
        <ele>1640.6</ele>
        <time>2021-01-26T08:22:14Z</time>
      </trkpt>
      <trkpt lat="45.2897" lon="5.74072">
        <ele>1640.6</ele>
        <time>2021-01-26T08:22:18Z</time>
      </trkpt>
      <trkpt lat="45.28968" lon="5.74071">
        <ele>1640.6</ele>
        <time>2021-01-26T08:22:22Z</time>
      </trkpt>
      <trkpt lat="45.28967" lon="5.74073">
        <ele>1640.6</ele>
        <time>2021-01-26T08:22:26Z</time>
      </trkpt>
      <trkpt lat="45.28966" lon="5.74075">
        <ele>1640.6</ele>
        <time>2021-01-26T08:22:28Z</time>
      </trkpt>
      <trkpt lat="45.28963" lon="5.74075">
        <ele>1640.6</ele>
        <time>2021-01-26T08:22:31Z</time>
      </trkpt>
      <trkpt lat="45.28961" lon="5.74075">
        <ele>1640.6</ele>
        <time>2021-01-26T08:22:33Z</time>
      </trkpt>
      <trkpt lat="45.2896" lon="5.74074">
        <ele>1640.6</ele>
        <time>2021-01-26T08:22:37Z</time>
      </trkpt>
      <trkpt lat="45.28953" lon="5.74065">
        <ele>1640.6</ele>
        <time>2021-01-26T08:22:52Z</time>
      </trkpt>
      <trkpt lat="45.28952" lon="5.74061">
        <ele>1640.6</ele>
        <time>2021-01-26T08:22:54Z</time>
      </trkpt>
      <trkpt lat="45.2895" lon="5.7406">
        <ele>1640.6</ele>
        <time>2021-01-26T08:22:56Z</time>
      </trkpt>
      <trkpt lat="45.28948" lon="5.74061">
        <ele>1640.6</ele>
        <time>2021-01-26T08:23:00Z</time>
      </trkpt>
      <trkpt lat="45.28945" lon="5.74062">
        <ele>1640.6</ele>
        <time>2021-01-26T08:23:05Z</time>
      </trkpt>
      <trkpt lat="45.28943" lon="5.74063">
        <ele>1640.6</ele>
        <time>2021-01-26T08:23:08Z</time>
      </trkpt>
      <trkpt lat="45.28942" lon="5.74064">
        <ele>1640.6</ele>
        <time>2021-01-26T08:23:12Z</time>
      </trkpt>
      <trkpt lat="45.2894" lon="5.74065">
        <ele>1640.6</ele>
        <time>2021-01-26T08:23:30Z</time>
      </trkpt>
      <trkpt lat="45.28938" lon="5.74067">
        <ele>1640.6</ele>
        <time>2021-01-26T08:25:14Z</time>
      </trkpt>
      <trkpt lat="45.28937" lon="5.74068">
        <ele>1640.6</ele>
        <time>2021-01-26T08:25:44Z</time>
      </trkpt>
      <trkpt lat="45.28934" lon="5.74066">
        <ele>1640.6</ele>
        <time>2021-01-26T08:25:47Z</time>
      </trkpt>
      <trkpt lat="45.28932" lon="5.74065">
        <ele>1640.6</ele>
        <time>2021-01-26T08:25:51Z</time>
      </trkpt>
      <trkpt lat="45.28931" lon="5.74064">
        <ele>1640.6</ele>
        <time>2021-01-26T08:25:54Z</time>
      </trkpt>
      <trkpt lat="45.28929" lon="5.74064">
        <ele>1640.6</ele>
        <time>2021-01-26T08:25:57Z</time>
      </trkpt>
      <trkpt lat="45.28923" lon="5.7406">
        <ele>1640.6</ele>
        <time>2021-01-26T08:26:06Z</time>
      </trkpt>
      <trkpt lat="45.2892" lon="5.74059">
        <ele>1640.6</ele>
        <time>2021-01-26T08:26:12Z</time>
      </trkpt>
      <trkpt lat="45.28918" lon="5.74058">
        <ele>1640.6</ele>
        <time>2021-01-26T08:26:16Z</time>
      </trkpt>
      <trkpt lat="45.28914" lon="5.74052">
        <ele>1640.6</ele>
        <time>2021-01-26T08:26:23Z</time>
      </trkpt>
      <trkpt lat="45.28912" lon="5.74051">
        <ele>1640.6</ele>
        <time>2021-01-26T08:26:27Z</time>
      </trkpt>
      <trkpt lat="45.2891" lon="5.7405">
        <ele>1668</ele>
        <time>2021-01-26T08:26:29Z</time>
      </trkpt>
      <trkpt lat="45.28908" lon="5.74049">
        <ele>1668</ele>
        <time>2021-01-26T08:26:32Z</time>
      </trkpt>
      <trkpt lat="45.28906" lon="5.74047">
        <ele>1668</ele>
        <time>2021-01-26T08:26:34Z</time>
      </trkpt>
      <trkpt lat="45.28903" lon="5.74047">
        <ele>1668</ele>
        <time>2021-01-26T08:26:37Z</time>
      </trkpt>
      <trkpt lat="45.28901" lon="5.74046">
        <ele>1668</ele>
        <time>2021-01-26T08:26:40Z</time>
      </trkpt>
      <trkpt lat="45.28899" lon="5.74044">
        <ele>1668</ele>
        <time>2021-01-26T08:26:42Z</time>
      </trkpt>
      <trkpt lat="45.28898" lon="5.74044">
        <ele>1668</ele>
        <time>2021-01-26T08:26:44Z</time>
      </trkpt>
      <trkpt lat="45.28896" lon="5.74043">
        <ele>1668</ele>
        <time>2021-01-26T08:26:46Z</time>
      </trkpt>
      <trkpt lat="45.28894" lon="5.74042">
        <ele>1668</ele>
        <time>2021-01-26T08:26:48Z</time>
      </trkpt>
      <trkpt lat="45.28892" lon="5.74041">
        <ele>1668</ele>
        <time>2021-01-26T08:26:50Z</time>
      </trkpt>
      <trkpt lat="45.28891" lon="5.7404">
        <ele>1668</ele>
        <time>2021-01-26T08:26:52Z</time>
      </trkpt>
      <trkpt lat="45.28888" lon="5.74038">
        <ele>1668</ele>
        <time>2021-01-26T08:26:55Z</time>
      </trkpt>
      <trkpt lat="45.28886" lon="5.74037">
        <ele>1668</ele>
        <time>2021-01-26T08:27:00Z</time>
      </trkpt>
      <trkpt lat="45.28883" lon="5.74033">
        <ele>1668</ele>
        <time>2021-01-26T08:27:03Z</time>
      </trkpt>
      <trkpt lat="45.28881" lon="5.74032">
        <ele>1668</ele>
        <time>2021-01-26T08:27:06Z</time>
      </trkpt>
      <trkpt lat="45.2888" lon="5.7403">
        <ele>1668</ele>
        <time>2021-01-26T08:27:08Z</time>
      </trkpt>
      <trkpt lat="45.28878" lon="5.74028">
        <ele>1668</ele>
        <time>2021-01-26T08:27:10Z</time>
      </trkpt>
      <trkpt lat="45.28876" lon="5.74026">
        <ele>1668</ele>
        <time>2021-01-26T08:27:12Z</time>
      </trkpt>
      <trkpt lat="45.28874" lon="5.74025">
        <ele>1668</ele>
        <time>2021-01-26T08:27:20Z</time>
      </trkpt>
      <trkpt lat="45.28872" lon="5.74023">
        <ele>1668</ele>
        <time>2021-01-26T08:27:22Z</time>
      </trkpt>
      <trkpt lat="45.2887" lon="5.74022">
        <ele>1668</ele>
        <time>2021-01-26T08:27:24Z</time>
      </trkpt>
      <trkpt lat="45.28867" lon="5.7402">
        <ele>1668</ele>
        <time>2021-01-26T08:27:26Z</time>
      </trkpt>
      <trkpt lat="45.28865" lon="5.74019">
        <ele>1668</ele>
        <time>2021-01-26T08:27:28Z</time>
      </trkpt>
      <trkpt lat="45.28863" lon="5.74018">
        <ele>1668</ele>
        <time>2021-01-26T08:27:30Z</time>
      </trkpt>
      <trkpt lat="45.28861" lon="5.74016">
        <ele>1668</ele>
        <time>2021-01-26T08:27:32Z</time>
      </trkpt>
      <trkpt lat="45.28859" lon="5.74014">
        <ele>1668</ele>
        <time>2021-01-26T08:27:35Z</time>
      </trkpt>
      <trkpt lat="45.28857" lon="5.74012">
        <ele>1668</ele>
        <time>2021-01-26T08:27:37Z</time>
      </trkpt>
      <trkpt lat="45.28856" lon="5.7401">
        <ele>1679.6</ele>
        <time>2021-01-26T08:27:39Z</time>
      </trkpt>
      <trkpt lat="45.28854" lon="5.74008">
        <ele>1679.6</ele>
        <time>2021-01-26T08:27:42Z</time>
      </trkpt>
      <trkpt lat="45.28851" lon="5.74006">
        <ele>1679.6</ele>
        <time>2021-01-26T08:27:45Z</time>
      </trkpt>
      <trkpt lat="45.28849" lon="5.74002">
        <ele>1679.6</ele>
        <time>2021-01-26T08:27:48Z</time>
      </trkpt>
      <trkpt lat="45.28847" lon="5.74">
        <ele>1679.6</ele>
        <time>2021-01-26T08:27:51Z</time>
      </trkpt>
      <trkpt lat="45.28846" lon="5.73997">
        <ele>1679.6</ele>
        <time>2021-01-26T08:27:54Z</time>
      </trkpt>
      <trkpt lat="45.28844" lon="5.73995">
        <ele>1679.6</ele>
        <time>2021-01-26T08:27:57Z</time>
      </trkpt>
      <trkpt lat="45.28842" lon="5.73994">
        <ele>1679.6</ele>
        <time>2021-01-26T08:28:06Z</time>
      </trkpt>
      <trkpt lat="45.28841" lon="5.73991">
        <ele>1679.6</ele>
        <time>2021-01-26T08:28:10Z</time>
      </trkpt>
      <trkpt lat="45.2884" lon="5.73988">
        <ele>1679.6</ele>
        <time>2021-01-26T08:28:16Z</time>
      </trkpt>
      <trkpt lat="45.28838" lon="5.73985">
        <ele>1685.2</ele>
        <time>2021-01-26T08:28:19Z</time>
      </trkpt>
      <trkpt lat="45.28838" lon="5.73982">
        <ele>1685.2</ele>
        <time>2021-01-26T08:28:21Z</time>
      </trkpt>
      <trkpt lat="45.28836" lon="5.73979">
        <ele>1685.2</ele>
        <time>2021-01-26T08:28:24Z</time>
      </trkpt>
      <trkpt lat="45.28834" lon="5.73977">
        <ele>1685.2</ele>
        <time>2021-01-26T08:28:26Z</time>
      </trkpt>
      <trkpt lat="45.28833" lon="5.73975">
        <ele>1685.2</ele>
        <time>2021-01-26T08:28:28Z</time>
      </trkpt>
      <trkpt lat="45.28831" lon="5.73974">
        <ele>1685.2</ele>
        <time>2021-01-26T08:28:36Z</time>
      </trkpt>
      <trkpt lat="45.28829" lon="5.73973">
        <ele>1685.2</ele>
        <time>2021-01-26T08:28:38Z</time>
      </trkpt>
      <trkpt lat="45.28828" lon="5.73971">
        <ele>1685.2</ele>
        <time>2021-01-26T08:28:40Z</time>
      </trkpt>
      <trkpt lat="45.28826" lon="5.7397">
        <ele>1685.2</ele>
        <time>2021-01-26T08:28:43Z</time>
      </trkpt>
      <trkpt lat="45.28824" lon="5.73967">
        <ele>1685.2</ele>
        <time>2021-01-26T08:28:46Z</time>
      </trkpt>
      <trkpt lat="45.28823" lon="5.73965">
        <ele>1685.2</ele>
        <time>2021-01-26T08:28:53Z</time>
      </trkpt>
      <trkpt lat="45.28822" lon="5.73963">
        <ele>1685.2</ele>
        <time>2021-01-26T08:28:58Z</time>
      </trkpt>
      <trkpt lat="45.28821" lon="5.73961">
        <ele>1685.2</ele>
        <time>2021-01-26T08:29:01Z</time>
      </trkpt>
      <trkpt lat="45.28819" lon="5.73958">
        <ele>1685.2</ele>
        <time>2021-01-26T08:29:04Z</time>
      </trkpt>
      <trkpt lat="45.28818" lon="5.73954">
        <ele>1685.2</ele>
        <time>2021-01-26T08:29:06Z</time>
      </trkpt>
      <trkpt lat="45.28819" lon="5.73952">
        <ele>1685.2</ele>
        <time>2021-01-26T08:29:10Z</time>
      </trkpt>
      <trkpt lat="45.2882" lon="5.73951">
        <ele>1685.2</ele>
        <time>2021-01-26T08:29:13Z</time>
      </trkpt>
      <trkpt lat="45.28823" lon="5.73952">
        <ele>1685.2</ele>
        <time>2021-01-26T08:29:16Z</time>
      </trkpt>
      <trkpt lat="45.28825" lon="5.73952">
        <ele>1697.2</ele>
        <time>2021-01-26T08:29:19Z</time>
      </trkpt>
      <trkpt lat="45.28827" lon="5.73953">
        <ele>1697.2</ele>
        <time>2021-01-26T08:29:22Z</time>
      </trkpt>
      <trkpt lat="45.28829" lon="5.73953">
        <ele>1697.2</ele>
        <time>2021-01-26T08:29:25Z</time>
      </trkpt>
      <trkpt lat="45.28832" lon="5.73953">
        <ele>1699.4</ele>
        <time>2021-01-26T08:29:29Z</time>
      </trkpt>
      <trkpt lat="45.28834" lon="5.73952">
        <ele>1699.4</ele>
        <time>2021-01-26T08:29:33Z</time>
      </trkpt>
      <trkpt lat="45.28836" lon="5.73954">
        <ele>1699.4</ele>
        <time>2021-01-26T08:29:35Z</time>
      </trkpt>
      <trkpt lat="45.28838" lon="5.73954">
        <ele>1699.4</ele>
        <time>2021-01-26T08:29:37Z</time>
      </trkpt>
      <trkpt lat="45.28841" lon="5.73954">
        <ele>1699.4</ele>
        <time>2021-01-26T08:29:40Z</time>
      </trkpt>
      <trkpt lat="45.28843" lon="5.73953">
        <ele>1699.4</ele>
        <time>2021-01-26T08:29:43Z</time>
      </trkpt>
      <trkpt lat="45.28845" lon="5.73952">
        <ele>1699.4</ele>
        <time>2021-01-26T08:29:46Z</time>
      </trkpt>
      <trkpt lat="45.28847" lon="5.73952">
        <ele>1699.4</ele>
        <time>2021-01-26T08:29:48Z</time>
      </trkpt>
      <trkpt lat="45.2885" lon="5.73953">
        <ele>1699.4</ele>
        <time>2021-01-26T08:29:51Z</time>
      </trkpt>
      <trkpt lat="45.28852" lon="5.73955">
        <ele>1699.4</ele>
        <time>2021-01-26T08:29:57Z</time>
      </trkpt>
      <trkpt lat="45.28854" lon="5.73955">
        <ele>1706</ele>
        <time>2021-01-26T08:29:59Z</time>
      </trkpt>
      <trkpt lat="45.28856" lon="5.73955">
        <ele>1706</ele>
        <time>2021-01-26T08:30:02Z</time>
      </trkpt>
      <trkpt lat="45.28858" lon="5.73956">
        <ele>1706</ele>
        <time>2021-01-26T08:30:05Z</time>
      </trkpt>
      <trkpt lat="45.2886" lon="5.73957">
        <ele>1707.6</ele>
        <time>2021-01-26T08:30:09Z</time>
      </trkpt>
      <trkpt lat="45.28862" lon="5.73956">
        <ele>1707.6</ele>
        <time>2021-01-26T08:30:12Z</time>
      </trkpt>
      <trkpt lat="45.28865" lon="5.73957">
        <ele>1707.6</ele>
        <time>2021-01-26T08:30:15Z</time>
      </trkpt>
      <trkpt lat="45.28867" lon="5.73957">
        <ele>1707.6</ele>
        <time>2021-01-26T08:30:17Z</time>
      </trkpt>
      <trkpt lat="45.28868" lon="5.73957">
        <ele>1707.6</ele>
        <time>2021-01-26T08:30:20Z</time>
      </trkpt>
      <trkpt lat="45.2887" lon="5.73956">
        <ele>1707.6</ele>
        <time>2021-01-26T08:30:22Z</time>
      </trkpt>
      <trkpt lat="45.28872" lon="5.73956">
        <ele>1707.6</ele>
        <time>2021-01-26T08:30:25Z</time>
      </trkpt>
      <trkpt lat="45.28875" lon="5.73956">
        <ele>1712.4</ele>
        <time>2021-01-26T08:30:29Z</time>
      </trkpt>
      <trkpt lat="45.28877" lon="5.73956">
        <ele>1712.4</ele>
        <time>2021-01-26T08:30:35Z</time>
      </trkpt>
      <trkpt lat="45.28879" lon="5.73955">
        <ele>1715.2</ele>
        <time>2021-01-26T08:30:49Z</time>
      </trkpt>
      <trkpt lat="45.2888" lon="5.73952">
        <ele>1716</ele>
        <time>2021-01-26T08:30:59Z</time>
      </trkpt>
      <trkpt lat="45.2888" lon="5.7395">
        <ele>1716</ele>
        <time>2021-01-26T08:31:02Z</time>
      </trkpt>
      <trkpt lat="45.28882" lon="5.73945">
        <ele>1717.8</ele>
        <time>2021-01-26T08:31:09Z</time>
      </trkpt>
      <trkpt lat="45.28884" lon="5.73948">
        <ele>1717.8</ele>
        <time>2021-01-26T08:31:18Z</time>
      </trkpt>
      <trkpt lat="45.28883" lon="5.73945">
        <ele>1718.4</ele>
        <time>2021-01-26T08:31:29Z</time>
      </trkpt>
      <trkpt lat="45.2888" lon="5.73945">
        <ele>1718.4</ele>
        <time>2021-01-26T08:31:52Z</time>
      </trkpt>
      <trkpt lat="45.28879" lon="5.73947">
        <ele>1718.4</ele>
        <time>2021-01-26T08:32:17Z</time>
      </trkpt>
      <trkpt lat="45.28879" lon="5.7395">
        <ele>1718.4</ele>
        <time>2021-01-26T08:34:05Z</time>
      </trkpt>
      <trkpt lat="45.28879" lon="5.73947">
        <ele>1718.4</ele>
        <time>2021-01-26T08:34:50Z</time>
      </trkpt>
      <trkpt lat="45.28878" lon="5.73946">
        <ele>1718.4</ele>
        <time>2021-01-26T08:35:02Z</time>
      </trkpt>
      <trkpt lat="45.28879" lon="5.73948">
        <ele>1718.4</ele>
        <time>2021-01-26T08:35:44Z</time>
      </trkpt>
      <trkpt lat="45.28879" lon="5.73943">
        <ele>1718.4</ele>
        <time>2021-01-26T08:37:02Z</time>
      </trkpt>
      <trkpt lat="45.28141" lon="5.74636">
        <ele>1718.4</ele>
        <time>2021-01-26T08:56:11Z</time>
      </trkpt>
      <trkpt lat="45.2814" lon="5.74634">
        <ele>1718.4</ele>
        <time>2021-01-26T08:56:15Z</time>
      </trkpt>
      <trkpt lat="45.28135" lon="5.74622">
        <ele>1718.4</ele>
        <time>2021-01-26T08:56:28Z</time>
      </trkpt>
      <trkpt lat="45.2813" lon="5.74616">
        <ele>1718.4</ele>
        <time>2021-01-26T08:56:33Z</time>
      </trkpt>
      <trkpt lat="45.28128" lon="5.74613">
        <ele>1718.4</ele>
        <time>2021-01-26T08:56:37Z</time>
      </trkpt>
      <trkpt lat="45.28123" lon="5.74602">
        <ele>1718.4</ele>
        <time>2021-01-26T08:56:48Z</time>
      </trkpt>
      <trkpt lat="45.28123" lon="5.74599">
        <ele>1718.4</ele>
        <time>2021-01-26T08:56:53Z</time>
      </trkpt>
      <trkpt lat="45.28123" lon="5.74595">
        <ele>1718.4</ele>
        <time>2021-01-26T08:56:55Z</time>
      </trkpt>
      <trkpt lat="45.28123" lon="5.74593">
        <ele>1718.4</ele>
        <time>2021-01-26T08:56:57Z</time>
      </trkpt>
      <trkpt lat="45.28123" lon="5.7459">
        <ele>1718.4</ele>
        <time>2021-01-26T08:56:59Z</time>
      </trkpt>
      <trkpt lat="45.28123" lon="5.74587">
        <ele>1718.4</ele>
        <time>2021-01-26T08:57:01Z</time>
      </trkpt>
      <trkpt lat="45.28125" lon="5.74584">
        <ele>1718.4</ele>
        <time>2021-01-26T08:57:04Z</time>
      </trkpt>
      <trkpt lat="45.28125" lon="5.74581">
        <ele>1718.4</ele>
        <time>2021-01-26T08:57:06Z</time>
      </trkpt>
      <trkpt lat="45.28126" lon="5.74578">
        <ele>1718.4</ele>
        <time>2021-01-26T08:57:09Z</time>
      </trkpt>
      <trkpt lat="45.2813" lon="5.74566">
        <ele>1286.8</ele>
        <time>2021-01-26T08:57:20Z</time>
      </trkpt>
      <trkpt lat="45.28132" lon="5.74554">
        <ele>1286.8</ele>
        <time>2021-01-26T08:57:32Z</time>
      </trkpt>
      <trkpt lat="45.28137" lon="5.74542">
        <ele>1286.8</ele>
        <time>2021-01-26T08:57:49Z</time>
      </trkpt>
      <trkpt lat="45.28146" lon="5.74535">
        <ele>1296.8</ele>
        <time>2021-01-26T08:58:00Z</time>
      </trkpt>
      <trkpt lat="45.28151" lon="5.74524">
        <ele>1296.8</ele>
        <time>2021-01-26T08:58:15Z</time>
      </trkpt>
      <trkpt lat="45.28156" lon="5.74512">
        <ele>1296.8</ele>
        <time>2021-01-26T08:58:29Z</time>
      </trkpt>
      <trkpt lat="45.2816" lon="5.74508">
        <ele>1296.8</ele>
        <time>2021-01-26T08:58:38Z</time>
      </trkpt>
      <trkpt lat="45.28167" lon="5.74499">
        <ele>1308.4</ele>
        <time>2021-01-26T08:58:50Z</time>
      </trkpt>
      <trkpt lat="45.28172" lon="5.74488">
        <ele>1308.4</ele>
        <time>2021-01-26T08:59:04Z</time>
      </trkpt>
      <trkpt lat="45.28179" lon="5.7448">
        <ele>1308.4</ele>
        <time>2021-01-26T08:59:18Z</time>
      </trkpt>
      <trkpt lat="45.28185" lon="5.7447">
        <ele>1315.6</ele>
        <time>2021-01-26T08:59:30Z</time>
      </trkpt>
      <trkpt lat="45.28193" lon="5.74462">
        <ele>1315.6</ele>
        <time>2021-01-26T08:59:44Z</time>
      </trkpt>
      <trkpt lat="45.28203" lon="5.74459">
        <ele>1315.6</ele>
        <time>2021-01-26T08:59:56Z</time>
      </trkpt>
      <trkpt lat="45.28209" lon="5.7446">
        <ele>1315.6</ele>
        <time>2021-01-26T09:00:02Z</time>
      </trkpt>
      <trkpt lat="45.28216" lon="5.74465">
        <ele>1315.6</ele>
        <time>2021-01-26T09:00:12Z</time>
      </trkpt>
      <trkpt lat="45.28226" lon="5.74466">
        <ele>1315.6</ele>
        <time>2021-01-26T09:00:25Z</time>
      </trkpt>
      <trkpt lat="45.28235" lon="5.74466">
        <ele>1315.6</ele>
        <time>2021-01-26T09:00:43Z</time>
      </trkpt>
      <trkpt lat="45.28244" lon="5.74465">
        <ele>1315.6</ele>
        <time>2021-01-26T09:00:58Z</time>
      </trkpt>
      <trkpt lat="45.28253" lon="5.74465">
        <ele>1315.6</ele>
        <time>2021-01-26T09:01:14Z</time>
      </trkpt>
      <trkpt lat="45.28262" lon="5.74462">
        <ele>1315.6</ele>
        <time>2021-01-26T09:01:25Z</time>
      </trkpt>
      <trkpt lat="45.28271" lon="5.74461">
        <ele>1315.6</ele>
        <time>2021-01-26T09:01:38Z</time>
      </trkpt>
      <trkpt lat="45.28281" lon="5.74461">
        <ele>1315.6</ele>
        <time>2021-01-26T09:01:51Z</time>
      </trkpt>
      <trkpt lat="45.28288" lon="5.7446">
        <ele>1353.8</ele>
        <time>2021-01-26T09:02:00Z</time>
      </trkpt>
      <trkpt lat="45.28291" lon="5.74461">
        <ele>1353.8</ele>
        <time>2021-01-26T09:02:02Z</time>
      </trkpt>
      <trkpt lat="45.28299" lon="5.74467">
        <ele>1353.8</ele>
        <time>2021-01-26T09:02:36Z</time>
      </trkpt>
      <trkpt lat="45.28309" lon="5.74465">
        <ele>1353.8</ele>
        <time>2021-01-26T09:02:47Z</time>
      </trkpt>
      <trkpt lat="45.28318" lon="5.74463">
        <ele>1353.8</ele>
        <time>2021-01-26T09:02:57Z</time>
      </trkpt>
      <trkpt lat="45.28327" lon="5.74456">
        <ele>1353.8</ele>
        <time>2021-01-26T09:03:09Z</time>
      </trkpt>
      <trkpt lat="45.28328" lon="5.74453">
        <ele>1353.8</ele>
        <time>2021-01-26T09:03:17Z</time>
      </trkpt>
      <trkpt lat="45.28329" lon="5.74451">
        <ele>1353.8</ele>
        <time>2021-01-26T09:03:19Z</time>
      </trkpt>
      <trkpt lat="45.28335" lon="5.74441">
        <ele>1353.8</ele>
        <time>2021-01-26T09:03:28Z</time>
      </trkpt>
      <trkpt lat="45.28341" lon="5.74431">
        <ele>1353.8</ele>
        <time>2021-01-26T09:04:15Z</time>
      </trkpt>
      <trkpt lat="45.28344" lon="5.74419">
        <ele>1353.8</ele>
        <time>2021-01-26T09:04:47Z</time>
      </trkpt>
      <trkpt lat="45.28348" lon="5.74407">
        <ele>1380</ele>
        <time>2021-01-26T09:05:00Z</time>
      </trkpt>
      <trkpt lat="45.28348" lon="5.74394">
        <ele>1380</ele>
        <time>2021-01-26T09:05:13Z</time>
      </trkpt>
      <trkpt lat="45.2835" lon="5.74381">
        <ele>1380</ele>
        <time>2021-01-26T09:05:24Z</time>
      </trkpt>
      <trkpt lat="45.28353" lon="5.74368">
        <ele>1380</ele>
        <time>2021-01-26T09:05:33Z</time>
      </trkpt>
      <trkpt lat="45.28356" lon="5.74356">
        <ele>1380</ele>
        <time>2021-01-26T09:05:45Z</time>
      </trkpt>
      <trkpt lat="45.28354" lon="5.74342">
        <ele>1380</ele>
        <time>2021-01-26T09:06:02Z</time>
      </trkpt>
      <trkpt lat="45.28354" lon="5.74329">
        <ele>1380</ele>
        <time>2021-01-26T09:06:13Z</time>
      </trkpt>
      <trkpt lat="45.28361" lon="5.74321">
        <ele>1380</ele>
        <time>2021-01-26T09:06:21Z</time>
      </trkpt>
      <trkpt lat="45.28364" lon="5.74321">
        <ele>1400.6</ele>
        <time>2021-01-26T09:06:30Z</time>
      </trkpt>
      <trkpt lat="45.28365" lon="5.74319">
        <ele>1400.6</ele>
        <time>2021-01-26T09:06:34Z</time>
      </trkpt>
      <trkpt lat="45.28366" lon="5.74316">
        <ele>1401.4</ele>
        <time>2021-01-26T09:06:40Z</time>
      </trkpt>
      <trkpt lat="45.28374" lon="5.7431">
        <ele>1401.4</ele>
        <time>2021-01-26T09:06:53Z</time>
      </trkpt>
      <trkpt lat="45.28383" lon="5.74305">
        <ele>1401.4</ele>
        <time>2021-01-26T09:07:03Z</time>
      </trkpt>
      <trkpt lat="45.28391" lon="5.74298">
        <ele>1401.4</ele>
        <time>2021-01-26T09:07:13Z</time>
      </trkpt>
      <trkpt lat="45.28401" lon="5.74297">
        <ele>1401.4</ele>
        <time>2021-01-26T09:07:27Z</time>
      </trkpt>
      <trkpt lat="45.28409" lon="5.74302">
        <ele>1401.4</ele>
        <time>2021-01-26T09:07:36Z</time>
      </trkpt>
      <trkpt lat="45.28418" lon="5.74305">
        <ele>1401.4</ele>
        <time>2021-01-26T09:07:45Z</time>
      </trkpt>
      <trkpt lat="45.28428" lon="5.74309">
        <ele>1401.4</ele>
        <time>2021-01-26T09:07:57Z</time>
      </trkpt>
      <trkpt lat="45.28433" lon="5.7431">
        <ele>1401.4</ele>
        <time>2021-01-26T09:08:02Z</time>
      </trkpt>
      <trkpt lat="45.28442" lon="5.74314">
        <ele>1401.4</ele>
        <time>2021-01-26T09:08:11Z</time>
      </trkpt>
      <trkpt lat="45.2845" lon="5.74309">
        <ele>1401.4</ele>
        <time>2021-01-26T09:08:26Z</time>
      </trkpt>
      <trkpt lat="45.28459" lon="5.74311">
        <ele>1401.4</ele>
        <time>2021-01-26T09:08:34Z</time>
      </trkpt>
      <trkpt lat="45.28468" lon="5.74309">
        <ele>1401.4</ele>
        <time>2021-01-26T09:08:47Z</time>
      </trkpt>
      <trkpt lat="45.28477" lon="5.74314">
        <ele>1401.4</ele>
        <time>2021-01-26T09:09:09Z</time>
      </trkpt>
      <trkpt lat="45.28486" lon="5.74316">
        <ele>1440.6</ele>
        <time>2021-01-26T09:09:20Z</time>
      </trkpt>
      <trkpt lat="45.28495" lon="5.7432">
        <ele>1440.6</ele>
        <time>2021-01-26T09:09:34Z</time>
      </trkpt>
      <trkpt lat="45.28503" lon="5.74326">
        <ele>1440.6</ele>
        <time>2021-01-26T09:09:46Z</time>
      </trkpt>
      <trkpt lat="45.28512" lon="5.74325">
        <ele>1440.6</ele>
        <time>2021-01-26T09:10:06Z</time>
      </trkpt>
      <trkpt lat="45.28519" lon="5.74318">
        <ele>1440.6</ele>
        <time>2021-01-26T09:10:23Z</time>
      </trkpt>
      <trkpt lat="45.28522" lon="5.74315">
        <ele>1440.6</ele>
        <time>2021-01-26T09:10:28Z</time>
      </trkpt>
      <trkpt lat="45.28523" lon="5.74312">
        <ele>1440.6</ele>
        <time>2021-01-26T09:10:32Z</time>
      </trkpt>
      <trkpt lat="45.28531" lon="5.74305">
        <ele>1440.6</ele>
        <time>2021-01-26T09:10:47Z</time>
      </trkpt>
      <trkpt lat="45.2854" lon="5.743">
        <ele>1440.6</ele>
        <time>2021-01-26T09:11:05Z</time>
      </trkpt>
      <trkpt lat="45.28549" lon="5.74298">
        <ele>1440.6</ele>
        <time>2021-01-26T09:11:18Z</time>
      </trkpt>
      <trkpt lat="45.28558" lon="5.74302">
        <ele>1440.6</ele>
        <time>2021-01-26T09:11:28Z</time>
      </trkpt>
      <trkpt lat="45.28568" lon="5.74304">
        <ele>1440.6</ele>
        <time>2021-01-26T09:11:39Z</time>
      </trkpt>
      <trkpt lat="45.28578" lon="5.74304">
        <ele>1475.8</ele>
        <time>2021-01-26T09:12:00Z</time>
      </trkpt>
      <trkpt lat="45.28587" lon="5.74302">
        <ele>1475.8</ele>
        <time>2021-01-26T09:12:12Z</time>
      </trkpt>
      <trkpt lat="45.28596" lon="5.74304">
        <ele>1475.8</ele>
        <time>2021-01-26T09:12:22Z</time>
      </trkpt>
      <trkpt lat="45.28605" lon="5.74308">
        <ele>1475.8</ele>
        <time>2021-01-26T09:12:33Z</time>
      </trkpt>
      <trkpt lat="45.28615" lon="5.74311">
        <ele>1475.8</ele>
        <time>2021-01-26T09:12:48Z</time>
      </trkpt>
      <trkpt lat="45.28624" lon="5.74309">
        <ele>1475.8</ele>
        <time>2021-01-26T09:13:09Z</time>
      </trkpt>
      <trkpt lat="45.28629" lon="5.74311">
        <ele>1475.8</ele>
        <time>2021-01-26T09:13:22Z</time>
      </trkpt>
      <trkpt lat="45.28638" lon="5.74306">
        <ele>1475.8</ele>
        <time>2021-01-26T09:13:38Z</time>
      </trkpt>
      <trkpt lat="45.28647" lon="5.74301">
        <ele>1475.8</ele>
        <time>2021-01-26T09:13:54Z</time>
      </trkpt>
      <trkpt lat="45.28656" lon="5.74301">
        <ele>1475.8</ele>
        <time>2021-01-26T09:14:07Z</time>
      </trkpt>
      <trkpt lat="45.28664" lon="5.74295">
        <ele>1475.8</ele>
        <time>2021-01-26T09:14:19Z</time>
      </trkpt>
      <trkpt lat="45.28673" lon="5.74291">
        <ele>1509.4</ele>
        <time>2021-01-26T09:14:40Z</time>
      </trkpt>
      <trkpt lat="45.28682" lon="5.74287">
        <ele>1509.4</ele>
        <time>2021-01-26T09:14:54Z</time>
      </trkpt>
      <trkpt lat="45.28691" lon="5.74283">
        <ele>1509.4</ele>
        <time>2021-01-26T09:15:07Z</time>
      </trkpt>
      <trkpt lat="45.28699" lon="5.74276">
        <ele>1509.4</ele>
        <time>2021-01-26T09:15:27Z</time>
      </trkpt>
      <trkpt lat="45.28708" lon="5.74275">
        <ele>1509.4</ele>
        <time>2021-01-26T09:15:37Z</time>
      </trkpt>
      <trkpt lat="45.28717" lon="5.74273">
        <ele>1509.4</ele>
        <time>2021-01-26T09:15:48Z</time>
      </trkpt>
      <trkpt lat="45.28727" lon="5.74268">
        <ele>1509.4</ele>
        <time>2021-01-26T09:16:05Z</time>
      </trkpt>
      <trkpt lat="45.28736" lon="5.74266">
        <ele>1509.4</ele>
        <time>2021-01-26T09:16:19Z</time>
      </trkpt>
      <trkpt lat="45.28745" lon="5.74264">
        <ele>1509.4</ele>
        <time>2021-01-26T09:16:33Z</time>
      </trkpt>
      <trkpt lat="45.28754" lon="5.74261">
        <ele>1509.4</ele>
        <time>2021-01-26T09:16:45Z</time>
      </trkpt>
      <trkpt lat="45.28763" lon="5.74259">
        <ele>1509.4</ele>
        <time>2021-01-26T09:17:02Z</time>
      </trkpt>
      <trkpt lat="45.28772" lon="5.74258">
        <ele>1509.4</ele>
        <time>2021-01-26T09:17:15Z</time>
      </trkpt>
      <trkpt lat="45.28782" lon="5.74259">
        <ele>1509.4</ele>
        <time>2021-01-26T09:17:26Z</time>
      </trkpt>
      <trkpt lat="45.28791" lon="5.74256">
        <ele>1509.4</ele>
        <time>2021-01-26T09:17:42Z</time>
      </trkpt>
      <trkpt lat="45.28799" lon="5.74251">
        <ele>1509.4</ele>
        <time>2021-01-26T09:18:04Z</time>
      </trkpt>
      <trkpt lat="45.28807" lon="5.74246">
        <ele>1509.4</ele>
        <time>2021-01-26T09:18:22Z</time>
      </trkpt>
      <trkpt lat="45.28809" lon="5.74248">
        <ele>1509.4</ele>
        <time>2021-01-26T09:18:26Z</time>
      </trkpt>
      <trkpt lat="45.28811" lon="5.74245">
        <ele>1559</ele>
        <time>2021-01-26T09:18:40Z</time>
      </trkpt>
      <trkpt lat="45.28811" lon="5.74243">
        <ele>1559</ele>
        <time>2021-01-26T09:18:46Z</time>
      </trkpt>
      <trkpt lat="45.28812" lon="5.7423">
        <ele>1559</ele>
        <time>2021-01-26T09:19:03Z</time>
      </trkpt>
      <trkpt lat="45.28822" lon="5.74231">
        <ele>1559</ele>
        <time>2021-01-26T09:19:13Z</time>
      </trkpt>
      <trkpt lat="45.2883" lon="5.74226">
        <ele>1559</ele>
        <time>2021-01-26T09:19:21Z</time>
      </trkpt>
      <trkpt lat="45.28839" lon="5.74223">
        <ele>1559</ele>
        <time>2021-01-26T09:19:38Z</time>
      </trkpt>
      <trkpt lat="45.28848" lon="5.74221">
        <ele>1559</ele>
        <time>2021-01-26T09:19:49Z</time>
      </trkpt>
      <trkpt lat="45.28859" lon="5.74222">
        <ele>1559</ele>
        <time>2021-01-26T09:20:04Z</time>
      </trkpt>
      <trkpt lat="45.28868" lon="5.7422">
        <ele>1559</ele>
        <time>2021-01-26T09:20:13Z</time>
      </trkpt>
      <trkpt lat="45.28878" lon="5.74223">
        <ele>1559</ele>
        <time>2021-01-26T09:20:22Z</time>
      </trkpt>
      <trkpt lat="45.28888" lon="5.74223">
        <ele>1559</ele>
        <time>2021-01-26T09:20:34Z</time>
      </trkpt>
      <trkpt lat="45.28897" lon="5.74218">
        <ele>1559</ele>
        <time>2021-01-26T09:20:44Z</time>
      </trkpt>
      <trkpt lat="45.28906" lon="5.74222">
        <ele>1559</ele>
        <time>2021-01-26T09:20:51Z</time>
      </trkpt>
      <trkpt lat="45.28915" lon="5.74222">
        <ele>1559</ele>
        <time>2021-01-26T09:21:05Z</time>
      </trkpt>
      <trkpt lat="45.28924" lon="5.74217">
        <ele>1559</ele>
        <time>2021-01-26T09:21:13Z</time>
      </trkpt>
      <trkpt lat="45.28933" lon="5.74215">
        <ele>1582.6</ele>
        <time>2021-01-26T09:21:20Z</time>
      </trkpt>
      <trkpt lat="45.28943" lon="5.74212">
        <ele>1584.4</ele>
        <time>2021-01-26T09:21:30Z</time>
      </trkpt>
      <trkpt lat="45.28951" lon="5.74207">
        <ele>1584.4</ele>
        <time>2021-01-26T09:21:38Z</time>
      </trkpt>
      <trkpt lat="45.28959" lon="5.74199">
        <ele>1584.4</ele>
        <time>2021-01-26T09:21:47Z</time>
      </trkpt>
      <trkpt lat="45.28969" lon="5.74198">
        <ele>1584.4</ele>
        <time>2021-01-26T09:21:58Z</time>
      </trkpt>
      <trkpt lat="45.28977" lon="5.74204">
        <ele>1584.4</ele>
        <time>2021-01-26T09:22:05Z</time>
      </trkpt>
      <trkpt lat="45.28986" lon="5.74212">
        <ele>1584.4</ele>
        <time>2021-01-26T09:22:11Z</time>
      </trkpt>
      <trkpt lat="45.28995" lon="5.7421">
        <ele>1584.4</ele>
        <time>2021-01-26T09:22:23Z</time>
      </trkpt>
      <trkpt lat="45.29004" lon="5.74211">
        <ele>1584.4</ele>
        <time>2021-01-26T09:22:38Z</time>
      </trkpt>
      <trkpt lat="45.29012" lon="5.74218">
        <ele>1584.4</ele>
        <time>2021-01-26T09:22:44Z</time>
      </trkpt>
      <trkpt lat="45.29018" lon="5.74228">
        <ele>1602.4</ele>
        <time>2021-01-26T09:22:50Z</time>
      </trkpt>
      <trkpt lat="45.29028" lon="5.74229">
        <ele>1604.6</ele>
        <time>2021-01-26T09:23:00Z</time>
      </trkpt>
      <trkpt lat="45.29036" lon="5.74236">
        <ele>1604.6</ele>
        <time>2021-01-26T09:23:11Z</time>
      </trkpt>
      <trkpt lat="45.29035" lon="5.74223">
        <ele>1604.6</ele>
        <time>2021-01-26T09:23:26Z</time>
      </trkpt>
      <trkpt lat="45.29029" lon="5.74214">
        <ele>1604.6</ele>
        <time>2021-01-26T09:23:36Z</time>
      </trkpt>
      <trkpt lat="45.29023" lon="5.74203">
        <ele>1604.6</ele>
        <time>2021-01-26T09:23:46Z</time>
      </trkpt>
      <trkpt lat="45.29019" lon="5.74191">
        <ele>1604.6</ele>
        <time>2021-01-26T09:23:55Z</time>
      </trkpt>
      <trkpt lat="45.29013" lon="5.7418">
        <ele>1604.6</ele>
        <time>2021-01-26T09:24:01Z</time>
      </trkpt>
      <trkpt lat="45.29012" lon="5.74166">
        <ele>1604.6</ele>
        <time>2021-01-26T09:24:09Z</time>
      </trkpt>
      <trkpt lat="45.2901" lon="5.74152">
        <ele>1620.2</ele>
        <time>2021-01-26T09:24:20Z</time>
      </trkpt>
      <trkpt lat="45.29008" lon="5.74139">
        <ele>1620.2</ele>
        <time>2021-01-26T09:24:33Z</time>
      </trkpt>
      <trkpt lat="45.29004" lon="5.74127">
        <ele>1620.2</ele>
        <time>2021-01-26T09:24:42Z</time>
      </trkpt>
      <trkpt lat="45.28997" lon="5.74118">
        <ele>1620.2</ele>
        <time>2021-01-26T09:24:58Z</time>
      </trkpt>
      <trkpt lat="45.28993" lon="5.74113">
        <ele>1620.2</ele>
        <time>2021-01-26T09:25:05Z</time>
      </trkpt>
      <trkpt lat="45.28985" lon="5.74106">
        <ele>1620.2</ele>
        <time>2021-01-26T09:25:17Z</time>
      </trkpt>
      <trkpt lat="45.28977" lon="5.74098">
        <ele>1620.2</ele>
        <time>2021-01-26T09:25:26Z</time>
      </trkpt>
      <trkpt lat="45.28972" lon="5.74096">
        <ele>1620.2</ele>
        <time>2021-01-26T09:25:34Z</time>
      </trkpt>
      <trkpt lat="45.28967" lon="5.74083">
        <ele>1620.2</ele>
        <time>2021-01-26T09:25:45Z</time>
      </trkpt>
      <trkpt lat="45.28966" lon="5.74073">
        <ele>1620.2</ele>
        <time>2021-01-26T09:25:51Z</time>
      </trkpt>
      <trkpt lat="45.28965" lon="5.7407">
        <ele>1620.2</ele>
        <time>2021-01-26T09:25:54Z</time>
      </trkpt>
      <trkpt lat="45.28963" lon="5.74071">
        <ele>1620.2</ele>
        <time>2021-01-26T09:26:02Z</time>
      </trkpt>
      <trkpt lat="45.28961" lon="5.74072">
        <ele>1620.2</ele>
        <time>2021-01-26T09:26:04Z</time>
      </trkpt>
      <trkpt lat="45.2896" lon="5.74074">
        <ele>1620.2</ele>
        <time>2021-01-26T09:26:07Z</time>
      </trkpt>
      <trkpt lat="45.28957" lon="5.74074">
        <ele>1643.8</ele>
        <time>2021-01-26T09:26:10Z</time>
      </trkpt>
      <trkpt lat="45.28955" lon="5.74074">
        <ele>1643.8</ele>
        <time>2021-01-26T09:26:12Z</time>
      </trkpt>
      <trkpt lat="45.28949" lon="5.74064">
        <ele>1649.6</ele>
        <time>2021-01-26T09:26:30Z</time>
      </trkpt>
      <trkpt lat="45.28948" lon="5.74059">
        <ele>1649.6</ele>
        <time>2021-01-26T09:26:35Z</time>
      </trkpt>
      <trkpt lat="45.28946" lon="5.74059">
        <ele>1649.6</ele>
        <time>2021-01-26T09:26:38Z</time>
      </trkpt>
      <trkpt lat="45.28944" lon="5.74061">
        <ele>1649.6</ele>
        <time>2021-01-26T09:26:42Z</time>
      </trkpt>
      <trkpt lat="45.28943" lon="5.74063">
        <ele>1649.6</ele>
        <time>2021-01-26T09:26:45Z</time>
      </trkpt>
      <trkpt lat="45.2894" lon="5.74064">
        <ele>1649.6</ele>
        <time>2021-01-26T09:26:48Z</time>
      </trkpt>
      <trkpt lat="45.28938" lon="5.74066">
        <ele>1649.6</ele>
        <time>2021-01-26T09:26:51Z</time>
      </trkpt>
      <trkpt lat="45.28937" lon="5.74068">
        <ele>1649.6</ele>
        <time>2021-01-26T09:26:54Z</time>
      </trkpt>
      <trkpt lat="45.28935" lon="5.74068">
        <ele>1649.6</ele>
        <time>2021-01-26T09:26:57Z</time>
      </trkpt>
      <trkpt lat="45.28932" lon="5.74068">
        <ele>1656.6</ele>
        <time>2021-01-26T09:27:00Z</time>
      </trkpt>
      <trkpt lat="45.2893" lon="5.74066">
        <ele>1656.6</ele>
        <time>2021-01-26T09:27:04Z</time>
      </trkpt>
      <trkpt lat="45.28928" lon="5.74065">
        <ele>1656.6</ele>
        <time>2021-01-26T09:27:07Z</time>
      </trkpt>
      <trkpt lat="45.28926" lon="5.74064">
        <ele>1656.6</ele>
        <time>2021-01-26T09:27:13Z</time>
      </trkpt>
      <trkpt lat="45.28925" lon="5.74063">
        <ele>1656.6</ele>
        <time>2021-01-26T09:27:24Z</time>
      </trkpt>
      <trkpt lat="45.28923" lon="5.74061">
        <ele>1656.6</ele>
        <time>2021-01-26T09:27:27Z</time>
      </trkpt>
      <trkpt lat="45.2892" lon="5.74061">
        <ele>1656.6</ele>
        <time>2021-01-26T09:27:29Z</time>
      </trkpt>
      <trkpt lat="45.28918" lon="5.74061">
        <ele>1656.6</ele>
        <time>2021-01-26T09:27:31Z</time>
      </trkpt>
      <trkpt lat="45.28915" lon="5.74059">
        <ele>1656.6</ele>
        <time>2021-01-26T09:27:35Z</time>
      </trkpt>
      <trkpt lat="45.28913" lon="5.74057">
        <ele>1656.6</ele>
        <time>2021-01-26T09:27:38Z</time>
      </trkpt>
      <trkpt lat="45.28908" lon="5.74052">
        <ele>1656.6</ele>
        <time>2021-01-26T09:27:45Z</time>
      </trkpt>
      <trkpt lat="45.28907" lon="5.7405">
        <ele>1656.6</ele>
        <time>2021-01-26T09:27:48Z</time>
      </trkpt>
      <trkpt lat="45.28904" lon="5.74049">
        <ele>1656.6</ele>
        <time>2021-01-26T09:27:52Z</time>
      </trkpt>
      <trkpt lat="45.28902" lon="5.74048">
        <ele>1656.6</ele>
        <time>2021-01-26T09:27:54Z</time>
      </trkpt>
      <trkpt lat="45.28898" lon="5.74044">
        <ele>1668.4</ele>
        <time>2021-01-26T09:28:00Z</time>
      </trkpt>
      <trkpt lat="45.28892" lon="5.7404">
        <ele>1668.4</ele>
        <time>2021-01-26T09:28:08Z</time>
      </trkpt>
      <trkpt lat="45.28885" lon="5.74035">
        <ele>1668.4</ele>
        <time>2021-01-26T09:28:17Z</time>
      </trkpt>
      <trkpt lat="45.2888" lon="5.74034">
        <ele>1668.4</ele>
        <time>2021-01-26T09:28:27Z</time>
      </trkpt>
      <trkpt lat="45.28877" lon="5.74031">
        <ele>1668.4</ele>
        <time>2021-01-26T09:28:32Z</time>
      </trkpt>
      <trkpt lat="45.28869" lon="5.74025">
        <ele>1668.4</ele>
        <time>2021-01-26T09:28:43Z</time>
      </trkpt>
      <trkpt lat="45.28861" lon="5.74018">
        <ele>1668.4</ele>
        <time>2021-01-26T09:28:51Z</time>
      </trkpt>
      <trkpt lat="45.28852" lon="5.74013">
        <ele>1677.4</ele>
        <time>2021-01-26T09:29:00Z</time>
      </trkpt>
      <trkpt lat="45.28846" lon="5.74005">
        <ele>1677.4</ele>
        <time>2021-01-26T09:29:09Z</time>
      </trkpt>
      <trkpt lat="45.28844" lon="5.74003">
        <ele>1677.4</ele>
        <time>2021-01-26T09:29:12Z</time>
      </trkpt>
      <trkpt lat="45.28843" lon="5.74001">
        <ele>1677.4</ele>
        <time>2021-01-26T09:29:14Z</time>
      </trkpt>
      <trkpt lat="45.28838" lon="5.7399">
        <ele>1677.4</ele>
        <time>2021-01-26T09:29:27Z</time>
      </trkpt>
      <trkpt lat="45.28833" lon="5.73979">
        <ele>1677.4</ele>
        <time>2021-01-26T09:29:37Z</time>
      </trkpt>
      <trkpt lat="45.28825" lon="5.73969">
        <ele>1677.4</ele>
        <time>2021-01-26T09:29:46Z</time>
      </trkpt>
      <trkpt lat="45.28822" lon="5.73967">
        <ele>1677.4</ele>
        <time>2021-01-26T09:29:51Z</time>
      </trkpt>
      <trkpt lat="45.2882" lon="5.73964">
        <ele>1677.4</ele>
        <time>2021-01-26T09:30:09Z</time>
      </trkpt>
      <trkpt lat="45.28819" lon="5.73962">
        <ele>1677.4</ele>
        <time>2021-01-26T09:30:14Z</time>
      </trkpt>
      <trkpt lat="45.28812" lon="5.73953">
        <ele>1677.4</ele>
        <time>2021-01-26T09:30:45Z</time>
      </trkpt>
      <trkpt lat="45.28806" lon="5.73943">
        <ele>1677.4</ele>
        <time>2021-01-26T09:32:22Z</time>
      </trkpt>
      <trkpt lat="45.2881" lon="5.73934">
        <ele>1677.4</ele>
        <time>2021-01-26T09:32:48Z</time>
      </trkpt>
      <trkpt lat="45.28812" lon="5.73934">
        <ele>1700.6</ele>
        <time>2021-01-26T09:32:50Z</time>
      </trkpt>
      <trkpt lat="45.28816" lon="5.73935">
        <ele>1700.6</ele>
        <time>2021-01-26T09:32:55Z</time>
      </trkpt>
      <trkpt lat="45.28819" lon="5.73935">
        <ele>1702.4</ele>
        <time>2021-01-26T09:33:00Z</time>
      </trkpt>
      <trkpt lat="45.28821" lon="5.73935">
        <ele>1702.4</ele>
        <time>2021-01-26T09:33:04Z</time>
      </trkpt>
      <trkpt lat="45.28826" lon="5.73928">
        <ele>1702.4</ele>
        <time>2021-01-26T09:33:39Z</time>
      </trkpt>
      <trkpt lat="45.28828" lon="5.73928">
        <ele>1702.4</ele>
        <time>2021-01-26T09:34:01Z</time>
      </trkpt>
      <trkpt lat="45.28832" lon="5.73925">
        <ele>1702.4</ele>
        <time>2021-01-26T09:34:19Z</time>
      </trkpt>
      <trkpt lat="45.28834" lon="5.73926">
        <ele>1702.4</ele>
        <time>2021-01-26T09:34:23Z</time>
      </trkpt>
      <trkpt lat="45.28836" lon="5.73926">
        <ele>1702.4</ele>
        <time>2021-01-26T09:34:26Z</time>
      </trkpt>
      <trkpt lat="45.28839" lon="5.73929">
        <ele>1702.4</ele>
        <time>2021-01-26T09:34:31Z</time>
      </trkpt>
      <trkpt lat="45.28841" lon="5.7393">
        <ele>1702.4</ele>
        <time>2021-01-26T09:34:38Z</time>
      </trkpt>
      <trkpt lat="45.28842" lon="5.73927">
        <ele>1702.4</ele>
        <time>2021-01-26T09:34:51Z</time>
      </trkpt>
      <trkpt lat="45.28842" lon="5.73922">
        <ele>1702.4</ele>
        <time>2021-01-26T09:35:03Z</time>
      </trkpt>
      <trkpt lat="45.28844" lon="5.73923">
        <ele>1702.4</ele>
        <time>2021-01-26T09:35:06Z</time>
      </trkpt>
      <trkpt lat="45.28846" lon="5.73924">
        <ele>1702.4</ele>
        <time>2021-01-26T09:35:09Z</time>
      </trkpt>
      <trkpt lat="45.28847" lon="5.73925">
        <ele>1702.4</ele>
        <time>2021-01-26T09:35:11Z</time>
      </trkpt>
      <trkpt lat="45.28856" lon="5.73919">
        <ele>1702.4</ele>
        <time>2021-01-26T09:35:35Z</time>
      </trkpt>
      <trkpt lat="45.2886" lon="5.73919">
        <ele>1702.4</ele>
        <time>2021-01-26T09:35:44Z</time>
      </trkpt>
      <trkpt lat="45.28864" lon="5.73919">
        <ele>1739</ele>
        <time>2021-01-26T09:36:00Z</time>
      </trkpt>
      <trkpt lat="45.28866" lon="5.73918">
        <ele>1739</ele>
        <time>2021-01-26T09:36:03Z</time>
      </trkpt>
      <trkpt lat="45.28868" lon="5.73917">
        <ele>1739</ele>
        <time>2021-01-26T09:36:09Z</time>
      </trkpt>
      <trkpt lat="45.28867" lon="5.73914">
        <ele>1739</ele>
        <time>2021-01-26T09:36:21Z</time>
      </trkpt>
      <trkpt lat="45.28863" lon="5.73908">
        <ele>1739</ele>
        <time>2021-01-26T09:36:36Z</time>
      </trkpt>
      <trkpt lat="45.28861" lon="5.73909">
        <ele>1746.2</ele>
        <time>2021-01-26T09:37:10Z</time>
      </trkpt>
      <trkpt lat="45.28861" lon="5.73912">
        <ele>1746.2</ele>
        <time>2021-01-26T09:37:29Z</time>
      </trkpt>
      <trkpt lat="45.2886" lon="5.73909">
        <ele>1746.2</ele>
        <time>2021-01-26T09:37:59Z</time>
      </trkpt>
      <trkpt lat="45.28861" lon="5.73906">
        <ele>1746.2</ele>
        <time>2021-01-26T09:38:23Z</time>
      </trkpt>
      <trkpt lat="45.28862" lon="5.73903">
        <ele>1746.2</ele>
        <time>2021-01-26T09:38:45Z</time>
      </trkpt>
      <trkpt lat="45.2886" lon="5.73901">
        <ele>1746.2</ele>
        <time>2021-01-26T09:38:59Z</time>
      </trkpt>
      <trkpt lat="45.28858" lon="5.739">
        <ele>1746.2</ele>
        <time>2021-01-26T09:39:17Z</time>
      </trkpt>
      <trkpt lat="45.28858" lon="5.73897">
        <ele>1746.2</ele>
        <time>2021-01-26T09:39:21Z</time>
      </trkpt>
      <trkpt lat="45.28857" lon="5.73892">
        <ele>1746.2</ele>
        <time>2021-01-26T09:39:26Z</time>
      </trkpt>
      <trkpt lat="45.28856" lon="5.73889">
        <ele>1746.2</ele>
        <time>2021-01-26T09:39:29Z</time>
      </trkpt>
      <trkpt lat="45.28859" lon="5.73887">
        <ele>1746.2</ele>
        <time>2021-01-26T09:39:45Z</time>
      </trkpt>
      <trkpt lat="45.28853" lon="5.73882">
        <ele>1746.2</ele>
        <time>2021-01-26T09:40:02Z</time>
      </trkpt>
      <trkpt lat="45.28852" lon="5.7388">
        <ele>1746.2</ele>
        <time>2021-01-26T09:40:17Z</time>
      </trkpt>
      <trkpt lat="45.28845" lon="5.73869">
        <ele>1746.2</ele>
        <time>2021-01-26T09:40:29Z</time>
      </trkpt>
      <trkpt lat="45.28845" lon="5.73863">
        <ele>1746.2</ele>
        <time>2021-01-26T09:40:45Z</time>
      </trkpt>
      <trkpt lat="45.28847" lon="5.73863">
        <ele>1746.2</ele>
        <time>2021-01-26T09:40:49Z</time>
      </trkpt>
      <trkpt lat="45.2885" lon="5.73864">
        <ele>1746.2</ele>
        <time>2021-01-26T09:40:56Z</time>
      </trkpt>
      <trkpt lat="45.28853" lon="5.73866">
        <ele>1764.2</ele>
        <time>2021-01-26T09:41:00Z</time>
      </trkpt>
      <trkpt lat="45.28855" lon="5.73867">
        <ele>1764.2</ele>
        <time>2021-01-26T09:41:13Z</time>
      </trkpt>
      <trkpt lat="45.28856" lon="5.73868">
        <ele>1764.2</ele>
        <time>2021-01-26T09:41:15Z</time>
      </trkpt>
      <trkpt lat="45.28857" lon="5.7387">
        <ele>1764.2</ele>
        <time>2021-01-26T09:41:25Z</time>
      </trkpt>
      <trkpt lat="45.28859" lon="5.7387">
        <ele>1764.2</ele>
        <time>2021-01-26T09:41:41Z</time>
      </trkpt>
      <trkpt lat="45.28861" lon="5.73869">
        <ele>1764.2</ele>
        <time>2021-01-26T09:42:21Z</time>
      </trkpt>
      <trkpt lat="45.28859" lon="5.73869">
        <ele>1764.2</ele>
        <time>2021-01-26T09:42:57Z</time>
      </trkpt>
      <trkpt lat="45.28861" lon="5.73869">
        <ele>1764.2</ele>
        <time>2021-01-26T09:43:14Z</time>
      </trkpt>
      <trkpt lat="45.28931" lon="5.7407">
        <ele>1764.2</ele>
        <time>2021-01-26T10:43:04Z</time>
      </trkpt>
      <trkpt lat="45.28929" lon="5.74069">
        <ele>1764.2</ele>
        <time>2021-01-26T10:43:07Z</time>
      </trkpt>
      <trkpt lat="45.28927" lon="5.74069">
        <ele>1660.6</ele>
        <time>2021-01-26T10:43:09Z</time>
      </trkpt>
      <trkpt lat="45.28926" lon="5.74067">
        <ele>1660.6</ele>
        <time>2021-01-26T10:43:12Z</time>
      </trkpt>
      <trkpt lat="45.28924" lon="5.74065">
        <ele>1660.6</ele>
        <time>2021-01-26T10:43:15Z</time>
      </trkpt>
      <trkpt lat="45.28922" lon="5.74063">
        <ele>1660.6</ele>
        <time>2021-01-26T10:43:17Z</time>
      </trkpt>
      <trkpt lat="45.28916" lon="5.74063">
        <ele>1660.6</ele>
        <time>2021-01-26T10:43:25Z</time>
      </trkpt>
      <trkpt lat="45.28914" lon="5.74063">
        <ele>1665.4</ele>
        <time>2021-01-26T10:43:29Z</time>
      </trkpt>
      <trkpt lat="45.28906" lon="5.74057">
        <ele>1665.4</ele>
        <time>2021-01-26T10:43:43Z</time>
      </trkpt>
      <trkpt lat="45.28895" lon="5.74054">
        <ele>1665.4</ele>
        <time>2021-01-26T10:43:53Z</time>
      </trkpt>
      <trkpt lat="45.28886" lon="5.74049">
        <ele>1665.4</ele>
        <time>2021-01-26T10:44:03Z</time>
      </trkpt>
      <trkpt lat="45.28878" lon="5.74044">
        <ele>1665.4</ele>
        <time>2021-01-26T10:44:14Z</time>
      </trkpt>
      <trkpt lat="45.28873" lon="5.74033">
        <ele>1665.4</ele>
        <time>2021-01-26T10:44:23Z</time>
      </trkpt>
      <trkpt lat="45.28864" lon="5.74027">
        <ele>1665.4</ele>
        <time>2021-01-26T10:44:32Z</time>
      </trkpt>
      <trkpt lat="45.28855" lon="5.74023">
        <ele>1680.2</ele>
        <time>2021-01-26T10:44:39Z</time>
      </trkpt>
      <trkpt lat="45.28848" lon="5.74016">
        <ele>1680.2</ele>
        <time>2021-01-26T10:44:47Z</time>
      </trkpt>
      <trkpt lat="45.28842" lon="5.74004">
        <ele>1680.2</ele>
        <time>2021-01-26T10:44:56Z</time>
      </trkpt>
      <trkpt lat="45.28836" lon="5.73995">
        <ele>1680.2</ele>
        <time>2021-01-26T10:45:06Z</time>
      </trkpt>
      <trkpt lat="45.2883" lon="5.73984">
        <ele>1680.2</ele>
        <time>2021-01-26T10:45:17Z</time>
      </trkpt>
      <trkpt lat="45.28821" lon="5.7398">
        <ele>1680.2</ele>
        <time>2021-01-26T10:45:27Z</time>
      </trkpt>
      <trkpt lat="45.28818" lon="5.73968">
        <ele>1680.2</ele>
        <time>2021-01-26T10:45:36Z</time>
      </trkpt>
      <trkpt lat="45.28811" lon="5.73958">
        <ele>1680.2</ele>
        <time>2021-01-26T10:45:45Z</time>
      </trkpt>
      <trkpt lat="45.28806" lon="5.73947">
        <ele>1680.2</ele>
        <time>2021-01-26T10:46:00Z</time>
      </trkpt>
      <trkpt lat="45.28813" lon="5.73939">
        <ele>1680.2</ele>
        <time>2021-01-26T10:46:22Z</time>
      </trkpt>
      <trkpt lat="45.28821" lon="5.73932">
        <ele>1680.2</ele>
        <time>2021-01-26T10:47:04Z</time>
      </trkpt>
      <trkpt lat="45.2883" lon="5.7393">
        <ele>1680.2</ele>
        <time>2021-01-26T10:47:17Z</time>
      </trkpt>
      <trkpt lat="45.28839" lon="5.73928">
        <ele>1680.2</ele>
        <time>2021-01-26T10:47:38Z</time>
      </trkpt>
      <trkpt lat="45.28847" lon="5.73925">
        <ele>1680.2</ele>
        <time>2021-01-26T10:48:08Z</time>
      </trkpt>
      <trkpt lat="45.28856" lon="5.73924">
        <ele>1680.2</ele>
        <time>2021-01-26T10:48:31Z</time>
      </trkpt>
      <trkpt lat="45.28865" lon="5.73922">
        <ele>1680.2</ele>
        <time>2021-01-26T10:48:52Z</time>
      </trkpt>
      <trkpt lat="45.28868" lon="5.73914">
        <ele>1680.2</ele>
        <time>2021-01-26T10:49:11Z</time>
      </trkpt>
      <trkpt lat="45.28867" lon="5.73912">
        <ele>1680.2</ele>
        <time>2021-01-26T10:49:15Z</time>
      </trkpt>
      <trkpt lat="45.28866" lon="5.7391">
        <ele>1680.2</ele>
        <time>2021-01-26T10:49:18Z</time>
      </trkpt>
      <trkpt lat="45.28864" lon="5.73907">
        <ele>1680.2</ele>
        <time>2021-01-26T10:49:33Z</time>
      </trkpt>
      <trkpt lat="45.28863" lon="5.73905">
        <ele>1749</ele>
        <time>2021-01-26T10:50:29Z</time>
      </trkpt>
      <trkpt lat="45.28861" lon="5.73902">
        <ele>1749</ele>
        <time>2021-01-26T10:50:35Z</time>
      </trkpt>
      <trkpt lat="45.28861" lon="5.73899">
        <ele>1749</ele>
        <time>2021-01-26T10:50:48Z</time>
      </trkpt>
      <trkpt lat="45.28859" lon="5.73886">
        <ele>1751.8</ele>
        <time>2021-01-26T10:50:59Z</time>
      </trkpt>
      <trkpt lat="45.28859" lon="5.73883">
        <ele>1751.8</ele>
        <time>2021-01-26T10:51:06Z</time>
      </trkpt>
      <trkpt lat="45.2886" lon="5.73884">
        <ele>1751.8</ele>
        <time>2021-01-26T10:51:16Z</time>
      </trkpt>
      <trkpt lat="45.28862" lon="5.73886">
        <ele>1751.8</ele>
        <time>2021-01-26T10:51:27Z</time>
      </trkpt>
      <trkpt lat="45.2886" lon="5.73881">
        <ele>1751.8</ele>
        <time>2021-01-26T10:51:33Z</time>
      </trkpt>
      <trkpt lat="45.28855" lon="5.7388">
        <ele>1751.8</ele>
        <time>2021-01-26T10:51:48Z</time>
      </trkpt>
      <trkpt lat="45.28853" lon="5.73879">
        <ele>1751.8</ele>
        <time>2021-01-26T10:51:56Z</time>
      </trkpt>
      <trkpt lat="45.28851" lon="5.73877">
        <ele>1751.8</ele>
        <time>2021-01-26T10:52:04Z</time>
      </trkpt>
      <trkpt lat="45.28851" lon="5.73874">
        <ele>1751.8</ele>
        <time>2021-01-26T10:52:07Z</time>
      </trkpt>
      <trkpt lat="45.28849" lon="5.73871">
        <ele>1751.8</ele>
        <time>2021-01-26T10:52:10Z</time>
      </trkpt>
      <trkpt lat="45.28848" lon="5.73868">
        <ele>1751.8</ele>
        <time>2021-01-26T10:52:14Z</time>
      </trkpt>
      <trkpt lat="45.28846" lon="5.73865">
        <ele>1751.8</ele>
        <time>2021-01-26T10:52:21Z</time>
      </trkpt>
      <trkpt lat="45.28845" lon="5.73862">
        <ele>1751.8</ele>
        <time>2021-01-26T10:52:27Z</time>
      </trkpt>
      <trkpt lat="45.28847" lon="5.73863">
        <ele>1751.8</ele>
        <time>2021-01-26T10:52:33Z</time>
      </trkpt>
      <trkpt lat="45.28849" lon="5.73863">
        <ele>1751.8</ele>
        <time>2021-01-26T10:52:41Z</time>
      </trkpt>
      <trkpt lat="45.28851" lon="5.73863">
        <ele>1751.8</ele>
        <time>2021-01-26T10:52:45Z</time>
      </trkpt>
      <trkpt lat="45.28853" lon="5.73864">
        <ele>1751.8</ele>
        <time>2021-01-26T10:52:51Z</time>
      </trkpt>
      <trkpt lat="45.28855" lon="5.73866">
        <ele>1751.8</ele>
        <time>2021-01-26T10:52:53Z</time>
      </trkpt>
      <trkpt lat="45.28857" lon="5.73867">
        <ele>1751.8</ele>
        <time>2021-01-26T10:52:55Z</time>
      </trkpt>
      <trkpt lat="45.28859" lon="5.73868">
        <ele>1751.8</ele>
        <time>2021-01-26T10:52:57Z</time>
      </trkpt>
      <trkpt lat="45.28861" lon="5.73869">
        <ele>1751.8</ele>
        <time>2021-01-26T10:53:00Z</time>
      </trkpt>
      <trkpt lat="45.2886" lon="5.73867">
        <ele>1751.8</ele>
        <time>2021-01-26T10:53:40Z</time>
      </trkpt>
      <trkpt lat="45.28861" lon="5.7387">
        <ele>1751.8</ele>
        <time>2021-01-26T10:54:44Z</time>
      </trkpt>
      <trkpt lat="45.2886" lon="5.73867">
        <ele>1751.8</ele>
        <time>2021-01-26T10:55:28Z</time>
      </trkpt>
      <trkpt lat="45.28861" lon="5.73869">
        <ele>1751.8</ele>
        <time>2021-01-26T10:55:37Z</time>
      </trkpt>
      <trkpt lat="45.28859" lon="5.73868">
        <ele>1751.8</ele>
        <time>2021-01-26T10:57:46Z</time>
      </trkpt>
      <trkpt lat="45.28861" lon="5.7387">
        <ele>1751.8</ele>
        <time>2021-01-26T10:58:10Z</time>
      </trkpt>
      <trkpt lat="45.28859" lon="5.73871">
        <ele>1751.8</ele>
        <time>2021-01-26T11:00:01Z</time>
      </trkpt>
      <trkpt lat="45.28856" lon="5.73872">
        <ele>1751.8</ele>
        <time>2021-01-26T11:00:02Z</time>
      </trkpt>
      <trkpt lat="45.28853" lon="5.73871">
        <ele>1751.8</ele>
        <time>2021-01-26T11:00:03Z</time>
      </trkpt>
      <trkpt lat="45.2885" lon="5.73871">
        <ele>1751.8</ele>
        <time>2021-01-26T11:00:04Z</time>
      </trkpt>
      <trkpt lat="45.28847" lon="5.7387">
        <ele>1751.8</ele>
        <time>2021-01-26T11:00:06Z</time>
      </trkpt>
      <trkpt lat="45.28845" lon="5.73871">
        <ele>1751.8</ele>
        <time>2021-01-26T11:00:08Z</time>
      </trkpt>
      <trkpt lat="45.28842" lon="5.73873">
        <ele>1751.8</ele>
        <time>2021-01-26T11:00:10Z</time>
      </trkpt>
      <trkpt lat="45.28838" lon="5.73875">
        <ele>1751.8</ele>
        <time>2021-01-26T11:00:11Z</time>
      </trkpt>
      <trkpt lat="45.28835" lon="5.73878">
        <ele>1751.8</ele>
        <time>2021-01-26T11:00:12Z</time>
      </trkpt>
      <trkpt lat="45.2883" lon="5.73883">
        <ele>1751.8</ele>
        <time>2021-01-26T11:00:13Z</time>
      </trkpt>
      <trkpt lat="45.28821" lon="5.73896">
        <ele>1751.8</ele>
        <time>2021-01-26T11:00:15Z</time>
      </trkpt>
      <trkpt lat="45.2881" lon="5.73899">
        <ele>1751.8</ele>
        <time>2021-01-26T11:00:17Z</time>
      </trkpt>
      <trkpt lat="45.28799" lon="5.73901">
        <ele>1738.2</ele>
        <time>2021-01-26T11:00:19Z</time>
      </trkpt>
      <trkpt lat="45.28791" lon="5.7391">
        <ele>1738.2</ele>
        <time>2021-01-26T11:00:21Z</time>
      </trkpt>
      <trkpt lat="45.28785" lon="5.7392">
        <ele>1738.2</ele>
        <time>2021-01-26T11:00:23Z</time>
      </trkpt>
      <trkpt lat="45.28779" lon="5.73937">
        <ele>1738.2</ele>
        <time>2021-01-26T11:00:26Z</time>
      </trkpt>
      <trkpt lat="45.28773" lon="5.73955">
        <ele>1738.2</ele>
        <time>2021-01-26T11:00:28Z</time>
      </trkpt>
      <trkpt lat="45.28765" lon="5.73973">
        <ele>1738.2</ele>
        <time>2021-01-26T11:00:30Z</time>
      </trkpt>
      <trkpt lat="45.2876" lon="5.73988">
        <ele>1738.2</ele>
        <time>2021-01-26T11:00:32Z</time>
      </trkpt>
      <trkpt lat="45.28753" lon="5.74001">
        <ele>1738.2</ele>
        <time>2021-01-26T11:00:34Z</time>
      </trkpt>
      <trkpt lat="45.28743" lon="5.74013">
        <ele>1738.2</ele>
        <time>2021-01-26T11:00:37Z</time>
      </trkpt>
      <trkpt lat="45.28734" lon="5.74021">
        <ele>1672</ele>
        <time>2021-01-26T11:00:39Z</time>
      </trkpt>
      <trkpt lat="45.28726" lon="5.74032">
        <ele>1672</ele>
        <time>2021-01-26T11:00:41Z</time>
      </trkpt>
      <trkpt lat="45.28719" lon="5.74039">
        <ele>1672</ele>
        <time>2021-01-26T11:00:43Z</time>
      </trkpt>
      <trkpt lat="45.28711" lon="5.74052">
        <ele>1672</ele>
        <time>2021-01-26T11:00:45Z</time>
      </trkpt>
      <trkpt lat="45.28702" lon="5.74065">
        <ele>1672</ele>
        <time>2021-01-26T11:00:47Z</time>
      </trkpt>
      <trkpt lat="45.28695" lon="5.74076">
        <ele>1635.6</ele>
        <time>2021-01-26T11:00:49Z</time>
      </trkpt>
      <trkpt lat="45.28706" lon="5.74075">
        <ele>1635.6</ele>
        <time>2021-01-26T11:00:53Z</time>
      </trkpt>
      <trkpt lat="45.28715" lon="5.7407">
        <ele>1635.6</ele>
        <time>2021-01-26T11:01:01Z</time>
      </trkpt>
      <trkpt lat="45.28705" lon="5.74073">
        <ele>1621.2</ele>
        <time>2021-01-26T11:01:29Z</time>
      </trkpt>
      <trkpt lat="45.28707" lon="5.74088">
        <ele>1621.2</ele>
        <time>2021-01-26T11:01:31Z</time>
      </trkpt>
      <trkpt lat="45.28715" lon="5.74102">
        <ele>1621.2</ele>
        <time>2021-01-26T11:01:33Z</time>
      </trkpt>
      <trkpt lat="45.28722" lon="5.74117">
        <ele>1621.2</ele>
        <time>2021-01-26T11:01:35Z</time>
      </trkpt>
      <trkpt lat="45.28719" lon="5.74132">
        <ele>1621.2</ele>
        <time>2021-01-26T11:01:37Z</time>
      </trkpt>
      <trkpt lat="45.28715" lon="5.74144">
        <ele>1606.8</ele>
        <time>2021-01-26T11:01:39Z</time>
      </trkpt>
      <trkpt lat="45.28713" lon="5.74158">
        <ele>1606.8</ele>
        <time>2021-01-26T11:01:42Z</time>
      </trkpt>
      <trkpt lat="45.28713" lon="5.74171">
        <ele>1606.8</ele>
        <time>2021-01-26T11:01:51Z</time>
      </trkpt>
      <trkpt lat="45.28713" lon="5.74188">
        <ele>1606.8</ele>
        <time>2021-01-26T11:01:57Z</time>
      </trkpt>
      <trkpt lat="45.28707" lon="5.74202">
        <ele>1580</ele>
        <time>2021-01-26T11:01:59Z</time>
      </trkpt>
      <trkpt lat="45.28703" lon="5.74218">
        <ele>1580</ele>
        <time>2021-01-26T11:02:02Z</time>
      </trkpt>
      <trkpt lat="45.28696" lon="5.7423">
        <ele>1580</ele>
        <time>2021-01-26T11:02:04Z</time>
      </trkpt>
      <trkpt lat="45.28691" lon="5.74241">
        <ele>1580</ele>
        <time>2021-01-26T11:02:06Z</time>
      </trkpt>
      <trkpt lat="45.28697" lon="5.74252">
        <ele>1580</ele>
        <time>2021-01-26T11:02:20Z</time>
      </trkpt>
      <trkpt lat="45.28694" lon="5.74264">
        <ele>1580</ele>
        <time>2021-01-26T11:02:23Z</time>
      </trkpt>
      <trkpt lat="45.2869" lon="5.74276">
        <ele>1580</ele>
        <time>2021-01-26T11:02:25Z</time>
      </trkpt>
      <trkpt lat="45.28686" lon="5.74289">
        <ele>1580</ele>
        <time>2021-01-26T11:02:28Z</time>
      </trkpt>
      <trkpt lat="45.28682" lon="5.74307">
        <ele>1580</ele>
        <time>2021-01-26T11:02:32Z</time>
      </trkpt>
      <trkpt lat="45.28684" lon="5.74321">
        <ele>1580</ele>
        <time>2021-01-26T11:02:46Z</time>
      </trkpt>
      <trkpt lat="45.28689" lon="5.74332">
        <ele>1580</ele>
        <time>2021-01-26T11:03:00Z</time>
      </trkpt>
      <trkpt lat="45.28695" lon="5.74322">
        <ele>1580</ele>
        <time>2021-01-26T11:03:13Z</time>
      </trkpt>
      <trkpt lat="45.28704" lon="5.74322">
        <ele>1580</ele>
        <time>2021-01-26T11:03:36Z</time>
      </trkpt>
      <trkpt lat="45.28712" lon="5.74316">
        <ele>1580</ele>
        <time>2021-01-26T11:04:32Z</time>
      </trkpt>
      <trkpt lat="45.2872" lon="5.74309">
        <ele>1580</ele>
        <time>2021-01-26T11:05:01Z</time>
      </trkpt>
      <trkpt lat="45.2872" lon="5.74296">
        <ele>1580</ele>
        <time>2021-01-26T11:05:24Z</time>
      </trkpt>
      <trkpt lat="45.28728" lon="5.74291">
        <ele>1525.6</ele>
        <time>2021-01-26T11:05:59Z</time>
      </trkpt>
      <trkpt lat="45.28731" lon="5.74277">
        <ele>1525.6</ele>
        <time>2021-01-26T11:08:43Z</time>
      </trkpt>
      <trkpt lat="45.28735" lon="5.74265">
        <ele>1525.6</ele>
        <time>2021-01-26T11:10:40Z</time>
      </trkpt>
      <trkpt lat="45.28745" lon="5.74266">
        <ele>1525.6</ele>
        <time>2021-01-26T11:10:51Z</time>
      </trkpt>
      <trkpt lat="45.28753" lon="5.74262">
        <ele>1525.6</ele>
        <time>2021-01-26T11:11:04Z</time>
      </trkpt>
      <trkpt lat="45.28762" lon="5.7426">
        <ele>1525.6</ele>
        <time>2021-01-26T11:11:16Z</time>
      </trkpt>
      <trkpt lat="45.28772" lon="5.74257">
        <ele>1525.6</ele>
        <time>2021-01-26T11:11:25Z</time>
      </trkpt>
      <trkpt lat="45.28781" lon="5.74255">
        <ele>1545.4</ele>
        <time>2021-01-26T11:11:39Z</time>
      </trkpt>
      <trkpt lat="45.28791" lon="5.74253">
        <ele>1547.8</ele>
        <time>2021-01-26T11:11:49Z</time>
      </trkpt>
      <trkpt lat="45.28799" lon="5.74247">
        <ele>1550.4</ele>
        <time>2021-01-26T11:11:59Z</time>
      </trkpt>
      <trkpt lat="45.28808" lon="5.74242">
        <ele>1550.4</ele>
        <time>2021-01-26T11:12:14Z</time>
      </trkpt>
      <trkpt lat="45.28815" lon="5.74233">
        <ele>1550.4</ele>
        <time>2021-01-26T11:12:25Z</time>
      </trkpt>
      <trkpt lat="45.28825" lon="5.7423">
        <ele>1550.4</ele>
        <time>2021-01-26T11:12:37Z</time>
      </trkpt>
      <trkpt lat="45.28835" lon="5.7423">
        <ele>1550.4</ele>
        <time>2021-01-26T11:12:45Z</time>
      </trkpt>
      <trkpt lat="45.28844" lon="5.74225">
        <ele>1550.4</ele>
        <time>2021-01-26T11:12:53Z</time>
      </trkpt>
      <trkpt lat="45.28853" lon="5.74219">
        <ele>1550.4</ele>
        <time>2021-01-26T11:13:01Z</time>
      </trkpt>
      <trkpt lat="45.28862" lon="5.74217">
        <ele>1550.4</ele>
        <time>2021-01-26T11:13:11Z</time>
      </trkpt>
      <trkpt lat="45.28872" lon="5.7422">
        <ele>1550.4</ele>
        <time>2021-01-26T11:13:23Z</time>
      </trkpt>
      <trkpt lat="45.2888" lon="5.74217">
        <ele>1550.4</ele>
        <time>2021-01-26T11:13:37Z</time>
      </trkpt>
      <trkpt lat="45.2889" lon="5.74217">
        <ele>1550.4</ele>
        <time>2021-01-26T11:13:50Z</time>
      </trkpt>
      <trkpt lat="45.28901" lon="5.74216">
        <ele>1550.4</ele>
        <time>2021-01-26T11:14:00Z</time>
      </trkpt>
      <trkpt lat="45.28911" lon="5.74218">
        <ele>1550.4</ele>
        <time>2021-01-26T11:14:06Z</time>
      </trkpt>
      <trkpt lat="45.28919" lon="5.74211">
        <ele>1550.4</ele>
        <time>2021-01-26T11:14:17Z</time>
      </trkpt>
      <trkpt lat="45.28928" lon="5.74212">
        <ele>1550.4</ele>
        <time>2021-01-26T11:14:24Z</time>
      </trkpt>
      <trkpt lat="45.28938" lon="5.74211">
        <ele>1550.4</ele>
        <time>2021-01-26T11:14:34Z</time>
      </trkpt>
      <trkpt lat="45.28947" lon="5.74208">
        <ele>1550.4</ele>
        <time>2021-01-26T11:14:44Z</time>
      </trkpt>
      <trkpt lat="45.28956" lon="5.74203">
        <ele>1550.4</ele>
        <time>2021-01-26T11:14:50Z</time>
      </trkpt>
      <trkpt lat="45.28964" lon="5.74197">
        <ele>1550.4</ele>
        <time>2021-01-26T11:15:00Z</time>
      </trkpt>
      <trkpt lat="45.28973" lon="5.74202">
        <ele>1550.4</ele>
        <time>2021-01-26T11:15:10Z</time>
      </trkpt>
      <trkpt lat="45.28981" lon="5.74209">
        <ele>1550.4</ele>
        <time>2021-01-26T11:15:18Z</time>
      </trkpt>
      <trkpt lat="45.2899" lon="5.74214">
        <ele>1550.4</ele>
        <time>2021-01-26T11:15:30Z</time>
      </trkpt>
      <trkpt lat="45.28999" lon="5.74212">
        <ele>1550.4</ele>
        <time>2021-01-26T11:15:42Z</time>
      </trkpt>
      <trkpt lat="45.29009" lon="5.74217">
        <ele>1597.4</ele>
        <time>2021-01-26T11:15:49Z</time>
      </trkpt>
      <trkpt lat="45.29016" lon="5.74226">
        <ele>1597.4</ele>
        <time>2021-01-26T11:16:00Z</time>
      </trkpt>
      <trkpt lat="45.29025" lon="5.74231">
        <ele>1597.4</ele>
        <time>2021-01-26T11:16:11Z</time>
      </trkpt>
      <trkpt lat="45.29034" lon="5.74231">
        <ele>1597.4</ele>
        <time>2021-01-26T11:16:20Z</time>
      </trkpt>
      <trkpt lat="45.29036" lon="5.7423">
        <ele>1597.4</ele>
        <time>2021-01-26T11:16:22Z</time>
      </trkpt>
      <trkpt lat="45.29037" lon="5.74226">
        <ele>1597.4</ele>
        <time>2021-01-26T11:16:25Z</time>
      </trkpt>
      <trkpt lat="45.2904" lon="5.74224">
        <ele>1606.4</ele>
        <time>2021-01-26T11:16:29Z</time>
      </trkpt>
      <trkpt lat="45.29042" lon="5.74226">
        <ele>1606.4</ele>
        <time>2021-01-26T11:16:33Z</time>
      </trkpt>
      <trkpt lat="45.29044" lon="5.74228">
        <ele>1606.4</ele>
        <time>2021-01-26T11:16:35Z</time>
      </trkpt>
      <trkpt lat="45.29046" lon="5.74229">
        <ele>1606.4</ele>
        <time>2021-01-26T11:16:37Z</time>
      </trkpt>
      <trkpt lat="45.29048" lon="5.7423">
        <ele>1606.4</ele>
        <time>2021-01-26T11:16:40Z</time>
      </trkpt>
      <trkpt lat="45.29051" lon="5.74236">
        <ele>1606.4</ele>
        <time>2021-01-26T11:16:44Z</time>
      </trkpt>
      <trkpt lat="45.29052" lon="5.7424">
        <ele>1606.4</ele>
        <time>2021-01-26T11:16:46Z</time>
      </trkpt>
      <trkpt lat="45.29054" lon="5.74242">
        <ele>1606.4</ele>
        <time>2021-01-26T11:16:48Z</time>
      </trkpt>
      <trkpt lat="45.29056" lon="5.74244">
        <ele>1606.4</ele>
        <time>2021-01-26T11:16:50Z</time>
      </trkpt>
      <trkpt lat="45.29057" lon="5.74247">
        <ele>1606.4</ele>
        <time>2021-01-26T11:16:53Z</time>
      </trkpt>
      <trkpt lat="45.29058" lon="5.74251">
        <ele>1606.4</ele>
        <time>2021-01-26T11:16:55Z</time>
      </trkpt>
      <trkpt lat="45.29059" lon="5.74257">
        <ele>1606.4</ele>
        <time>2021-01-26T11:16:58Z</time>
      </trkpt>
      <trkpt lat="45.2906" lon="5.74261">
        <ele>1606.4</ele>
        <time>2021-01-26T11:17:00Z</time>
      </trkpt>
      <trkpt lat="45.29061" lon="5.74265">
        <ele>1606.4</ele>
        <time>2021-01-26T11:17:02Z</time>
      </trkpt>
      <trkpt lat="45.29063" lon="5.74267">
        <ele>1606.4</ele>
        <time>2021-01-26T11:17:04Z</time>
      </trkpt>
      <trkpt lat="45.29065" lon="5.74269">
        <ele>1606.4</ele>
        <time>2021-01-26T11:17:07Z</time>
      </trkpt>
      <trkpt lat="45.29068" lon="5.7427">
        <ele>1606.4</ele>
        <time>2021-01-26T11:17:10Z</time>
      </trkpt>
      <trkpt lat="45.29069" lon="5.74272">
        <ele>1606.4</ele>
        <time>2021-01-26T11:17:12Z</time>
      </trkpt>
      <trkpt lat="45.29071" lon="5.74275">
        <ele>1606.4</ele>
        <time>2021-01-26T11:17:14Z</time>
      </trkpt>
      <trkpt lat="45.29072" lon="5.74278">
        <ele>1606.4</ele>
        <time>2021-01-26T11:17:16Z</time>
      </trkpt>
      <trkpt lat="45.29073" lon="5.74281">
        <ele>1606.4</ele>
        <time>2021-01-26T11:17:18Z</time>
      </trkpt>
      <trkpt lat="45.29077" lon="5.74291">
        <ele>1606.4</ele>
        <time>2021-01-26T11:17:24Z</time>
      </trkpt>
      <trkpt lat="45.29081" lon="5.74296">
        <ele>1606.4</ele>
        <time>2021-01-26T11:17:28Z</time>
      </trkpt>
      <trkpt lat="45.29084" lon="5.74299">
        <ele>1606.4</ele>
        <time>2021-01-26T11:17:32Z</time>
      </trkpt>
      <trkpt lat="45.29085" lon="5.743">
        <ele>1606.4</ele>
        <time>2021-01-26T11:17:34Z</time>
      </trkpt>
      <trkpt lat="45.29088" lon="5.74303">
        <ele>1606.4</ele>
        <time>2021-01-26T11:17:36Z</time>
      </trkpt>
      <trkpt lat="45.2909" lon="5.74306">
        <ele>1606.4</ele>
        <time>2021-01-26T11:17:38Z</time>
      </trkpt>
      <trkpt lat="45.29091" lon="5.74307">
        <ele>1615</ele>
        <time>2021-01-26T11:17:39Z</time>
      </trkpt>
      <trkpt lat="45.29097" lon="5.74316">
        <ele>1615</ele>
        <time>2021-01-26T11:17:45Z</time>
      </trkpt>
      <trkpt lat="45.291" lon="5.74318">
        <ele>1615</ele>
        <time>2021-01-26T11:17:47Z</time>
      </trkpt>
      <trkpt lat="45.29101" lon="5.7432">
        <ele>1615</ele>
        <time>2021-01-26T11:17:48Z</time>
      </trkpt>
      <trkpt lat="45.29102" lon="5.74322">
        <ele>1615.8</ele>
        <time>2021-01-26T11:17:49Z</time>
      </trkpt>
      <trkpt lat="45.29104" lon="5.74324">
        <ele>1615.8</ele>
        <time>2021-01-26T11:17:50Z</time>
      </trkpt>
      <trkpt lat="45.29105" lon="5.74333">
        <ele>1615.8</ele>
        <time>2021-01-26T11:17:54Z</time>
      </trkpt>
      <trkpt lat="45.29106" lon="5.74335">
        <ele>1615.8</ele>
        <time>2021-01-26T11:17:55Z</time>
      </trkpt>
      <trkpt lat="45.29107" lon="5.74338">
        <ele>1615.8</ele>
        <time>2021-01-26T11:17:57Z</time>
      </trkpt>
      <trkpt lat="45.29109" lon="5.74341">
        <ele>1617</ele>
        <time>2021-01-26T11:17:59Z</time>
      </trkpt>
      <trkpt lat="45.29115" lon="5.74351">
        <ele>1617</ele>
        <time>2021-01-26T11:18:04Z</time>
      </trkpt>
      <trkpt lat="45.29117" lon="5.74356">
        <ele>1617</ele>
        <time>2021-01-26T11:18:07Z</time>
      </trkpt>
      <trkpt lat="45.29123" lon="5.74369">
        <ele>1617</ele>
        <time>2021-01-26T11:18:13Z</time>
      </trkpt>
      <trkpt lat="45.29128" lon="5.74381">
        <ele>1617</ele>
        <time>2021-01-26T11:18:20Z</time>
      </trkpt>
      <trkpt lat="45.29134" lon="5.74395">
        <ele>1619</ele>
        <time>2021-01-26T11:18:29Z</time>
      </trkpt>
      <trkpt lat="45.29136" lon="5.74397">
        <ele>1619</ele>
        <time>2021-01-26T11:18:32Z</time>
      </trkpt>
      <trkpt lat="45.29143" lon="5.74406">
        <ele>1619</ele>
        <time>2021-01-26T11:18:41Z</time>
      </trkpt>
      <trkpt lat="45.29148" lon="5.7441">
        <ele>1619</ele>
        <time>2021-01-26T11:18:45Z</time>
      </trkpt>
      <trkpt lat="45.2915" lon="5.74412">
        <ele>1619</ele>
        <time>2021-01-26T11:18:47Z</time>
      </trkpt>
      <trkpt lat="45.2915" lon="5.74415">
        <ele>1622.4</ele>
        <time>2021-01-26T11:18:49Z</time>
      </trkpt>
      <trkpt lat="45.29153" lon="5.74418">
        <ele>1622.4</ele>
        <time>2021-01-26T11:18:51Z</time>
      </trkpt>
      <trkpt lat="45.29156" lon="5.74423">
        <ele>1622.4</ele>
        <time>2021-01-26T11:18:54Z</time>
      </trkpt>
      <trkpt lat="45.29164" lon="5.74431">
        <ele>1622.4</ele>
        <time>2021-01-26T11:19:03Z</time>
      </trkpt>
      <trkpt lat="45.29171" lon="5.74437">
        <ele>1622.4</ele>
        <time>2021-01-26T11:19:07Z</time>
      </trkpt>
      <trkpt lat="45.29173" lon="5.74438">
        <ele>1622.4</ele>
        <time>2021-01-26T11:19:08Z</time>
      </trkpt>
      <trkpt lat="45.29175" lon="5.74439">
        <ele>1625</ele>
        <time>2021-01-26T11:19:09Z</time>
      </trkpt>
      <trkpt lat="45.29177" lon="5.7444">
        <ele>1625</ele>
        <time>2021-01-26T11:19:10Z</time>
      </trkpt>
      <trkpt lat="45.2918" lon="5.74441">
        <ele>1625</ele>
        <time>2021-01-26T11:19:11Z</time>
      </trkpt>
      <trkpt lat="45.29183" lon="5.74443">
        <ele>1625</ele>
        <time>2021-01-26T11:19:12Z</time>
      </trkpt>
      <trkpt lat="45.29187" lon="5.74444">
        <ele>1625</ele>
        <time>2021-01-26T11:19:13Z</time>
      </trkpt>
      <trkpt lat="45.29191" lon="5.74444">
        <ele>1625</ele>
        <time>2021-01-26T11:19:14Z</time>
      </trkpt>
      <trkpt lat="45.29194" lon="5.74445">
        <ele>1625</ele>
        <time>2021-01-26T11:19:15Z</time>
      </trkpt>
      <trkpt lat="45.29199" lon="5.74446">
        <ele>1625</ele>
        <time>2021-01-26T11:19:16Z</time>
      </trkpt>
      <trkpt lat="45.29203" lon="5.74447">
        <ele>1625</ele>
        <time>2021-01-26T11:19:17Z</time>
      </trkpt>
      <trkpt lat="45.29206" lon="5.74448">
        <ele>1625</ele>
        <time>2021-01-26T11:19:18Z</time>
      </trkpt>
      <trkpt lat="45.2921" lon="5.74449">
        <ele>1621.2</ele>
        <time>2021-01-26T11:19:19Z</time>
      </trkpt>
      <trkpt lat="45.29213" lon="5.74449">
        <ele>1621.2</ele>
        <time>2021-01-26T11:19:20Z</time>
      </trkpt>
      <trkpt lat="45.29216" lon="5.7445">
        <ele>1621.2</ele>
        <time>2021-01-26T11:19:21Z</time>
      </trkpt>
      <trkpt lat="45.29219" lon="5.7445">
        <ele>1621.2</ele>
        <time>2021-01-26T11:19:22Z</time>
      </trkpt>
      <trkpt lat="45.29221" lon="5.7445">
        <ele>1621.2</ele>
        <time>2021-01-26T11:19:23Z</time>
      </trkpt>
      <trkpt lat="45.29224" lon="5.7445">
        <ele>1621.2</ele>
        <time>2021-01-26T11:19:24Z</time>
      </trkpt>
      <trkpt lat="45.29227" lon="5.7445">
        <ele>1621.2</ele>
        <time>2021-01-26T11:19:25Z</time>
      </trkpt>
      <trkpt lat="45.2923" lon="5.7445">
        <ele>1621.2</ele>
        <time>2021-01-26T11:19:26Z</time>
      </trkpt>
      <trkpt lat="45.29232" lon="5.7445">
        <ele>1621.2</ele>
        <time>2021-01-26T11:19:27Z</time>
      </trkpt>
      <trkpt lat="45.29235" lon="5.7445">
        <ele>1621.2</ele>
        <time>2021-01-26T11:19:28Z</time>
      </trkpt>
      <trkpt lat="45.29238" lon="5.7445">
        <ele>1618.2</ele>
        <time>2021-01-26T11:19:29Z</time>
      </trkpt>
      <trkpt lat="45.2924" lon="5.74449">
        <ele>1618.2</ele>
        <time>2021-01-26T11:19:30Z</time>
      </trkpt>
      <trkpt lat="45.29243" lon="5.74449">
        <ele>1618.2</ele>
        <time>2021-01-26T11:19:31Z</time>
      </trkpt>
      <trkpt lat="45.29246" lon="5.74449">
        <ele>1618.2</ele>
        <time>2021-01-26T11:19:32Z</time>
      </trkpt>
      <trkpt lat="45.29249" lon="5.74448">
        <ele>1618.2</ele>
        <time>2021-01-26T11:19:33Z</time>
      </trkpt>
      <trkpt lat="45.29252" lon="5.74448">
        <ele>1618.2</ele>
        <time>2021-01-26T11:19:34Z</time>
      </trkpt>
      <trkpt lat="45.29254" lon="5.74446">
        <ele>1618.2</ele>
        <time>2021-01-26T11:19:35Z</time>
      </trkpt>
      <trkpt lat="45.29257" lon="5.74445">
        <ele>1618.2</ele>
        <time>2021-01-26T11:19:36Z</time>
      </trkpt>
      <trkpt lat="45.29259" lon="5.74443">
        <ele>1618.2</ele>
        <time>2021-01-26T11:19:37Z</time>
      </trkpt>
      <trkpt lat="45.29262" lon="5.74441">
        <ele>1618.2</ele>
        <time>2021-01-26T11:19:38Z</time>
      </trkpt>
      <trkpt lat="45.29265" lon="5.74439">
        <ele>1611.6</ele>
        <time>2021-01-26T11:19:39Z</time>
      </trkpt>
      <trkpt lat="45.29268" lon="5.74437">
        <ele>1611.6</ele>
        <time>2021-01-26T11:19:40Z</time>
      </trkpt>
      <trkpt lat="45.29272" lon="5.74434">
        <ele>1611.6</ele>
        <time>2021-01-26T11:19:41Z</time>
      </trkpt>
      <trkpt lat="45.29278" lon="5.7443">
        <ele>1611.6</ele>
        <time>2021-01-26T11:19:42Z</time>
      </trkpt>
      <trkpt lat="45.29284" lon="5.74424">
        <ele>1611.6</ele>
        <time>2021-01-26T11:19:43Z</time>
      </trkpt>
      <trkpt lat="45.2929" lon="5.74418">
        <ele>1611.6</ele>
        <time>2021-01-26T11:19:44Z</time>
      </trkpt>
      <trkpt lat="45.29296" lon="5.74411">
        <ele>1611.6</ele>
        <time>2021-01-26T11:19:45Z</time>
      </trkpt>
      <trkpt lat="45.29303" lon="5.74404">
        <ele>1611.6</ele>
        <time>2021-01-26T11:19:46Z</time>
      </trkpt>
      <trkpt lat="45.29309" lon="5.74398">
        <ele>1611.6</ele>
        <time>2021-01-26T11:19:47Z</time>
      </trkpt>
      <trkpt lat="45.29319" lon="5.74388">
        <ele>1599.8</ele>
        <time>2021-01-26T11:19:49Z</time>
      </trkpt>
      <trkpt lat="45.29327" lon="5.74383">
        <ele>1599.8</ele>
        <time>2021-01-26T11:19:51Z</time>
      </trkpt>
      <trkpt lat="45.29335" lon="5.74374">
        <ele>1599.8</ele>
        <time>2021-01-26T11:19:57Z</time>
      </trkpt>
      <trkpt lat="45.29342" lon="5.7437">
        <ele>1599.8</ele>
        <time>2021-01-26T11:20:03Z</time>
      </trkpt>
      <trkpt lat="45.29343" lon="5.74368">
        <ele>1599.8</ele>
        <time>2021-01-26T11:20:05Z</time>
      </trkpt>
      <trkpt lat="45.29345" lon="5.74366">
        <ele>1599.8</ele>
        <time>2021-01-26T11:20:07Z</time>
      </trkpt>
      <trkpt lat="45.29354" lon="5.74362">
        <ele>1599.8</ele>
        <time>2021-01-26T11:20:13Z</time>
      </trkpt>
      <trkpt lat="45.29363" lon="5.7436">
        <ele>1599.8</ele>
        <time>2021-01-26T11:20:18Z</time>
      </trkpt>
      <trkpt lat="45.29365" lon="5.7436">
        <ele>1599.8</ele>
        <time>2021-01-26T11:20:20Z</time>
      </trkpt>
      <trkpt lat="45.29367" lon="5.74356">
        <ele>1599.8</ele>
        <time>2021-01-26T11:20:24Z</time>
      </trkpt>
      <trkpt lat="45.2937" lon="5.74355">
        <ele>1600.6</ele>
        <time>2021-01-26T11:20:39Z</time>
      </trkpt>
      <trkpt lat="45.29372" lon="5.74354">
        <ele>1600.6</ele>
        <time>2021-01-26T11:20:41Z</time>
      </trkpt>
      <trkpt lat="45.29374" lon="5.74353">
        <ele>1600.6</ele>
        <time>2021-01-26T11:20:43Z</time>
      </trkpt>
      <trkpt lat="45.29376" lon="5.74352">
        <ele>1600.6</ele>
        <time>2021-01-26T11:20:45Z</time>
      </trkpt>
      <trkpt lat="45.29379" lon="5.74352">
        <ele>1600.6</ele>
        <time>2021-01-26T11:20:47Z</time>
      </trkpt>
      <trkpt lat="45.29382" lon="5.74351">
        <ele>1601.4</ele>
        <time>2021-01-26T11:20:49Z</time>
      </trkpt>
      <trkpt lat="45.29385" lon="5.7435">
        <ele>1601.4</ele>
        <time>2021-01-26T11:20:51Z</time>
      </trkpt>
      <trkpt lat="45.29386" lon="5.74348">
        <ele>1601.4</ele>
        <time>2021-01-26T11:20:53Z</time>
      </trkpt>
      <trkpt lat="45.29388" lon="5.74347">
        <ele>1601.4</ele>
        <time>2021-01-26T11:20:55Z</time>
      </trkpt>
      <trkpt lat="45.29391" lon="5.74346">
        <ele>1601.4</ele>
        <time>2021-01-26T11:20:57Z</time>
      </trkpt>
      <trkpt lat="45.29395" lon="5.74345">
        <ele>1603</ele>
        <time>2021-01-26T11:20:59Z</time>
      </trkpt>
      <trkpt lat="45.29398" lon="5.74344">
        <ele>1603</ele>
        <time>2021-01-26T11:21:01Z</time>
      </trkpt>
      <trkpt lat="45.294" lon="5.74344">
        <ele>1603</ele>
        <time>2021-01-26T11:21:02Z</time>
      </trkpt>
      <trkpt lat="45.29403" lon="5.74343">
        <ele>1603</ele>
        <time>2021-01-26T11:21:04Z</time>
      </trkpt>
      <trkpt lat="45.29405" lon="5.74343">
        <ele>1603</ele>
        <time>2021-01-26T11:21:06Z</time>
      </trkpt>
      <trkpt lat="45.29407" lon="5.74343">
        <ele>1603</ele>
        <time>2021-01-26T11:21:08Z</time>
      </trkpt>
      <trkpt lat="45.29409" lon="5.74343">
        <ele>1603</ele>
        <time>2021-01-26T11:21:10Z</time>
      </trkpt>
      <trkpt lat="45.29412" lon="5.74343">
        <ele>1603</ele>
        <time>2021-01-26T11:21:12Z</time>
      </trkpt>
      <trkpt lat="45.29416" lon="5.74343">
        <ele>1603</ele>
        <time>2021-01-26T11:21:15Z</time>
      </trkpt>
      <trkpt lat="45.29419" lon="5.74343">
        <ele>1603</ele>
        <time>2021-01-26T11:21:17Z</time>
      </trkpt>
      <trkpt lat="45.29422" lon="5.74343">
        <ele>1606.6</ele>
        <time>2021-01-26T11:21:19Z</time>
      </trkpt>
      <trkpt lat="45.29425" lon="5.74342">
        <ele>1606.6</ele>
        <time>2021-01-26T11:21:21Z</time>
      </trkpt>
      <trkpt lat="45.29427" lon="5.7434">
        <ele>1606.6</ele>
        <time>2021-01-26T11:21:23Z</time>
      </trkpt>
      <trkpt lat="45.29429" lon="5.74339">
        <ele>1606.6</ele>
        <time>2021-01-26T11:21:25Z</time>
      </trkpt>
      <trkpt lat="45.29432" lon="5.74339">
        <ele>1606.6</ele>
        <time>2021-01-26T11:21:27Z</time>
      </trkpt>
      <trkpt lat="45.29435" lon="5.74339">
        <ele>1608</ele>
        <time>2021-01-26T11:21:29Z</time>
      </trkpt>
      <trkpt lat="45.29437" lon="5.74339">
        <ele>1608</ele>
        <time>2021-01-26T11:21:32Z</time>
      </trkpt>
      <trkpt lat="45.29439" lon="5.7434">
        <ele>1608</ele>
        <time>2021-01-26T11:21:34Z</time>
      </trkpt>
      <trkpt lat="45.29441" lon="5.7434">
        <ele>1608</ele>
        <time>2021-01-26T11:21:37Z</time>
      </trkpt>
      <trkpt lat="45.29443" lon="5.74341">
        <ele>1610.4</ele>
        <time>2021-01-26T11:21:39Z</time>
      </trkpt>
      <trkpt lat="45.29445" lon="5.74343">
        <ele>1610.4</ele>
        <time>2021-01-26T11:21:41Z</time>
      </trkpt>
      <trkpt lat="45.29447" lon="5.74343">
        <ele>1610.4</ele>
        <time>2021-01-26T11:21:43Z</time>
      </trkpt>
      <trkpt lat="45.29449" lon="5.74341">
        <ele>1610.4</ele>
        <time>2021-01-26T11:21:45Z</time>
      </trkpt>
      <trkpt lat="45.29451" lon="5.74341">
        <ele>1610.4</ele>
        <time>2021-01-26T11:21:47Z</time>
      </trkpt>
      <trkpt lat="45.29454" lon="5.74342">
        <ele>1612.6</ele>
        <time>2021-01-26T11:21:49Z</time>
      </trkpt>
      <trkpt lat="45.29457" lon="5.74343">
        <ele>1612.6</ele>
        <time>2021-01-26T11:21:51Z</time>
      </trkpt>
      <trkpt lat="45.29459" lon="5.74342">
        <ele>1612.6</ele>
        <time>2021-01-26T11:21:53Z</time>
      </trkpt>
      <trkpt lat="45.29461" lon="5.74341">
        <ele>1612.6</ele>
        <time>2021-01-26T11:21:56Z</time>
      </trkpt>
      <trkpt lat="45.29463" lon="5.7434">
        <ele>1612.6</ele>
        <time>2021-01-26T11:21:58Z</time>
      </trkpt>
      <trkpt lat="45.29465" lon="5.7434">
        <ele>1612.6</ele>
        <time>2021-01-26T11:22:00Z</time>
      </trkpt>
      <trkpt lat="45.29468" lon="5.7434">
        <ele>1612.6</ele>
        <time>2021-01-26T11:22:02Z</time>
      </trkpt>
      <trkpt lat="45.2947" lon="5.7434">
        <ele>1612.6</ele>
        <time>2021-01-26T11:22:04Z</time>
      </trkpt>
      <trkpt lat="45.29473" lon="5.7434">
        <ele>1612.6</ele>
        <time>2021-01-26T11:22:06Z</time>
      </trkpt>
      <trkpt lat="45.29475" lon="5.74339">
        <ele>1612.6</ele>
        <time>2021-01-26T11:22:08Z</time>
      </trkpt>
      <trkpt lat="45.29479" lon="5.7434">
        <ele>1612.6</ele>
        <time>2021-01-26T11:22:11Z</time>
      </trkpt>
      <trkpt lat="45.29481" lon="5.74341">
        <ele>1612.6</ele>
        <time>2021-01-26T11:22:13Z</time>
      </trkpt>
      <trkpt lat="45.29483" lon="5.74342">
        <ele>1612.6</ele>
        <time>2021-01-26T11:22:16Z</time>
      </trkpt>
      <trkpt lat="45.29485" lon="5.74342">
        <ele>1612.6</ele>
        <time>2021-01-26T11:22:18Z</time>
      </trkpt>
      <trkpt lat="45.29488" lon="5.74343">
        <ele>1612.6</ele>
        <time>2021-01-26T11:22:21Z</time>
      </trkpt>
      <trkpt lat="45.2949" lon="5.74344">
        <ele>1612.6</ele>
        <time>2021-01-26T11:22:24Z</time>
      </trkpt>
      <trkpt lat="45.29493" lon="5.74345">
        <ele>1612.6</ele>
        <time>2021-01-26T11:22:26Z</time>
      </trkpt>
      <trkpt lat="45.29495" lon="5.74346">
        <ele>1612.6</ele>
        <time>2021-01-26T11:22:28Z</time>
      </trkpt>
      <trkpt lat="45.29497" lon="5.74347">
        <ele>1612.6</ele>
        <time>2021-01-26T11:22:30Z</time>
      </trkpt>
      <trkpt lat="45.29499" lon="5.74348">
        <ele>1612.6</ele>
        <time>2021-01-26T11:22:32Z</time>
      </trkpt>
      <trkpt lat="45.29501" lon="5.74348">
        <ele>1612.6</ele>
        <time>2021-01-26T11:22:34Z</time>
      </trkpt>
      <trkpt lat="45.29503" lon="5.74348">
        <ele>1612.6</ele>
        <time>2021-01-26T11:22:37Z</time>
      </trkpt>
      <trkpt lat="45.29505" lon="5.74348">
        <ele>1612.6</ele>
        <time>2021-01-26T11:22:40Z</time>
      </trkpt>
      <trkpt lat="45.29508" lon="5.74346">
        <ele>1612.6</ele>
        <time>2021-01-26T11:22:45Z</time>
      </trkpt>
      <trkpt lat="45.2951" lon="5.74346">
        <ele>1612.6</ele>
        <time>2021-01-26T11:22:48Z</time>
      </trkpt>
      <trkpt lat="45.29517" lon="5.74346">
        <ele>1612.6</ele>
        <time>2021-01-26T11:22:52Z</time>
      </trkpt>
      <trkpt lat="45.29521" lon="5.74347">
        <ele>1612.6</ele>
        <time>2021-01-26T11:22:54Z</time>
      </trkpt>
      <trkpt lat="45.2953" lon="5.74348">
        <ele>1612.6</ele>
        <time>2021-01-26T11:23:01Z</time>
      </trkpt>
      <trkpt lat="45.29533" lon="5.74348">
        <ele>1612.6</ele>
        <time>2021-01-26T11:23:03Z</time>
      </trkpt>
      <trkpt lat="45.29536" lon="5.74349">
        <ele>1612.6</ele>
        <time>2021-01-26T11:23:05Z</time>
      </trkpt>
      <trkpt lat="45.29537" lon="5.74349">
        <ele>1612.6</ele>
        <time>2021-01-26T11:23:07Z</time>
      </trkpt>
      <trkpt lat="45.2954" lon="5.74348">
        <ele>1633.6</ele>
        <time>2021-01-26T11:23:09Z</time>
      </trkpt>
      <trkpt lat="45.29542" lon="5.74349">
        <ele>1633.6</ele>
        <time>2021-01-26T11:23:11Z</time>
      </trkpt>
      <trkpt lat="45.29545" lon="5.7435">
        <ele>1633.6</ele>
        <time>2021-01-26T11:23:13Z</time>
      </trkpt>
      <trkpt lat="45.29546" lon="5.74352">
        <ele>1633.6</ele>
        <time>2021-01-26T11:23:15Z</time>
      </trkpt>
      <trkpt lat="45.29548" lon="5.74354">
        <ele>1633.6</ele>
        <time>2021-01-26T11:23:17Z</time>
      </trkpt>
      <trkpt lat="45.2955" lon="5.74355">
        <ele>1636.2</ele>
        <time>2021-01-26T11:23:19Z</time>
      </trkpt>
      <trkpt lat="45.29552" lon="5.74358">
        <ele>1636.2</ele>
        <time>2021-01-26T11:23:21Z</time>
      </trkpt>
      <trkpt lat="45.29555" lon="5.7436">
        <ele>1636.2</ele>
        <time>2021-01-26T11:23:23Z</time>
      </trkpt>
      <trkpt lat="45.29557" lon="5.74362">
        <ele>1636.2</ele>
        <time>2021-01-26T11:23:26Z</time>
      </trkpt>
      <trkpt lat="45.29559" lon="5.74362">
        <ele>1639.2</ele>
        <time>2021-01-26T11:23:29Z</time>
      </trkpt>
      <trkpt lat="45.29561" lon="5.74362">
        <ele>1639.2</ele>
        <time>2021-01-26T11:23:31Z</time>
      </trkpt>
      <trkpt lat="45.29563" lon="5.74362">
        <ele>1639.2</ele>
        <time>2021-01-26T11:23:33Z</time>
      </trkpt>
      <trkpt lat="45.29565" lon="5.74362">
        <ele>1639.2</ele>
        <time>2021-01-26T11:23:36Z</time>
      </trkpt>
      <trkpt lat="45.29575" lon="5.74363">
        <ele>1639.2</ele>
        <time>2021-01-26T11:23:44Z</time>
      </trkpt>
      <trkpt lat="45.29577" lon="5.74364">
        <ele>1639.2</ele>
        <time>2021-01-26T11:23:46Z</time>
      </trkpt>
      <trkpt lat="45.2958" lon="5.74364">
        <ele>1639.2</ele>
        <time>2021-01-26T11:23:48Z</time>
      </trkpt>
      <trkpt lat="45.29583" lon="5.74365">
        <ele>1639.2</ele>
        <time>2021-01-26T11:23:50Z</time>
      </trkpt>
      <trkpt lat="45.29584" lon="5.74366">
        <ele>1639.2</ele>
        <time>2021-01-26T11:23:52Z</time>
      </trkpt>
      <trkpt lat="45.29586" lon="5.74366">
        <ele>1639.2</ele>
        <time>2021-01-26T11:23:54Z</time>
      </trkpt>
      <trkpt lat="45.29588" lon="5.74367">
        <ele>1639.2</ele>
        <time>2021-01-26T11:23:56Z</time>
      </trkpt>
      <trkpt lat="45.29591" lon="5.74369">
        <ele>1646.6</ele>
        <time>2021-01-26T11:23:59Z</time>
      </trkpt>
      <trkpt lat="45.29593" lon="5.7437">
        <ele>1646.6</ele>
        <time>2021-01-26T11:24:01Z</time>
      </trkpt>
      <trkpt lat="45.29595" lon="5.74371">
        <ele>1646.6</ele>
        <time>2021-01-26T11:24:03Z</time>
      </trkpt>
      <trkpt lat="45.29597" lon="5.74372">
        <ele>1646.6</ele>
        <time>2021-01-26T11:24:05Z</time>
      </trkpt>
      <trkpt lat="45.29599" lon="5.74373">
        <ele>1646.6</ele>
        <time>2021-01-26T11:24:07Z</time>
      </trkpt>
      <trkpt lat="45.29601" lon="5.74374">
        <ele>1649.4</ele>
        <time>2021-01-26T11:24:09Z</time>
      </trkpt>
      <trkpt lat="45.29604" lon="5.74374">
        <ele>1649.4</ele>
        <time>2021-01-26T11:24:11Z</time>
      </trkpt>
      <trkpt lat="45.29606" lon="5.74374">
        <ele>1649.4</ele>
        <time>2021-01-26T11:24:12Z</time>
      </trkpt>
      <trkpt lat="45.29608" lon="5.74374">
        <ele>1649.4</ele>
        <time>2021-01-26T11:24:13Z</time>
      </trkpt>
      <trkpt lat="45.2961" lon="5.74374">
        <ele>1649.4</ele>
        <time>2021-01-26T11:24:15Z</time>
      </trkpt>
      <trkpt lat="45.29612" lon="5.74374">
        <ele>1649.4</ele>
        <time>2021-01-26T11:24:17Z</time>
      </trkpt>
      <trkpt lat="45.29614" lon="5.74373">
        <ele>1651.4</ele>
        <time>2021-01-26T11:24:19Z</time>
      </trkpt>
      <trkpt lat="45.29616" lon="5.74373">
        <ele>1651.4</ele>
        <time>2021-01-26T11:24:21Z</time>
      </trkpt>
      <trkpt lat="45.29619" lon="5.74374">
        <ele>1651.4</ele>
        <time>2021-01-26T11:24:25Z</time>
      </trkpt>
      <trkpt lat="45.29621" lon="5.74374">
        <ele>1651.4</ele>
        <time>2021-01-26T11:24:28Z</time>
      </trkpt>
      <trkpt lat="45.29623" lon="5.74376">
        <ele>1651.4</ele>
        <time>2021-01-26T11:24:30Z</time>
      </trkpt>
      <trkpt lat="45.29625" lon="5.74378">
        <ele>1651.4</ele>
        <time>2021-01-26T11:24:32Z</time>
      </trkpt>
      <trkpt lat="45.29627" lon="5.74378">
        <ele>1651.4</ele>
        <time>2021-01-26T11:24:34Z</time>
      </trkpt>
      <trkpt lat="45.2963" lon="5.74379">
        <ele>1651.4</ele>
        <time>2021-01-26T11:24:36Z</time>
      </trkpt>
      <trkpt lat="45.29633" lon="5.7438">
        <ele>1651.4</ele>
        <time>2021-01-26T11:24:38Z</time>
      </trkpt>
      <trkpt lat="45.29636" lon="5.74381">
        <ele>1651.4</ele>
        <time>2021-01-26T11:24:40Z</time>
      </trkpt>
      <trkpt lat="45.29639" lon="5.74383">
        <ele>1651.4</ele>
        <time>2021-01-26T11:24:42Z</time>
      </trkpt>
      <trkpt lat="45.29641" lon="5.74383">
        <ele>1651.4</ele>
        <time>2021-01-26T11:24:44Z</time>
      </trkpt>
      <trkpt lat="45.29644" lon="5.74384">
        <ele>1651.4</ele>
        <time>2021-01-26T11:24:46Z</time>
      </trkpt>
      <trkpt lat="45.29646" lon="5.74385">
        <ele>1651.4</ele>
        <time>2021-01-26T11:24:47Z</time>
      </trkpt>
      <trkpt lat="45.29649" lon="5.74385">
        <ele>1651.4</ele>
        <time>2021-01-26T11:24:48Z</time>
      </trkpt>
      <trkpt lat="45.29651" lon="5.74384">
        <ele>1656.8</ele>
        <time>2021-01-26T11:24:49Z</time>
      </trkpt>
      <trkpt lat="45.29654" lon="5.74384">
        <ele>1656.8</ele>
        <time>2021-01-26T11:24:50Z</time>
      </trkpt>
      <trkpt lat="45.29656" lon="5.74384">
        <ele>1656.8</ele>
        <time>2021-01-26T11:24:51Z</time>
      </trkpt>
      <trkpt lat="45.29658" lon="5.74384">
        <ele>1656.8</ele>
        <time>2021-01-26T11:24:52Z</time>
      </trkpt>
      <trkpt lat="45.2966" lon="5.74384">
        <ele>1656.8</ele>
        <time>2021-01-26T11:24:53Z</time>
      </trkpt>
      <trkpt lat="45.29662" lon="5.74384">
        <ele>1656.8</ele>
        <time>2021-01-26T11:24:54Z</time>
      </trkpt>
      <trkpt lat="45.29665" lon="5.74384">
        <ele>1656.8</ele>
        <time>2021-01-26T11:24:55Z</time>
      </trkpt>
      <trkpt lat="45.29668" lon="5.74384">
        <ele>1656.8</ele>
        <time>2021-01-26T11:24:56Z</time>
      </trkpt>
      <trkpt lat="45.29671" lon="5.74383">
        <ele>1656.8</ele>
        <time>2021-01-26T11:24:57Z</time>
      </trkpt>
      <trkpt lat="45.29674" lon="5.74382">
        <ele>1656.8</ele>
        <time>2021-01-26T11:24:58Z</time>
      </trkpt>
      <trkpt lat="45.29676" lon="5.74382">
        <ele>1655</ele>
        <time>2021-01-26T11:24:59Z</time>
      </trkpt>
      <trkpt lat="45.29678" lon="5.74381">
        <ele>1655</ele>
        <time>2021-01-26T11:25:00Z</time>
      </trkpt>
      <trkpt lat="45.2968" lon="5.74381">
        <ele>1655</ele>
        <time>2021-01-26T11:25:01Z</time>
      </trkpt>
      <trkpt lat="45.29682" lon="5.74381">
        <ele>1655</ele>
        <time>2021-01-26T11:25:02Z</time>
      </trkpt>
      <trkpt lat="45.29686" lon="5.7438">
        <ele>1655</ele>
        <time>2021-01-26T11:25:04Z</time>
      </trkpt>
      <trkpt lat="45.29688" lon="5.7438">
        <ele>1655</ele>
        <time>2021-01-26T11:25:05Z</time>
      </trkpt>
      <trkpt lat="45.2969" lon="5.7438">
        <ele>1655</ele>
        <time>2021-01-26T11:25:07Z</time>
      </trkpt>
      <trkpt lat="45.29693" lon="5.7438">
        <ele>1655</ele>
        <time>2021-01-26T11:25:09Z</time>
      </trkpt>
      <trkpt lat="45.29696" lon="5.74379">
        <ele>1655</ele>
        <time>2021-01-26T11:25:11Z</time>
      </trkpt>
      <trkpt lat="45.29698" lon="5.74379">
        <ele>1655</ele>
        <time>2021-01-26T11:25:13Z</time>
      </trkpt>
      <trkpt lat="45.29701" lon="5.74379">
        <ele>1655</ele>
        <time>2021-01-26T11:25:15Z</time>
      </trkpt>
      <trkpt lat="45.29703" lon="5.74379">
        <ele>1655</ele>
        <time>2021-01-26T11:25:17Z</time>
      </trkpt>
      <trkpt lat="45.29706" lon="5.74379">
        <ele>1656</ele>
        <time>2021-01-26T11:25:19Z</time>
      </trkpt>
      <trkpt lat="45.29712" lon="5.74378">
        <ele>1656</ele>
        <time>2021-01-26T11:25:23Z</time>
      </trkpt>
      <trkpt lat="45.29715" lon="5.74376">
        <ele>1656</ele>
        <time>2021-01-26T11:25:25Z</time>
      </trkpt>
      <trkpt lat="45.29718" lon="5.74376">
        <ele>1656</ele>
        <time>2021-01-26T11:25:27Z</time>
      </trkpt>
      <trkpt lat="45.2972" lon="5.74374">
        <ele>1657.2</ele>
        <time>2021-01-26T11:25:29Z</time>
      </trkpt>
      <trkpt lat="45.29722" lon="5.74372">
        <ele>1657.2</ele>
        <time>2021-01-26T11:25:30Z</time>
      </trkpt>
      <trkpt lat="45.29724" lon="5.74369">
        <ele>1657.2</ele>
        <time>2021-01-26T11:25:32Z</time>
      </trkpt>
      <trkpt lat="45.29726" lon="5.74367">
        <ele>1657.2</ele>
        <time>2021-01-26T11:25:33Z</time>
      </trkpt>
      <trkpt lat="45.29729" lon="5.74366">
        <ele>1657.2</ele>
        <time>2021-01-26T11:25:35Z</time>
      </trkpt>
      <trkpt lat="45.29731" lon="5.74365">
        <ele>1657.2</ele>
        <time>2021-01-26T11:25:36Z</time>
      </trkpt>
      <trkpt lat="45.29734" lon="5.74364">
        <ele>1657.2</ele>
        <time>2021-01-26T11:25:37Z</time>
      </trkpt>
      <trkpt lat="45.29735" lon="5.74363">
        <ele>1657.2</ele>
        <time>2021-01-26T11:25:38Z</time>
      </trkpt>
      <trkpt lat="45.29738" lon="5.74361">
        <ele>1657.2</ele>
        <time>2021-01-26T11:25:40Z</time>
      </trkpt>
      <trkpt lat="45.2974" lon="5.74359">
        <ele>1657.2</ele>
        <time>2021-01-26T11:25:42Z</time>
      </trkpt>
      <trkpt lat="45.29742" lon="5.74356">
        <ele>1657.2</ele>
        <time>2021-01-26T11:25:44Z</time>
      </trkpt>
      <trkpt lat="45.29745" lon="5.74354">
        <ele>1657.2</ele>
        <time>2021-01-26T11:25:46Z</time>
      </trkpt>
      <trkpt lat="45.29747" lon="5.74353">
        <ele>1657.2</ele>
        <time>2021-01-26T11:25:48Z</time>
      </trkpt>
      <trkpt lat="45.29749" lon="5.7435">
        <ele>1657.2</ele>
        <time>2021-01-26T11:25:50Z</time>
      </trkpt>
      <trkpt lat="45.29752" lon="5.74347">
        <ele>1657.2</ele>
        <time>2021-01-26T11:25:52Z</time>
      </trkpt>
      <trkpt lat="45.29756" lon="5.74345">
        <ele>1657.2</ele>
        <time>2021-01-26T11:25:54Z</time>
      </trkpt>
      <trkpt lat="45.29758" lon="5.74344">
        <ele>1657.2</ele>
        <time>2021-01-26T11:25:55Z</time>
      </trkpt>
      <trkpt lat="45.29759" lon="5.74342">
        <ele>1657.2</ele>
        <time>2021-01-26T11:25:56Z</time>
      </trkpt>
      <trkpt lat="45.29761" lon="5.7434">
        <ele>1657.2</ele>
        <time>2021-01-26T11:25:57Z</time>
      </trkpt>
      <trkpt lat="45.29764" lon="5.74337">
        <ele>1658.4</ele>
        <time>2021-01-26T11:25:59Z</time>
      </trkpt>
      <trkpt lat="45.29766" lon="5.74335">
        <ele>1658.4</ele>
        <time>2021-01-26T11:26:01Z</time>
      </trkpt>
      <trkpt lat="45.29767" lon="5.74332">
        <ele>1658.4</ele>
        <time>2021-01-26T11:26:03Z</time>
      </trkpt>
      <trkpt lat="45.29765" lon="5.74328">
        <ele>1658.4</ele>
        <time>2021-01-26T11:26:06Z</time>
      </trkpt>
      <trkpt lat="45.29762" lon="5.74324">
        <ele>1658.4</ele>
        <time>2021-01-26T11:26:08Z</time>
      </trkpt>
      <trkpt lat="45.2976" lon="5.74321">
        <ele>1658.4</ele>
        <time>2021-01-26T11:26:10Z</time>
      </trkpt>
      <trkpt lat="45.29759" lon="5.74316">
        <ele>1658.4</ele>
        <time>2021-01-26T11:26:12Z</time>
      </trkpt>
      <trkpt lat="45.29757" lon="5.74312">
        <ele>1658.4</ele>
        <time>2021-01-26T11:26:13Z</time>
      </trkpt>
      <trkpt lat="45.29757" lon="5.74309">
        <ele>1658.4</ele>
        <time>2021-01-26T11:26:14Z</time>
      </trkpt>
      <trkpt lat="45.29758" lon="5.74305">
        <ele>1658.4</ele>
        <time>2021-01-26T11:26:15Z</time>
      </trkpt>
      <trkpt lat="45.2976" lon="5.743">
        <ele>1658.4</ele>
        <time>2021-01-26T11:26:16Z</time>
      </trkpt>
      <trkpt lat="45.29762" lon="5.74295">
        <ele>1658.4</ele>
        <time>2021-01-26T11:26:17Z</time>
      </trkpt>
      <trkpt lat="45.29769" lon="5.74284">
        <ele>1649</ele>
        <time>2021-01-26T11:26:19Z</time>
      </trkpt>
      <trkpt lat="45.29774" lon="5.7427">
        <ele>1649</ele>
        <time>2021-01-26T11:26:21Z</time>
      </trkpt>
      <trkpt lat="45.29776" lon="5.74267">
        <ele>1649</ele>
        <time>2021-01-26T11:26:22Z</time>
      </trkpt>
      <trkpt lat="45.29777" lon="5.74264">
        <ele>1649</ele>
        <time>2021-01-26T11:26:23Z</time>
      </trkpt>
      <trkpt lat="45.29778" lon="5.74262">
        <ele>1649</ele>
        <time>2021-01-26T11:26:24Z</time>
      </trkpt>
      <trkpt lat="45.2978" lon="5.74259">
        <ele>1649</ele>
        <time>2021-01-26T11:26:26Z</time>
      </trkpt>
      <trkpt lat="45.29782" lon="5.74257">
        <ele>1649</ele>
        <time>2021-01-26T11:26:28Z</time>
      </trkpt>
      <trkpt lat="45.29784" lon="5.74257">
        <ele>1649</ele>
        <time>2021-01-26T11:26:30Z</time>
      </trkpt>
      <trkpt lat="45.29787" lon="5.74256">
        <ele>1649</ele>
        <time>2021-01-26T11:26:32Z</time>
      </trkpt>
      <trkpt lat="45.29789" lon="5.74255">
        <ele>1649</ele>
        <time>2021-01-26T11:26:33Z</time>
      </trkpt>
      <trkpt lat="45.29791" lon="5.74253">
        <ele>1649</ele>
        <time>2021-01-26T11:26:35Z</time>
      </trkpt>
      <trkpt lat="45.29794" lon="5.74252">
        <ele>1649</ele>
        <time>2021-01-26T11:26:37Z</time>
      </trkpt>
      <trkpt lat="45.29797" lon="5.74251">
        <ele>1646.4</ele>
        <time>2021-01-26T11:26:39Z</time>
      </trkpt>
      <trkpt lat="45.298" lon="5.74251">
        <ele>1646.4</ele>
        <time>2021-01-26T11:26:41Z</time>
      </trkpt>
      <trkpt lat="45.29803" lon="5.74251">
        <ele>1646.4</ele>
        <time>2021-01-26T11:26:43Z</time>
      </trkpt>
      <trkpt lat="45.29806" lon="5.74252">
        <ele>1646.4</ele>
        <time>2021-01-26T11:26:47Z</time>
      </trkpt>
      <trkpt lat="45.29808" lon="5.74253">
        <ele>1646.4</ele>
        <time>2021-01-26T11:26:50Z</time>
      </trkpt>
      <trkpt lat="45.29811" lon="5.74253">
        <ele>1646.4</ele>
        <time>2021-01-26T11:26:52Z</time>
      </trkpt>
      <trkpt lat="45.29814" lon="5.74252">
        <ele>1646.4</ele>
        <time>2021-01-26T11:26:54Z</time>
      </trkpt>
      <trkpt lat="45.29817" lon="5.74254">
        <ele>1646.4</ele>
        <time>2021-01-26T11:26:56Z</time>
      </trkpt>
      <trkpt lat="45.29819" lon="5.74255">
        <ele>1646.4</ele>
        <time>2021-01-26T11:26:57Z</time>
      </trkpt>
      <trkpt lat="45.29821" lon="5.74256">
        <ele>1646.4</ele>
        <time>2021-01-26T11:26:58Z</time>
      </trkpt>
      <trkpt lat="45.29824" lon="5.74257">
        <ele>1646.4</ele>
        <time>2021-01-26T11:27:00Z</time>
      </trkpt>
      <trkpt lat="45.29826" lon="5.74258">
        <ele>1646.4</ele>
        <time>2021-01-26T11:27:02Z</time>
      </trkpt>
      <trkpt lat="45.29828" lon="5.7426">
        <ele>1646.4</ele>
        <time>2021-01-26T11:27:04Z</time>
      </trkpt>
      <trkpt lat="45.29831" lon="5.74261">
        <ele>1646.4</ele>
        <time>2021-01-26T11:27:06Z</time>
      </trkpt>
      <trkpt lat="45.29833" lon="5.74262">
        <ele>1646.4</ele>
        <time>2021-01-26T11:27:08Z</time>
      </trkpt>
      <trkpt lat="45.29836" lon="5.74264">
        <ele>1646.4</ele>
        <time>2021-01-26T11:27:10Z</time>
      </trkpt>
      <trkpt lat="45.29838" lon="5.74266">
        <ele>1646.4</ele>
        <time>2021-01-26T11:27:11Z</time>
      </trkpt>
      <trkpt lat="45.2984" lon="5.74267">
        <ele>1646.4</ele>
        <time>2021-01-26T11:27:12Z</time>
      </trkpt>
      <trkpt lat="45.29841" lon="5.74268">
        <ele>1646.4</ele>
        <time>2021-01-26T11:27:13Z</time>
      </trkpt>
      <trkpt lat="45.29843" lon="5.7427">
        <ele>1646.4</ele>
        <time>2021-01-26T11:27:14Z</time>
      </trkpt>
      <trkpt lat="45.29847" lon="5.74272">
        <ele>1646.4</ele>
        <time>2021-01-26T11:27:16Z</time>
      </trkpt>
      <trkpt lat="45.29849" lon="5.74273">
        <ele>1646.4</ele>
        <time>2021-01-26T11:27:17Z</time>
      </trkpt>
      <trkpt lat="45.29851" lon="5.74273">
        <ele>1646.4</ele>
        <time>2021-01-26T11:27:18Z</time>
      </trkpt>
      <trkpt lat="45.29853" lon="5.74274">
        <ele>1650.6</ele>
        <time>2021-01-26T11:27:19Z</time>
      </trkpt>
      <trkpt lat="45.29855" lon="5.74275">
        <ele>1650.6</ele>
        <time>2021-01-26T11:27:21Z</time>
      </trkpt>
      <trkpt lat="45.29857" lon="5.74277">
        <ele>1650.6</ele>
        <time>2021-01-26T11:27:23Z</time>
      </trkpt>
      <trkpt lat="45.29859" lon="5.74281">
        <ele>1650.6</ele>
        <time>2021-01-26T11:27:25Z</time>
      </trkpt>
      <trkpt lat="45.2986" lon="5.74283">
        <ele>1650.6</ele>
        <time>2021-01-26T11:27:26Z</time>
      </trkpt>
      <trkpt lat="45.29863" lon="5.74287">
        <ele>1650.6</ele>
        <time>2021-01-26T11:27:28Z</time>
      </trkpt>
      <trkpt lat="45.29865" lon="5.74289">
        <ele>1650.6</ele>
        <time>2021-01-26T11:27:30Z</time>
      </trkpt>
      <trkpt lat="45.29867" lon="5.74292">
        <ele>1650.6</ele>
        <time>2021-01-26T11:27:32Z</time>
      </trkpt>
      <trkpt lat="45.29869" lon="5.74295">
        <ele>1650.6</ele>
        <time>2021-01-26T11:27:34Z</time>
      </trkpt>
      <trkpt lat="45.2987" lon="5.74298">
        <ele>1650.6</ele>
        <time>2021-01-26T11:27:38Z</time>
      </trkpt>
      <trkpt lat="45.29872" lon="5.74299">
        <ele>1650.6</ele>
        <time>2021-01-26T11:27:40Z</time>
      </trkpt>
      <trkpt lat="45.29875" lon="5.74302">
        <ele>1650.6</ele>
        <time>2021-01-26T11:27:42Z</time>
      </trkpt>
      <trkpt lat="45.29877" lon="5.74303">
        <ele>1650.6</ele>
        <time>2021-01-26T11:27:43Z</time>
      </trkpt>
      <trkpt lat="45.29878" lon="5.74305">
        <ele>1650.6</ele>
        <time>2021-01-26T11:27:44Z</time>
      </trkpt>
      <trkpt lat="45.2988" lon="5.74306">
        <ele>1650.6</ele>
        <time>2021-01-26T11:27:46Z</time>
      </trkpt>
      <trkpt lat="45.29882" lon="5.74308">
        <ele>1650.6</ele>
        <time>2021-01-26T11:27:48Z</time>
      </trkpt>
      <trkpt lat="45.29885" lon="5.74312">
        <ele>1650.6</ele>
        <time>2021-01-26T11:27:50Z</time>
      </trkpt>
      <trkpt lat="45.29887" lon="5.74314">
        <ele>1650.6</ele>
        <time>2021-01-26T11:27:51Z</time>
      </trkpt>
      <trkpt lat="45.29889" lon="5.74315">
        <ele>1650.6</ele>
        <time>2021-01-26T11:27:52Z</time>
      </trkpt>
      <trkpt lat="45.2989" lon="5.74317">
        <ele>1650.6</ele>
        <time>2021-01-26T11:27:53Z</time>
      </trkpt>
      <trkpt lat="45.29892" lon="5.74319">
        <ele>1650.6</ele>
        <time>2021-01-26T11:27:54Z</time>
      </trkpt>
      <trkpt lat="45.29895" lon="5.74322">
        <ele>1650.6</ele>
        <time>2021-01-26T11:27:56Z</time>
      </trkpt>
      <trkpt lat="45.29896" lon="5.74324">
        <ele>1650.6</ele>
        <time>2021-01-26T11:27:57Z</time>
      </trkpt>
      <trkpt lat="45.29898" lon="5.74326">
        <ele>1650.6</ele>
        <time>2021-01-26T11:27:58Z</time>
      </trkpt>
      <trkpt lat="45.29899" lon="5.74327">
        <ele>1650.8</ele>
        <time>2021-01-26T11:27:59Z</time>
      </trkpt>
      <trkpt lat="45.29901" lon="5.74329">
        <ele>1650.8</ele>
        <time>2021-01-26T11:28:00Z</time>
      </trkpt>
      <trkpt lat="45.29903" lon="5.74331">
        <ele>1650.8</ele>
        <time>2021-01-26T11:28:01Z</time>
      </trkpt>
      <trkpt lat="45.29904" lon="5.74333">
        <ele>1650.8</ele>
        <time>2021-01-26T11:28:02Z</time>
      </trkpt>
      <trkpt lat="45.29906" lon="5.74335">
        <ele>1650.8</ele>
        <time>2021-01-26T11:28:03Z</time>
      </trkpt>
      <trkpt lat="45.29908" lon="5.74336">
        <ele>1650.8</ele>
        <time>2021-01-26T11:28:04Z</time>
      </trkpt>
      <trkpt lat="45.2991" lon="5.74338">
        <ele>1650.8</ele>
        <time>2021-01-26T11:28:05Z</time>
      </trkpt>
      <trkpt lat="45.29911" lon="5.74339">
        <ele>1650.8</ele>
        <time>2021-01-26T11:28:06Z</time>
      </trkpt>
      <trkpt lat="45.29913" lon="5.74341">
        <ele>1650.8</ele>
        <time>2021-01-26T11:28:07Z</time>
      </trkpt>
      <trkpt lat="45.29915" lon="5.74342">
        <ele>1650.8</ele>
        <time>2021-01-26T11:28:08Z</time>
      </trkpt>
      <trkpt lat="45.29917" lon="5.74343">
        <ele>1650</ele>
        <time>2021-01-26T11:28:09Z</time>
      </trkpt>
      <trkpt lat="45.29919" lon="5.74345">
        <ele>1650</ele>
        <time>2021-01-26T11:28:10Z</time>
      </trkpt>
      <trkpt lat="45.29922" lon="5.74347">
        <ele>1650</ele>
        <time>2021-01-26T11:28:12Z</time>
      </trkpt>
      <trkpt lat="45.29924" lon="5.74347">
        <ele>1650</ele>
        <time>2021-01-26T11:28:14Z</time>
      </trkpt>
      <trkpt lat="45.29927" lon="5.74349">
        <ele>1650</ele>
        <time>2021-01-26T11:28:16Z</time>
      </trkpt>
      <trkpt lat="45.29927" lon="5.74352">
        <ele>1650</ele>
        <time>2021-01-26T11:28:18Z</time>
      </trkpt>
      <trkpt lat="45.2993" lon="5.74353">
        <ele>1650</ele>
        <time>2021-01-26T11:28:32Z</time>
      </trkpt>
      <trkpt lat="45.29932" lon="5.74354">
        <ele>1650</ele>
        <time>2021-01-26T11:28:33Z</time>
      </trkpt>
      <trkpt lat="45.29935" lon="5.74354">
        <ele>1650</ele>
        <time>2021-01-26T11:28:34Z</time>
      </trkpt>
      <trkpt lat="45.29938" lon="5.74356">
        <ele>1650</ele>
        <time>2021-01-26T11:28:35Z</time>
      </trkpt>
      <trkpt lat="45.29941" lon="5.74357">
        <ele>1650</ele>
        <time>2021-01-26T11:28:36Z</time>
      </trkpt>
      <trkpt lat="45.29945" lon="5.7436">
        <ele>1650</ele>
        <time>2021-01-26T11:28:37Z</time>
      </trkpt>
      <trkpt lat="45.29947" lon="5.74362">
        <ele>1650</ele>
        <time>2021-01-26T11:28:38Z</time>
      </trkpt>
      <trkpt lat="45.29949" lon="5.74363">
        <ele>1650</ele>
        <time>2021-01-26T11:28:50Z</time>
      </trkpt>
      <trkpt lat="45.29951" lon="5.74365">
        <ele>1650</ele>
        <time>2021-01-26T11:28:51Z</time>
      </trkpt>
      <trkpt lat="45.29953" lon="5.74365">
        <ele>1650</ele>
        <time>2021-01-26T11:28:53Z</time>
      </trkpt>
      <trkpt lat="45.29954" lon="5.74362">
        <ele>1650</ele>
        <time>2021-01-26T11:28:54Z</time>
      </trkpt>
      <trkpt lat="45.29954" lon="5.74359">
        <ele>1650</ele>
        <time>2021-01-26T11:28:55Z</time>
      </trkpt>
      <trkpt lat="45.29957" lon="5.7436">
        <ele>1650</ele>
        <time>2021-01-26T11:28:57Z</time>
      </trkpt>
      <trkpt lat="45.29959" lon="5.74362">
        <ele>1650</ele>
        <time>2021-01-26T11:28:58Z</time>
      </trkpt>
      <trkpt lat="45.29968" lon="5.74371">
        <ele>1650</ele>
        <time>2021-01-26T11:29:01Z</time>
      </trkpt>
      <trkpt lat="45.2998" lon="5.74378">
        <ele>1650</ele>
        <time>2021-01-26T11:29:04Z</time>
      </trkpt>
      <trkpt lat="45.29989" lon="5.7439">
        <ele>1650</ele>
        <time>2021-01-26T11:29:07Z</time>
      </trkpt>
      <trkpt lat="45.29995" lon="5.7439">
        <ele>1650</ele>
        <time>2021-01-26T11:29:15Z</time>
      </trkpt>
      <trkpt lat="45.29995" lon="5.74387">
        <ele>1650</ele>
        <time>2021-01-26T11:29:23Z</time>
      </trkpt>
      <trkpt lat="45.3" lon="5.74384">
        <ele>1650</ele>
        <time>2021-01-26T11:29:38Z</time>
      </trkpt>
      <trkpt lat="45.30002" lon="5.74383">
        <ele>1650</ele>
        <time>2021-01-26T11:29:51Z</time>
      </trkpt>
      <trkpt lat="45.30004" lon="5.74385">
        <ele>1650</ele>
        <time>2021-01-26T11:30:03Z</time>
      </trkpt>
      <trkpt lat="45.30002" lon="5.74385">
        <ele>1650</ele>
        <time>2021-01-26T11:30:08Z</time>
      </trkpt>
      <trkpt lat="45.30003" lon="5.74387">
        <ele>1650</ele>
        <time>2021-01-26T11:30:13Z</time>
      </trkpt>
      <trkpt lat="45.30001" lon="5.74387">
        <ele>1650</ele>
        <time>2021-01-26T11:30:20Z</time>
      </trkpt>
      <trkpt lat="45.30003" lon="5.74388">
        <ele>1650</ele>
        <time>2021-01-26T11:30:28Z</time>
      </trkpt>
      <trkpt lat="45.30005" lon="5.74386">
        <ele>1650</ele>
        <time>2021-01-26T11:31:44Z</time>
      </trkpt>
      <trkpt lat="45.30004" lon="5.74389">
        <ele>1650</ele>
        <time>2021-01-26T11:31:52Z</time>
      </trkpt>
      <trkpt lat="45.30006" lon="5.74391">
        <ele>1620</ele>
        <time>2021-01-26T11:32:59Z</time>
      </trkpt>
      <trkpt lat="45.30004" lon="5.7439">
        <ele>1620</ele>
        <time>2021-01-26T11:33:03Z</time>
      </trkpt>
      <trkpt lat="45.29999" lon="5.7438">
        <ele>1620</ele>
        <time>2021-01-26T11:33:33Z</time>
      </trkpt>
      <trkpt lat="45.30001" lon="5.74377">
        <ele>1620</ele>
        <time>2021-01-26T11:33:41Z</time>
      </trkpt>
      <trkpt lat="45.3" lon="5.74372">
        <ele>1620</ele>
        <time>2021-01-26T11:33:45Z</time>
      </trkpt>
      <trkpt lat="45.30002" lon="5.74368">
        <ele>1620</ele>
        <time>2021-01-26T11:33:47Z</time>
      </trkpt>
      <trkpt lat="45.30003" lon="5.74364">
        <ele>1620</ele>
        <time>2021-01-26T11:33:50Z</time>
      </trkpt>
      <trkpt lat="45.30005" lon="5.74362">
        <ele>1620</ele>
        <time>2021-01-26T11:33:51Z</time>
      </trkpt>
      <trkpt lat="45.30015" lon="5.74351">
        <ele>1620</ele>
        <time>2021-01-26T11:33:54Z</time>
      </trkpt>
      <trkpt lat="45.3002" lon="5.74338">
        <ele>1620</ele>
        <time>2021-01-26T11:33:56Z</time>
      </trkpt>
      <trkpt lat="45.30022" lon="5.74325">
        <ele>1620</ele>
        <time>2021-01-26T11:33:58Z</time>
      </trkpt>
      <trkpt lat="45.30016" lon="5.74313">
        <ele>1620</ele>
        <time>2021-01-26T11:34:04Z</time>
      </trkpt>
      <trkpt lat="45.30024" lon="5.74305">
        <ele>1620</ele>
        <time>2021-01-26T11:34:18Z</time>
      </trkpt>
      <trkpt lat="45.30036" lon="5.74303">
        <ele>1620</ele>
        <time>2021-01-26T11:34:20Z</time>
      </trkpt>
      <trkpt lat="45.30047" lon="5.74301">
        <ele>1620</ele>
        <time>2021-01-26T11:34:22Z</time>
      </trkpt>
      <trkpt lat="45.30054" lon="5.74288">
        <ele>1620</ele>
        <time>2021-01-26T11:34:25Z</time>
      </trkpt>
      <trkpt lat="45.30061" lon="5.74276">
        <ele>1620</ele>
        <time>2021-01-26T11:34:27Z</time>
      </trkpt>
      <trkpt lat="45.30068" lon="5.74266">
        <ele>1566.2</ele>
        <time>2021-01-26T11:34:29Z</time>
      </trkpt>
      <trkpt lat="45.30072" lon="5.74248">
        <ele>1566.2</ele>
        <time>2021-01-26T11:34:32Z</time>
      </trkpt>
      <trkpt lat="45.30078" lon="5.74234">
        <ele>1566.2</ele>
        <time>2021-01-26T11:34:34Z</time>
      </trkpt>
      <trkpt lat="45.30089" lon="5.74223">
        <ele>1566.2</ele>
        <time>2021-01-26T11:34:36Z</time>
      </trkpt>
      <trkpt lat="45.30098" lon="5.74217">
        <ele>1566.2</ele>
        <time>2021-01-26T11:34:38Z</time>
      </trkpt>
      <trkpt lat="45.30104" lon="5.74202">
        <ele>1566.2</ele>
        <time>2021-01-26T11:35:16Z</time>
      </trkpt>
      <trkpt lat="45.30114" lon="5.742">
        <ele>1566.2</ele>
        <time>2021-01-26T11:35:18Z</time>
      </trkpt>
      <trkpt lat="45.30126" lon="5.74195">
        <ele>1566.2</ele>
        <time>2021-01-26T11:35:21Z</time>
      </trkpt>
      <trkpt lat="45.3014" lon="5.74197">
        <ele>1566.2</ele>
        <time>2021-01-26T11:35:23Z</time>
      </trkpt>
      <trkpt lat="45.30153" lon="5.74196">
        <ele>1566.2</ele>
        <time>2021-01-26T11:35:26Z</time>
      </trkpt>
      <trkpt lat="45.30166" lon="5.74194">
        <ele>1566.2</ele>
        <time>2021-01-26T11:35:28Z</time>
      </trkpt>
      <trkpt lat="45.30176" lon="5.74192">
        <ele>1566.2</ele>
        <time>2021-01-26T11:35:30Z</time>
      </trkpt>
      <trkpt lat="45.30185" lon="5.74191">
        <ele>1566.2</ele>
        <time>2021-01-26T11:35:32Z</time>
      </trkpt>
      <trkpt lat="45.30196" lon="5.74189">
        <ele>1566.2</ele>
        <time>2021-01-26T11:35:35Z</time>
      </trkpt>
      <trkpt lat="45.30198" lon="5.74177">
        <ele>1566.2</ele>
        <time>2021-01-26T11:35:40Z</time>
      </trkpt>
      <trkpt lat="45.30195" lon="5.74189">
        <ele>1566.2</ele>
        <time>2021-01-26T11:35:58Z</time>
      </trkpt>
      <trkpt lat="45.30207" lon="5.74186">
        <ele>1566.2</ele>
        <time>2021-01-26T11:36:05Z</time>
      </trkpt>
      <trkpt lat="45.30216" lon="5.74179">
        <ele>1566.2</ele>
        <time>2021-01-26T11:36:08Z</time>
      </trkpt>
      <trkpt lat="45.3021" lon="5.7416">
        <ele>1566.2</ele>
        <time>2021-01-26T11:36:11Z</time>
      </trkpt>
      <trkpt lat="45.30211" lon="5.74144">
        <ele>1566.2</ele>
        <time>2021-01-26T11:36:13Z</time>
      </trkpt>
      <trkpt lat="45.30214" lon="5.74131">
        <ele>1566.2</ele>
        <time>2021-01-26T11:36:15Z</time>
      </trkpt>
      <trkpt lat="45.30215" lon="5.74116">
        <ele>1566.2</ele>
        <time>2021-01-26T11:36:17Z</time>
      </trkpt>
      <trkpt lat="45.30217" lon="5.74101">
        <ele>1566.2</ele>
        <time>2021-01-26T11:36:20Z</time>
      </trkpt>
      <trkpt lat="45.30223" lon="5.7409">
        <ele>1566.2</ele>
        <time>2021-01-26T11:36:22Z</time>
      </trkpt>
      <trkpt lat="45.30215" lon="5.74082">
        <ele>1566.2</ele>
        <time>2021-01-26T11:37:03Z</time>
      </trkpt>
      <trkpt lat="45.30219" lon="5.74069">
        <ele>1566.2</ele>
        <time>2021-01-26T11:37:05Z</time>
      </trkpt>
      <trkpt lat="45.30223" lon="5.74054">
        <ele>1566.2</ele>
        <time>2021-01-26T11:37:08Z</time>
      </trkpt>
      <trkpt lat="45.30234" lon="5.74043">
        <ele>1566.2</ele>
        <time>2021-01-26T11:37:11Z</time>
      </trkpt>
      <trkpt lat="45.30243" lon="5.74041">
        <ele>1566.2</ele>
        <time>2021-01-26T11:37:14Z</time>
      </trkpt>
      <trkpt lat="45.3025" lon="5.74032">
        <ele>1566.2</ele>
        <time>2021-01-26T11:37:18Z</time>
      </trkpt>
      <trkpt lat="45.30259" lon="5.74022">
        <ele>1566.2</ele>
        <time>2021-01-26T11:37:24Z</time>
      </trkpt>
      <trkpt lat="45.30266" lon="5.74013">
        <ele>1566.2</ele>
        <time>2021-01-26T11:37:27Z</time>
      </trkpt>
      <trkpt lat="45.30273" lon="5.74004">
        <ele>1390.2</ele>
        <time>2021-01-26T11:37:29Z</time>
      </trkpt>
      <trkpt lat="45.30278" lon="5.73994">
        <ele>1390.2</ele>
        <time>2021-01-26T11:37:32Z</time>
      </trkpt>
      <trkpt lat="45.30273" lon="5.73983">
        <ele>1390.2</ele>
        <time>2021-01-26T11:37:47Z</time>
      </trkpt>
      <trkpt lat="45.30268" lon="5.73967">
        <ele>1390.2</ele>
        <time>2021-01-26T11:37:50Z</time>
      </trkpt>
      <trkpt lat="45.30272" lon="5.73955">
        <ele>1390.2</ele>
        <time>2021-01-26T11:37:52Z</time>
      </trkpt>
      <trkpt lat="45.30264" lon="5.73949">
        <ele>1365</ele>
        <time>2021-01-26T11:37:59Z</time>
      </trkpt>
      <trkpt lat="45.30271" lon="5.73939">
        <ele>1365</ele>
        <time>2021-01-26T11:38:20Z</time>
      </trkpt>
      <trkpt lat="45.3028" lon="5.73935">
        <ele>1365</ele>
        <time>2021-01-26T11:38:34Z</time>
      </trkpt>
      <trkpt lat="45.30289" lon="5.73927">
        <ele>1365</ele>
        <time>2021-01-26T11:38:54Z</time>
      </trkpt>
      <trkpt lat="45.30291" lon="5.73932">
        <ele>1365</ele>
        <time>2021-01-26T11:39:23Z</time>
      </trkpt>
      <trkpt lat="45.3029" lon="5.7393">
        <ele>1365</ele>
        <time>2021-01-26T11:39:30Z</time>
      </trkpt>
      <trkpt lat="45.30294" lon="5.73916">
        <ele>1348.2</ele>
        <time>2021-01-26T11:39:39Z</time>
      </trkpt>
      <trkpt lat="45.30284" lon="5.73913">
        <ele>1348.2</ele>
        <time>2021-01-26T11:40:08Z</time>
      </trkpt>
      <trkpt lat="45.30276" lon="5.73904">
        <ele>1348.2</ele>
        <time>2021-01-26T11:40:11Z</time>
      </trkpt>
      <trkpt lat="45.30273" lon="5.7389">
        <ele>1348.2</ele>
        <time>2021-01-26T11:40:14Z</time>
      </trkpt>
      <trkpt lat="45.30265" lon="5.73882">
        <ele>1348.2</ele>
        <time>2021-01-26T11:40:26Z</time>
      </trkpt>
      <trkpt lat="45.30269" lon="5.73868">
        <ele>1321.4</ele>
        <time>2021-01-26T11:40:29Z</time>
      </trkpt>
      <trkpt lat="45.3027" lon="5.73853">
        <ele>1321.4</ele>
        <time>2021-01-26T11:40:32Z</time>
      </trkpt>
      <trkpt lat="45.30265" lon="5.73841">
        <ele>1321.4</ele>
        <time>2021-01-26T11:40:34Z</time>
      </trkpt>
      <trkpt lat="45.30262" lon="5.73825">
        <ele>1321.4</ele>
        <time>2021-01-26T11:40:36Z</time>
      </trkpt>
      <trkpt lat="45.3026" lon="5.73813">
        <ele>1321.4</ele>
        <time>2021-01-26T11:40:41Z</time>
      </trkpt>
      <trkpt lat="45.30264" lon="5.73799">
        <ele>1321.4</ele>
        <time>2021-01-26T11:40:53Z</time>
      </trkpt>
      <trkpt lat="45.3027" lon="5.73789">
        <ele>1321.4</ele>
        <time>2021-01-26T11:41:01Z</time>
      </trkpt>
      <trkpt lat="45.3028" lon="5.7379">
        <ele>1321.4</ele>
        <time>2021-01-26T11:41:15Z</time>
      </trkpt>
      <trkpt lat="45.30272" lon="5.73781">
        <ele>1321.4</ele>
        <time>2021-01-26T11:41:55Z</time>
      </trkpt>
      <trkpt lat="45.30274" lon="5.73767">
        <ele>1321.4</ele>
        <time>2021-01-26T11:41:57Z</time>
      </trkpt>
      <trkpt lat="45.30279" lon="5.73751">
        <ele>1289.4</ele>
        <time>2021-01-26T11:41:59Z</time>
      </trkpt>
      <trkpt lat="45.30284" lon="5.73735">
        <ele>1289.4</ele>
        <time>2021-01-26T11:42:02Z</time>
      </trkpt>
      <trkpt lat="45.3029" lon="5.73723">
        <ele>1289.4</ele>
        <time>2021-01-26T11:42:04Z</time>
      </trkpt>
      <trkpt lat="45.30296" lon="5.73711">
        <ele>1289.4</ele>
        <time>2021-01-26T11:42:06Z</time>
      </trkpt>
      <trkpt lat="45.30304" lon="5.73699">
        <ele>1289.4</ele>
        <time>2021-01-26T11:42:08Z</time>
      </trkpt>
      <trkpt lat="45.30313" lon="5.73692">
        <ele>1289.4</ele>
        <time>2021-01-26T11:42:10Z</time>
      </trkpt>
      <trkpt lat="45.30319" lon="5.73682">
        <ele>1289.4</ele>
        <time>2021-01-26T11:42:17Z</time>
      </trkpt>
      <trkpt lat="45.30324" lon="5.73671">
        <ele>1289.4</ele>
        <time>2021-01-26T11:42:20Z</time>
      </trkpt>
      <trkpt lat="45.3033" lon="5.73659">
        <ele>1289.4</ele>
        <time>2021-01-26T11:42:24Z</time>
      </trkpt>
      <trkpt lat="45.30322" lon="5.73653">
        <ele>1289.4</ele>
        <time>2021-01-26T11:42:33Z</time>
      </trkpt>
      <trkpt lat="45.30332" lon="5.73654">
        <ele>1289.4</ele>
        <time>2021-01-26T11:43:12Z</time>
      </trkpt>
      <trkpt lat="45.30341" lon="5.73661">
        <ele>1289.4</ele>
        <time>2021-01-26T11:43:21Z</time>
      </trkpt>
      <trkpt lat="45.3035" lon="5.73665">
        <ele>1289.4</ele>
        <time>2021-01-26T11:43:30Z</time>
      </trkpt>
      <trkpt lat="45.3035" lon="5.73652">
        <ele>1289.4</ele>
        <time>2021-01-26T11:44:28Z</time>
      </trkpt>
      <trkpt lat="45.30355" lon="5.73637">
        <ele>1289.4</ele>
        <time>2021-01-26T11:44:43Z</time>
      </trkpt>
      <trkpt lat="45.30362" lon="5.73626">
        <ele>1289.4</ele>
        <time>2021-01-26T11:44:46Z</time>
      </trkpt>
      <trkpt lat="45.30368" lon="5.73614">
        <ele>1263.4</ele>
        <time>2021-01-26T11:44:49Z</time>
      </trkpt>
      <trkpt lat="45.30375" lon="5.73603">
        <ele>1263.4</ele>
        <time>2021-01-26T11:44:51Z</time>
      </trkpt>
      <trkpt lat="45.30382" lon="5.73594">
        <ele>1263.4</ele>
        <time>2021-01-26T11:44:53Z</time>
      </trkpt>
      <trkpt lat="45.30391" lon="5.73585">
        <ele>1263.4</ele>
        <time>2021-01-26T11:44:55Z</time>
      </trkpt>
      <trkpt lat="45.304" lon="5.73575">
        <ele>1263.4</ele>
        <time>2021-01-26T11:44:57Z</time>
      </trkpt>
      <trkpt lat="45.30408" lon="5.73566">
        <ele>1257.4</ele>
        <time>2021-01-26T11:44:59Z</time>
      </trkpt>
      <trkpt lat="45.30417" lon="5.7356">
        <ele>1257.4</ele>
        <time>2021-01-26T11:45:01Z</time>
      </trkpt>
      <trkpt lat="45.30426" lon="5.73556">
        <ele>1257.4</ele>
        <time>2021-01-26T11:45:06Z</time>
      </trkpt>
      <trkpt lat="45.30435" lon="5.73555">
        <ele>1257.4</ele>
        <time>2021-01-26T11:45:14Z</time>
      </trkpt>
      <trkpt lat="45.30447" lon="5.73555">
        <ele>1257.4</ele>
        <time>2021-01-26T11:45:18Z</time>
      </trkpt>
      <trkpt lat="45.30456" lon="5.73558">
        <ele>1257.4</ele>
        <time>2021-01-26T11:45:20Z</time>
      </trkpt>
      <trkpt lat="45.30467" lon="5.73562">
        <ele>1257.4</ele>
        <time>2021-01-26T11:45:23Z</time>
      </trkpt>
      <trkpt lat="45.30476" lon="5.73567">
        <ele>1257.4</ele>
        <time>2021-01-26T11:45:25Z</time>
      </trkpt>
      <trkpt lat="45.30486" lon="5.73575">
        <ele>1257.4</ele>
        <time>2021-01-26T11:45:27Z</time>
      </trkpt>
      <trkpt lat="45.30499" lon="5.73585">
        <ele>1248.6</ele>
        <time>2021-01-26T11:45:29Z</time>
      </trkpt>
      <trkpt lat="45.30513" lon="5.7359">
        <ele>1248.6</ele>
        <time>2021-01-26T11:45:31Z</time>
      </trkpt>
      <trkpt lat="45.30522" lon="5.73589">
        <ele>1248.6</ele>
        <time>2021-01-26T11:45:35Z</time>
      </trkpt>
      <trkpt lat="45.30532" lon="5.73594">
        <ele>1244.6</ele>
        <time>2021-01-26T11:45:39Z</time>
      </trkpt>
      <trkpt lat="45.30537" lon="5.73605">
        <ele>1244.6</ele>
        <time>2021-01-26T11:45:45Z</time>
      </trkpt>
      <trkpt lat="45.30546" lon="5.73613">
        <ele>1244.6</ele>
        <time>2021-01-26T11:45:57Z</time>
      </trkpt>
      <trkpt lat="45.30554" lon="5.73619">
        <ele>1244.6</ele>
        <time>2021-01-26T11:46:05Z</time>
      </trkpt>
      <trkpt lat="45.30562" lon="5.73627">
        <ele>1244.6</ele>
        <time>2021-01-26T11:46:23Z</time>
      </trkpt>
      <trkpt lat="45.3057" lon="5.73635">
        <ele>1244.6</ele>
        <time>2021-01-26T11:46:31Z</time>
      </trkpt>
      <trkpt lat="45.30578" lon="5.73641">
        <ele>1244.6</ele>
        <time>2021-01-26T11:46:38Z</time>
      </trkpt>
      <trkpt lat="45.30585" lon="5.73651">
        <ele>1244.6</ele>
        <time>2021-01-26T11:47:00Z</time>
      </trkpt>
      <trkpt lat="45.30583" lon="5.73653">
        <ele>1244.6</ele>
        <time>2021-01-26T11:47:55Z</time>
      </trkpt>
      <trkpt lat="45.30587" lon="5.73656">
        <ele>1250.2</ele>
        <time>2021-01-26T11:48:29Z</time>
      </trkpt>
      <trkpt lat="45.30586" lon="5.73659">
        <ele>1250.2</ele>
        <time>2021-01-26T11:49:41Z</time>
      </trkpt>
      <trkpt lat="45.30583" lon="5.73657">
        <ele>1250.2</ele>
        <time>2021-01-26T11:50:38Z</time>
      </trkpt>
      <trkpt lat="45.30583" lon="5.73671">
        <ele>1250.2</ele>
        <time>2021-01-26T11:51:33Z</time>
      </trkpt>
      <trkpt lat="45.30584" lon="5.73684">
        <ele>1250.2</ele>
        <time>2021-01-26T11:51:41Z</time>
      </trkpt>
      <trkpt lat="45.30585" lon="5.73698">
        <ele>1256.4</ele>
        <time>2021-01-26T11:51:49Z</time>
      </trkpt>
      <trkpt lat="45.30583" lon="5.73711">
        <ele>1256.4</ele>
        <time>2021-01-26T11:51:56Z</time>
      </trkpt>
      <trkpt lat="45.30586" lon="5.73723">
        <ele>1256.4</ele>
        <time>2021-01-26T11:52:05Z</time>
      </trkpt>
      <trkpt lat="45.30587" lon="5.73737">
        <ele>1256.4</ele>
        <time>2021-01-26T11:52:12Z</time>
      </trkpt>
      <trkpt lat="45.30584" lon="5.73749">
        <ele>1261</ele>
        <time>2021-01-26T11:52:19Z</time>
      </trkpt>
      <trkpt lat="45.3058" lon="5.73761">
        <ele>1261</ele>
        <time>2021-01-26T11:52:28Z</time>
      </trkpt>
      <trkpt lat="45.30573" lon="5.73769">
        <ele>1261</ele>
        <time>2021-01-26T11:52:35Z</time>
      </trkpt>
      <trkpt lat="45.30567" lon="5.73782">
        <ele>1268</ele>
        <time>2021-01-26T11:52:49Z</time>
      </trkpt>
      <trkpt lat="45.30563" lon="5.73795">
        <ele>1268</ele>
        <time>2021-01-26T11:53:01Z</time>
      </trkpt>
      <trkpt lat="45.30558" lon="5.73805">
        <ele>1268</ele>
        <time>2021-01-26T11:53:10Z</time>
      </trkpt>
      <trkpt lat="45.30553" lon="5.73816">
        <ele>1268</ele>
        <time>2021-01-26T11:53:22Z</time>
      </trkpt>
      <trkpt lat="45.30544" lon="5.73821">
        <ele>1268</ele>
        <time>2021-01-26T11:53:35Z</time>
      </trkpt>
      <trkpt lat="45.30534" lon="5.73817">
        <ele>1268</ele>
        <time>2021-01-26T11:53:50Z</time>
      </trkpt>
      <trkpt lat="45.30526" lon="5.73823">
        <ele>1268</ele>
        <time>2021-01-26T11:54:03Z</time>
      </trkpt>
      <trkpt lat="45.30517" lon="5.73824">
        <ele>1268</ele>
        <time>2021-01-26T11:54:11Z</time>
      </trkpt>
      <trkpt lat="45.30509" lon="5.73831">
        <ele>1268</ele>
        <time>2021-01-26T11:54:24Z</time>
      </trkpt>
      <trkpt lat="45.30499" lon="5.73836">
        <ele>1268</ele>
        <time>2021-01-26T11:54:37Z</time>
      </trkpt>
      <trkpt lat="45.30491" lon="5.73842">
        <ele>1268</ele>
        <time>2021-01-26T11:54:48Z</time>
      </trkpt>
      <trkpt lat="45.30489" lon="5.73843">
        <ele>1268</ele>
        <time>2021-01-26T11:54:51Z</time>
      </trkpt>
      <trkpt lat="45.30487" lon="5.73844">
        <ele>1268</ele>
        <time>2021-01-26T11:54:54Z</time>
      </trkpt>
      <trkpt lat="45.30484" lon="5.73845">
        <ele>1268</ele>
        <time>2021-01-26T11:54:57Z</time>
      </trkpt>
      <trkpt lat="45.30482" lon="5.73846">
        <ele>1268</ele>
        <time>2021-01-26T11:55:00Z</time>
      </trkpt>
      <trkpt lat="45.30473" lon="5.7385">
        <ele>1268</ele>
        <time>2021-01-26T11:55:16Z</time>
      </trkpt>
      <trkpt lat="45.30465" lon="5.73857">
        <ele>1268</ele>
        <time>2021-01-26T11:55:28Z</time>
      </trkpt>
      <trkpt lat="45.30463" lon="5.73869">
        <ele>1268</ele>
        <time>2021-01-26T11:55:46Z</time>
      </trkpt>
      <trkpt lat="45.30458" lon="5.73881">
        <ele>1305.6</ele>
        <time>2021-01-26T11:55:59Z</time>
      </trkpt>
      <trkpt lat="45.30452" lon="5.73892">
        <ele>1305.6</ele>
        <time>2021-01-26T11:56:17Z</time>
      </trkpt>
      <trkpt lat="45.30451" lon="5.73904">
        <ele>1305.6</ele>
        <time>2021-01-26T11:56:44Z</time>
      </trkpt>
      <trkpt lat="45.3045" lon="5.73917">
        <ele>1305.6</ele>
        <time>2021-01-26T11:57:08Z</time>
      </trkpt>
      <trkpt lat="45.30442" lon="5.73923">
        <ele>1305.6</ele>
        <time>2021-01-26T11:57:20Z</time>
      </trkpt>
      <trkpt lat="45.30442" lon="5.73937">
        <ele>1305.6</ele>
        <time>2021-01-26T11:57:38Z</time>
      </trkpt>
      <trkpt lat="45.30434" lon="5.73941">
        <ele>1305.6</ele>
        <time>2021-01-26T11:58:03Z</time>
      </trkpt>
      <trkpt lat="45.30425" lon="5.73946">
        <ele>1305.6</ele>
        <time>2021-01-26T11:58:26Z</time>
      </trkpt>
      <trkpt lat="45.30424" lon="5.73959">
        <ele>1305.6</ele>
        <time>2021-01-26T11:58:56Z</time>
      </trkpt>
      <trkpt lat="45.30415" lon="5.7396">
        <ele>1305.6</ele>
        <time>2021-01-26T11:59:11Z</time>
      </trkpt>
      <trkpt lat="45.30406" lon="5.73965">
        <ele>1305.6</ele>
        <time>2021-01-26T12:00:08Z</time>
      </trkpt>
      <trkpt lat="45.30408" lon="5.73978">
        <ele>1305.6</ele>
        <time>2021-01-26T12:00:31Z</time>
      </trkpt>
      <trkpt lat="45.30413" lon="5.73989">
        <ele>1305.6</ele>
        <time>2021-01-26T12:01:21Z</time>
      </trkpt>
      <trkpt lat="45.3041" lon="5.73992">
        <ele>1305.6</ele>
        <time>2021-01-26T12:01:26Z</time>
      </trkpt>
      <trkpt lat="45.3041" lon="5.73995">
        <ele>1305.6</ele>
        <time>2021-01-26T12:01:33Z</time>
      </trkpt>
      <trkpt lat="45.30407" lon="5.74007">
        <ele>1305.6</ele>
        <time>2021-01-26T12:02:04Z</time>
      </trkpt>
      <trkpt lat="45.30398" lon="5.74011">
        <ele>1305.6</ele>
        <time>2021-01-26T12:02:21Z</time>
      </trkpt>
      <trkpt lat="45.30404" lon="5.74022">
        <ele>1305.6</ele>
        <time>2021-01-26T12:02:34Z</time>
      </trkpt>
      <trkpt lat="45.30408" lon="5.74035">
        <ele>1305.6</ele>
        <time>2021-01-26T12:02:43Z</time>
      </trkpt>
      <trkpt lat="45.30414" lon="5.74044">
        <ele>1305.6</ele>
        <time>2021-01-26T12:03:01Z</time>
      </trkpt>
      <trkpt lat="45.30423" lon="5.74049">
        <ele>1305.6</ele>
        <time>2021-01-26T12:03:11Z</time>
      </trkpt>
      <trkpt lat="45.3043" lon="5.74059">
        <ele>1305.6</ele>
        <time>2021-01-26T12:03:18Z</time>
      </trkpt>
      <trkpt lat="45.30437" lon="5.74069">
        <ele>1305.6</ele>
        <time>2021-01-26T12:03:27Z</time>
      </trkpt>
      <trkpt lat="45.30442" lon="5.74076">
        <ele>1305.6</ele>
        <time>2021-01-26T12:03:32Z</time>
      </trkpt>
      <trkpt lat="45.30444" lon="5.74078">
        <ele>1305.6</ele>
        <time>2021-01-26T12:03:34Z</time>
      </trkpt>
      <trkpt lat="45.30447" lon="5.74081">
        <ele>1305.6</ele>
        <time>2021-01-26T12:03:38Z</time>
      </trkpt>
      <trkpt lat="45.30457" lon="5.74086">
        <ele>1305.6</ele>
        <time>2021-01-26T12:03:51Z</time>
      </trkpt>
      <trkpt lat="45.30466" lon="5.74087">
        <ele>1305.6</ele>
        <time>2021-01-26T12:04:02Z</time>
      </trkpt>
      <trkpt lat="45.30473" lon="5.74088">
        <ele>1305.6</ele>
        <time>2021-01-26T12:04:07Z</time>
      </trkpt>
      <trkpt lat="45.30477" lon="5.74088">
        <ele>1305.6</ele>
        <time>2021-01-26T12:04:10Z</time>
      </trkpt>
      <trkpt lat="45.30482" lon="5.74088">
        <ele>1305.6</ele>
        <time>2021-01-26T12:04:13Z</time>
      </trkpt>
      <trkpt lat="45.30485" lon="5.74087">
        <ele>1305.6</ele>
        <time>2021-01-26T12:04:16Z</time>
      </trkpt>
      <trkpt lat="45.30495" lon="5.74087">
        <ele>1305.6</ele>
        <time>2021-01-26T12:04:23Z</time>
      </trkpt>
      <trkpt lat="45.30504" lon="5.74089">
        <ele>1389.8</ele>
        <time>2021-01-26T12:04:29Z</time>
      </trkpt>
      <trkpt lat="45.30514" lon="5.7409">
        <ele>1389.8</ele>
        <time>2021-01-26T12:04:36Z</time>
      </trkpt>
      <trkpt lat="45.30524" lon="5.74096">
        <ele>1389.8</ele>
        <time>2021-01-26T12:04:42Z</time>
      </trkpt>
      <trkpt lat="45.30532" lon="5.74101">
        <ele>1389.8</ele>
        <time>2021-01-26T12:04:46Z</time>
      </trkpt>
      <trkpt lat="45.30542" lon="5.74105">
        <ele>1387</ele>
        <time>2021-01-26T12:04:49Z</time>
      </trkpt>
      <trkpt lat="45.30551" lon="5.74101">
        <ele>1387</ele>
        <time>2021-01-26T12:04:57Z</time>
      </trkpt>
      <trkpt lat="45.30561" lon="5.74099">
        <ele>1387</ele>
        <time>2021-01-26T12:05:07Z</time>
      </trkpt>
      <trkpt lat="45.30569" lon="5.74103">
        <ele>1387</ele>
        <time>2021-01-26T12:05:14Z</time>
      </trkpt>
      <trkpt lat="45.30579" lon="5.741">
        <ele>1387</ele>
        <time>2021-01-26T12:05:23Z</time>
      </trkpt>
      <trkpt lat="45.30589" lon="5.741">
        <ele>1387</ele>
        <time>2021-01-26T12:05:32Z</time>
      </trkpt>
      <trkpt lat="45.30598" lon="5.74104">
        <ele>1387</ele>
        <time>2021-01-26T12:05:42Z</time>
      </trkpt>
      <trkpt lat="45.30607" lon="5.74102">
        <ele>1387</ele>
        <time>2021-01-26T12:05:54Z</time>
      </trkpt>
      <trkpt lat="45.30616" lon="5.741">
        <ele>1387</ele>
        <time>2021-01-26T12:06:05Z</time>
      </trkpt>
      <trkpt lat="45.30625" lon="5.74104">
        <ele>1387</ele>
        <time>2021-01-26T12:06:18Z</time>
      </trkpt>
      <trkpt lat="45.30635" lon="5.74103">
        <ele>1387</ele>
        <time>2021-01-26T12:06:32Z</time>
      </trkpt>
      <trkpt lat="45.30644" lon="5.74106">
        <ele>1387</ele>
        <time>2021-01-26T12:06:42Z</time>
      </trkpt>
      <trkpt lat="45.30654" lon="5.74109">
        <ele>1387</ele>
        <time>2021-01-26T12:06:53Z</time>
      </trkpt>
      <trkpt lat="45.30663" lon="5.7411">
        <ele>1387</ele>
        <time>2021-01-26T12:07:02Z</time>
      </trkpt>
      <trkpt lat="45.30672" lon="5.74106">
        <ele>1387</ele>
        <time>2021-01-26T12:07:15Z</time>
      </trkpt>
      <trkpt lat="45.30681" lon="5.74108">
        <ele>1387</ele>
        <time>2021-01-26T12:07:23Z</time>
      </trkpt>
      <trkpt lat="45.30689" lon="5.74103">
        <ele>1387</ele>
        <time>2021-01-26T12:07:33Z</time>
      </trkpt>
      <trkpt lat="45.30699" lon="5.74105">
        <ele>1405.6</ele>
        <time>2021-01-26T12:07:49Z</time>
      </trkpt>
      <trkpt lat="45.30707" lon="5.74113">
        <ele>1405.6</ele>
        <time>2021-01-26T12:08:07Z</time>
      </trkpt>
      <trkpt lat="45.30716" lon="5.74118">
        <ele>1405.6</ele>
        <time>2021-01-26T12:08:28Z</time>
      </trkpt>
      <trkpt lat="45.30724" lon="5.74126">
        <ele>1405.6</ele>
        <time>2021-01-26T12:09:03Z</time>
      </trkpt>
      <trkpt lat="45.30726" lon="5.7413">
        <ele>1405.6</ele>
        <time>2021-01-26T12:10:20Z</time>
      </trkpt>
      <trkpt lat="45.30729" lon="5.74129">
        <ele>1408.2</ele>
        <time>2021-01-26T12:11:19Z</time>
      </trkpt>
      <trkpt lat="45.30727" lon="5.74143">
        <ele>1408.2</ele>
        <time>2021-01-26T12:13:37Z</time>
      </trkpt>
      <trkpt lat="45.30718" lon="5.74145">
        <ele>1408.2</ele>
        <time>2021-01-26T12:13:53Z</time>
      </trkpt>
      <trkpt lat="45.30719" lon="5.74153">
        <ele>1408.2</ele>
        <time>2021-01-26T12:14:57Z</time>
      </trkpt>
      <trkpt lat="45.30716" lon="5.74152">
        <ele>1408.2</ele>
        <time>2021-01-26T12:15:03Z</time>
      </trkpt>
      <trkpt lat="45.30708" lon="5.74158">
        <ele>1424.2</ele>
        <time>2021-01-26T12:15:19Z</time>
      </trkpt>
      <trkpt lat="45.30699" lon="5.74156">
        <ele>1424.2</ele>
        <time>2021-01-26T12:15:30Z</time>
      </trkpt>
      <trkpt lat="45.30691" lon="5.74162">
        <ele>1424.2</ele>
        <time>2021-01-26T12:15:56Z</time>
      </trkpt>
      <trkpt lat="45.30681" lon="5.74164">
        <ele>1424.2</ele>
        <time>2021-01-26T12:16:13Z</time>
      </trkpt>
      <trkpt lat="45.30673" lon="5.74169">
        <ele>1424.2</ele>
        <time>2021-01-26T12:16:43Z</time>
      </trkpt>
      <trkpt lat="45.30668" lon="5.74171">
        <ele>1424.2</ele>
        <time>2021-01-26T12:16:55Z</time>
      </trkpt>
      <trkpt lat="45.30664" lon="5.74182">
        <ele>1424.2</ele>
        <time>2021-01-26T12:17:58Z</time>
      </trkpt>
      <trkpt lat="45.30657" lon="5.7419">
        <ele>1443.2</ele>
        <time>2021-01-26T12:18:19Z</time>
      </trkpt>
      <trkpt lat="45.30665" lon="5.74196">
        <ele>1443.2</ele>
        <time>2021-01-26T12:19:25Z</time>
      </trkpt>
      <trkpt lat="45.30675" lon="5.74193">
        <ele>1443.2</ele>
        <time>2021-01-26T12:19:56Z</time>
      </trkpt>
      <trkpt lat="45.3068" lon="5.74195">
        <ele>1443.2</ele>
        <time>2021-01-26T12:20:14Z</time>
      </trkpt>
      <trkpt lat="45.30682" lon="5.74196">
        <ele>1443.2</ele>
        <time>2021-01-26T12:20:27Z</time>
      </trkpt>
      <trkpt lat="45.30684" lon="5.74197">
        <ele>1443.2</ele>
        <time>2021-01-26T12:20:30Z</time>
      </trkpt>
      <trkpt lat="45.30693" lon="5.74202">
        <ele>1443.2</ele>
        <time>2021-01-26T12:20:47Z</time>
      </trkpt>
      <trkpt lat="45.30695" lon="5.74203">
        <ele>1443.2</ele>
        <time>2021-01-26T12:20:51Z</time>
      </trkpt>
      <trkpt lat="45.30697" lon="5.74209">
        <ele>1443.2</ele>
        <time>2021-01-26T12:21:01Z</time>
      </trkpt>
      <trkpt lat="45.30695" lon="5.74213">
        <ele>1443.2</ele>
        <time>2021-01-26T12:21:06Z</time>
      </trkpt>
      <trkpt lat="45.30688" lon="5.74222">
        <ele>1443.2</ele>
        <time>2021-01-26T12:21:22Z</time>
      </trkpt>
      <trkpt lat="45.30679" lon="5.74222">
        <ele>1443.2</ele>
        <time>2021-01-26T12:22:00Z</time>
      </trkpt>
      <trkpt lat="45.30687" lon="5.74214">
        <ele>1443.2</ele>
        <time>2021-01-26T12:25:11Z</time>
      </trkpt>
      <trkpt lat="45.30694" lon="5.74222">
        <ele>1461.6</ele>
        <time>2021-01-26T12:25:29Z</time>
      </trkpt>
      <trkpt lat="45.30699" lon="5.74232">
        <ele>1461.6</ele>
        <time>2021-01-26T12:25:52Z</time>
      </trkpt>
      <trkpt lat="45.30703" lon="5.74244">
        <ele>1461.6</ele>
        <time>2021-01-26T12:26:32Z</time>
      </trkpt>
      <trkpt lat="45.30693" lon="5.74248">
        <ele>1461.6</ele>
        <time>2021-01-26T12:26:45Z</time>
      </trkpt>
      <trkpt lat="45.30684" lon="5.74249">
        <ele>1461.6</ele>
        <time>2021-01-26T12:27:02Z</time>
      </trkpt>
      <trkpt lat="45.30674" lon="5.74247">
        <ele>1474.6</ele>
        <time>2021-01-26T12:27:19Z</time>
      </trkpt>
      <trkpt lat="45.30665" lon="5.74247">
        <ele>1474.6</ele>
        <time>2021-01-26T12:27:31Z</time>
      </trkpt>
      <trkpt lat="45.30656" lon="5.74242">
        <ele>1474.6</ele>
        <time>2021-01-26T12:27:38Z</time>
      </trkpt>
      <trkpt lat="45.30647" lon="5.74237">
        <ele>1474.6</ele>
        <time>2021-01-26T12:27:46Z</time>
      </trkpt>
      <trkpt lat="45.30638" lon="5.7423">
        <ele>1474.6</ele>
        <time>2021-01-26T12:27:50Z</time>
      </trkpt>
      <trkpt lat="45.30628" lon="5.74226">
        <ele>1474.6</ele>
        <time>2021-01-26T12:28:03Z</time>
      </trkpt>
      <trkpt lat="45.30617" lon="5.7422">
        <ele>1474.6</ele>
        <time>2021-01-26T12:28:06Z</time>
      </trkpt>
      <trkpt lat="45.30608" lon="5.74219">
        <ele>1474.6</ele>
        <time>2021-01-26T12:28:10Z</time>
      </trkpt>
      <trkpt lat="45.30599" lon="5.7422">
        <ele>1474.6</ele>
        <time>2021-01-26T12:28:18Z</time>
      </trkpt>
      <trkpt lat="45.30589" lon="5.74217">
        <ele>1474.6</ele>
        <time>2021-01-26T12:28:32Z</time>
      </trkpt>
      <trkpt lat="45.30581" lon="5.74223">
        <ele>1474.6</ele>
        <time>2021-01-26T12:28:46Z</time>
      </trkpt>
      <trkpt lat="45.30572" lon="5.74219">
        <ele>1474.6</ele>
        <time>2021-01-26T12:28:52Z</time>
      </trkpt>
      <trkpt lat="45.30563" lon="5.74224">
        <ele>1474.6</ele>
        <time>2021-01-26T12:29:10Z</time>
      </trkpt>
      <trkpt lat="45.30555" lon="5.74228">
        <ele>1474.6</ele>
        <time>2021-01-26T12:29:24Z</time>
      </trkpt>
      <trkpt lat="45.30549" lon="5.74238">
        <ele>1450</ele>
        <time>2021-01-26T12:29:49Z</time>
      </trkpt>
      <trkpt lat="45.3055" lon="5.74251">
        <ele>1450</ele>
        <time>2021-01-26T12:30:30Z</time>
      </trkpt>
      <trkpt lat="45.30544" lon="5.7426">
        <ele>1450</ele>
        <time>2021-01-26T12:30:43Z</time>
      </trkpt>
      <trkpt lat="45.30546" lon="5.74272">
        <ele>1450</ele>
        <time>2021-01-26T12:31:28Z</time>
      </trkpt>
      <trkpt lat="45.30552" lon="5.74282">
        <ele>1468.4</ele>
        <time>2021-01-26T12:32:59Z</time>
      </trkpt>
      <trkpt lat="45.30547" lon="5.74282">
        <ele>1468.4</ele>
        <time>2021-01-26T12:33:23Z</time>
      </trkpt>
      <trkpt lat="45.30547" lon="5.74285">
        <ele>1468.4</ele>
        <time>2021-01-26T12:33:28Z</time>
      </trkpt>
      <trkpt lat="45.30538" lon="5.74291">
        <ele>1468.4</ele>
        <time>2021-01-26T12:33:38Z</time>
      </trkpt>
      <trkpt lat="45.30535" lon="5.74293">
        <ele>1468.4</ele>
        <time>2021-01-26T12:33:44Z</time>
      </trkpt>
      <trkpt lat="45.30536" lon="5.74307">
        <ele>1468.4</ele>
        <time>2021-01-26T12:34:16Z</time>
      </trkpt>
      <trkpt lat="45.30527" lon="5.74315">
        <ele>1468.4</ele>
        <time>2021-01-26T12:34:30Z</time>
      </trkpt>
      <trkpt lat="45.3052" lon="5.74321">
        <ele>1468.4</ele>
        <time>2021-01-26T12:34:46Z</time>
      </trkpt>
      <trkpt lat="45.30513" lon="5.74321">
        <ele>1468.4</ele>
        <time>2021-01-26T12:34:56Z</time>
      </trkpt>
      <trkpt lat="45.30514" lon="5.7432">
        <ele>1468.4</ele>
        <time>2021-01-26T12:35:04Z</time>
      </trkpt>
      <trkpt lat="45.30516" lon="5.74319">
        <ele>1468.4</ele>
        <time>2021-01-26T12:35:07Z</time>
      </trkpt>
      <trkpt lat="45.30519" lon="5.7432">
        <ele>1468.4</ele>
        <time>2021-01-26T12:35:11Z</time>
      </trkpt>
      <trkpt lat="45.30521" lon="5.74321">
        <ele>1468.4</ele>
        <time>2021-01-26T12:35:14Z</time>
      </trkpt>
      <trkpt lat="45.30529" lon="5.74328">
        <ele>1468.4</ele>
        <time>2021-01-26T12:35:41Z</time>
      </trkpt>
      <trkpt lat="45.30531" lon="5.74332">
        <ele>1468.4</ele>
        <time>2021-01-26T12:35:44Z</time>
      </trkpt>
      <trkpt lat="45.30533" lon="5.74334">
        <ele>1468.4</ele>
        <time>2021-01-26T12:35:56Z</time>
      </trkpt>
      <trkpt lat="45.30534" lon="5.74336">
        <ele>1468.4</ele>
        <time>2021-01-26T12:36:02Z</time>
      </trkpt>
      <trkpt lat="45.30536" lon="5.74336">
        <ele>1468.4</ele>
        <time>2021-01-26T12:36:04Z</time>
      </trkpt>
      <trkpt lat="45.30545" lon="5.74342">
        <ele>1503</ele>
        <time>2021-01-26T12:36:19Z</time>
      </trkpt>
      <trkpt lat="45.30551" lon="5.74343">
        <ele>1503</ele>
        <time>2021-01-26T12:36:27Z</time>
      </trkpt>
      <trkpt lat="45.30553" lon="5.74345">
        <ele>1503</ele>
        <time>2021-01-26T12:36:30Z</time>
      </trkpt>
      <trkpt lat="45.30561" lon="5.74352">
        <ele>1503</ele>
        <time>2021-01-26T12:36:41Z</time>
      </trkpt>
      <trkpt lat="45.3057" lon="5.74356">
        <ele>1503</ele>
        <time>2021-01-26T12:36:50Z</time>
      </trkpt>
      <trkpt lat="45.30579" lon="5.7436">
        <ele>1503</ele>
        <time>2021-01-26T12:37:02Z</time>
      </trkpt>
      <trkpt lat="45.30589" lon="5.74362">
        <ele>1513.8</ele>
        <time>2021-01-26T12:37:09Z</time>
      </trkpt>
      <trkpt lat="45.30598" lon="5.74362">
        <ele>1513.8</ele>
        <time>2021-01-26T12:37:21Z</time>
      </trkpt>
      <trkpt lat="45.306" lon="5.74363">
        <ele>1513.8</ele>
        <time>2021-01-26T12:37:28Z</time>
      </trkpt>
      <trkpt lat="45.30602" lon="5.74364">
        <ele>1513.8</ele>
        <time>2021-01-26T12:37:31Z</time>
      </trkpt>
      <trkpt lat="45.30604" lon="5.74364">
        <ele>1513.8</ele>
        <time>2021-01-26T12:37:35Z</time>
      </trkpt>
      <trkpt lat="45.30613" lon="5.74364">
        <ele>1522.8</ele>
        <time>2021-01-26T12:37:49Z</time>
      </trkpt>
      <trkpt lat="45.30621" lon="5.74365">
        <ele>1522.8</ele>
        <time>2021-01-26T12:37:58Z</time>
      </trkpt>
      <trkpt lat="45.30624" lon="5.74365">
        <ele>1522.8</ele>
        <time>2021-01-26T12:38:01Z</time>
      </trkpt>
      <trkpt lat="45.30627" lon="5.74365">
        <ele>1522.8</ele>
        <time>2021-01-26T12:38:08Z</time>
      </trkpt>
      <trkpt lat="45.30629" lon="5.74367">
        <ele>1522.8</ele>
        <time>2021-01-26T12:38:10Z</time>
      </trkpt>
      <trkpt lat="45.30631" lon="5.74367">
        <ele>1522.8</ele>
        <time>2021-01-26T12:38:14Z</time>
      </trkpt>
      <trkpt lat="45.30633" lon="5.74367">
        <ele>1522.8</ele>
        <time>2021-01-26T12:38:20Z</time>
      </trkpt>
      <trkpt lat="45.30635" lon="5.74366">
        <ele>1522.8</ele>
        <time>2021-01-26T12:38:25Z</time>
      </trkpt>
      <trkpt lat="45.30637" lon="5.74366">
        <ele>1522.8</ele>
        <time>2021-01-26T12:38:28Z</time>
      </trkpt>
      <trkpt lat="45.30639" lon="5.74365">
        <ele>1522.8</ele>
        <time>2021-01-26T12:38:34Z</time>
      </trkpt>
      <trkpt lat="45.3064" lon="5.74364">
        <ele>1522.8</ele>
        <time>2021-01-26T12:38:37Z</time>
      </trkpt>
      <trkpt lat="45.30642" lon="5.74363">
        <ele>1522.8</ele>
        <time>2021-01-26T12:38:40Z</time>
      </trkpt>
      <trkpt lat="45.3065" lon="5.74364">
        <ele>1522.8</ele>
        <time>2021-01-26T12:38:48Z</time>
      </trkpt>
      <trkpt lat="45.30653" lon="5.74361">
        <ele>1522.8</ele>
        <time>2021-01-26T12:38:54Z</time>
      </trkpt>
      <trkpt lat="45.30656" lon="5.74361">
        <ele>1522.8</ele>
        <time>2021-01-26T12:38:58Z</time>
      </trkpt>
      <trkpt lat="45.30658" lon="5.74361">
        <ele>1522.8</ele>
        <time>2021-01-26T12:39:01Z</time>
      </trkpt>
      <trkpt lat="45.3066" lon="5.7436">
        <ele>1522.8</ele>
        <time>2021-01-26T12:39:05Z</time>
      </trkpt>
      <trkpt lat="45.30662" lon="5.74361">
        <ele>1522.8</ele>
        <time>2021-01-26T12:39:07Z</time>
      </trkpt>
      <trkpt lat="45.30663" lon="5.74359">
        <ele>1522.8</ele>
        <time>2021-01-26T12:39:12Z</time>
      </trkpt>
      <trkpt lat="45.30663" lon="5.74356">
        <ele>1522.8</ele>
        <time>2021-01-26T12:39:16Z</time>
      </trkpt>
      <trkpt lat="45.30665" lon="5.74355">
        <ele>1522.8</ele>
        <time>2021-01-26T12:39:21Z</time>
      </trkpt>
      <trkpt lat="45.30667" lon="5.74355">
        <ele>1522.8</ele>
        <time>2021-01-26T12:39:25Z</time>
      </trkpt>
      <trkpt lat="45.30669" lon="5.74355">
        <ele>1522.8</ele>
        <time>2021-01-26T12:39:27Z</time>
      </trkpt>
      <trkpt lat="45.30671" lon="5.74356">
        <ele>1544.8</ele>
        <time>2021-01-26T12:39:29Z</time>
      </trkpt>
      <trkpt lat="45.30674" lon="5.74356">
        <ele>1544.8</ele>
        <time>2021-01-26T12:39:31Z</time>
      </trkpt>
      <trkpt lat="45.30676" lon="5.74356">
        <ele>1544.8</ele>
        <time>2021-01-26T12:39:34Z</time>
      </trkpt>
      <trkpt lat="45.30677" lon="5.74357">
        <ele>1544.8</ele>
        <time>2021-01-26T12:39:37Z</time>
      </trkpt>
      <trkpt lat="45.30679" lon="5.74358">
        <ele>1544.8</ele>
        <time>2021-01-26T12:39:40Z</time>
      </trkpt>
      <trkpt lat="45.30681" lon="5.74359">
        <ele>1544.8</ele>
        <time>2021-01-26T12:39:44Z</time>
      </trkpt>
      <trkpt lat="45.30684" lon="5.74359">
        <ele>1544.8</ele>
        <time>2021-01-26T12:39:46Z</time>
      </trkpt>
      <trkpt lat="45.30687" lon="5.74357">
        <ele>1544.8</ele>
        <time>2021-01-26T12:39:51Z</time>
      </trkpt>
      <trkpt lat="45.30696" lon="5.74359">
        <ele>1551.2</ele>
        <time>2021-01-26T12:39:59Z</time>
      </trkpt>
      <trkpt lat="45.30699" lon="5.7436">
        <ele>1551.2</ele>
        <time>2021-01-26T12:40:02Z</time>
      </trkpt>
      <trkpt lat="45.30701" lon="5.7436">
        <ele>1551.2</ele>
        <time>2021-01-26T12:40:04Z</time>
      </trkpt>
      <trkpt lat="45.30704" lon="5.74359">
        <ele>1554</ele>
        <time>2021-01-26T12:40:09Z</time>
      </trkpt>
      <trkpt lat="45.30706" lon="5.74359">
        <ele>1554</ele>
        <time>2021-01-26T12:40:12Z</time>
      </trkpt>
      <trkpt lat="45.30708" lon="5.74359">
        <ele>1554</ele>
        <time>2021-01-26T12:40:14Z</time>
      </trkpt>
      <trkpt lat="45.3071" lon="5.74359">
        <ele>1554</ele>
        <time>2021-01-26T12:40:16Z</time>
      </trkpt>
      <trkpt lat="45.30712" lon="5.74358">
        <ele>1554</ele>
        <time>2021-01-26T12:40:18Z</time>
      </trkpt>
      <trkpt lat="45.30715" lon="5.74358">
        <ele>1554</ele>
        <time>2021-01-26T12:40:21Z</time>
      </trkpt>
      <trkpt lat="45.30717" lon="5.74358">
        <ele>1554</ele>
        <time>2021-01-26T12:40:23Z</time>
      </trkpt>
      <trkpt lat="45.30726" lon="5.74361">
        <ele>1554</ele>
        <time>2021-01-26T12:40:33Z</time>
      </trkpt>
      <trkpt lat="45.30736" lon="5.74363">
        <ele>1554</ele>
        <time>2021-01-26T12:40:43Z</time>
      </trkpt>
      <trkpt lat="45.30738" lon="5.74364">
        <ele>1554</ele>
        <time>2021-01-26T12:40:46Z</time>
      </trkpt>
      <trkpt lat="45.30747" lon="5.74365">
        <ele>1554</ele>
        <time>2021-01-26T12:40:57Z</time>
      </trkpt>
      <trkpt lat="45.30756" lon="5.74369">
        <ele>1554</ele>
        <time>2021-01-26T12:41:06Z</time>
      </trkpt>
      <trkpt lat="45.30761" lon="5.74371">
        <ele>1554</ele>
        <time>2021-01-26T12:41:12Z</time>
      </trkpt>
      <trkpt lat="45.30763" lon="5.74373">
        <ele>1554</ele>
        <time>2021-01-26T12:41:16Z</time>
      </trkpt>
      <trkpt lat="45.30765" lon="5.74374">
        <ele>1554</ele>
        <time>2021-01-26T12:41:20Z</time>
      </trkpt>
      <trkpt lat="45.30775" lon="5.74377">
        <ele>1554</ele>
        <time>2021-01-26T12:41:33Z</time>
      </trkpt>
      <trkpt lat="45.30784" lon="5.7438">
        <ele>1554</ele>
        <time>2021-01-26T12:41:43Z</time>
      </trkpt>
      <trkpt lat="45.30794" lon="5.74383">
        <ele>1554</ele>
        <time>2021-01-26T12:41:54Z</time>
      </trkpt>
      <trkpt lat="45.30804" lon="5.74383">
        <ele>1554</ele>
        <time>2021-01-26T12:42:08Z</time>
      </trkpt>
      <trkpt lat="45.30812" lon="5.7439">
        <ele>1554</ele>
        <time>2021-01-26T12:42:17Z</time>
      </trkpt>
      <trkpt lat="45.30814" lon="5.74394">
        <ele>1554</ele>
        <time>2021-01-26T12:42:21Z</time>
      </trkpt>
      <trkpt lat="45.30816" lon="5.74395">
        <ele>1554</ele>
        <time>2021-01-26T12:42:28Z</time>
      </trkpt>
      <trkpt lat="45.30817" lon="5.74397">
        <ele>1554</ele>
        <time>2021-01-26T12:42:30Z</time>
      </trkpt>
      <trkpt lat="45.3082" lon="5.74399">
        <ele>1554</ele>
        <time>2021-01-26T12:42:32Z</time>
      </trkpt>
      <trkpt lat="45.30822" lon="5.74401">
        <ele>1554</ele>
        <time>2021-01-26T12:42:34Z</time>
      </trkpt>
      <trkpt lat="45.30824" lon="5.74402">
        <ele>1554</ele>
        <time>2021-01-26T12:42:36Z</time>
      </trkpt>
      <trkpt lat="45.30827" lon="5.74402">
        <ele>1554</ele>
        <time>2021-01-26T12:42:38Z</time>
      </trkpt>
      <trkpt lat="45.30829" lon="5.74403">
        <ele>1554</ele>
        <time>2021-01-26T12:42:40Z</time>
      </trkpt>
      <trkpt lat="45.30832" lon="5.74402">
        <ele>1554</ele>
        <time>2021-01-26T12:42:42Z</time>
      </trkpt>
      <trkpt lat="45.30834" lon="5.74401">
        <ele>1554</ele>
        <time>2021-01-26T12:42:44Z</time>
      </trkpt>
      <trkpt lat="45.30836" lon="5.744">
        <ele>1554</ele>
        <time>2021-01-26T12:42:46Z</time>
      </trkpt>
      <trkpt lat="45.30839" lon="5.744">
        <ele>1554</ele>
        <time>2021-01-26T12:42:48Z</time>
      </trkpt>
      <trkpt lat="45.30842" lon="5.744">
        <ele>1554</ele>
        <time>2021-01-26T12:42:50Z</time>
      </trkpt>
      <trkpt lat="45.30844" lon="5.744">
        <ele>1554</ele>
        <time>2021-01-26T12:42:52Z</time>
      </trkpt>
      <trkpt lat="45.30847" lon="5.74401">
        <ele>1554</ele>
        <time>2021-01-26T12:42:54Z</time>
      </trkpt>
      <trkpt lat="45.30848" lon="5.74403">
        <ele>1554</ele>
        <time>2021-01-26T12:42:56Z</time>
      </trkpt>
      <trkpt lat="45.30851" lon="5.74405">
        <ele>1554</ele>
        <time>2021-01-26T12:42:58Z</time>
      </trkpt>
      <trkpt lat="45.30853" lon="5.74405">
        <ele>1554</ele>
        <time>2021-01-26T12:43:00Z</time>
      </trkpt>
      <trkpt lat="45.30855" lon="5.74406">
        <ele>1554</ele>
        <time>2021-01-26T12:43:02Z</time>
      </trkpt>
      <trkpt lat="45.30857" lon="5.74408">
        <ele>1554</ele>
        <time>2021-01-26T12:43:04Z</time>
      </trkpt>
      <trkpt lat="45.30859" lon="5.7441">
        <ele>1554</ele>
        <time>2021-01-26T12:43:06Z</time>
      </trkpt>
      <trkpt lat="45.30862" lon="5.74414">
        <ele>1582.4</ele>
        <time>2021-01-26T12:43:09Z</time>
      </trkpt>
      <trkpt lat="45.30864" lon="5.74416">
        <ele>1582.4</ele>
        <time>2021-01-26T12:43:11Z</time>
      </trkpt>
      <trkpt lat="45.30866" lon="5.74418">
        <ele>1582.4</ele>
        <time>2021-01-26T12:43:13Z</time>
      </trkpt>
      <trkpt lat="45.30868" lon="5.7442">
        <ele>1582.4</ele>
        <time>2021-01-26T12:43:18Z</time>
      </trkpt>
      <trkpt lat="45.30869" lon="5.74422">
        <ele>1582.4</ele>
        <time>2021-01-26T12:43:21Z</time>
      </trkpt>
      <trkpt lat="45.30872" lon="5.74424">
        <ele>1582.4</ele>
        <time>2021-01-26T12:43:24Z</time>
      </trkpt>
      <trkpt lat="45.30873" lon="5.74425">
        <ele>1582.4</ele>
        <time>2021-01-26T12:43:26Z</time>
      </trkpt>
      <trkpt lat="45.30875" lon="5.74426">
        <ele>1585.4</ele>
        <time>2021-01-26T12:43:29Z</time>
      </trkpt>
      <trkpt lat="45.30877" lon="5.74427">
        <ele>1585.4</ele>
        <time>2021-01-26T12:43:32Z</time>
      </trkpt>
      <trkpt lat="45.30879" lon="5.7443">
        <ele>1585.4</ele>
        <time>2021-01-26T12:43:46Z</time>
      </trkpt>
      <trkpt lat="45.30881" lon="5.74432">
        <ele>1585.4</ele>
        <time>2021-01-26T12:43:48Z</time>
      </trkpt>
      <trkpt lat="45.30882" lon="5.74434">
        <ele>1585.4</ele>
        <time>2021-01-26T12:43:50Z</time>
      </trkpt>
      <trkpt lat="45.30885" lon="5.74435">
        <ele>1585.4</ele>
        <time>2021-01-26T12:43:52Z</time>
      </trkpt>
      <trkpt lat="45.30887" lon="5.74435">
        <ele>1585.4</ele>
        <time>2021-01-26T12:43:54Z</time>
      </trkpt>
      <trkpt lat="45.30889" lon="5.74435">
        <ele>1585.4</ele>
        <time>2021-01-26T12:43:56Z</time>
      </trkpt>
      <trkpt lat="45.30891" lon="5.74436">
        <ele>1585.4</ele>
        <time>2021-01-26T12:43:58Z</time>
      </trkpt>
      <trkpt lat="45.30893" lon="5.74437">
        <ele>1585.4</ele>
        <time>2021-01-26T12:44:00Z</time>
      </trkpt>
      <trkpt lat="45.30895" lon="5.74438">
        <ele>1585.4</ele>
        <time>2021-01-26T12:44:02Z</time>
      </trkpt>
      <trkpt lat="45.30897" lon="5.74439">
        <ele>1585.4</ele>
        <time>2021-01-26T12:44:04Z</time>
      </trkpt>
      <trkpt lat="45.309" lon="5.74441">
        <ele>1585.4</ele>
        <time>2021-01-26T12:44:06Z</time>
      </trkpt>
      <trkpt lat="45.30902" lon="5.74442">
        <ele>1585.4</ele>
        <time>2021-01-26T12:44:08Z</time>
      </trkpt>
      <trkpt lat="45.30905" lon="5.74443">
        <ele>1585.4</ele>
        <time>2021-01-26T12:44:10Z</time>
      </trkpt>
      <trkpt lat="45.30907" lon="5.74444">
        <ele>1585.4</ele>
        <time>2021-01-26T12:44:12Z</time>
      </trkpt>
      <trkpt lat="45.3091" lon="5.74445">
        <ele>1585.4</ele>
        <time>2021-01-26T12:44:14Z</time>
      </trkpt>
      <trkpt lat="45.30912" lon="5.74446">
        <ele>1585.4</ele>
        <time>2021-01-26T12:44:16Z</time>
      </trkpt>
      <trkpt lat="45.30914" lon="5.74448">
        <ele>1585.4</ele>
        <time>2021-01-26T12:44:18Z</time>
      </trkpt>
      <trkpt lat="45.30917" lon="5.74449">
        <ele>1585.4</ele>
        <time>2021-01-26T12:44:21Z</time>
      </trkpt>
      <trkpt lat="45.30919" lon="5.7445">
        <ele>1585.4</ele>
        <time>2021-01-26T12:44:23Z</time>
      </trkpt>
      <trkpt lat="45.30921" lon="5.74452">
        <ele>1585.4</ele>
        <time>2021-01-26T12:44:25Z</time>
      </trkpt>
      <trkpt lat="45.30923" lon="5.74454">
        <ele>1585.4</ele>
        <time>2021-01-26T12:44:27Z</time>
      </trkpt>
      <trkpt lat="45.30925" lon="5.74456">
        <ele>1590.6</ele>
        <time>2021-01-26T12:44:29Z</time>
      </trkpt>
      <trkpt lat="45.30926" lon="5.74458">
        <ele>1590.6</ele>
        <time>2021-01-26T12:44:31Z</time>
      </trkpt>
      <trkpt lat="45.30928" lon="5.7446">
        <ele>1590.6</ele>
        <time>2021-01-26T12:44:33Z</time>
      </trkpt>
      <trkpt lat="45.30928" lon="5.74463">
        <ele>1590.6</ele>
        <time>2021-01-26T12:44:36Z</time>
      </trkpt>
      <trkpt lat="45.30932" lon="5.74474">
        <ele>1590.6</ele>
        <time>2021-01-26T12:44:42Z</time>
      </trkpt>
      <trkpt lat="45.3093" lon="5.74477">
        <ele>1590.6</ele>
        <time>2021-01-26T12:44:44Z</time>
      </trkpt>
      <trkpt lat="45.30929" lon="5.7448">
        <ele>1590.6</ele>
        <time>2021-01-26T12:44:46Z</time>
      </trkpt>
      <trkpt lat="45.30928" lon="5.74482">
        <ele>1590.6</ele>
        <time>2021-01-26T12:44:48Z</time>
      </trkpt>
      <trkpt lat="45.30926" lon="5.74484">
        <ele>1590.6</ele>
        <time>2021-01-26T12:44:50Z</time>
      </trkpt>
      <trkpt lat="45.30923" lon="5.74486">
        <ele>1590.6</ele>
        <time>2021-01-26T12:44:52Z</time>
      </trkpt>
      <trkpt lat="45.30921" lon="5.74487">
        <ele>1590.6</ele>
        <time>2021-01-26T12:44:54Z</time>
      </trkpt>
      <trkpt lat="45.3092" lon="5.74488">
        <ele>1590.6</ele>
        <time>2021-01-26T12:44:56Z</time>
      </trkpt>
      <trkpt lat="45.30917" lon="5.74489">
        <ele>1596</ele>
        <time>2021-01-26T12:44:59Z</time>
      </trkpt>
      <trkpt lat="45.30915" lon="5.7449">
        <ele>1596</ele>
        <time>2021-01-26T12:45:03Z</time>
      </trkpt>
      <trkpt lat="45.30914" lon="5.74492">
        <ele>1596</ele>
        <time>2021-01-26T12:45:08Z</time>
      </trkpt>
      <trkpt lat="45.30912" lon="5.74492">
        <ele>1596</ele>
        <time>2021-01-26T12:45:13Z</time>
      </trkpt>
      <trkpt lat="45.30909" lon="5.74493">
        <ele>1596</ele>
        <time>2021-01-26T12:45:16Z</time>
      </trkpt>
      <trkpt lat="45.30908" lon="5.74494">
        <ele>1596</ele>
        <time>2021-01-26T12:45:18Z</time>
      </trkpt>
      <trkpt lat="45.30906" lon="5.74494">
        <ele>1596</ele>
        <time>2021-01-26T12:45:20Z</time>
      </trkpt>
      <trkpt lat="45.30903" lon="5.74494">
        <ele>1596</ele>
        <time>2021-01-26T12:45:23Z</time>
      </trkpt>
      <trkpt lat="45.30901" lon="5.74495">
        <ele>1596</ele>
        <time>2021-01-26T12:45:26Z</time>
      </trkpt>
      <trkpt lat="45.30898" lon="5.74495">
        <ele>1599.2</ele>
        <time>2021-01-26T12:45:29Z</time>
      </trkpt>
      <trkpt lat="45.30896" lon="5.74494">
        <ele>1599.2</ele>
        <time>2021-01-26T12:45:32Z</time>
      </trkpt>
      <trkpt lat="45.30894" lon="5.74494">
        <ele>1599.2</ele>
        <time>2021-01-26T12:45:34Z</time>
      </trkpt>
      <trkpt lat="45.30892" lon="5.74495">
        <ele>1601</ele>
        <time>2021-01-26T12:45:39Z</time>
      </trkpt>
      <trkpt lat="45.3089" lon="5.74495">
        <ele>1601</ele>
        <time>2021-01-26T12:45:42Z</time>
      </trkpt>
      <trkpt lat="45.30887" lon="5.74495">
        <ele>1601</ele>
        <time>2021-01-26T12:45:45Z</time>
      </trkpt>
      <trkpt lat="45.30885" lon="5.74495">
        <ele>1601</ele>
        <time>2021-01-26T12:45:48Z</time>
      </trkpt>
      <trkpt lat="45.30883" lon="5.74494">
        <ele>1601</ele>
        <time>2021-01-26T12:45:50Z</time>
      </trkpt>
      <trkpt lat="45.30881" lon="5.74494">
        <ele>1601</ele>
        <time>2021-01-26T12:45:53Z</time>
      </trkpt>
      <trkpt lat="45.30878" lon="5.74495">
        <ele>1601</ele>
        <time>2021-01-26T12:45:55Z</time>
      </trkpt>
      <trkpt lat="45.30875" lon="5.74495">
        <ele>1601</ele>
        <time>2021-01-26T12:45:57Z</time>
      </trkpt>
      <trkpt lat="45.30872" lon="5.74495">
        <ele>1605.8</ele>
        <time>2021-01-26T12:45:59Z</time>
      </trkpt>
      <trkpt lat="45.3087" lon="5.74495">
        <ele>1605.8</ele>
        <time>2021-01-26T12:46:01Z</time>
      </trkpt>
      <trkpt lat="45.30868" lon="5.74495">
        <ele>1605.8</ele>
        <time>2021-01-26T12:46:03Z</time>
      </trkpt>
      <trkpt lat="45.30866" lon="5.74494">
        <ele>1605.8</ele>
        <time>2021-01-26T12:46:05Z</time>
      </trkpt>
      <trkpt lat="45.30864" lon="5.74493">
        <ele>1605.8</ele>
        <time>2021-01-26T12:46:07Z</time>
      </trkpt>
      <trkpt lat="45.30862" lon="5.74493">
        <ele>1608.4</ele>
        <time>2021-01-26T12:46:09Z</time>
      </trkpt>
      <trkpt lat="45.3086" lon="5.74493">
        <ele>1608.4</ele>
        <time>2021-01-26T12:46:12Z</time>
      </trkpt>
      <trkpt lat="45.30858" lon="5.74494">
        <ele>1608.4</ele>
        <time>2021-01-26T12:46:15Z</time>
      </trkpt>
      <trkpt lat="45.30855" lon="5.74494">
        <ele>1608.4</ele>
        <time>2021-01-26T12:46:18Z</time>
      </trkpt>
      <trkpt lat="45.30853" lon="5.74495">
        <ele>1608.4</ele>
        <time>2021-01-26T12:46:20Z</time>
      </trkpt>
      <trkpt lat="45.30851" lon="5.74494">
        <ele>1608.4</ele>
        <time>2021-01-26T12:46:23Z</time>
      </trkpt>
      <trkpt lat="45.30849" lon="5.74494">
        <ele>1608.4</ele>
        <time>2021-01-26T12:46:26Z</time>
      </trkpt>
      <trkpt lat="45.30847" lon="5.74495">
        <ele>1608.4</ele>
        <time>2021-01-26T12:46:28Z</time>
      </trkpt>
      <trkpt lat="45.30844" lon="5.74495">
        <ele>1608.4</ele>
        <time>2021-01-26T12:46:31Z</time>
      </trkpt>
      <trkpt lat="45.30842" lon="5.74495">
        <ele>1608.4</ele>
        <time>2021-01-26T12:46:33Z</time>
      </trkpt>
      <trkpt lat="45.3084" lon="5.74495">
        <ele>1608.4</ele>
        <time>2021-01-26T12:46:35Z</time>
      </trkpt>
      <trkpt lat="45.30837" lon="5.74495">
        <ele>1608.4</ele>
        <time>2021-01-26T12:46:38Z</time>
      </trkpt>
      <trkpt lat="45.30834" lon="5.74495">
        <ele>1608.4</ele>
        <time>2021-01-26T12:46:40Z</time>
      </trkpt>
      <trkpt lat="45.30831" lon="5.74495">
        <ele>1608.4</ele>
        <time>2021-01-26T12:46:42Z</time>
      </trkpt>
      <trkpt lat="45.30828" lon="5.74494">
        <ele>1608.4</ele>
        <time>2021-01-26T12:46:44Z</time>
      </trkpt>
      <trkpt lat="45.30826" lon="5.74494">
        <ele>1608.4</ele>
        <time>2021-01-26T12:46:46Z</time>
      </trkpt>
      <trkpt lat="45.30824" lon="5.74493">
        <ele>1608.4</ele>
        <time>2021-01-26T12:46:48Z</time>
      </trkpt>
      <trkpt lat="45.30822" lon="5.74493">
        <ele>1608.4</ele>
        <time>2021-01-26T12:46:50Z</time>
      </trkpt>
      <trkpt lat="45.30819" lon="5.74493">
        <ele>1608.4</ele>
        <time>2021-01-26T12:46:53Z</time>
      </trkpt>
      <trkpt lat="45.30817" lon="5.74493">
        <ele>1608.4</ele>
        <time>2021-01-26T12:46:56Z</time>
      </trkpt>
      <trkpt lat="45.30815" lon="5.74494">
        <ele>1617.2</ele>
        <time>2021-01-26T12:46:59Z</time>
      </trkpt>
      <trkpt lat="45.30813" lon="5.74494">
        <ele>1617.2</ele>
        <time>2021-01-26T12:47:02Z</time>
      </trkpt>
      <trkpt lat="45.30811" lon="5.74494">
        <ele>1617.2</ele>
        <time>2021-01-26T12:47:03Z</time>
      </trkpt>
      <trkpt lat="45.30808" lon="5.74495">
        <ele>1617.2</ele>
        <time>2021-01-26T12:47:05Z</time>
      </trkpt>
      <trkpt lat="45.30807" lon="5.74495">
        <ele>1617.2</ele>
        <time>2021-01-26T12:47:07Z</time>
      </trkpt>
      <trkpt lat="45.30804" lon="5.74496">
        <ele>1619.4</ele>
        <time>2021-01-26T12:47:09Z</time>
      </trkpt>
      <trkpt lat="45.30802" lon="5.74496">
        <ele>1619.4</ele>
        <time>2021-01-26T12:47:11Z</time>
      </trkpt>
      <trkpt lat="45.308" lon="5.74496">
        <ele>1619.4</ele>
        <time>2021-01-26T12:47:13Z</time>
      </trkpt>
      <trkpt lat="45.30797" lon="5.74496">
        <ele>1619.4</ele>
        <time>2021-01-26T12:47:15Z</time>
      </trkpt>
      <trkpt lat="45.30795" lon="5.74498">
        <ele>1619.4</ele>
        <time>2021-01-26T12:47:18Z</time>
      </trkpt>
      <trkpt lat="45.30793" lon="5.74499">
        <ele>1619.4</ele>
        <time>2021-01-26T12:47:20Z</time>
      </trkpt>
      <trkpt lat="45.3079" lon="5.74501">
        <ele>1619.4</ele>
        <time>2021-01-26T12:47:22Z</time>
      </trkpt>
      <trkpt lat="45.30788" lon="5.74502">
        <ele>1619.4</ele>
        <time>2021-01-26T12:47:24Z</time>
      </trkpt>
      <trkpt lat="45.30785" lon="5.74503">
        <ele>1619.4</ele>
        <time>2021-01-26T12:47:26Z</time>
      </trkpt>
      <trkpt lat="45.30783" lon="5.74504">
        <ele>1619.4</ele>
        <time>2021-01-26T12:47:28Z</time>
      </trkpt>
      <trkpt lat="45.30781" lon="5.74505">
        <ele>1619.4</ele>
        <time>2021-01-26T12:47:30Z</time>
      </trkpt>
      <trkpt lat="45.30779" lon="5.74507">
        <ele>1619.4</ele>
        <time>2021-01-26T12:47:32Z</time>
      </trkpt>
      <trkpt lat="45.30778" lon="5.74509">
        <ele>1619.4</ele>
        <time>2021-01-26T12:47:34Z</time>
      </trkpt>
      <trkpt lat="45.30777" lon="5.74512">
        <ele>1619.4</ele>
        <time>2021-01-26T12:47:36Z</time>
      </trkpt>
      <trkpt lat="45.30775" lon="5.74514">
        <ele>1619.4</ele>
        <time>2021-01-26T12:47:38Z</time>
      </trkpt>
      <trkpt lat="45.30772" lon="5.74516">
        <ele>1619.4</ele>
        <time>2021-01-26T12:47:41Z</time>
      </trkpt>
      <trkpt lat="45.3077" lon="5.74517">
        <ele>1619.4</ele>
        <time>2021-01-26T12:47:43Z</time>
      </trkpt>
      <trkpt lat="45.30768" lon="5.74519">
        <ele>1619.4</ele>
        <time>2021-01-26T12:47:45Z</time>
      </trkpt>
      <trkpt lat="45.30767" lon="5.74522">
        <ele>1619.4</ele>
        <time>2021-01-26T12:47:47Z</time>
      </trkpt>
      <trkpt lat="45.30765" lon="5.74524">
        <ele>1625.8</ele>
        <time>2021-01-26T12:47:49Z</time>
      </trkpt>
      <trkpt lat="45.30764" lon="5.74527">
        <ele>1625.8</ele>
        <time>2021-01-26T12:47:51Z</time>
      </trkpt>
      <trkpt lat="45.30763" lon="5.7453">
        <ele>1625.8</ele>
        <time>2021-01-26T12:47:53Z</time>
      </trkpt>
      <trkpt lat="45.30762" lon="5.74532">
        <ele>1625.8</ele>
        <time>2021-01-26T12:47:55Z</time>
      </trkpt>
      <trkpt lat="45.30761" lon="5.74534">
        <ele>1625.8</ele>
        <time>2021-01-26T12:47:57Z</time>
      </trkpt>
      <trkpt lat="45.30759" lon="5.74537">
        <ele>1628.2</ele>
        <time>2021-01-26T12:47:59Z</time>
      </trkpt>
      <trkpt lat="45.30757" lon="5.74539">
        <ele>1628.2</ele>
        <time>2021-01-26T12:48:02Z</time>
      </trkpt>
      <trkpt lat="45.30755" lon="5.74541">
        <ele>1628.2</ele>
        <time>2021-01-26T12:48:04Z</time>
      </trkpt>
      <trkpt lat="45.30754" lon="5.74544">
        <ele>1628.2</ele>
        <time>2021-01-26T12:48:06Z</time>
      </trkpt>
      <trkpt lat="45.30752" lon="5.74546">
        <ele>1628.2</ele>
        <time>2021-01-26T12:48:08Z</time>
      </trkpt>
      <trkpt lat="45.30751" lon="5.74549">
        <ele>1628.2</ele>
        <time>2021-01-26T12:48:10Z</time>
      </trkpt>
      <trkpt lat="45.3075" lon="5.74551">
        <ele>1628.2</ele>
        <time>2021-01-26T12:48:12Z</time>
      </trkpt>
      <trkpt lat="45.30748" lon="5.74553">
        <ele>1628.2</ele>
        <time>2021-01-26T12:48:14Z</time>
      </trkpt>
      <trkpt lat="45.30747" lon="5.74555">
        <ele>1628.2</ele>
        <time>2021-01-26T12:48:16Z</time>
      </trkpt>
      <trkpt lat="45.30745" lon="5.74558">
        <ele>1628.2</ele>
        <time>2021-01-26T12:48:18Z</time>
      </trkpt>
      <trkpt lat="45.30742" lon="5.74562">
        <ele>1628.2</ele>
        <time>2021-01-26T12:48:20Z</time>
      </trkpt>
      <trkpt lat="45.30741" lon="5.74566">
        <ele>1628.2</ele>
        <time>2021-01-26T12:48:22Z</time>
      </trkpt>
      <trkpt lat="45.3074" lon="5.74569">
        <ele>1628.2</ele>
        <time>2021-01-26T12:48:24Z</time>
      </trkpt>
      <trkpt lat="45.30739" lon="5.74572">
        <ele>1628.2</ele>
        <time>2021-01-26T12:48:26Z</time>
      </trkpt>
      <trkpt lat="45.30739" lon="5.74575">
        <ele>1629.8</ele>
        <time>2021-01-26T12:48:29Z</time>
      </trkpt>
      <trkpt lat="45.30739" lon="5.74577">
        <ele>1629.8</ele>
        <time>2021-01-26T12:48:31Z</time>
      </trkpt>
      <trkpt lat="45.30738" lon="5.74581">
        <ele>1629.8</ele>
        <time>2021-01-26T12:48:33Z</time>
      </trkpt>
      <trkpt lat="45.30737" lon="5.74586">
        <ele>1629.8</ele>
        <time>2021-01-26T12:48:35Z</time>
      </trkpt>
      <trkpt lat="45.30737" lon="5.7459">
        <ele>1629.8</ele>
        <time>2021-01-26T12:48:37Z</time>
      </trkpt>
      <trkpt lat="45.30736" lon="5.74595">
        <ele>1629</ele>
        <time>2021-01-26T12:48:39Z</time>
      </trkpt>
      <trkpt lat="45.30736" lon="5.74598">
        <ele>1629</ele>
        <time>2021-01-26T12:48:41Z</time>
      </trkpt>
      <trkpt lat="45.30736" lon="5.74601">
        <ele>1629</ele>
        <time>2021-01-26T12:48:43Z</time>
      </trkpt>
      <trkpt lat="45.30736" lon="5.74604">
        <ele>1629</ele>
        <time>2021-01-26T12:48:45Z</time>
      </trkpt>
      <trkpt lat="45.30736" lon="5.74607">
        <ele>1629</ele>
        <time>2021-01-26T12:48:53Z</time>
      </trkpt>
      <trkpt lat="45.30736" lon="5.7461">
        <ele>1629</ele>
        <time>2021-01-26T12:48:55Z</time>
      </trkpt>
      <trkpt lat="45.30736" lon="5.74613">
        <ele>1629</ele>
        <time>2021-01-26T12:48:58Z</time>
      </trkpt>
      <trkpt lat="45.30737" lon="5.74616">
        <ele>1629</ele>
        <time>2021-01-26T12:49:07Z</time>
      </trkpt>
      <trkpt lat="45.30738" lon="5.7462">
        <ele>1631.8</ele>
        <time>2021-01-26T12:49:09Z</time>
      </trkpt>
      <trkpt lat="45.30738" lon="5.74622">
        <ele>1631.8</ele>
        <time>2021-01-26T12:49:11Z</time>
      </trkpt>
      <trkpt lat="45.30739" lon="5.74625">
        <ele>1631.8</ele>
        <time>2021-01-26T12:49:13Z</time>
      </trkpt>
      <trkpt lat="45.3074" lon="5.74628">
        <ele>1631.8</ele>
        <time>2021-01-26T12:49:16Z</time>
      </trkpt>
      <trkpt lat="45.30741" lon="5.74631">
        <ele>1631.8</ele>
        <time>2021-01-26T12:49:18Z</time>
      </trkpt>
      <trkpt lat="45.30741" lon="5.74634">
        <ele>1631.8</ele>
        <time>2021-01-26T12:49:20Z</time>
      </trkpt>
      <trkpt lat="45.30741" lon="5.74637">
        <ele>1631.8</ele>
        <time>2021-01-26T12:49:22Z</time>
      </trkpt>
      <trkpt lat="45.3074" lon="5.7464">
        <ele>1631.8</ele>
        <time>2021-01-26T12:49:25Z</time>
      </trkpt>
      <trkpt lat="45.30739" lon="5.74642">
        <ele>1631.8</ele>
        <time>2021-01-26T12:49:27Z</time>
      </trkpt>
      <trkpt lat="45.3074" lon="5.74645">
        <ele>1631.8</ele>
        <time>2021-01-26T12:49:30Z</time>
      </trkpt>
      <trkpt lat="45.30741" lon="5.74648">
        <ele>1631.8</ele>
        <time>2021-01-26T12:49:32Z</time>
      </trkpt>
      <trkpt lat="45.30741" lon="5.7465">
        <ele>1631.8</ele>
        <time>2021-01-26T12:49:34Z</time>
      </trkpt>
      <trkpt lat="45.30741" lon="5.74654">
        <ele>1631.8</ele>
        <time>2021-01-26T12:49:37Z</time>
      </trkpt>
      <trkpt lat="45.30743" lon="5.74657">
        <ele>1631.8</ele>
        <time>2021-01-26T12:49:40Z</time>
      </trkpt>
      <trkpt lat="45.30744" lon="5.7466">
        <ele>1631.8</ele>
        <time>2021-01-26T12:49:42Z</time>
      </trkpt>
      <trkpt lat="45.30746" lon="5.74663">
        <ele>1631.8</ele>
        <time>2021-01-26T12:49:45Z</time>
      </trkpt>
      <trkpt lat="45.30747" lon="5.74666">
        <ele>1631.8</ele>
        <time>2021-01-26T12:49:48Z</time>
      </trkpt>
      <trkpt lat="45.30747" lon="5.7467">
        <ele>1631.8</ele>
        <time>2021-01-26T12:49:51Z</time>
      </trkpt>
      <trkpt lat="45.30748" lon="5.74673">
        <ele>1631.8</ele>
        <time>2021-01-26T12:49:53Z</time>
      </trkpt>
      <trkpt lat="45.30749" lon="5.74676">
        <ele>1631.8</ele>
        <time>2021-01-26T12:49:57Z</time>
      </trkpt>
      <trkpt lat="45.3075" lon="5.74678">
        <ele>1631.8</ele>
        <time>2021-01-26T12:50:00Z</time>
      </trkpt>
      <trkpt lat="45.3075" lon="5.74681">
        <ele>1631.8</ele>
        <time>2021-01-26T12:50:03Z</time>
      </trkpt>
      <trkpt lat="45.30751" lon="5.74684">
        <ele>1631.8</ele>
        <time>2021-01-26T12:50:05Z</time>
      </trkpt>
      <trkpt lat="45.3075" lon="5.74687">
        <ele>1631.8</ele>
        <time>2021-01-26T12:50:08Z</time>
      </trkpt>
      <trkpt lat="45.30747" lon="5.74688">
        <ele>1631.8</ele>
        <time>2021-01-26T12:50:10Z</time>
      </trkpt>
      <trkpt lat="45.30745" lon="5.74689">
        <ele>1631.8</ele>
        <time>2021-01-26T12:50:12Z</time>
      </trkpt>
      <trkpt lat="45.30743" lon="5.7469">
        <ele>1631.8</ele>
        <time>2021-01-26T12:50:14Z</time>
      </trkpt>
      <trkpt lat="45.3074" lon="5.74688">
        <ele>1631.8</ele>
        <time>2021-01-26T12:50:17Z</time>
      </trkpt>
      <trkpt lat="45.30739" lon="5.74687">
        <ele>1649.8</ele>
        <time>2021-01-26T12:50:19Z</time>
      </trkpt>
      <trkpt lat="45.30737" lon="5.74686">
        <ele>1649.8</ele>
        <time>2021-01-26T12:50:21Z</time>
      </trkpt>
      <trkpt lat="45.30734" lon="5.74685">
        <ele>1649.8</ele>
        <time>2021-01-26T12:50:24Z</time>
      </trkpt>
      <trkpt lat="45.30732" lon="5.74684">
        <ele>1649.8</ele>
        <time>2021-01-26T12:50:27Z</time>
      </trkpt>
      <trkpt lat="45.3073" lon="5.74685">
        <ele>1651.2</ele>
        <time>2021-01-26T12:50:29Z</time>
      </trkpt>
      <trkpt lat="45.30728" lon="5.74685">
        <ele>1651.2</ele>
        <time>2021-01-26T12:50:32Z</time>
      </trkpt>
      <trkpt lat="45.30729" lon="5.74688">
        <ele>1651.2</ele>
        <time>2021-01-26T12:50:37Z</time>
      </trkpt>
      <trkpt lat="45.3073" lon="5.7469">
        <ele>1653.2</ele>
        <time>2021-01-26T12:50:39Z</time>
      </trkpt>
      <trkpt lat="45.30732" lon="5.74693">
        <ele>1653.2</ele>
        <time>2021-01-26T12:50:42Z</time>
      </trkpt>
      <trkpt lat="45.30734" lon="5.74695">
        <ele>1653.2</ele>
        <time>2021-01-26T12:50:44Z</time>
      </trkpt>
      <trkpt lat="45.30734" lon="5.74697">
        <ele>1653.2</ele>
        <time>2021-01-26T12:50:46Z</time>
      </trkpt>
      <trkpt lat="45.30734" lon="5.74701">
        <ele>1656.2</ele>
        <time>2021-01-26T12:50:49Z</time>
      </trkpt>
      <trkpt lat="45.30735" lon="5.74704">
        <ele>1656.2</ele>
        <time>2021-01-26T12:50:52Z</time>
      </trkpt>
      <trkpt lat="45.30736" lon="5.74707">
        <ele>1656.2</ele>
        <time>2021-01-26T12:50:55Z</time>
      </trkpt>
      <trkpt lat="45.30737" lon="5.7471">
        <ele>1656.2</ele>
        <time>2021-01-26T12:50:58Z</time>
      </trkpt>
      <trkpt lat="45.30737" lon="5.74713">
        <ele>1656.2</ele>
        <time>2021-01-26T12:51:01Z</time>
      </trkpt>
      <trkpt lat="45.30736" lon="5.74716">
        <ele>1656.2</ele>
        <time>2021-01-26T12:51:03Z</time>
      </trkpt>
      <trkpt lat="45.30737" lon="5.74718">
        <ele>1656.2</ele>
        <time>2021-01-26T12:51:06Z</time>
      </trkpt>
      <trkpt lat="45.30738" lon="5.74721">
        <ele>1661.4</ele>
        <time>2021-01-26T12:51:09Z</time>
      </trkpt>
      <trkpt lat="45.30738" lon="5.74724">
        <ele>1661.4</ele>
        <time>2021-01-26T12:51:12Z</time>
      </trkpt>
      <trkpt lat="45.30739" lon="5.74727">
        <ele>1661.4</ele>
        <time>2021-01-26T12:51:15Z</time>
      </trkpt>
      <trkpt lat="45.3074" lon="5.74731">
        <ele>1661.4</ele>
        <time>2021-01-26T12:51:18Z</time>
      </trkpt>
      <trkpt lat="45.30741" lon="5.74733">
        <ele>1661.4</ele>
        <time>2021-01-26T12:51:20Z</time>
      </trkpt>
      <trkpt lat="45.30742" lon="5.74736">
        <ele>1661.4</ele>
        <time>2021-01-26T12:51:23Z</time>
      </trkpt>
      <trkpt lat="45.30742" lon="5.74738">
        <ele>1661.4</ele>
        <time>2021-01-26T12:51:25Z</time>
      </trkpt>
      <trkpt lat="45.30744" lon="5.74741">
        <ele>1661.4</ele>
        <time>2021-01-26T12:51:28Z</time>
      </trkpt>
      <trkpt lat="45.30744" lon="5.74745">
        <ele>1661.4</ele>
        <time>2021-01-26T12:51:31Z</time>
      </trkpt>
      <trkpt lat="45.30745" lon="5.74748">
        <ele>1661.4</ele>
        <time>2021-01-26T12:51:34Z</time>
      </trkpt>
      <trkpt lat="45.30746" lon="5.7475">
        <ele>1661.4</ele>
        <time>2021-01-26T12:51:36Z</time>
      </trkpt>
      <trkpt lat="45.30746" lon="5.74753">
        <ele>1661.4</ele>
        <time>2021-01-26T12:51:38Z</time>
      </trkpt>
      <trkpt lat="45.30748" lon="5.74756">
        <ele>1661.4</ele>
        <time>2021-01-26T12:51:41Z</time>
      </trkpt>
      <trkpt lat="45.30749" lon="5.74759">
        <ele>1661.4</ele>
        <time>2021-01-26T12:51:44Z</time>
      </trkpt>
      <trkpt lat="45.30749" lon="5.74762">
        <ele>1661.4</ele>
        <time>2021-01-26T12:51:47Z</time>
      </trkpt>
      <trkpt lat="45.30749" lon="5.74764">
        <ele>1661.4</ele>
        <time>2021-01-26T12:51:50Z</time>
      </trkpt>
      <trkpt lat="45.30748" lon="5.74768">
        <ele>1661.4</ele>
        <time>2021-01-26T12:51:55Z</time>
      </trkpt>
      <trkpt lat="45.30749" lon="5.74771">
        <ele>1661.4</ele>
        <time>2021-01-26T12:51:58Z</time>
      </trkpt>
      <trkpt lat="45.30749" lon="5.74774">
        <ele>1661.4</ele>
        <time>2021-01-26T12:52:03Z</time>
      </trkpt>
      <trkpt lat="45.3075" lon="5.74777">
        <ele>1661.4</ele>
        <time>2021-01-26T12:52:06Z</time>
      </trkpt>
      <trkpt lat="45.3075" lon="5.74781">
        <ele>1674.6</ele>
        <time>2021-01-26T12:52:09Z</time>
      </trkpt>
      <trkpt lat="45.30751" lon="5.74783">
        <ele>1674.6</ele>
        <time>2021-01-26T12:52:11Z</time>
      </trkpt>
      <trkpt lat="45.30752" lon="5.74786">
        <ele>1674.6</ele>
        <time>2021-01-26T12:52:13Z</time>
      </trkpt>
      <trkpt lat="45.30753" lon="5.74788">
        <ele>1674.6</ele>
        <time>2021-01-26T12:52:15Z</time>
      </trkpt>
      <trkpt lat="45.30754" lon="5.74791">
        <ele>1674.6</ele>
        <time>2021-01-26T12:52:18Z</time>
      </trkpt>
      <trkpt lat="45.30756" lon="5.74793">
        <ele>1674.6</ele>
        <time>2021-01-26T12:52:23Z</time>
      </trkpt>
      <trkpt lat="45.30757" lon="5.74796">
        <ele>1674.6</ele>
        <time>2021-01-26T12:52:26Z</time>
      </trkpt>
      <trkpt lat="45.30757" lon="5.74799">
        <ele>1674.6</ele>
        <time>2021-01-26T12:52:30Z</time>
      </trkpt>
      <trkpt lat="45.30759" lon="5.74801">
        <ele>1674.6</ele>
        <time>2021-01-26T12:52:33Z</time>
      </trkpt>
      <trkpt lat="45.30757" lon="5.74801">
        <ele>1674.6</ele>
        <time>2021-01-26T12:52:35Z</time>
      </trkpt>
      <trkpt lat="45.30755" lon="5.74801">
        <ele>1674.6</ele>
        <time>2021-01-26T12:52:40Z</time>
      </trkpt>
      <trkpt lat="45.30753" lon="5.74801">
        <ele>1674.6</ele>
        <time>2021-01-26T12:52:43Z</time>
      </trkpt>
      <trkpt lat="45.3075" lon="5.74801">
        <ele>1674.6</ele>
        <time>2021-01-26T12:52:45Z</time>
      </trkpt>
      <trkpt lat="45.30748" lon="5.74802">
        <ele>1674.6</ele>
        <time>2021-01-26T12:52:47Z</time>
      </trkpt>
      <trkpt lat="45.30746" lon="5.74801">
        <ele>1674.6</ele>
        <time>2021-01-26T12:52:50Z</time>
      </trkpt>
      <trkpt lat="45.30744" lon="5.74799">
        <ele>1674.6</ele>
        <time>2021-01-26T12:52:53Z</time>
      </trkpt>
      <trkpt lat="45.30741" lon="5.74798">
        <ele>1674.6</ele>
        <time>2021-01-26T12:52:55Z</time>
      </trkpt>
      <trkpt lat="45.30739" lon="5.74797">
        <ele>1674.6</ele>
        <time>2021-01-26T12:52:57Z</time>
      </trkpt>
      <trkpt lat="45.30737" lon="5.74796">
        <ele>1684</ele>
        <time>2021-01-26T12:52:59Z</time>
      </trkpt>
      <trkpt lat="45.30735" lon="5.74795">
        <ele>1684</ele>
        <time>2021-01-26T12:53:01Z</time>
      </trkpt>
      <trkpt lat="45.30733" lon="5.74794">
        <ele>1684</ele>
        <time>2021-01-26T12:53:04Z</time>
      </trkpt>
      <trkpt lat="45.30731" lon="5.74792">
        <ele>1684</ele>
        <time>2021-01-26T12:53:07Z</time>
      </trkpt>
      <trkpt lat="45.30729" lon="5.7479">
        <ele>1684</ele>
        <time>2021-01-26T12:53:10Z</time>
      </trkpt>
      <trkpt lat="45.30727" lon="5.74789">
        <ele>1684</ele>
        <time>2021-01-26T12:53:14Z</time>
      </trkpt>
      <trkpt lat="45.30727" lon="5.74792">
        <ele>1684</ele>
        <time>2021-01-26T12:53:22Z</time>
      </trkpt>
      <trkpt lat="45.30726" lon="5.74795">
        <ele>1684</ele>
        <time>2021-01-26T12:53:25Z</time>
      </trkpt>
      <trkpt lat="45.30726" lon="5.74798">
        <ele>1684</ele>
        <time>2021-01-26T12:53:27Z</time>
      </trkpt>
      <trkpt lat="45.30727" lon="5.748">
        <ele>1684</ele>
        <time>2021-01-26T12:53:30Z</time>
      </trkpt>
      <trkpt lat="45.30728" lon="5.74803">
        <ele>1684</ele>
        <time>2021-01-26T12:53:33Z</time>
      </trkpt>
      <trkpt lat="45.30728" lon="5.74806">
        <ele>1684</ele>
        <time>2021-01-26T12:53:37Z</time>
      </trkpt>
      <trkpt lat="45.30726" lon="5.74806">
        <ele>1684</ele>
        <time>2021-01-26T12:53:42Z</time>
      </trkpt>
      <trkpt lat="45.30724" lon="5.74805">
        <ele>1684</ele>
        <time>2021-01-26T12:53:45Z</time>
      </trkpt>
      <trkpt lat="45.30722" lon="5.74804">
        <ele>1684</ele>
        <time>2021-01-26T12:53:48Z</time>
      </trkpt>
      <trkpt lat="45.3072" lon="5.74804">
        <ele>1684</ele>
        <time>2021-01-26T12:53:51Z</time>
      </trkpt>
      <trkpt lat="45.30718" lon="5.74804">
        <ele>1684</ele>
        <time>2021-01-26T12:53:54Z</time>
      </trkpt>
      <trkpt lat="45.30716" lon="5.74803">
        <ele>1684</ele>
        <time>2021-01-26T12:53:58Z</time>
      </trkpt>
      <trkpt lat="45.30714" lon="5.74801">
        <ele>1684</ele>
        <time>2021-01-26T12:54:00Z</time>
      </trkpt>
      <trkpt lat="45.30712" lon="5.748">
        <ele>1684</ele>
        <time>2021-01-26T12:54:02Z</time>
      </trkpt>
      <trkpt lat="45.30711" lon="5.74799">
        <ele>1684</ele>
        <time>2021-01-26T12:54:04Z</time>
      </trkpt>
      <trkpt lat="45.30709" lon="5.74797">
        <ele>1684</ele>
        <time>2021-01-26T12:54:06Z</time>
      </trkpt>
      <trkpt lat="45.30707" lon="5.74795">
        <ele>1698.2</ele>
        <time>2021-01-26T12:54:09Z</time>
      </trkpt>
      <trkpt lat="45.30706" lon="5.74794">
        <ele>1698.2</ele>
        <time>2021-01-26T12:54:15Z</time>
      </trkpt>
      <trkpt lat="45.30705" lon="5.74792">
        <ele>1698.2</ele>
        <time>2021-01-26T12:54:17Z</time>
      </trkpt>
      <trkpt lat="45.30704" lon="5.74789">
        <ele>1699</ele>
        <time>2021-01-26T12:54:19Z</time>
      </trkpt>
      <trkpt lat="45.30704" lon="5.74786">
        <ele>1699</ele>
        <time>2021-01-26T12:54:23Z</time>
      </trkpt>
      <trkpt lat="45.30703" lon="5.74783">
        <ele>1699</ele>
        <time>2021-01-26T12:54:36Z</time>
      </trkpt>
      <trkpt lat="45.30703" lon="5.7478">
        <ele>1699</ele>
        <time>2021-01-26T12:54:41Z</time>
      </trkpt>
      <trkpt lat="45.30702" lon="5.74777">
        <ele>1699</ele>
        <time>2021-01-26T12:54:43Z</time>
      </trkpt>
      <trkpt lat="45.30702" lon="5.74773">
        <ele>1699</ele>
        <time>2021-01-26T12:54:46Z</time>
      </trkpt>
      <trkpt lat="45.30702" lon="5.7477">
        <ele>1700.4</ele>
        <time>2021-01-26T12:54:49Z</time>
      </trkpt>
      <trkpt lat="45.30703" lon="5.74767">
        <ele>1700.4</ele>
        <time>2021-01-26T12:54:52Z</time>
      </trkpt>
      <trkpt lat="45.30701" lon="5.74767">
        <ele>1700.4</ele>
        <time>2021-01-26T12:55:18Z</time>
      </trkpt>
      <trkpt lat="45.30699" lon="5.74764">
        <ele>1700.4</ele>
        <time>2021-01-26T12:55:21Z</time>
      </trkpt>
      <trkpt lat="45.30697" lon="5.74762">
        <ele>1700.4</ele>
        <time>2021-01-26T12:55:24Z</time>
      </trkpt>
      <trkpt lat="45.30696" lon="5.7476">
        <ele>1700.4</ele>
        <time>2021-01-26T12:55:26Z</time>
      </trkpt>
      <trkpt lat="45.30693" lon="5.74758">
        <ele>1700.8</ele>
        <time>2021-01-26T12:55:29Z</time>
      </trkpt>
      <trkpt lat="45.30692" lon="5.74756">
        <ele>1700.8</ele>
        <time>2021-01-26T12:55:32Z</time>
      </trkpt>
      <trkpt lat="45.30692" lon="5.74753">
        <ele>1700.8</ele>
        <time>2021-01-26T12:55:50Z</time>
      </trkpt>
      <trkpt lat="45.30693" lon="5.74751">
        <ele>1700.8</ele>
        <time>2021-01-26T12:57:26Z</time>
      </trkpt>
      <trkpt lat="45.30692" lon="5.74749">
        <ele>1700.8</ele>
        <time>2021-01-26T12:58:23Z</time>
      </trkpt>
      <trkpt lat="45.30693" lon="5.74751">
        <ele>1700.8</ele>
        <time>2021-01-26T12:58:44Z</time>
      </trkpt>
      <trkpt lat="45.30695" lon="5.74752">
        <ele>1700.8</ele>
        <time>2021-01-26T12:59:28Z</time>
      </trkpt>
      <trkpt lat="45.30693" lon="5.74752">
        <ele>1700.8</ele>
        <time>2021-01-26T13:02:58Z</time>
      </trkpt>
      <trkpt lat="45.30691" lon="5.74753">
        <ele>1700.8</ele>
        <time>2021-01-26T13:03:01Z</time>
      </trkpt>
      <trkpt lat="45.3069" lon="5.74751">
        <ele>1700.8</ele>
        <time>2021-01-26T13:03:05Z</time>
      </trkpt>
      <trkpt lat="45.30691" lon="5.74753">
        <ele>1700.8</ele>
        <time>2021-01-26T13:03:58Z</time>
      </trkpt>
      <trkpt lat="45.30693" lon="5.74751">
        <ele>1700.8</ele>
        <time>2021-01-26T13:05:03Z</time>
      </trkpt>
      <trkpt lat="45.30694" lon="5.74753">
        <ele>1700.2</ele>
        <time>2021-01-26T13:05:09Z</time>
      </trkpt>
      <trkpt lat="45.30692" lon="5.74751">
        <ele>1700.2</ele>
        <time>2021-01-26T13:06:02Z</time>
      </trkpt>
      <trkpt lat="45.30694" lon="5.74749">
        <ele>1700.2</ele>
        <time>2021-01-26T13:10:24Z</time>
      </trkpt>
      <trkpt lat="45.30693" lon="5.74751">
        <ele>1705</ele>
        <time>2021-01-26T13:11:19Z</time>
      </trkpt>
      <trkpt lat="45.30694" lon="5.74753">
        <ele>1705</ele>
        <time>2021-01-26T13:11:43Z</time>
      </trkpt>
      <trkpt lat="45.30692" lon="5.74753">
        <ele>1704.4</ele>
        <time>2021-01-26T13:12:49Z</time>
      </trkpt>
      <trkpt lat="45.30694" lon="5.74755">
        <ele>1704.4</ele>
        <time>2021-01-26T13:13:28Z</time>
      </trkpt>
      <trkpt lat="45.30695" lon="5.74758">
        <ele>1704.4</ele>
        <time>2021-01-26T13:13:30Z</time>
      </trkpt>
      <trkpt lat="45.30697" lon="5.74764">
        <ele>1704.4</ele>
        <time>2021-01-26T13:13:32Z</time>
      </trkpt>
      <trkpt lat="45.30698" lon="5.74767">
        <ele>1704.4</ele>
        <time>2021-01-26T13:13:33Z</time>
      </trkpt>
      <trkpt lat="45.30699" lon="5.74771">
        <ele>1704.4</ele>
        <time>2021-01-26T13:13:34Z</time>
      </trkpt>
      <trkpt lat="45.30701" lon="5.74774">
        <ele>1704.4</ele>
        <time>2021-01-26T13:13:35Z</time>
      </trkpt>
      <trkpt lat="45.30702" lon="5.74778">
        <ele>1704.4</ele>
        <time>2021-01-26T13:13:36Z</time>
      </trkpt>
      <trkpt lat="45.30703" lon="5.74782">
        <ele>1704.4</ele>
        <time>2021-01-26T13:13:37Z</time>
      </trkpt>
      <trkpt lat="45.30705" lon="5.74787">
        <ele>1704.4</ele>
        <time>2021-01-26T13:13:38Z</time>
      </trkpt>
      <trkpt lat="45.30707" lon="5.74791">
        <ele>1704.4</ele>
        <time>2021-01-26T13:13:39Z</time>
      </trkpt>
      <trkpt lat="45.30708" lon="5.74796">
        <ele>1704.4</ele>
        <time>2021-01-26T13:13:40Z</time>
      </trkpt>
      <trkpt lat="45.3071" lon="5.74799">
        <ele>1704.4</ele>
        <time>2021-01-26T13:13:41Z</time>
      </trkpt>
      <trkpt lat="45.30712" lon="5.748">
        <ele>1704.4</ele>
        <time>2021-01-26T13:13:42Z</time>
      </trkpt>
      <trkpt lat="45.30715" lon="5.748">
        <ele>1704.4</ele>
        <time>2021-01-26T13:13:44Z</time>
      </trkpt>
      <trkpt lat="45.30717" lon="5.74801">
        <ele>1704.4</ele>
        <time>2021-01-26T13:13:48Z</time>
      </trkpt>
      <trkpt lat="45.30719" lon="5.74801">
        <ele>1704.4</ele>
        <time>2021-01-26T13:13:50Z</time>
      </trkpt>
      <trkpt lat="45.30721" lon="5.74802">
        <ele>1704.4</ele>
        <time>2021-01-26T13:13:51Z</time>
      </trkpt>
      <trkpt lat="45.30724" lon="5.74802">
        <ele>1704.4</ele>
        <time>2021-01-26T13:13:52Z</time>
      </trkpt>
      <trkpt lat="45.30726" lon="5.74802">
        <ele>1704.4</ele>
        <time>2021-01-26T13:13:53Z</time>
      </trkpt>
      <trkpt lat="45.30728" lon="5.748">
        <ele>1704.4</ele>
        <time>2021-01-26T13:13:54Z</time>
      </trkpt>
      <trkpt lat="45.3073" lon="5.74796">
        <ele>1704.4</ele>
        <time>2021-01-26T13:13:55Z</time>
      </trkpt>
      <trkpt lat="45.3073" lon="5.74791">
        <ele>1704.4</ele>
        <time>2021-01-26T13:13:56Z</time>
      </trkpt>
      <trkpt lat="45.30731" lon="5.74786">
        <ele>1704.4</ele>
        <time>2021-01-26T13:13:57Z</time>
      </trkpt>
      <trkpt lat="45.30732" lon="5.74779">
        <ele>1704.4</ele>
        <time>2021-01-26T13:13:58Z</time>
      </trkpt>
      <trkpt lat="45.30731" lon="5.74771">
        <ele>1693.2</ele>
        <time>2021-01-26T13:13:59Z</time>
      </trkpt>
      <trkpt lat="45.3073" lon="5.74765">
        <ele>1693.2</ele>
        <time>2021-01-26T13:14:00Z</time>
      </trkpt>
      <trkpt lat="45.30729" lon="5.7476">
        <ele>1693.2</ele>
        <time>2021-01-26T13:14:01Z</time>
      </trkpt>
      <trkpt lat="45.30729" lon="5.74754">
        <ele>1693.2</ele>
        <time>2021-01-26T13:14:02Z</time>
      </trkpt>
      <trkpt lat="45.30727" lon="5.74747">
        <ele>1693.2</ele>
        <time>2021-01-26T13:14:03Z</time>
      </trkpt>
      <trkpt lat="45.30725" lon="5.74741">
        <ele>1693.2</ele>
        <time>2021-01-26T13:14:04Z</time>
      </trkpt>
      <trkpt lat="45.30722" lon="5.74735">
        <ele>1693.2</ele>
        <time>2021-01-26T13:14:05Z</time>
      </trkpt>
      <trkpt lat="45.3072" lon="5.74729">
        <ele>1693.2</ele>
        <time>2021-01-26T13:14:06Z</time>
      </trkpt>
      <trkpt lat="45.30718" lon="5.74723">
        <ele>1693.2</ele>
        <time>2021-01-26T13:14:07Z</time>
      </trkpt>
      <trkpt lat="45.30714" lon="5.74711">
        <ele>1680.4</ele>
        <time>2021-01-26T13:14:09Z</time>
      </trkpt>
      <trkpt lat="45.30713" lon="5.74705">
        <ele>1680.4</ele>
        <time>2021-01-26T13:14:10Z</time>
      </trkpt>
      <trkpt lat="45.30709" lon="5.74692">
        <ele>1680.4</ele>
        <time>2021-01-26T13:14:12Z</time>
      </trkpt>
      <trkpt lat="45.30708" lon="5.74685">
        <ele>1680.4</ele>
        <time>2021-01-26T13:14:13Z</time>
      </trkpt>
      <trkpt lat="45.3071" lon="5.7468">
        <ele>1680.4</ele>
        <time>2021-01-26T13:14:14Z</time>
      </trkpt>
      <trkpt lat="45.30714" lon="5.74677">
        <ele>1680.4</ele>
        <time>2021-01-26T13:14:15Z</time>
      </trkpt>
      <trkpt lat="45.30718" lon="5.74674">
        <ele>1680.4</ele>
        <time>2021-01-26T13:14:16Z</time>
      </trkpt>
      <trkpt lat="45.30727" lon="5.74665">
        <ele>1680.4</ele>
        <time>2021-01-26T13:14:18Z</time>
      </trkpt>
      <trkpt lat="45.30741" lon="5.74656">
        <ele>1680.4</ele>
        <time>2021-01-26T13:14:20Z</time>
      </trkpt>
      <trkpt lat="45.30747" lon="5.74647">
        <ele>1680.4</ele>
        <time>2021-01-26T13:14:21Z</time>
      </trkpt>
      <trkpt lat="45.30751" lon="5.74624">
        <ele>1680.4</ele>
        <time>2021-01-26T13:14:23Z</time>
      </trkpt>
      <trkpt lat="45.30754" lon="5.74609">
        <ele>1680.4</ele>
        <time>2021-01-26T13:14:24Z</time>
      </trkpt>
      <trkpt lat="45.30756" lon="5.74594">
        <ele>1680.4</ele>
        <time>2021-01-26T13:14:25Z</time>
      </trkpt>
      <trkpt lat="45.30755" lon="5.7458">
        <ele>1680.4</ele>
        <time>2021-01-26T13:14:26Z</time>
      </trkpt>
      <trkpt lat="45.30752" lon="5.7457">
        <ele>1680.4</ele>
        <time>2021-01-26T13:14:27Z</time>
      </trkpt>
      <trkpt lat="45.3075" lon="5.74559">
        <ele>1680.4</ele>
        <time>2021-01-26T13:14:28Z</time>
      </trkpt>
      <trkpt lat="45.3075" lon="5.74546">
        <ele>1680.4</ele>
        <time>2021-01-26T13:14:30Z</time>
      </trkpt>
      <trkpt lat="45.3075" lon="5.74543">
        <ele>1680.4</ele>
        <time>2021-01-26T13:14:32Z</time>
      </trkpt>
      <trkpt lat="45.30748" lon="5.74542">
        <ele>1680.4</ele>
        <time>2021-01-26T13:14:33Z</time>
      </trkpt>
      <trkpt lat="45.30746" lon="5.74541">
        <ele>1680.4</ele>
        <time>2021-01-26T13:14:36Z</time>
      </trkpt>
      <trkpt lat="45.30746" lon="5.74538">
        <ele>1680.4</ele>
        <time>2021-01-26T13:14:41Z</time>
      </trkpt>
      <trkpt lat="45.30748" lon="5.74535">
        <ele>1680.4</ele>
        <time>2021-01-26T13:14:45Z</time>
      </trkpt>
      <trkpt lat="45.30751" lon="5.74532">
        <ele>1680.4</ele>
        <time>2021-01-26T13:14:47Z</time>
      </trkpt>
      <trkpt lat="45.30753" lon="5.74531">
        <ele>1680.4</ele>
        <time>2021-01-26T13:14:48Z</time>
      </trkpt>
      <trkpt lat="45.30755" lon="5.74529">
        <ele>1635.4</ele>
        <time>2021-01-26T13:14:49Z</time>
      </trkpt>
      <trkpt lat="45.30757" lon="5.74526">
        <ele>1635.4</ele>
        <time>2021-01-26T13:14:50Z</time>
      </trkpt>
      <trkpt lat="45.30759" lon="5.74524">
        <ele>1635.4</ele>
        <time>2021-01-26T13:14:51Z</time>
      </trkpt>
      <trkpt lat="45.30762" lon="5.74521">
        <ele>1635.4</ele>
        <time>2021-01-26T13:14:52Z</time>
      </trkpt>
      <trkpt lat="45.30765" lon="5.74517">
        <ele>1635.4</ele>
        <time>2021-01-26T13:14:53Z</time>
      </trkpt>
      <trkpt lat="45.30768" lon="5.74513">
        <ele>1635.4</ele>
        <time>2021-01-26T13:14:54Z</time>
      </trkpt>
      <trkpt lat="45.30771" lon="5.74508">
        <ele>1635.4</ele>
        <time>2021-01-26T13:14:55Z</time>
      </trkpt>
      <trkpt lat="45.30775" lon="5.74504">
        <ele>1635.4</ele>
        <time>2021-01-26T13:14:56Z</time>
      </trkpt>
      <trkpt lat="45.30779" lon="5.745">
        <ele>1635.4</ele>
        <time>2021-01-26T13:14:57Z</time>
      </trkpt>
      <trkpt lat="45.30782" lon="5.74497">
        <ele>1635.4</ele>
        <time>2021-01-26T13:14:58Z</time>
      </trkpt>
      <trkpt lat="45.30786" lon="5.74493">
        <ele>1630.8</ele>
        <time>2021-01-26T13:14:59Z</time>
      </trkpt>
      <trkpt lat="45.30791" lon="5.7449">
        <ele>1630.8</ele>
        <time>2021-01-26T13:15:00Z</time>
      </trkpt>
      <trkpt lat="45.30797" lon="5.74486">
        <ele>1630.8</ele>
        <time>2021-01-26T13:15:01Z</time>
      </trkpt>
      <trkpt lat="45.30802" lon="5.74482">
        <ele>1630.8</ele>
        <time>2021-01-26T13:15:02Z</time>
      </trkpt>
      <trkpt lat="45.30808" lon="5.7448">
        <ele>1630.8</ele>
        <time>2021-01-26T13:15:03Z</time>
      </trkpt>
      <trkpt lat="45.30814" lon="5.74478">
        <ele>1630.8</ele>
        <time>2021-01-26T13:15:04Z</time>
      </trkpt>
      <trkpt lat="45.3082" lon="5.74477">
        <ele>1630.8</ele>
        <time>2021-01-26T13:15:05Z</time>
      </trkpt>
      <trkpt lat="45.30827" lon="5.74476">
        <ele>1630.8</ele>
        <time>2021-01-26T13:15:06Z</time>
      </trkpt>
      <trkpt lat="45.30834" lon="5.74476">
        <ele>1630.8</ele>
        <time>2021-01-26T13:15:07Z</time>
      </trkpt>
      <trkpt lat="45.3084" lon="5.74476">
        <ele>1630.8</ele>
        <time>2021-01-26T13:15:08Z</time>
      </trkpt>
      <trkpt lat="45.30847" lon="5.74476">
        <ele>1623</ele>
        <time>2021-01-26T13:15:09Z</time>
      </trkpt>
      <trkpt lat="45.30854" lon="5.74476">
        <ele>1623</ele>
        <time>2021-01-26T13:15:10Z</time>
      </trkpt>
      <trkpt lat="45.3086" lon="5.74477">
        <ele>1623</ele>
        <time>2021-01-26T13:15:11Z</time>
      </trkpt>
      <trkpt lat="45.30866" lon="5.74478">
        <ele>1623</ele>
        <time>2021-01-26T13:15:12Z</time>
      </trkpt>
      <trkpt lat="45.30871" lon="5.7448">
        <ele>1623</ele>
        <time>2021-01-26T13:15:13Z</time>
      </trkpt>
      <trkpt lat="45.30877" lon="5.74481">
        <ele>1623</ele>
        <time>2021-01-26T13:15:14Z</time>
      </trkpt>
      <trkpt lat="45.30882" lon="5.74481">
        <ele>1623</ele>
        <time>2021-01-26T13:15:15Z</time>
      </trkpt>
      <trkpt lat="45.30888" lon="5.7448">
        <ele>1623</ele>
        <time>2021-01-26T13:15:16Z</time>
      </trkpt>
      <trkpt lat="45.30894" lon="5.74479">
        <ele>1623</ele>
        <time>2021-01-26T13:15:17Z</time>
      </trkpt>
      <trkpt lat="45.309" lon="5.74478">
        <ele>1623</ele>
        <time>2021-01-26T13:15:18Z</time>
      </trkpt>
      <trkpt lat="45.30911" lon="5.74475">
        <ele>1623</ele>
        <time>2021-01-26T13:15:20Z</time>
      </trkpt>
      <trkpt lat="45.30914" lon="5.74469">
        <ele>1623</ele>
        <time>2021-01-26T13:15:24Z</time>
      </trkpt>
      <trkpt lat="45.30914" lon="5.74465">
        <ele>1623</ele>
        <time>2021-01-26T13:15:30Z</time>
      </trkpt>
      <trkpt lat="45.30913" lon="5.74463">
        <ele>1623</ele>
        <time>2021-01-26T13:15:31Z</time>
      </trkpt>
      <trkpt lat="45.30912" lon="5.7446">
        <ele>1623</ele>
        <time>2021-01-26T13:15:32Z</time>
      </trkpt>
      <trkpt lat="45.30912" lon="5.74457">
        <ele>1623</ele>
        <time>2021-01-26T13:15:33Z</time>
      </trkpt>
      <trkpt lat="45.30912" lon="5.74454">
        <ele>1623</ele>
        <time>2021-01-26T13:15:35Z</time>
      </trkpt>
      <trkpt lat="45.30911" lon="5.7445">
        <ele>1623</ele>
        <time>2021-01-26T13:15:38Z</time>
      </trkpt>
      <trkpt lat="45.30909" lon="5.74448">
        <ele>1597.6</ele>
        <time>2021-01-26T13:15:39Z</time>
      </trkpt>
      <trkpt lat="45.30906" lon="5.74445">
        <ele>1597.6</ele>
        <time>2021-01-26T13:15:40Z</time>
      </trkpt>
      <trkpt lat="45.30903" lon="5.74444">
        <ele>1597.6</ele>
        <time>2021-01-26T13:15:41Z</time>
      </trkpt>
      <trkpt lat="45.309" lon="5.74443">
        <ele>1597.6</ele>
        <time>2021-01-26T13:15:42Z</time>
      </trkpt>
      <trkpt lat="45.30892" lon="5.74437">
        <ele>1597.6</ele>
        <time>2021-01-26T13:15:52Z</time>
      </trkpt>
      <trkpt lat="45.30891" lon="5.74435">
        <ele>1597.6</ele>
        <time>2021-01-26T13:16:01Z</time>
      </trkpt>
      <trkpt lat="45.30886" lon="5.74431">
        <ele>1597.6</ele>
        <time>2021-01-26T13:16:08Z</time>
      </trkpt>
      <trkpt lat="45.30884" lon="5.7443">
        <ele>1597.6</ele>
        <time>2021-01-26T13:16:12Z</time>
      </trkpt>
      <trkpt lat="45.30883" lon="5.74426">
        <ele>1597.6</ele>
        <time>2021-01-26T13:16:14Z</time>
      </trkpt>
      <trkpt lat="45.30883" lon="5.74423">
        <ele>1597.6</ele>
        <time>2021-01-26T13:16:15Z</time>
      </trkpt>
      <trkpt lat="45.30884" lon="5.74419">
        <ele>1597.6</ele>
        <time>2021-01-26T13:16:16Z</time>
      </trkpt>
      <trkpt lat="45.30884" lon="5.74416">
        <ele>1597.6</ele>
        <time>2021-01-26T13:16:18Z</time>
      </trkpt>
      <trkpt lat="45.30882" lon="5.74413">
        <ele>1597.6</ele>
        <time>2021-01-26T13:16:21Z</time>
      </trkpt>
      <trkpt lat="45.30881" lon="5.74411">
        <ele>1597.6</ele>
        <time>2021-01-26T13:16:33Z</time>
      </trkpt>
      <trkpt lat="45.3088" lon="5.74407">
        <ele>1597.6</ele>
        <time>2021-01-26T13:16:35Z</time>
      </trkpt>
      <trkpt lat="45.30878" lon="5.74404">
        <ele>1597.6</ele>
        <time>2021-01-26T13:16:37Z</time>
      </trkpt>
      <trkpt lat="45.30877" lon="5.74401">
        <ele>1580.8</ele>
        <time>2021-01-26T13:16:39Z</time>
      </trkpt>
      <trkpt lat="45.30879" lon="5.74397">
        <ele>1580.8</ele>
        <time>2021-01-26T13:16:44Z</time>
      </trkpt>
      <trkpt lat="45.3088" lon="5.74394">
        <ele>1580.8</ele>
        <time>2021-01-26T13:16:45Z</time>
      </trkpt>
      <trkpt lat="45.30881" lon="5.7439">
        <ele>1580.8</ele>
        <time>2021-01-26T13:16:46Z</time>
      </trkpt>
      <trkpt lat="45.30883" lon="5.74386">
        <ele>1580.8</ele>
        <time>2021-01-26T13:16:47Z</time>
      </trkpt>
      <trkpt lat="45.30885" lon="5.74383">
        <ele>1580.8</ele>
        <time>2021-01-26T13:16:48Z</time>
      </trkpt>
      <trkpt lat="45.30887" lon="5.7438">
        <ele>1571.6</ele>
        <time>2021-01-26T13:16:49Z</time>
      </trkpt>
      <trkpt lat="45.30887" lon="5.74377">
        <ele>1571.6</ele>
        <time>2021-01-26T13:17:05Z</time>
      </trkpt>
      <trkpt lat="45.30886" lon="5.74373">
        <ele>1571.6</ele>
        <time>2021-01-26T13:17:07Z</time>
      </trkpt>
      <trkpt lat="45.30884" lon="5.7437">
        <ele>1571.6</ele>
        <time>2021-01-26T13:17:08Z</time>
      </trkpt>
      <trkpt lat="45.30882" lon="5.74365">
        <ele>1563.6</ele>
        <time>2021-01-26T13:17:09Z</time>
      </trkpt>
      <trkpt lat="45.30881" lon="5.74362">
        <ele>1563.6</ele>
        <time>2021-01-26T13:17:10Z</time>
      </trkpt>
      <trkpt lat="45.30882" lon="5.74358">
        <ele>1563.6</ele>
        <time>2021-01-26T13:17:12Z</time>
      </trkpt>
      <trkpt lat="45.30884" lon="5.74356">
        <ele>1563.6</ele>
        <time>2021-01-26T13:17:15Z</time>
      </trkpt>
      <trkpt lat="45.30886" lon="5.74354">
        <ele>1557</ele>
        <time>2021-01-26T13:17:19Z</time>
      </trkpt>
      <trkpt lat="45.30887" lon="5.74351">
        <ele>1557</ele>
        <time>2021-01-26T13:17:21Z</time>
      </trkpt>
      <trkpt lat="45.30886" lon="5.74348">
        <ele>1557</ele>
        <time>2021-01-26T13:17:23Z</time>
      </trkpt>
      <trkpt lat="45.3088" lon="5.74342">
        <ele>1557</ele>
        <time>2021-01-26T13:17:26Z</time>
      </trkpt>
      <trkpt lat="45.30881" lon="5.7433">
        <ele>1544.6</ele>
        <time>2021-01-26T13:17:29Z</time>
      </trkpt>
      <trkpt lat="45.30886" lon="5.74316">
        <ele>1544.6</ele>
        <time>2021-01-26T13:17:32Z</time>
      </trkpt>
      <trkpt lat="45.3089" lon="5.74304">
        <ele>1544.6</ele>
        <time>2021-01-26T13:17:45Z</time>
      </trkpt>
      <trkpt lat="45.30891" lon="5.74302">
        <ele>1544.6</ele>
        <time>2021-01-26T13:17:46Z</time>
      </trkpt>
      <trkpt lat="45.30893" lon="5.74299">
        <ele>1544.6</ele>
        <time>2021-01-26T13:17:58Z</time>
      </trkpt>
      <trkpt lat="45.30902" lon="5.74289">
        <ele>1544.6</ele>
        <time>2021-01-26T13:18:10Z</time>
      </trkpt>
      <trkpt lat="45.30902" lon="5.74273">
        <ele>1544.6</ele>
        <time>2021-01-26T13:18:13Z</time>
      </trkpt>
      <trkpt lat="45.309" lon="5.7426">
        <ele>1544.6</ele>
        <time>2021-01-26T13:18:15Z</time>
      </trkpt>
      <trkpt lat="45.30901" lon="5.74243">
        <ele>1544.6</ele>
        <time>2021-01-26T13:18:17Z</time>
      </trkpt>
      <trkpt lat="45.30898" lon="5.7423">
        <ele>1503</ele>
        <time>2021-01-26T13:18:19Z</time>
      </trkpt>
      <trkpt lat="45.3089" lon="5.74237">
        <ele>1503</ele>
        <time>2021-01-26T13:18:28Z</time>
      </trkpt>
      <trkpt lat="45.30886" lon="5.74224">
        <ele>1503</ele>
        <time>2021-01-26T13:18:32Z</time>
      </trkpt>
      <trkpt lat="45.30877" lon="5.74221">
        <ele>1503</ele>
        <time>2021-01-26T13:18:43Z</time>
      </trkpt>
      <trkpt lat="45.30876" lon="5.74205">
        <ele>1503</ele>
        <time>2021-01-26T13:18:55Z</time>
      </trkpt>
      <trkpt lat="45.30875" lon="5.74192">
        <ele>1503</ele>
        <time>2021-01-26T13:18:57Z</time>
      </trkpt>
      <trkpt lat="45.3087" lon="5.74174">
        <ele>1478</ele>
        <time>2021-01-26T13:18:59Z</time>
      </trkpt>
      <trkpt lat="45.30866" lon="5.74161">
        <ele>1478</ele>
        <time>2021-01-26T13:19:01Z</time>
      </trkpt>
      <trkpt lat="45.30863" lon="5.74172">
        <ele>1478</ele>
        <time>2021-01-26T13:19:12Z</time>
      </trkpt>
      <trkpt lat="45.3087" lon="5.74162">
        <ele>1478</ele>
        <time>2021-01-26T13:19:18Z</time>
      </trkpt>
      <trkpt lat="45.30873" lon="5.74146">
        <ele>1457</ele>
        <time>2021-01-26T13:19:29Z</time>
      </trkpt>
      <trkpt lat="45.30868" lon="5.74135">
        <ele>1457</ele>
        <time>2021-01-26T13:19:31Z</time>
      </trkpt>
      <trkpt lat="45.3087" lon="5.74122">
        <ele>1457</ele>
        <time>2021-01-26T13:19:33Z</time>
      </trkpt>
      <trkpt lat="45.30873" lon="5.74105">
        <ele>1457</ele>
        <time>2021-01-26T13:19:36Z</time>
      </trkpt>
      <trkpt lat="45.30875" lon="5.74089">
        <ele>1434.4</ele>
        <time>2021-01-26T13:19:39Z</time>
      </trkpt>
      <trkpt lat="45.30876" lon="5.74071">
        <ele>1434.4</ele>
        <time>2021-01-26T13:19:42Z</time>
      </trkpt>
      <trkpt lat="45.30875" lon="5.74086">
        <ele>1434.4</ele>
        <time>2021-01-26T13:20:06Z</time>
      </trkpt>
      <trkpt lat="45.30869" lon="5.74097">
        <ele>1434.4</ele>
        <time>2021-01-26T13:20:15Z</time>
      </trkpt>
      <trkpt lat="45.30879" lon="5.7409">
        <ele>1434.4</ele>
        <time>2021-01-26T13:20:33Z</time>
      </trkpt>
      <trkpt lat="45.30883" lon="5.74078">
        <ele>1409.4</ele>
        <time>2021-01-26T13:20:39Z</time>
      </trkpt>
      <trkpt lat="45.30886" lon="5.74066">
        <ele>1409.4</ele>
        <time>2021-01-26T13:20:57Z</time>
      </trkpt>
      <trkpt lat="45.30894" lon="5.74059">
        <ele>1409.4</ele>
        <time>2021-01-26T13:21:01Z</time>
      </trkpt>
      <trkpt lat="45.30897" lon="5.74045">
        <ele>1409.4</ele>
        <time>2021-01-26T13:21:04Z</time>
      </trkpt>
      <trkpt lat="45.30897" lon="5.74027">
        <ele>1409.4</ele>
        <time>2021-01-26T13:21:06Z</time>
      </trkpt>
      <trkpt lat="45.30896" lon="5.74008">
        <ele>1409.4</ele>
        <time>2021-01-26T13:21:08Z</time>
      </trkpt>
      <trkpt lat="45.30902" lon="5.73993">
        <ele>1409.4</ele>
        <time>2021-01-26T13:21:10Z</time>
      </trkpt>
      <trkpt lat="45.30906" lon="5.73975">
        <ele>1409.4</ele>
        <time>2021-01-26T13:21:12Z</time>
      </trkpt>
      <trkpt lat="45.30904" lon="5.73957">
        <ele>1409.4</ele>
        <time>2021-01-26T13:21:14Z</time>
      </trkpt>
      <trkpt lat="45.30902" lon="5.73942">
        <ele>1409.4</ele>
        <time>2021-01-26T13:21:16Z</time>
      </trkpt>
      <trkpt lat="45.30913" lon="5.73943">
        <ele>1409.4</ele>
        <time>2021-01-26T13:21:21Z</time>
      </trkpt>
      <trkpt lat="45.30917" lon="5.73955">
        <ele>1409.4</ele>
        <time>2021-01-26T13:21:27Z</time>
      </trkpt>
      <trkpt lat="45.30923" lon="5.73965">
        <ele>1409.4</ele>
        <time>2021-01-26T13:21:35Z</time>
      </trkpt>
      <trkpt lat="45.30925" lon="5.73978">
        <ele>1409.4</ele>
        <time>2021-01-26T13:22:15Z</time>
      </trkpt>
      <trkpt lat="45.30936" lon="5.73977">
        <ele>1409.4</ele>
        <time>2021-01-26T13:22:26Z</time>
      </trkpt>
      <trkpt lat="45.30946" lon="5.73972">
        <ele>1333.8</ele>
        <time>2021-01-26T13:22:29Z</time>
      </trkpt>
      <trkpt lat="45.30957" lon="5.73966">
        <ele>1333.8</ele>
        <time>2021-01-26T13:22:32Z</time>
      </trkpt>
      <trkpt lat="45.30964" lon="5.73958">
        <ele>1333.8</ele>
        <time>2021-01-26T13:22:36Z</time>
      </trkpt>
      <trkpt lat="45.30971" lon="5.73955">
        <ele>1333.8</ele>
        <time>2021-01-26T13:22:55Z</time>
      </trkpt>
      <trkpt lat="45.3097" lon="5.73958">
        <ele>1333.8</ele>
        <time>2021-01-26T13:22:57Z</time>
      </trkpt>
      <trkpt lat="45.30974" lon="5.73958">
        <ele>1333.8</ele>
        <time>2021-01-26T13:23:01Z</time>
      </trkpt>
      <trkpt lat="45.30976" lon="5.73957">
        <ele>1333.8</ele>
        <time>2021-01-26T13:23:02Z</time>
      </trkpt>
      <trkpt lat="45.30977" lon="5.73956">
        <ele>1333.8</ele>
        <time>2021-01-26T13:23:07Z</time>
      </trkpt>
      <trkpt lat="45.3098" lon="5.73958">
        <ele>1325.4</ele>
        <time>2021-01-26T13:23:09Z</time>
      </trkpt>
      <trkpt lat="45.30982" lon="5.73959">
        <ele>1325.4</ele>
        <time>2021-01-26T13:23:13Z</time>
      </trkpt>
      <trkpt lat="45.30982" lon="5.73961">
        <ele>1325.4</ele>
        <time>2021-01-26T13:23:15Z</time>
      </trkpt>
      <trkpt lat="45.30983" lon="5.73964">
        <ele>1325.4</ele>
        <time>2021-01-26T13:23:22Z</time>
      </trkpt>
      <trkpt lat="45.30983" lon="5.73967">
        <ele>1325.4</ele>
        <time>2021-01-26T13:23:28Z</time>
      </trkpt>
      <trkpt lat="45.30981" lon="5.73965">
        <ele>1325.4</ele>
        <time>2021-01-26T13:23:41Z</time>
      </trkpt>
      <trkpt lat="45.3098" lon="5.7397">
        <ele>1325.4</ele>
        <time>2021-01-26T13:24:03Z</time>
      </trkpt>
      <trkpt lat="45.3098" lon="5.73969">
        <ele>1325.4</ele>
        <time>2021-01-26T13:24:04Z</time>
      </trkpt>
      <trkpt lat="45.30981" lon="5.73966">
        <ele>1325.4</ele>
        <time>2021-01-26T13:24:17Z</time>
      </trkpt>
      <trkpt lat="45.3098" lon="5.73963">
        <ele>1325.4</ele>
        <time>2021-01-26T13:24:37Z</time>
      </trkpt>
      <trkpt lat="45.3098" lon="5.7396">
        <ele>1325.4</ele>
        <time>2021-01-26T13:24:43Z</time>
      </trkpt>
      <trkpt lat="45.30981" lon="5.73961">
        <ele>1325.4</ele>
        <time>2021-01-26T13:25:10Z</time>
      </trkpt>
      <trkpt lat="45.30982" lon="5.73965">
        <ele>1325.4</ele>
        <time>2021-01-26T13:25:22Z</time>
      </trkpt>
      <trkpt lat="45.30984" lon="5.73967">
        <ele>1325.4</ele>
        <time>2021-01-26T13:25:27Z</time>
      </trkpt>
      <trkpt lat="45.30986" lon="5.73969">
        <ele>1325.4</ele>
        <time>2021-01-26T13:25:53Z</time>
      </trkpt>
      <trkpt lat="45.30984" lon="5.73967">
        <ele>1325.4</ele>
        <time>2021-01-26T13:26:07Z</time>
      </trkpt>
      <trkpt lat="45.30994" lon="5.73966">
        <ele>1325.4</ele>
        <time>2021-01-26T13:26:44Z</time>
      </trkpt>
      <trkpt lat="45.30997" lon="5.73964">
        <ele>1325.4</ele>
        <time>2021-01-26T13:26:46Z</time>
      </trkpt>
      <trkpt lat="45.31001" lon="5.73962">
        <ele>1326.8</ele>
        <time>2021-01-26T13:26:49Z</time>
      </trkpt>
      <trkpt lat="45.31002" lon="5.7396">
        <ele>1326.8</ele>
        <time>2021-01-26T13:26:50Z</time>
      </trkpt>
      <trkpt lat="45.31005" lon="5.73958">
        <ele>1326.8</ele>
        <time>2021-01-26T13:26:52Z</time>
      </trkpt>
      <trkpt lat="45.31008" lon="5.73956">
        <ele>1326.8</ele>
        <time>2021-01-26T13:26:54Z</time>
      </trkpt>
      <trkpt lat="45.3101" lon="5.73956">
        <ele>1326.8</ele>
        <time>2021-01-26T13:26:56Z</time>
      </trkpt>
      <trkpt lat="45.31012" lon="5.73953">
        <ele>1326.8</ele>
        <time>2021-01-26T13:26:58Z</time>
      </trkpt>
      <trkpt lat="45.31013" lon="5.7395">
        <ele>1326.8</ele>
        <time>2021-01-26T13:27:00Z</time>
      </trkpt>
      <trkpt lat="45.31016" lon="5.73948">
        <ele>1326.8</ele>
        <time>2021-01-26T13:27:02Z</time>
      </trkpt>
      <trkpt lat="45.31018" lon="5.73946">
        <ele>1326.8</ele>
        <time>2021-01-26T13:27:04Z</time>
      </trkpt>
      <trkpt lat="45.3102" lon="5.73944">
        <ele>1326.8</ele>
        <time>2021-01-26T13:27:07Z</time>
      </trkpt>
      <trkpt lat="45.31022" lon="5.73944">
        <ele>1324.2</ele>
        <time>2021-01-26T13:27:09Z</time>
      </trkpt>
      <trkpt lat="45.31024" lon="5.73944">
        <ele>1324.2</ele>
        <time>2021-01-26T13:27:11Z</time>
      </trkpt>
      <trkpt lat="45.31026" lon="5.73945">
        <ele>1324.2</ele>
        <time>2021-01-26T13:27:14Z</time>
      </trkpt>
      <trkpt lat="45.31028" lon="5.73948">
        <ele>1324.2</ele>
        <time>2021-01-26T13:27:16Z</time>
      </trkpt>
      <trkpt lat="45.31029" lon="5.73951">
        <ele>1324.2</ele>
        <time>2021-01-26T13:27:18Z</time>
      </trkpt>
      <trkpt lat="45.3103" lon="5.73953">
        <ele>1324.2</ele>
        <time>2021-01-26T13:27:20Z</time>
      </trkpt>
      <trkpt lat="45.31033" lon="5.73953">
        <ele>1324.2</ele>
        <time>2021-01-26T13:27:22Z</time>
      </trkpt>
      <trkpt lat="45.31036" lon="5.73953">
        <ele>1324.2</ele>
        <time>2021-01-26T13:27:24Z</time>
      </trkpt>
      <trkpt lat="45.31039" lon="5.73953">
        <ele>1324.2</ele>
        <time>2021-01-26T13:27:26Z</time>
      </trkpt>
      <trkpt lat="45.31042" lon="5.73954">
        <ele>1324.2</ele>
        <time>2021-01-26T13:27:28Z</time>
      </trkpt>
      <trkpt lat="45.31045" lon="5.73954">
        <ele>1324.2</ele>
        <time>2021-01-26T13:27:30Z</time>
      </trkpt>
      <trkpt lat="45.31047" lon="5.73954">
        <ele>1324.2</ele>
        <time>2021-01-26T13:27:31Z</time>
      </trkpt>
      <trkpt lat="45.31049" lon="5.73955">
        <ele>1324.2</ele>
        <time>2021-01-26T13:27:33Z</time>
      </trkpt>
      <trkpt lat="45.31051" lon="5.73955">
        <ele>1324.2</ele>
        <time>2021-01-26T13:27:35Z</time>
      </trkpt>
      <trkpt lat="45.31056" lon="5.73954">
        <ele>1324.2</ele>
        <time>2021-01-26T13:27:38Z</time>
      </trkpt>
      <trkpt lat="45.31059" lon="5.73955">
        <ele>1324.2</ele>
        <time>2021-01-26T13:27:40Z</time>
      </trkpt>
      <trkpt lat="45.31063" lon="5.73956">
        <ele>1324.2</ele>
        <time>2021-01-26T13:27:42Z</time>
      </trkpt>
      <trkpt lat="45.31065" lon="5.73959">
        <ele>1324.2</ele>
        <time>2021-01-26T13:27:44Z</time>
      </trkpt>
      <trkpt lat="45.31067" lon="5.73963">
        <ele>1324.2</ele>
        <time>2021-01-26T13:27:46Z</time>
      </trkpt>
      <trkpt lat="45.3107" lon="5.73966">
        <ele>1324.2</ele>
        <time>2021-01-26T13:27:48Z</time>
      </trkpt>
      <trkpt lat="45.31071" lon="5.7397">
        <ele>1324.2</ele>
        <time>2021-01-26T13:27:50Z</time>
      </trkpt>
      <trkpt lat="45.31075" lon="5.73976">
        <ele>1324.2</ele>
        <time>2021-01-26T13:27:57Z</time>
      </trkpt>
      <trkpt lat="45.31077" lon="5.73976">
        <ele>1324.2</ele>
        <time>2021-01-26T13:28:00Z</time>
      </trkpt>
      <trkpt lat="45.31084" lon="5.73977">
        <ele>1324.2</ele>
        <time>2021-01-26T13:28:06Z</time>
      </trkpt>
      <trkpt lat="45.31086" lon="5.73977">
        <ele>1327</ele>
        <time>2021-01-26T13:28:09Z</time>
      </trkpt>
      <trkpt lat="45.31098" lon="5.73977">
        <ele>1327</ele>
        <time>2021-01-26T13:28:17Z</time>
      </trkpt>
      <trkpt lat="45.31104" lon="5.73979">
        <ele>1327</ele>
        <time>2021-01-26T13:28:20Z</time>
      </trkpt>
      <trkpt lat="45.31114" lon="5.73983">
        <ele>1327</ele>
        <time>2021-01-26T13:28:25Z</time>
      </trkpt>
      <trkpt lat="45.31123" lon="5.73984">
        <ele>1327</ele>
        <time>2021-01-26T13:28:33Z</time>
      </trkpt>
      <trkpt lat="45.31132" lon="5.73991">
        <ele>1327</ele>
        <time>2021-01-26T13:28:40Z</time>
      </trkpt>
      <trkpt lat="45.31141" lon="5.74">
        <ele>1327</ele>
        <time>2021-01-26T13:28:47Z</time>
      </trkpt>
      <trkpt lat="45.31148" lon="5.74008">
        <ele>1327</ele>
        <time>2021-01-26T13:28:56Z</time>
      </trkpt>
      <trkpt lat="45.31157" lon="5.74011">
        <ele>1327</ele>
        <time>2021-01-26T13:29:02Z</time>
      </trkpt>
      <trkpt lat="45.31167" lon="5.74019">
        <ele>1327</ele>
        <time>2021-01-26T13:29:08Z</time>
      </trkpt>
      <trkpt lat="45.31174" lon="5.74026">
        <ele>1327</ele>
        <time>2021-01-26T13:29:13Z</time>
      </trkpt>
      <trkpt lat="45.31185" lon="5.74034">
        <ele>1327</ele>
        <time>2021-01-26T13:29:21Z</time>
      </trkpt>
      <trkpt lat="45.31192" lon="5.7404">
        <ele>1327</ele>
        <time>2021-01-26T13:29:28Z</time>
      </trkpt>
      <trkpt lat="45.31199" lon="5.7405">
        <ele>1327</ele>
        <time>2021-01-26T13:29:36Z</time>
      </trkpt>
      <trkpt lat="45.31205" lon="5.74059">
        <ele>1327</ele>
        <time>2021-01-26T13:29:44Z</time>
      </trkpt>
      <trkpt lat="45.31211" lon="5.7407">
        <ele>1327</ele>
        <time>2021-01-26T13:29:53Z</time>
      </trkpt>
      <trkpt lat="45.31218" lon="5.7408">
        <ele>1327</ele>
        <time>2021-01-26T13:30:03Z</time>
      </trkpt>
      <trkpt lat="45.31223" lon="5.7409">
        <ele>1327</ele>
        <time>2021-01-26T13:30:12Z</time>
      </trkpt>
      <trkpt lat="45.31231" lon="5.74098">
        <ele>1327</ele>
        <time>2021-01-26T13:30:21Z</time>
      </trkpt>
      <trkpt lat="45.3124" lon="5.74101">
        <ele>1327</ele>
        <time>2021-01-26T13:30:30Z</time>
      </trkpt>
      <trkpt lat="45.31247" lon="5.74105">
        <ele>1327</ele>
        <time>2021-01-26T13:30:41Z</time>
      </trkpt>
      <trkpt lat="45.31248" lon="5.74103">
        <ele>1327</ele>
        <time>2021-01-26T13:30:44Z</time>
      </trkpt>
      <trkpt lat="45.3125" lon="5.741">
        <ele>1314.4</ele>
        <time>2021-01-26T13:30:49Z</time>
      </trkpt>
      <trkpt lat="45.31251" lon="5.741">
        <ele>1314.4</ele>
        <time>2021-01-26T13:30:50Z</time>
      </trkpt>
      <trkpt lat="45.31253" lon="5.74104">
        <ele>1314.4</ele>
        <time>2021-01-26T13:31:03Z</time>
      </trkpt>
      <trkpt lat="45.31255" lon="5.74106">
        <ele>1314.4</ele>
        <time>2021-01-26T13:31:05Z</time>
      </trkpt>
      <trkpt lat="45.31257" lon="5.74104">
        <ele>1310</ele>
        <time>2021-01-26T13:31:09Z</time>
      </trkpt>
      <trkpt lat="45.31258" lon="5.74102">
        <ele>1310</ele>
        <time>2021-01-26T13:31:15Z</time>
      </trkpt>
      <trkpt lat="45.31266" lon="5.7411">
        <ele>1310</ele>
        <time>2021-01-26T13:31:24Z</time>
      </trkpt>
      <trkpt lat="45.31267" lon="5.74123">
        <ele>1310</ele>
        <time>2021-01-26T13:31:37Z</time>
      </trkpt>
      <trkpt lat="45.31273" lon="5.74134">
        <ele>1310</ele>
        <time>2021-01-26T13:31:45Z</time>
      </trkpt>
      <trkpt lat="45.31279" lon="5.74145">
        <ele>1310</ele>
        <time>2021-01-26T13:31:50Z</time>
      </trkpt>
      <trkpt lat="45.31284" lon="5.74156">
        <ele>1310</ele>
        <time>2021-01-26T13:31:56Z</time>
      </trkpt>
      <trkpt lat="45.3129" lon="5.74167">
        <ele>1310</ele>
        <time>2021-01-26T13:32:03Z</time>
      </trkpt>
      <trkpt lat="45.31297" lon="5.74177">
        <ele>1310</ele>
        <time>2021-01-26T13:32:10Z</time>
      </trkpt>
      <trkpt lat="45.31305" lon="5.74183">
        <ele>1310</ele>
        <time>2021-01-26T13:32:14Z</time>
      </trkpt>
      <trkpt lat="45.31314" lon="5.7419">
        <ele>1310</ele>
        <time>2021-01-26T13:32:20Z</time>
      </trkpt>
      <trkpt lat="45.3132" lon="5.74199">
        <ele>1310</ele>
        <time>2021-01-26T13:32:45Z</time>
      </trkpt>
      <trkpt lat="45.31329" lon="5.74199">
        <ele>1310</ele>
        <time>2021-01-26T13:32:52Z</time>
      </trkpt>
      <trkpt lat="45.3134" lon="5.74202">
        <ele>1310</ele>
        <time>2021-01-26T13:32:56Z</time>
      </trkpt>
      <trkpt lat="45.31349" lon="5.74204">
        <ele>1310</ele>
        <time>2021-01-26T13:33:02Z</time>
      </trkpt>
      <trkpt lat="45.31358" lon="5.74213">
        <ele>1310</ele>
        <time>2021-01-26T13:33:10Z</time>
      </trkpt>
      <trkpt lat="45.31366" lon="5.74222">
        <ele>1310</ele>
        <time>2021-01-26T13:33:20Z</time>
      </trkpt>
      <trkpt lat="45.31375" lon="5.74228">
        <ele>1310</ele>
        <time>2021-01-26T13:33:25Z</time>
      </trkpt>
      <trkpt lat="45.31374" lon="5.74242">
        <ele>1310</ele>
        <time>2021-01-26T13:33:33Z</time>
      </trkpt>
      <trkpt lat="45.31378" lon="5.74254">
        <ele>1310</ele>
        <time>2021-01-26T13:33:41Z</time>
      </trkpt>
      <trkpt lat="45.31385" lon="5.74263">
        <ele>1290.8</ele>
        <time>2021-01-26T13:33:59Z</time>
      </trkpt>
      <trkpt lat="45.31393" lon="5.7427">
        <ele>1290.8</ele>
        <time>2021-01-26T13:34:05Z</time>
      </trkpt>
      <trkpt lat="45.31401" lon="5.74277">
        <ele>1290.8</ele>
        <time>2021-01-26T13:34:13Z</time>
      </trkpt>
      <trkpt lat="45.3141" lon="5.74283">
        <ele>1290.8</ele>
        <time>2021-01-26T13:34:24Z</time>
      </trkpt>
      <trkpt lat="45.31413" lon="5.74295">
        <ele>1290.8</ele>
        <time>2021-01-26T13:34:35Z</time>
      </trkpt>
      <trkpt lat="45.31407" lon="5.74305">
        <ele>1290.8</ele>
        <time>2021-01-26T13:34:46Z</time>
      </trkpt>
      <trkpt lat="45.31398" lon="5.74312">
        <ele>1290.8</ele>
        <time>2021-01-26T13:34:57Z</time>
      </trkpt>
      <trkpt lat="45.31406" lon="5.74321">
        <ele>1290.8</ele>
        <time>2021-01-26T13:35:26Z</time>
      </trkpt>
      <trkpt lat="45.31413" lon="5.7433">
        <ele>1290.8</ele>
        <time>2021-01-26T13:35:41Z</time>
      </trkpt>
      <trkpt lat="45.31419" lon="5.7434">
        <ele>1290.8</ele>
        <time>2021-01-26T13:35:50Z</time>
      </trkpt>
      <trkpt lat="45.31428" lon="5.74346">
        <ele>1290.8</ele>
        <time>2021-01-26T13:36:08Z</time>
      </trkpt>
      <trkpt lat="45.31435" lon="5.74352">
        <ele>1290.8</ele>
        <time>2021-01-26T13:36:17Z</time>
      </trkpt>
      <trkpt lat="45.3144" lon="5.74364">
        <ele>1314.4</ele>
        <time>2021-01-26T13:36:29Z</time>
      </trkpt>
      <trkpt lat="45.3145" lon="5.74366">
        <ele>1314.4</ele>
        <time>2021-01-26T13:36:48Z</time>
      </trkpt>
      <trkpt lat="45.31459" lon="5.7437">
        <ele>1314.4</ele>
        <time>2021-01-26T13:36:57Z</time>
      </trkpt>
      <trkpt lat="45.31469" lon="5.7437">
        <ele>1314.4</ele>
        <time>2021-01-26T13:37:07Z</time>
      </trkpt>
      <trkpt lat="45.31478" lon="5.74374">
        <ele>1314.4</ele>
        <time>2021-01-26T13:37:17Z</time>
      </trkpt>
      <trkpt lat="45.31486" lon="5.74379">
        <ele>1324.6</ele>
        <time>2021-01-26T13:37:29Z</time>
      </trkpt>
      <trkpt lat="45.31495" lon="5.74385">
        <ele>1324.6</ele>
        <time>2021-01-26T13:38:03Z</time>
      </trkpt>
      <trkpt lat="45.31491" lon="5.74373">
        <ele>1324.6</ele>
        <time>2021-01-26T13:39:40Z</time>
      </trkpt>
      <trkpt lat="45.31498" lon="5.74383">
        <ele>1324.6</ele>
        <time>2021-01-26T13:40:03Z</time>
      </trkpt>
      <trkpt lat="45.31503" lon="5.74395">
        <ele>1324.6</ele>
        <time>2021-01-26T13:40:16Z</time>
      </trkpt>
      <trkpt lat="45.31512" lon="5.74397">
        <ele>1324.6</ele>
        <time>2021-01-26T13:40:37Z</time>
      </trkpt>
      <trkpt lat="45.31522" lon="5.74398">
        <ele>1324.6</ele>
        <time>2021-01-26T13:40:52Z</time>
      </trkpt>
      <trkpt lat="45.31531" lon="5.74396">
        <ele>1324.6</ele>
        <time>2021-01-26T13:41:07Z</time>
      </trkpt>
      <trkpt lat="45.31538" lon="5.74405">
        <ele>1324.6</ele>
        <time>2021-01-26T13:41:32Z</time>
      </trkpt>
      <trkpt lat="45.31545" lon="5.74416">
        <ele>1324.6</ele>
        <time>2021-01-26T13:42:20Z</time>
      </trkpt>
      <trkpt lat="45.31537" lon="5.74424">
        <ele>1324.6</ele>
        <time>2021-01-26T13:42:34Z</time>
      </trkpt>
      <trkpt lat="45.31532" lon="5.74435">
        <ele>1324.6</ele>
        <time>2021-01-26T13:42:45Z</time>
      </trkpt>
      <trkpt lat="45.31528" lon="5.74447">
        <ele>1324.6</ele>
        <time>2021-01-26T13:43:10Z</time>
      </trkpt>
      <trkpt lat="45.3152" lon="5.74451">
        <ele>1324.6</ele>
        <time>2021-01-26T13:43:28Z</time>
      </trkpt>
      <trkpt lat="45.31514" lon="5.74462">
        <ele>1324.6</ele>
        <time>2021-01-26T13:43:41Z</time>
      </trkpt>
      <trkpt lat="45.31508" lon="5.74471">
        <ele>1374.2</ele>
        <time>2021-01-26T13:44:09Z</time>
      </trkpt>
      <trkpt lat="45.31501" lon="5.7448">
        <ele>1374.2</ele>
        <time>2021-01-26T13:44:21Z</time>
      </trkpt>
      <trkpt lat="45.31493" lon="5.74483">
        <ele>1374.2</ele>
        <time>2021-01-26T13:44:31Z</time>
      </trkpt>
      <trkpt lat="45.31485" lon="5.7449">
        <ele>1374.2</ele>
        <time>2021-01-26T13:44:44Z</time>
      </trkpt>
      <trkpt lat="45.31476" lon="5.74494">
        <ele>1374.2</ele>
        <time>2021-01-26T13:44:58Z</time>
      </trkpt>
      <trkpt lat="45.3147" lon="5.74504">
        <ele>1374.2</ele>
        <time>2021-01-26T13:45:20Z</time>
      </trkpt>
      <trkpt lat="45.31461" lon="5.74507">
        <ele>1374.2</ele>
        <time>2021-01-26T13:45:36Z</time>
      </trkpt>
      <trkpt lat="45.31453" lon="5.74513">
        <ele>1374.2</ele>
        <time>2021-01-26T13:45:54Z</time>
      </trkpt>
      <trkpt lat="45.31444" lon="5.74519">
        <ele>1374.2</ele>
        <time>2021-01-26T13:46:05Z</time>
      </trkpt>
      <trkpt lat="45.31436" lon="5.74528">
        <ele>1374.2</ele>
        <time>2021-01-26T13:46:16Z</time>
      </trkpt>
      <trkpt lat="45.31427" lon="5.74529">
        <ele>1374.2</ele>
        <time>2021-01-26T13:46:26Z</time>
      </trkpt>
      <trkpt lat="45.31418" lon="5.74533">
        <ele>1374.2</ele>
        <time>2021-01-26T13:46:33Z</time>
      </trkpt>
      <trkpt lat="45.31408" lon="5.74537">
        <ele>1374.2</ele>
        <time>2021-01-26T13:46:47Z</time>
      </trkpt>
      <trkpt lat="45.31399" lon="5.7454">
        <ele>1410.4</ele>
        <time>2021-01-26T13:46:59Z</time>
      </trkpt>
      <trkpt lat="45.31391" lon="5.74544">
        <ele>1410.4</ele>
        <time>2021-01-26T13:47:10Z</time>
      </trkpt>
      <trkpt lat="45.31384" lon="5.74553">
        <ele>1410.4</ele>
        <time>2021-01-26T13:47:20Z</time>
      </trkpt>
      <trkpt lat="45.31375" lon="5.7456">
        <ele>1410.4</ele>
        <time>2021-01-26T13:47:34Z</time>
      </trkpt>
      <trkpt lat="45.31367" lon="5.74567">
        <ele>1410.4</ele>
        <time>2021-01-26T13:47:47Z</time>
      </trkpt>
      <trkpt lat="45.31359" lon="5.74574">
        <ele>1410.4</ele>
        <time>2021-01-26T13:47:56Z</time>
      </trkpt>
      <trkpt lat="45.3135" lon="5.74581">
        <ele>1410.4</ele>
        <time>2021-01-26T13:48:06Z</time>
      </trkpt>
      <trkpt lat="45.31344" lon="5.74591">
        <ele>1410.4</ele>
        <time>2021-01-26T13:48:16Z</time>
      </trkpt>
      <trkpt lat="45.31337" lon="5.74601">
        <ele>1410.4</ele>
        <time>2021-01-26T13:48:27Z</time>
      </trkpt>
      <trkpt lat="45.31329" lon="5.74608">
        <ele>1410.4</ele>
        <time>2021-01-26T13:48:37Z</time>
      </trkpt>
      <trkpt lat="45.31323" lon="5.74618">
        <ele>1431.6</ele>
        <time>2021-01-26T13:48:49Z</time>
      </trkpt>
      <trkpt lat="45.3132" lon="5.74631">
        <ele>1437.2</ele>
        <time>2021-01-26T13:49:09Z</time>
      </trkpt>
      <trkpt lat="45.31313" lon="5.7464">
        <ele>1437.2</ele>
        <time>2021-01-26T13:49:30Z</time>
      </trkpt>
      <trkpt lat="45.31307" lon="5.7465">
        <ele>1437.2</ele>
        <time>2021-01-26T13:49:48Z</time>
      </trkpt>
      <trkpt lat="45.31303" lon="5.74662">
        <ele>1437.2</ele>
        <time>2021-01-26T13:50:05Z</time>
      </trkpt>
      <trkpt lat="45.31297" lon="5.74673">
        <ele>1437.2</ele>
        <time>2021-01-26T13:50:17Z</time>
      </trkpt>
      <trkpt lat="45.31297" lon="5.74686">
        <ele>1454</ele>
        <time>2021-01-26T13:50:29Z</time>
      </trkpt>
      <trkpt lat="45.31292" lon="5.74697">
        <ele>1454</ele>
        <time>2021-01-26T13:50:38Z</time>
      </trkpt>
      <trkpt lat="45.3129" lon="5.74698">
        <ele>1454</ele>
        <time>2021-01-26T13:50:41Z</time>
      </trkpt>
      <trkpt lat="45.31288" lon="5.747">
        <ele>1454</ele>
        <time>2021-01-26T13:50:43Z</time>
      </trkpt>
      <trkpt lat="45.31286" lon="5.74715">
        <ele>1454</ele>
        <time>2021-01-26T13:50:53Z</time>
      </trkpt>
      <trkpt lat="45.31294" lon="5.74721">
        <ele>1454</ele>
        <time>2021-01-26T13:51:05Z</time>
      </trkpt>
      <trkpt lat="45.31302" lon="5.74728">
        <ele>1454</ele>
        <time>2021-01-26T13:51:21Z</time>
      </trkpt>
      <trkpt lat="45.31307" lon="5.74739">
        <ele>1454</ele>
        <time>2021-01-26T13:51:37Z</time>
      </trkpt>
      <trkpt lat="45.31316" lon="5.74742">
        <ele>1454</ele>
        <time>2021-01-26T13:51:47Z</time>
      </trkpt>
      <trkpt lat="45.31326" lon="5.74741">
        <ele>1469.4</ele>
        <time>2021-01-26T13:51:59Z</time>
      </trkpt>
      <trkpt lat="45.31333" lon="5.74749">
        <ele>1469.4</ele>
        <time>2021-01-26T13:52:11Z</time>
      </trkpt>
      <trkpt lat="45.31328" lon="5.74761">
        <ele>1469.4</ele>
        <time>2021-01-26T13:52:22Z</time>
      </trkpt>
      <trkpt lat="45.31321" lon="5.74768">
        <ele>1469.4</ele>
        <time>2021-01-26T13:52:34Z</time>
      </trkpt>
      <trkpt lat="45.31315" lon="5.74778">
        <ele>1469.4</ele>
        <time>2021-01-26T13:52:44Z</time>
      </trkpt>
      <trkpt lat="45.31307" lon="5.74785">
        <ele>1469.4</ele>
        <time>2021-01-26T13:52:53Z</time>
      </trkpt>
      <trkpt lat="45.31298" lon="5.74793">
        <ele>1469.4</ele>
        <time>2021-01-26T13:53:02Z</time>
      </trkpt>
      <trkpt lat="45.3129" lon="5.74801">
        <ele>1469.4</ele>
        <time>2021-01-26T13:53:12Z</time>
      </trkpt>
      <trkpt lat="45.31285" lon="5.74812">
        <ele>1469.4</ele>
        <time>2021-01-26T13:53:23Z</time>
      </trkpt>
      <trkpt lat="45.31278" lon="5.74821">
        <ele>1469.4</ele>
        <time>2021-01-26T13:53:36Z</time>
      </trkpt>
      <trkpt lat="45.31276" lon="5.74836">
        <ele>1469.4</ele>
        <time>2021-01-26T13:53:44Z</time>
      </trkpt>
      <trkpt lat="45.31275" lon="5.74849">
        <ele>1469.4</ele>
        <time>2021-01-26T13:53:51Z</time>
      </trkpt>
      <trkpt lat="45.31275" lon="5.74863">
        <ele>1469.4</ele>
        <time>2021-01-26T13:54:02Z</time>
      </trkpt>
      <trkpt lat="45.31266" lon="5.74869">
        <ele>1469.4</ele>
        <time>2021-01-26T13:54:07Z</time>
      </trkpt>
      <trkpt lat="45.3126" lon="5.74881">
        <ele>1469.4</ele>
        <time>2021-01-26T13:54:14Z</time>
      </trkpt>
      <trkpt lat="45.31253" lon="5.7489">
        <ele>1469.4</ele>
        <time>2021-01-26T13:54:22Z</time>
      </trkpt>
      <trkpt lat="45.31245" lon="5.74895">
        <ele>1469.4</ele>
        <time>2021-01-26T13:54:27Z</time>
      </trkpt>
      <trkpt lat="45.31238" lon="5.74904">
        <ele>1469.4</ele>
        <time>2021-01-26T13:54:32Z</time>
      </trkpt>
      <trkpt lat="45.31229" lon="5.74911">
        <ele>1469.4</ele>
        <time>2021-01-26T13:54:38Z</time>
      </trkpt>
      <trkpt lat="45.3122" lon="5.74914">
        <ele>1469.4</ele>
        <time>2021-01-26T13:54:50Z</time>
      </trkpt>
      <trkpt lat="45.31211" lon="5.74921">
        <ele>1488.4</ele>
        <time>2021-01-26T13:54:59Z</time>
      </trkpt>
      <trkpt lat="45.31203" lon="5.74928">
        <ele>1488.4</ele>
        <time>2021-01-26T13:55:04Z</time>
      </trkpt>
      <trkpt lat="45.31199" lon="5.74941">
        <ele>1488.4</ele>
        <time>2021-01-26T13:55:13Z</time>
      </trkpt>
      <trkpt lat="45.31189" lon="5.74946">
        <ele>1488.4</ele>
        <time>2021-01-26T13:55:21Z</time>
      </trkpt>
      <trkpt lat="45.31182" lon="5.74955">
        <ele>1488.4</ele>
        <time>2021-01-26T13:55:28Z</time>
      </trkpt>
      <trkpt lat="45.31179" lon="5.74966">
        <ele>1488.4</ele>
        <time>2021-01-26T13:55:51Z</time>
      </trkpt>
      <trkpt lat="45.31172" lon="5.74977">
        <ele>1501.6</ele>
        <time>2021-01-26T13:55:59Z</time>
      </trkpt>
      <trkpt lat="45.31163" lon="5.74985">
        <ele>1501.6</ele>
        <time>2021-01-26T13:56:12Z</time>
      </trkpt>
      <trkpt lat="45.31154" lon="5.74989">
        <ele>1501.6</ele>
        <time>2021-01-26T13:56:20Z</time>
      </trkpt>
      <trkpt lat="45.31147" lon="5.74998">
        <ele>1501.6</ele>
        <time>2021-01-26T13:56:41Z</time>
      </trkpt>
      <trkpt lat="45.31138" lon="5.74997">
        <ele>1501.6</ele>
        <time>2021-01-26T13:56:52Z</time>
      </trkpt>
      <trkpt lat="45.31129" lon="5.74999">
        <ele>1501.6</ele>
        <time>2021-01-26T13:57:03Z</time>
      </trkpt>
      <trkpt lat="45.31122" lon="5.75008">
        <ele>1501.6</ele>
        <time>2021-01-26T13:57:16Z</time>
      </trkpt>
      <trkpt lat="45.31113" lon="5.75012">
        <ele>1501.6</ele>
        <time>2021-01-26T13:57:23Z</time>
      </trkpt>
      <trkpt lat="45.31103" lon="5.75015">
        <ele>1501.6</ele>
        <time>2021-01-26T13:57:36Z</time>
      </trkpt>
      <trkpt lat="45.31099" lon="5.75027">
        <ele>1501.6</ele>
        <time>2021-01-26T13:57:51Z</time>
      </trkpt>
      <trkpt lat="45.3109" lon="5.75031">
        <ele>1501.6</ele>
        <time>2021-01-26T13:58:06Z</time>
      </trkpt>
      <trkpt lat="45.31083" lon="5.75038">
        <ele>1501.6</ele>
        <time>2021-01-26T13:58:17Z</time>
      </trkpt>
      <trkpt lat="45.3108" lon="5.75041">
        <ele>1501.6</ele>
        <time>2021-01-26T13:58:21Z</time>
      </trkpt>
      <trkpt lat="45.31082" lon="5.75041">
        <ele>1501.6</ele>
        <time>2021-01-26T13:58:24Z</time>
      </trkpt>
      <trkpt lat="45.31087" lon="5.7503">
        <ele>1501.6</ele>
        <time>2021-01-26T13:58:41Z</time>
      </trkpt>
      <trkpt lat="45.31096" lon="5.75034">
        <ele>1501.6</ele>
        <time>2021-01-26T13:58:53Z</time>
      </trkpt>
      <trkpt lat="45.31097" lon="5.75037">
        <ele>1501.6</ele>
        <time>2021-01-26T13:58:56Z</time>
      </trkpt>
      <trkpt lat="45.31108" lon="5.75036">
        <ele>1501.6</ele>
        <time>2021-01-26T13:59:07Z</time>
      </trkpt>
      <trkpt lat="45.31118" lon="5.75037">
        <ele>1501.6</ele>
        <time>2021-01-26T13:59:16Z</time>
      </trkpt>
      <trkpt lat="45.31124" lon="5.75047">
        <ele>1501.6</ele>
        <time>2021-01-26T13:59:27Z</time>
      </trkpt>
      <trkpt lat="45.3113" lon="5.75057">
        <ele>1501.6</ele>
        <time>2021-01-26T13:59:47Z</time>
      </trkpt>
      <trkpt lat="45.31139" lon="5.75061">
        <ele>1501.6</ele>
        <time>2021-01-26T14:00:02Z</time>
      </trkpt>
      <trkpt lat="45.31142" lon="5.7507">
        <ele>1501.6</ele>
        <time>2021-01-26T14:00:12Z</time>
      </trkpt>
      <trkpt lat="45.31143" lon="5.75072">
        <ele>1501.6</ele>
        <time>2021-01-26T14:00:15Z</time>
      </trkpt>
      <trkpt lat="45.31144" lon="5.75074">
        <ele>1501.6</ele>
        <time>2021-01-26T14:00:18Z</time>
      </trkpt>
      <trkpt lat="45.31145" lon="5.75077">
        <ele>1501.6</ele>
        <time>2021-01-26T14:00:21Z</time>
      </trkpt>
      <trkpt lat="45.31147" lon="5.75078">
        <ele>1501.6</ele>
        <time>2021-01-26T14:00:25Z</time>
      </trkpt>
      <trkpt lat="45.3115" lon="5.75078">
        <ele>1501.6</ele>
        <time>2021-01-26T14:00:28Z</time>
      </trkpt>
      <trkpt lat="45.31153" lon="5.75078">
        <ele>1501.6</ele>
        <time>2021-01-26T14:00:32Z</time>
      </trkpt>
      <trkpt lat="45.31156" lon="5.75079">
        <ele>1501.6</ele>
        <time>2021-01-26T14:00:36Z</time>
      </trkpt>
      <trkpt lat="45.31159" lon="5.7508">
        <ele>1563.4</ele>
        <time>2021-01-26T14:00:39Z</time>
      </trkpt>
      <trkpt lat="45.31163" lon="5.7508">
        <ele>1563.4</ele>
        <time>2021-01-26T14:00:44Z</time>
      </trkpt>
      <trkpt lat="45.31172" lon="5.75078">
        <ele>1563.4</ele>
        <time>2021-01-26T14:00:55Z</time>
      </trkpt>
      <trkpt lat="45.31181" lon="5.75078">
        <ele>1563.4</ele>
        <time>2021-01-26T14:01:07Z</time>
      </trkpt>
      <trkpt lat="45.31184" lon="5.75078">
        <ele>1563.4</ele>
        <time>2021-01-26T14:01:10Z</time>
      </trkpt>
      <trkpt lat="45.31187" lon="5.75078">
        <ele>1563.4</ele>
        <time>2021-01-26T14:01:14Z</time>
      </trkpt>
      <trkpt lat="45.3119" lon="5.75079">
        <ele>1563.4</ele>
        <time>2021-01-26T14:01:18Z</time>
      </trkpt>
      <trkpt lat="45.31192" lon="5.75079">
        <ele>1563.4</ele>
        <time>2021-01-26T14:01:20Z</time>
      </trkpt>
      <trkpt lat="45.31195" lon="5.75079">
        <ele>1563.4</ele>
        <time>2021-01-26T14:01:22Z</time>
      </trkpt>
      <trkpt lat="45.31197" lon="5.75079">
        <ele>1563.4</ele>
        <time>2021-01-26T14:01:25Z</time>
      </trkpt>
      <trkpt lat="45.31199" lon="5.75079">
        <ele>1563.4</ele>
        <time>2021-01-26T14:01:27Z</time>
      </trkpt>
      <trkpt lat="45.31202" lon="5.7508">
        <ele>1563.4</ele>
        <time>2021-01-26T14:01:30Z</time>
      </trkpt>
      <trkpt lat="45.31204" lon="5.75079">
        <ele>1563.4</ele>
        <time>2021-01-26T14:01:32Z</time>
      </trkpt>
      <trkpt lat="45.31206" lon="5.7508">
        <ele>1563.4</ele>
        <time>2021-01-26T14:01:34Z</time>
      </trkpt>
      <trkpt lat="45.31208" lon="5.7508">
        <ele>1563.4</ele>
        <time>2021-01-26T14:01:36Z</time>
      </trkpt>
      <trkpt lat="45.3121" lon="5.75079">
        <ele>1563.4</ele>
        <time>2021-01-26T14:01:38Z</time>
      </trkpt>
      <trkpt lat="45.31212" lon="5.75079">
        <ele>1563.4</ele>
        <time>2021-01-26T14:01:40Z</time>
      </trkpt>
      <trkpt lat="45.31214" lon="5.75079">
        <ele>1563.4</ele>
        <time>2021-01-26T14:01:42Z</time>
      </trkpt>
      <trkpt lat="45.31216" lon="5.75079">
        <ele>1563.4</ele>
        <time>2021-01-26T14:01:44Z</time>
      </trkpt>
      <trkpt lat="45.31218" lon="5.7508">
        <ele>1563.4</ele>
        <time>2021-01-26T14:01:47Z</time>
      </trkpt>
      <trkpt lat="45.3122" lon="5.75081">
        <ele>1581</ele>
        <time>2021-01-26T14:01:49Z</time>
      </trkpt>
      <trkpt lat="45.31221" lon="5.75082">
        <ele>1581</ele>
        <time>2021-01-26T14:01:52Z</time>
      </trkpt>
      <trkpt lat="45.31223" lon="5.75084">
        <ele>1581</ele>
        <time>2021-01-26T14:01:55Z</time>
      </trkpt>
      <trkpt lat="45.31224" lon="5.75086">
        <ele>1581</ele>
        <time>2021-01-26T14:02:05Z</time>
      </trkpt>
      <trkpt lat="45.31225" lon="5.75089">
        <ele>1581</ele>
        <time>2021-01-26T14:02:08Z</time>
      </trkpt>
      <trkpt lat="45.31225" lon="5.75093">
        <ele>1581</ele>
        <time>2021-01-26T14:02:11Z</time>
      </trkpt>
      <trkpt lat="45.31225" lon="5.75096">
        <ele>1581</ele>
        <time>2021-01-26T14:02:13Z</time>
      </trkpt>
      <trkpt lat="45.31226" lon="5.75098">
        <ele>1581</ele>
        <time>2021-01-26T14:02:15Z</time>
      </trkpt>
      <trkpt lat="45.31227" lon="5.75101">
        <ele>1581</ele>
        <time>2021-01-26T14:02:18Z</time>
      </trkpt>
      <trkpt lat="45.31227" lon="5.75104">
        <ele>1581</ele>
        <time>2021-01-26T14:02:20Z</time>
      </trkpt>
      <trkpt lat="45.31227" lon="5.75107">
        <ele>1581</ele>
        <time>2021-01-26T14:02:22Z</time>
      </trkpt>
      <trkpt lat="45.31226" lon="5.7511">
        <ele>1581</ele>
        <time>2021-01-26T14:02:25Z</time>
      </trkpt>
      <trkpt lat="45.31227" lon="5.75113">
        <ele>1581</ele>
        <time>2021-01-26T14:02:28Z</time>
      </trkpt>
      <trkpt lat="45.31228" lon="5.75117">
        <ele>1581</ele>
        <time>2021-01-26T14:02:31Z</time>
      </trkpt>
      <trkpt lat="45.31228" lon="5.7512">
        <ele>1581</ele>
        <time>2021-01-26T14:02:34Z</time>
      </trkpt>
      <trkpt lat="45.31225" lon="5.75121">
        <ele>1581</ele>
        <time>2021-01-26T14:03:31Z</time>
      </trkpt>
      <trkpt lat="45.31223" lon="5.75122">
        <ele>1581</ele>
        <time>2021-01-26T14:03:32Z</time>
      </trkpt>
      <trkpt lat="45.3122" lon="5.75124">
        <ele>1581</ele>
        <time>2021-01-26T14:03:34Z</time>
      </trkpt>
      <trkpt lat="45.31218" lon="5.75124">
        <ele>1581</ele>
        <time>2021-01-26T14:03:35Z</time>
      </trkpt>
      <trkpt lat="45.31215" lon="5.75126">
        <ele>1581</ele>
        <time>2021-01-26T14:03:37Z</time>
      </trkpt>
      <trkpt lat="45.31214" lon="5.75127">
        <ele>1581</ele>
        <time>2021-01-26T14:03:38Z</time>
      </trkpt>
      <trkpt lat="45.31211" lon="5.75129">
        <ele>1581</ele>
        <time>2021-01-26T14:03:40Z</time>
      </trkpt>
      <trkpt lat="45.31209" lon="5.75129">
        <ele>1581</ele>
        <time>2021-01-26T14:03:41Z</time>
      </trkpt>
      <trkpt lat="45.31205" lon="5.75131">
        <ele>1581</ele>
        <time>2021-01-26T14:03:43Z</time>
      </trkpt>
      <trkpt lat="45.31204" lon="5.75132">
        <ele>1581</ele>
        <time>2021-01-26T14:03:44Z</time>
      </trkpt>
      <trkpt lat="45.31201" lon="5.75134">
        <ele>1581</ele>
        <time>2021-01-26T14:03:46Z</time>
      </trkpt>
      <trkpt lat="45.31198" lon="5.75135">
        <ele>1581</ele>
        <time>2021-01-26T14:03:48Z</time>
      </trkpt>
      <trkpt lat="45.31196" lon="5.75137">
        <ele>1581</ele>
        <time>2021-01-26T14:03:50Z</time>
      </trkpt>
      <trkpt lat="45.31193" lon="5.75139">
        <ele>1581</ele>
        <time>2021-01-26T14:03:52Z</time>
      </trkpt>
      <trkpt lat="45.3119" lon="5.75141">
        <ele>1581</ele>
        <time>2021-01-26T14:03:54Z</time>
      </trkpt>
      <trkpt lat="45.31187" lon="5.75141">
        <ele>1581</ele>
        <time>2021-01-26T14:03:55Z</time>
      </trkpt>
      <trkpt lat="45.31185" lon="5.75143">
        <ele>1581</ele>
        <time>2021-01-26T14:03:56Z</time>
      </trkpt>
      <trkpt lat="45.31182" lon="5.75144">
        <ele>1581</ele>
        <time>2021-01-26T14:03:57Z</time>
      </trkpt>
      <trkpt lat="45.3118" lon="5.75145">
        <ele>1581</ele>
        <time>2021-01-26T14:03:58Z</time>
      </trkpt>
      <trkpt lat="45.31176" lon="5.75146">
        <ele>1584.4</ele>
        <time>2021-01-26T14:03:59Z</time>
      </trkpt>
      <trkpt lat="45.31173" lon="5.75148">
        <ele>1584.4</ele>
        <time>2021-01-26T14:04:00Z</time>
      </trkpt>
      <trkpt lat="45.3117" lon="5.75149">
        <ele>1584.4</ele>
        <time>2021-01-26T14:04:01Z</time>
      </trkpt>
      <trkpt lat="45.31168" lon="5.75151">
        <ele>1584.4</ele>
        <time>2021-01-26T14:04:02Z</time>
      </trkpt>
      <trkpt lat="45.31166" lon="5.75152">
        <ele>1584.4</ele>
        <time>2021-01-26T14:04:03Z</time>
      </trkpt>
      <trkpt lat="45.31164" lon="5.75152">
        <ele>1584.4</ele>
        <time>2021-01-26T14:04:04Z</time>
      </trkpt>
      <trkpt lat="45.31161" lon="5.75155">
        <ele>1584.4</ele>
        <time>2021-01-26T14:04:06Z</time>
      </trkpt>
      <trkpt lat="45.31159" lon="5.75156">
        <ele>1584.4</ele>
        <time>2021-01-26T14:04:08Z</time>
      </trkpt>
      <trkpt lat="45.31157" lon="5.75157">
        <ele>1581.4</ele>
        <time>2021-01-26T14:04:09Z</time>
      </trkpt>
      <trkpt lat="45.31155" lon="5.75159">
        <ele>1581.4</ele>
        <time>2021-01-26T14:04:10Z</time>
      </trkpt>
      <trkpt lat="45.31151" lon="5.75161">
        <ele>1581.4</ele>
        <time>2021-01-26T14:04:12Z</time>
      </trkpt>
      <trkpt lat="45.31149" lon="5.75163">
        <ele>1581.4</ele>
        <time>2021-01-26T14:04:13Z</time>
      </trkpt>
      <trkpt lat="45.31146" lon="5.75163">
        <ele>1581.4</ele>
        <time>2021-01-26T14:04:14Z</time>
      </trkpt>
      <trkpt lat="45.31143" lon="5.75163">
        <ele>1581.4</ele>
        <time>2021-01-26T14:04:15Z</time>
      </trkpt>
      <trkpt lat="45.3114" lon="5.75163">
        <ele>1581.4</ele>
        <time>2021-01-26T14:04:16Z</time>
      </trkpt>
      <trkpt lat="45.31136" lon="5.75164">
        <ele>1581.4</ele>
        <time>2021-01-26T14:04:17Z</time>
      </trkpt>
      <trkpt lat="45.31133" lon="5.75165">
        <ele>1581.4</ele>
        <time>2021-01-26T14:04:18Z</time>
      </trkpt>
      <trkpt lat="45.31131" lon="5.75166">
        <ele>1577.4</ele>
        <time>2021-01-26T14:04:19Z</time>
      </trkpt>
      <trkpt lat="45.31129" lon="5.75167">
        <ele>1577.4</ele>
        <time>2021-01-26T14:04:20Z</time>
      </trkpt>
      <trkpt lat="45.31126" lon="5.75169">
        <ele>1577.4</ele>
        <time>2021-01-26T14:04:21Z</time>
      </trkpt>
      <trkpt lat="45.31124" lon="5.7517">
        <ele>1577.4</ele>
        <time>2021-01-26T14:04:22Z</time>
      </trkpt>
      <trkpt lat="45.31121" lon="5.75172">
        <ele>1577.4</ele>
        <time>2021-01-26T14:04:24Z</time>
      </trkpt>
      <trkpt lat="45.31118" lon="5.75174">
        <ele>1577.4</ele>
        <time>2021-01-26T14:04:26Z</time>
      </trkpt>
      <trkpt lat="45.31116" lon="5.75176">
        <ele>1577.4</ele>
        <time>2021-01-26T14:04:27Z</time>
      </trkpt>
      <trkpt lat="45.31115" lon="5.75179">
        <ele>1577.4</ele>
        <time>2021-01-26T14:04:28Z</time>
      </trkpt>
      <trkpt lat="45.31113" lon="5.75182">
        <ele>1573</ele>
        <time>2021-01-26T14:04:29Z</time>
      </trkpt>
      <trkpt lat="45.31111" lon="5.75185">
        <ele>1573</ele>
        <time>2021-01-26T14:04:30Z</time>
      </trkpt>
      <trkpt lat="45.31109" lon="5.75187">
        <ele>1573</ele>
        <time>2021-01-26T14:04:31Z</time>
      </trkpt>
      <trkpt lat="45.31107" lon="5.75189">
        <ele>1573</ele>
        <time>2021-01-26T14:04:32Z</time>
      </trkpt>
      <trkpt lat="45.31105" lon="5.75191">
        <ele>1573</ele>
        <time>2021-01-26T14:04:34Z</time>
      </trkpt>
      <trkpt lat="45.31103" lon="5.75193">
        <ele>1573</ele>
        <time>2021-01-26T14:04:36Z</time>
      </trkpt>
      <trkpt lat="45.31101" lon="5.75195">
        <ele>1573</ele>
        <time>2021-01-26T14:04:38Z</time>
      </trkpt>
      <trkpt lat="45.31099" lon="5.75196">
        <ele>1573</ele>
        <time>2021-01-26T14:04:40Z</time>
      </trkpt>
      <trkpt lat="45.31097" lon="5.75198">
        <ele>1573</ele>
        <time>2021-01-26T14:04:42Z</time>
      </trkpt>
      <trkpt lat="45.31095" lon="5.752">
        <ele>1573</ele>
        <time>2021-01-26T14:04:44Z</time>
      </trkpt>
      <trkpt lat="45.31093" lon="5.75202">
        <ele>1573</ele>
        <time>2021-01-26T14:04:46Z</time>
      </trkpt>
      <trkpt lat="45.31091" lon="5.75204">
        <ele>1573</ele>
        <time>2021-01-26T14:04:48Z</time>
      </trkpt>
      <trkpt lat="45.31089" lon="5.75206">
        <ele>1573</ele>
        <time>2021-01-26T14:04:50Z</time>
      </trkpt>
      <trkpt lat="45.31087" lon="5.75208">
        <ele>1573</ele>
        <time>2021-01-26T14:04:52Z</time>
      </trkpt>
      <trkpt lat="45.31084" lon="5.7521">
        <ele>1573</ele>
        <time>2021-01-26T14:04:55Z</time>
      </trkpt>
      <trkpt lat="45.31082" lon="5.75212">
        <ele>1573</ele>
        <time>2021-01-26T14:04:57Z</time>
      </trkpt>
      <trkpt lat="45.3108" lon="5.75213">
        <ele>1575</ele>
        <time>2021-01-26T14:04:59Z</time>
      </trkpt>
      <trkpt lat="45.31077" lon="5.75214">
        <ele>1575</ele>
        <time>2021-01-26T14:05:02Z</time>
      </trkpt>
      <trkpt lat="45.31075" lon="5.75215">
        <ele>1575</ele>
        <time>2021-01-26T14:05:05Z</time>
      </trkpt>
      <trkpt lat="45.31073" lon="5.75215">
        <ele>1575</ele>
        <time>2021-01-26T14:05:07Z</time>
      </trkpt>
      <trkpt lat="45.3107" lon="5.75216">
        <ele>1577.4</ele>
        <time>2021-01-26T14:05:09Z</time>
      </trkpt>
      <trkpt lat="45.31068" lon="5.75216">
        <ele>1577.4</ele>
        <time>2021-01-26T14:05:12Z</time>
      </trkpt>
      <trkpt lat="45.31066" lon="5.75217">
        <ele>1577.4</ele>
        <time>2021-01-26T14:05:15Z</time>
      </trkpt>
      <trkpt lat="45.31064" lon="5.75216">
        <ele>1579.6</ele>
        <time>2021-01-26T14:05:19Z</time>
      </trkpt>
      <trkpt lat="45.31065" lon="5.75215">
        <ele>1579.6</ele>
        <time>2021-01-26T14:05:23Z</time>
      </trkpt>
      <trkpt lat="45.31067" lon="5.75217">
        <ele>1579.6</ele>
        <time>2021-01-26T14:05:26Z</time>
      </trkpt>
      <trkpt lat="45.31067" lon="5.75219">
        <ele>1581</ele>
        <time>2021-01-26T14:05:29Z</time>
      </trkpt>
      <trkpt lat="45.31069" lon="5.75222">
        <ele>1581</ele>
        <time>2021-01-26T14:05:31Z</time>
      </trkpt>
      <trkpt lat="45.31069" lon="5.75224">
        <ele>1581</ele>
        <time>2021-01-26T14:05:33Z</time>
      </trkpt>
      <trkpt lat="45.31069" lon="5.75228">
        <ele>1581</ele>
        <time>2021-01-26T14:05:36Z</time>
      </trkpt>
      <trkpt lat="45.31069" lon="5.75231">
        <ele>1583.8</ele>
        <time>2021-01-26T14:05:39Z</time>
      </trkpt>
      <trkpt lat="45.3107" lon="5.75234">
        <ele>1583.8</ele>
        <time>2021-01-26T14:05:43Z</time>
      </trkpt>
      <trkpt lat="45.3107" lon="5.75236">
        <ele>1583.8</ele>
        <time>2021-01-26T14:05:45Z</time>
      </trkpt>
      <trkpt lat="45.31068" lon="5.75237">
        <ele>1586.6</ele>
        <time>2021-01-26T14:05:49Z</time>
      </trkpt>
      <trkpt lat="45.31066" lon="5.75236">
        <ele>1586.6</ele>
        <time>2021-01-26T14:05:52Z</time>
      </trkpt>
      <trkpt lat="45.31064" lon="5.75235">
        <ele>1586.6</ele>
        <time>2021-01-26T14:05:55Z</time>
      </trkpt>
      <trkpt lat="45.31062" lon="5.75235">
        <ele>1586.6</ele>
        <time>2021-01-26T14:05:57Z</time>
      </trkpt>
      <trkpt lat="45.3106" lon="5.75235">
        <ele>1586.6</ele>
        <time>2021-01-26T14:06:00Z</time>
      </trkpt>
      <trkpt lat="45.31058" lon="5.75235">
        <ele>1586.6</ele>
        <time>2021-01-26T14:06:02Z</time>
      </trkpt>
      <trkpt lat="45.31056" lon="5.75236">
        <ele>1586.6</ele>
        <time>2021-01-26T14:06:04Z</time>
      </trkpt>
      <trkpt lat="45.31054" lon="5.75236">
        <ele>1586.6</ele>
        <time>2021-01-26T14:06:06Z</time>
      </trkpt>
      <trkpt lat="45.31052" lon="5.75237">
        <ele>1590.8</ele>
        <time>2021-01-26T14:06:09Z</time>
      </trkpt>
      <trkpt lat="45.31049" lon="5.75237">
        <ele>1590.8</ele>
        <time>2021-01-26T14:06:13Z</time>
      </trkpt>
      <trkpt lat="45.31048" lon="5.75238">
        <ele>1590.8</ele>
        <time>2021-01-26T14:06:17Z</time>
      </trkpt>
      <trkpt lat="45.31045" lon="5.75239">
        <ele>1590.8</ele>
        <time>2021-01-26T14:06:20Z</time>
      </trkpt>
      <trkpt lat="45.31045" lon="5.75242">
        <ele>1590.8</ele>
        <time>2021-01-26T14:06:27Z</time>
      </trkpt>
      <trkpt lat="45.31046" lon="5.75244">
        <ele>1590.8</ele>
        <time>2021-01-26T14:06:30Z</time>
      </trkpt>
      <trkpt lat="45.31048" lon="5.75247">
        <ele>1590.8</ele>
        <time>2021-01-26T14:06:33Z</time>
      </trkpt>
      <trkpt lat="45.3105" lon="5.75249">
        <ele>1590.8</ele>
        <time>2021-01-26T14:06:36Z</time>
      </trkpt>
      <trkpt lat="45.31051" lon="5.75253">
        <ele>1595.8</ele>
        <time>2021-01-26T14:06:39Z</time>
      </trkpt>
      <trkpt lat="45.31051" lon="5.75256">
        <ele>1595.8</ele>
        <time>2021-01-26T14:06:42Z</time>
      </trkpt>
      <trkpt lat="45.31048" lon="5.75257">
        <ele>1595.8</ele>
        <time>2021-01-26T14:06:44Z</time>
      </trkpt>
      <trkpt lat="45.31046" lon="5.75258">
        <ele>1595.8</ele>
        <time>2021-01-26T14:06:46Z</time>
      </trkpt>
      <trkpt lat="45.31044" lon="5.75259">
        <ele>1595.8</ele>
        <time>2021-01-26T14:06:48Z</time>
      </trkpt>
      <trkpt lat="45.31042" lon="5.75259">
        <ele>1595.8</ele>
        <time>2021-01-26T14:06:50Z</time>
      </trkpt>
      <trkpt lat="45.3104" lon="5.75261">
        <ele>1595.8</ele>
        <time>2021-01-26T14:06:53Z</time>
      </trkpt>
      <trkpt lat="45.31037" lon="5.75262">
        <ele>1595.8</ele>
        <time>2021-01-26T14:06:56Z</time>
      </trkpt>
      <trkpt lat="45.31035" lon="5.75262">
        <ele>1600.4</ele>
        <time>2021-01-26T14:06:59Z</time>
      </trkpt>
      <trkpt lat="45.31033" lon="5.75263">
        <ele>1600.4</ele>
        <time>2021-01-26T14:07:01Z</time>
      </trkpt>
      <trkpt lat="45.31031" lon="5.75263">
        <ele>1600.4</ele>
        <time>2021-01-26T14:07:03Z</time>
      </trkpt>
      <trkpt lat="45.31029" lon="5.75263">
        <ele>1600.4</ele>
        <time>2021-01-26T14:07:05Z</time>
      </trkpt>
      <trkpt lat="45.31027" lon="5.75264">
        <ele>1600.4</ele>
        <time>2021-01-26T14:07:07Z</time>
      </trkpt>
      <trkpt lat="45.31025" lon="5.75264">
        <ele>1600.4</ele>
        <time>2021-01-26T14:07:10Z</time>
      </trkpt>
      <trkpt lat="45.31023" lon="5.75265">
        <ele>1600.4</ele>
        <time>2021-01-26T14:07:13Z</time>
      </trkpt>
      <trkpt lat="45.31021" lon="5.75264">
        <ele>1600.4</ele>
        <time>2021-01-26T14:07:16Z</time>
      </trkpt>
      <trkpt lat="45.31023" lon="5.75265">
        <ele>1600.4</ele>
        <time>2021-01-26T14:07:23Z</time>
      </trkpt>
      <trkpt lat="45.31023" lon="5.75268">
        <ele>1600.4</ele>
        <time>2021-01-26T14:07:27Z</time>
      </trkpt>
      <trkpt lat="45.31024" lon="5.75271">
        <ele>1600.4</ele>
        <time>2021-01-26T14:07:30Z</time>
      </trkpt>
      <trkpt lat="45.31026" lon="5.75274">
        <ele>1600.4</ele>
        <time>2021-01-26T14:07:33Z</time>
      </trkpt>
      <trkpt lat="45.31027" lon="5.75276">
        <ele>1600.4</ele>
        <time>2021-01-26T14:07:36Z</time>
      </trkpt>
      <trkpt lat="45.31029" lon="5.75278">
        <ele>1600.4</ele>
        <time>2021-01-26T14:07:38Z</time>
      </trkpt>
      <trkpt lat="45.3103" lon="5.7528">
        <ele>1600.4</ele>
        <time>2021-01-26T14:07:41Z</time>
      </trkpt>
      <trkpt lat="45.31031" lon="5.75283">
        <ele>1600.4</ele>
        <time>2021-01-26T14:07:44Z</time>
      </trkpt>
      <trkpt lat="45.31029" lon="5.75284">
        <ele>1600.4</ele>
        <time>2021-01-26T14:07:47Z</time>
      </trkpt>
      <trkpt lat="45.31027" lon="5.75284">
        <ele>1612</ele>
        <time>2021-01-26T14:07:49Z</time>
      </trkpt>
      <trkpt lat="45.31025" lon="5.75284">
        <ele>1612</ele>
        <time>2021-01-26T14:07:52Z</time>
      </trkpt>
      <trkpt lat="45.31023" lon="5.75286">
        <ele>1612</ele>
        <time>2021-01-26T14:07:55Z</time>
      </trkpt>
      <trkpt lat="45.31021" lon="5.75286">
        <ele>1612</ele>
        <time>2021-01-26T14:07:58Z</time>
      </trkpt>
      <trkpt lat="45.31019" lon="5.75288">
        <ele>1612</ele>
        <time>2021-01-26T14:08:01Z</time>
      </trkpt>
      <trkpt lat="45.3102" lon="5.75285">
        <ele>1612</ele>
        <time>2021-01-26T14:08:06Z</time>
      </trkpt>
      <trkpt lat="45.31022" lon="5.75285">
        <ele>1612</ele>
        <time>2021-01-26T14:08:17Z</time>
      </trkpt>
      <trkpt lat="45.31024" lon="5.75287">
        <ele>1612</ele>
        <time>2021-01-26T14:08:25Z</time>
      </trkpt>
      <trkpt lat="45.31025" lon="5.75289">
        <ele>1612</ele>
        <time>2021-01-26T14:08:52Z</time>
      </trkpt>
      <trkpt lat="45.31024" lon="5.75292">
        <ele>1612</ele>
        <time>2021-01-26T14:08:57Z</time>
      </trkpt>
      <trkpt lat="45.31022" lon="5.75294">
        <ele>1612</ele>
        <time>2021-01-26T14:09:13Z</time>
      </trkpt>
      <trkpt lat="45.3102" lon="5.75295">
        <ele>1612</ele>
        <time>2021-01-26T14:09:25Z</time>
      </trkpt>
      <trkpt lat="45.31018" lon="5.75295">
        <ele>1612</ele>
        <time>2021-01-26T14:10:52Z</time>
      </trkpt>
      <trkpt lat="45.31016" lon="5.75297">
        <ele>1612</ele>
        <time>2021-01-26T14:10:55Z</time>
      </trkpt>
      <trkpt lat="45.31014" lon="5.75297">
        <ele>1612</ele>
        <time>2021-01-26T14:10:58Z</time>
      </trkpt>
      <trkpt lat="45.31012" lon="5.75297">
        <ele>1612</ele>
        <time>2021-01-26T14:11:00Z</time>
      </trkpt>
      <trkpt lat="45.3101" lon="5.75297">
        <ele>1612</ele>
        <time>2021-01-26T14:11:02Z</time>
      </trkpt>
      <trkpt lat="45.31008" lon="5.75297">
        <ele>1612</ele>
        <time>2021-01-26T14:11:05Z</time>
      </trkpt>
      <trkpt lat="45.31006" lon="5.75298">
        <ele>1612</ele>
        <time>2021-01-26T14:11:08Z</time>
      </trkpt>
      <trkpt lat="45.31004" lon="5.75299">
        <ele>1612</ele>
        <time>2021-01-26T14:11:11Z</time>
      </trkpt>
      <trkpt lat="45.31001" lon="5.753">
        <ele>1612</ele>
        <time>2021-01-26T14:11:14Z</time>
      </trkpt>
      <trkpt lat="45.31002" lon="5.75303">
        <ele>1612</ele>
        <time>2021-01-26T14:11:24Z</time>
      </trkpt>
      <trkpt lat="45.31003" lon="5.75305">
        <ele>1612</ele>
        <time>2021-01-26T14:11:28Z</time>
      </trkpt>
      <trkpt lat="45.31005" lon="5.75307">
        <ele>1612</ele>
        <time>2021-01-26T14:11:30Z</time>
      </trkpt>
      <trkpt lat="45.31006" lon="5.7531">
        <ele>1612</ele>
        <time>2021-01-26T14:11:33Z</time>
      </trkpt>
      <trkpt lat="45.31007" lon="5.75312">
        <ele>1612</ele>
        <time>2021-01-26T14:11:35Z</time>
      </trkpt>
      <trkpt lat="45.31009" lon="5.75314">
        <ele>1612</ele>
        <time>2021-01-26T14:11:38Z</time>
      </trkpt>
      <trkpt lat="45.31011" lon="5.75317">
        <ele>1612</ele>
        <time>2021-01-26T14:11:41Z</time>
      </trkpt>
      <trkpt lat="45.31012" lon="5.75319">
        <ele>1612</ele>
        <time>2021-01-26T14:11:44Z</time>
      </trkpt>
      <trkpt lat="45.3101" lon="5.75322">
        <ele>1612</ele>
        <time>2021-01-26T14:11:48Z</time>
      </trkpt>
      <trkpt lat="45.31007" lon="5.75322">
        <ele>1612</ele>
        <time>2021-01-26T14:11:50Z</time>
      </trkpt>
      <trkpt lat="45.31005" lon="5.75322">
        <ele>1612</ele>
        <time>2021-01-26T14:11:52Z</time>
      </trkpt>
      <trkpt lat="45.31003" lon="5.75323">
        <ele>1612</ele>
        <time>2021-01-26T14:11:54Z</time>
      </trkpt>
      <trkpt lat="45.31001" lon="5.75322">
        <ele>1612</ele>
        <time>2021-01-26T14:11:56Z</time>
      </trkpt>
      <trkpt lat="45.30999" lon="5.75322">
        <ele>1612</ele>
        <time>2021-01-26T14:11:58Z</time>
      </trkpt>
      <trkpt lat="45.30997" lon="5.75322">
        <ele>1612</ele>
        <time>2021-01-26T14:12:00Z</time>
      </trkpt>
      <trkpt lat="45.30994" lon="5.75322">
        <ele>1612</ele>
        <time>2021-01-26T14:12:03Z</time>
      </trkpt>
      <trkpt lat="45.30992" lon="5.75323">
        <ele>1612</ele>
        <time>2021-01-26T14:12:06Z</time>
      </trkpt>
      <trkpt lat="45.30989" lon="5.75322">
        <ele>1635.6</ele>
        <time>2021-01-26T14:12:09Z</time>
      </trkpt>
      <trkpt lat="45.30987" lon="5.75323">
        <ele>1635.6</ele>
        <time>2021-01-26T14:12:12Z</time>
      </trkpt>
      <trkpt lat="45.30984" lon="5.75324">
        <ele>1635.6</ele>
        <time>2021-01-26T14:12:15Z</time>
      </trkpt>
      <trkpt lat="45.30982" lon="5.75324">
        <ele>1635.6</ele>
        <time>2021-01-26T14:12:18Z</time>
      </trkpt>
      <trkpt lat="45.30979" lon="5.75325">
        <ele>1635.6</ele>
        <time>2021-01-26T14:12:21Z</time>
      </trkpt>
      <trkpt lat="45.30978" lon="5.75325">
        <ele>1635.6</ele>
        <time>2021-01-26T14:12:23Z</time>
      </trkpt>
      <trkpt lat="45.30976" lon="5.75326">
        <ele>1635.6</ele>
        <time>2021-01-26T14:12:25Z</time>
      </trkpt>
      <trkpt lat="45.30973" lon="5.75326">
        <ele>1635.6</ele>
        <time>2021-01-26T14:12:28Z</time>
      </trkpt>
      <trkpt lat="45.30971" lon="5.75325">
        <ele>1635.6</ele>
        <time>2021-01-26T14:12:31Z</time>
      </trkpt>
      <trkpt lat="45.30969" lon="5.75324">
        <ele>1635.6</ele>
        <time>2021-01-26T14:12:34Z</time>
      </trkpt>
      <trkpt lat="45.30966" lon="5.75323">
        <ele>1635.6</ele>
        <time>2021-01-26T14:12:37Z</time>
      </trkpt>
      <trkpt lat="45.30965" lon="5.75322">
        <ele>1641.8</ele>
        <time>2021-01-26T14:12:39Z</time>
      </trkpt>
      <trkpt lat="45.30963" lon="5.7532">
        <ele>1641.8</ele>
        <time>2021-01-26T14:12:41Z</time>
      </trkpt>
      <trkpt lat="45.30961" lon="5.75319">
        <ele>1641.8</ele>
        <time>2021-01-26T14:12:43Z</time>
      </trkpt>
      <trkpt lat="45.30959" lon="5.75319">
        <ele>1641.8</ele>
        <time>2021-01-26T14:12:45Z</time>
      </trkpt>
      <trkpt lat="45.30957" lon="5.75318">
        <ele>1641.8</ele>
        <time>2021-01-26T14:12:47Z</time>
      </trkpt>
      <trkpt lat="45.30955" lon="5.75318">
        <ele>1641.8</ele>
        <time>2021-01-26T14:12:51Z</time>
      </trkpt>
      <trkpt lat="45.30953" lon="5.75319">
        <ele>1641.8</ele>
        <time>2021-01-26T14:13:08Z</time>
      </trkpt>
      <trkpt lat="45.30951" lon="5.75317">
        <ele>1641.8</ele>
        <time>2021-01-26T14:13:25Z</time>
      </trkpt>
      <trkpt lat="45.30948" lon="5.75315">
        <ele>1641.8</ele>
        <time>2021-01-26T14:13:27Z</time>
      </trkpt>
      <trkpt lat="45.30945" lon="5.75312">
        <ele>1641</ele>
        <time>2021-01-26T14:13:29Z</time>
      </trkpt>
      <trkpt lat="45.30944" lon="5.7531">
        <ele>1641</ele>
        <time>2021-01-26T14:13:30Z</time>
      </trkpt>
      <trkpt lat="45.30942" lon="5.75308">
        <ele>1641</ele>
        <time>2021-01-26T14:13:31Z</time>
      </trkpt>
      <trkpt lat="45.3094" lon="5.75306">
        <ele>1641</ele>
        <time>2021-01-26T14:13:33Z</time>
      </trkpt>
      <trkpt lat="45.30938" lon="5.75304">
        <ele>1641</ele>
        <time>2021-01-26T14:13:35Z</time>
      </trkpt>
      <trkpt lat="45.30935" lon="5.75302">
        <ele>1641</ele>
        <time>2021-01-26T14:13:37Z</time>
      </trkpt>
      <trkpt lat="45.30933" lon="5.753">
        <ele>1641</ele>
        <time>2021-01-26T14:13:39Z</time>
      </trkpt>
      <trkpt lat="45.30931" lon="5.75298">
        <ele>1641</ele>
        <time>2021-01-26T14:13:41Z</time>
      </trkpt>
      <trkpt lat="45.30928" lon="5.75296">
        <ele>1641</ele>
        <time>2021-01-26T14:13:43Z</time>
      </trkpt>
      <trkpt lat="45.30927" lon="5.75294">
        <ele>1641</ele>
        <time>2021-01-26T14:13:45Z</time>
      </trkpt>
      <trkpt lat="45.30925" lon="5.75291">
        <ele>1641</ele>
        <time>2021-01-26T14:13:47Z</time>
      </trkpt>
      <trkpt lat="45.30923" lon="5.75288">
        <ele>1641.8</ele>
        <time>2021-01-26T14:13:49Z</time>
      </trkpt>
      <trkpt lat="45.3092" lon="5.75286">
        <ele>1641.8</ele>
        <time>2021-01-26T14:13:51Z</time>
      </trkpt>
      <trkpt lat="45.30919" lon="5.75284">
        <ele>1641.8</ele>
        <time>2021-01-26T14:13:53Z</time>
      </trkpt>
      <trkpt lat="45.30917" lon="5.75281">
        <ele>1641.8</ele>
        <time>2021-01-26T14:13:55Z</time>
      </trkpt>
      <trkpt lat="45.30916" lon="5.75279">
        <ele>1641.8</ele>
        <time>2021-01-26T14:13:57Z</time>
      </trkpt>
      <trkpt lat="45.30914" lon="5.75276">
        <ele>1644</ele>
        <time>2021-01-26T14:13:59Z</time>
      </trkpt>
      <trkpt lat="45.30913" lon="5.75274">
        <ele>1644</ele>
        <time>2021-01-26T14:14:01Z</time>
      </trkpt>
      <trkpt lat="45.30911" lon="5.75271">
        <ele>1644</ele>
        <time>2021-01-26T14:14:03Z</time>
      </trkpt>
      <trkpt lat="45.3091" lon="5.75269">
        <ele>1644</ele>
        <time>2021-01-26T14:14:05Z</time>
      </trkpt>
      <trkpt lat="45.30908" lon="5.75266">
        <ele>1644</ele>
        <time>2021-01-26T14:14:07Z</time>
      </trkpt>
      <trkpt lat="45.30906" lon="5.75264">
        <ele>1646.4</ele>
        <time>2021-01-26T14:14:09Z</time>
      </trkpt>
      <trkpt lat="45.30904" lon="5.7526">
        <ele>1646.4</ele>
        <time>2021-01-26T14:14:11Z</time>
      </trkpt>
      <trkpt lat="45.30903" lon="5.75258">
        <ele>1646.4</ele>
        <time>2021-01-26T14:14:13Z</time>
      </trkpt>
      <trkpt lat="45.30901" lon="5.75255">
        <ele>1646.4</ele>
        <time>2021-01-26T14:14:15Z</time>
      </trkpt>
      <trkpt lat="45.309" lon="5.75252">
        <ele>1646.4</ele>
        <time>2021-01-26T14:14:17Z</time>
      </trkpt>
      <trkpt lat="45.30898" lon="5.75248">
        <ele>1648</ele>
        <time>2021-01-26T14:14:19Z</time>
      </trkpt>
      <trkpt lat="45.30897" lon="5.75246">
        <ele>1648</ele>
        <time>2021-01-26T14:14:21Z</time>
      </trkpt>
      <trkpt lat="45.30896" lon="5.75243">
        <ele>1648</ele>
        <time>2021-01-26T14:14:23Z</time>
      </trkpt>
      <trkpt lat="45.30894" lon="5.75238">
        <ele>1648</ele>
        <time>2021-01-26T14:14:26Z</time>
      </trkpt>
      <trkpt lat="45.30894" lon="5.75236">
        <ele>1648</ele>
        <time>2021-01-26T14:14:27Z</time>
      </trkpt>
      <trkpt lat="45.30892" lon="5.75232">
        <ele>1648.4</ele>
        <time>2021-01-26T14:14:29Z</time>
      </trkpt>
      <trkpt lat="45.30891" lon="5.75228">
        <ele>1648.4</ele>
        <time>2021-01-26T14:14:31Z</time>
      </trkpt>
      <trkpt lat="45.30889" lon="5.75224">
        <ele>1648.4</ele>
        <time>2021-01-26T14:14:33Z</time>
      </trkpt>
      <trkpt lat="45.30888" lon="5.7522">
        <ele>1648.4</ele>
        <time>2021-01-26T14:14:35Z</time>
      </trkpt>
      <trkpt lat="45.30886" lon="5.75216">
        <ele>1648.4</ele>
        <time>2021-01-26T14:14:37Z</time>
      </trkpt>
      <trkpt lat="45.30885" lon="5.75213">
        <ele>1648.4</ele>
        <time>2021-01-26T14:14:38Z</time>
      </trkpt>
      <trkpt lat="45.30884" lon="5.7521">
        <ele>1648.4</ele>
        <time>2021-01-26T14:14:39Z</time>
      </trkpt>
      <trkpt lat="45.30883" lon="5.75208">
        <ele>1648.4</ele>
        <time>2021-01-26T14:14:40Z</time>
      </trkpt>
      <trkpt lat="45.30881" lon="5.75203">
        <ele>1648.4</ele>
        <time>2021-01-26T14:14:42Z</time>
      </trkpt>
      <trkpt lat="45.3088" lon="5.752">
        <ele>1648.4</ele>
        <time>2021-01-26T14:14:44Z</time>
      </trkpt>
      <trkpt lat="45.30878" lon="5.75196">
        <ele>1648.4</ele>
        <time>2021-01-26T14:14:46Z</time>
      </trkpt>
      <trkpt lat="45.30876" lon="5.75192">
        <ele>1648.4</ele>
        <time>2021-01-26T14:14:48Z</time>
      </trkpt>
      <trkpt lat="45.30874" lon="5.75188">
        <ele>1648.4</ele>
        <time>2021-01-26T14:14:50Z</time>
      </trkpt>
      <trkpt lat="45.30872" lon="5.75185">
        <ele>1648.4</ele>
        <time>2021-01-26T14:14:51Z</time>
      </trkpt>
      <trkpt lat="45.30871" lon="5.75182">
        <ele>1648.4</ele>
        <time>2021-01-26T14:14:52Z</time>
      </trkpt>
      <trkpt lat="45.30869" lon="5.75178">
        <ele>1648.4</ele>
        <time>2021-01-26T14:14:53Z</time>
      </trkpt>
      <trkpt lat="45.30868" lon="5.75175">
        <ele>1648.4</ele>
        <time>2021-01-26T14:14:54Z</time>
      </trkpt>
      <trkpt lat="45.30867" lon="5.75173">
        <ele>1648.4</ele>
        <time>2021-01-26T14:14:55Z</time>
      </trkpt>
      <trkpt lat="45.30866" lon="5.75168">
        <ele>1648.4</ele>
        <time>2021-01-26T14:14:57Z</time>
      </trkpt>
      <trkpt lat="45.30865" lon="5.75166">
        <ele>1648.4</ele>
        <time>2021-01-26T14:14:58Z</time>
      </trkpt>
      <trkpt lat="45.30863" lon="5.75161">
        <ele>1648.4</ele>
        <time>2021-01-26T14:15:01Z</time>
      </trkpt>
      <trkpt lat="45.30863" lon="5.75159">
        <ele>1648.4</ele>
        <time>2021-01-26T14:15:02Z</time>
      </trkpt>
      <trkpt lat="45.30861" lon="5.75155">
        <ele>1648.4</ele>
        <time>2021-01-26T14:15:04Z</time>
      </trkpt>
      <trkpt lat="45.3086" lon="5.75152">
        <ele>1648.4</ele>
        <time>2021-01-26T14:15:06Z</time>
      </trkpt>
      <trkpt lat="45.30859" lon="5.75148">
        <ele>1648.4</ele>
        <time>2021-01-26T14:15:08Z</time>
      </trkpt>
      <trkpt lat="45.30857" lon="5.75145">
        <ele>1648.4</ele>
        <time>2021-01-26T14:15:10Z</time>
      </trkpt>
      <trkpt lat="45.30856" lon="5.75142">
        <ele>1648.4</ele>
        <time>2021-01-26T14:15:12Z</time>
      </trkpt>
      <trkpt lat="45.30855" lon="5.75139">
        <ele>1648.4</ele>
        <time>2021-01-26T14:15:14Z</time>
      </trkpt>
      <trkpt lat="45.30854" lon="5.75137">
        <ele>1648.4</ele>
        <time>2021-01-26T14:15:16Z</time>
      </trkpt>
      <trkpt lat="45.30852" lon="5.75134">
        <ele>1648.4</ele>
        <time>2021-01-26T14:15:18Z</time>
      </trkpt>
      <trkpt lat="45.30852" lon="5.75131">
        <ele>1648.4</ele>
        <time>2021-01-26T14:15:20Z</time>
      </trkpt>
      <trkpt lat="45.30851" lon="5.75129">
        <ele>1648.4</ele>
        <time>2021-01-26T14:15:22Z</time>
      </trkpt>
      <trkpt lat="45.3085" lon="5.75126">
        <ele>1648.4</ele>
        <time>2021-01-26T14:15:24Z</time>
      </trkpt>
      <trkpt lat="45.30849" lon="5.75123">
        <ele>1648.4</ele>
        <time>2021-01-26T14:15:26Z</time>
      </trkpt>
      <trkpt lat="45.30849" lon="5.7512">
        <ele>1648.4</ele>
        <time>2021-01-26T14:15:28Z</time>
      </trkpt>
      <trkpt lat="45.30848" lon="5.75117">
        <ele>1648.4</ele>
        <time>2021-01-26T14:15:31Z</time>
      </trkpt>
      <trkpt lat="45.30848" lon="5.75114">
        <ele>1648.4</ele>
        <time>2021-01-26T14:15:33Z</time>
      </trkpt>
      <trkpt lat="45.30847" lon="5.75112">
        <ele>1648.4</ele>
        <time>2021-01-26T14:15:37Z</time>
      </trkpt>
      <trkpt lat="45.30846" lon="5.75109">
        <ele>1648.4</ele>
        <time>2021-01-26T14:15:40Z</time>
      </trkpt>
      <trkpt lat="45.30845" lon="5.75106">
        <ele>1648.4</ele>
        <time>2021-01-26T14:15:43Z</time>
      </trkpt>
      <trkpt lat="45.30845" lon="5.75103">
        <ele>1648.4</ele>
        <time>2021-01-26T14:15:45Z</time>
      </trkpt>
      <trkpt lat="45.30843" lon="5.75101">
        <ele>1659</ele>
        <time>2021-01-26T14:15:49Z</time>
      </trkpt>
      <trkpt lat="45.30843" lon="5.75098">
        <ele>1659</ele>
        <time>2021-01-26T14:15:52Z</time>
      </trkpt>
      <trkpt lat="45.30842" lon="5.75094">
        <ele>1659</ele>
        <time>2021-01-26T14:15:55Z</time>
      </trkpt>
      <trkpt lat="45.30842" lon="5.75091">
        <ele>1659</ele>
        <time>2021-01-26T14:15:57Z</time>
      </trkpt>
      <trkpt lat="45.30841" lon="5.75088">
        <ele>1661.8</ele>
        <time>2021-01-26T14:15:59Z</time>
      </trkpt>
      <trkpt lat="45.3084" lon="5.75085">
        <ele>1661.8</ele>
        <time>2021-01-26T14:16:02Z</time>
      </trkpt>
      <trkpt lat="45.3084" lon="5.75082">
        <ele>1661.8</ele>
        <time>2021-01-26T14:16:04Z</time>
      </trkpt>
      <trkpt lat="45.30838" lon="5.75082">
        <ele>1661.8</ele>
        <time>2021-01-26T14:16:07Z</time>
      </trkpt>
      <trkpt lat="45.30836" lon="5.7508">
        <ele>1661.8</ele>
        <time>2021-01-26T14:16:11Z</time>
      </trkpt>
      <trkpt lat="45.30834" lon="5.75078">
        <ele>1661.8</ele>
        <time>2021-01-26T14:16:14Z</time>
      </trkpt>
      <trkpt lat="45.30832" lon="5.75076">
        <ele>1661.8</ele>
        <time>2021-01-26T14:16:16Z</time>
      </trkpt>
      <trkpt lat="45.30831" lon="5.75075">
        <ele>1667.6</ele>
        <time>2021-01-26T14:16:19Z</time>
      </trkpt>
      <trkpt lat="45.30829" lon="5.75072">
        <ele>1667.6</ele>
        <time>2021-01-26T14:16:22Z</time>
      </trkpt>
      <trkpt lat="45.30827" lon="5.75067">
        <ele>1667.6</ele>
        <time>2021-01-26T14:16:28Z</time>
      </trkpt>
      <trkpt lat="45.30826" lon="5.75062">
        <ele>1667.6</ele>
        <time>2021-01-26T14:16:32Z</time>
      </trkpt>
      <trkpt lat="45.30826" lon="5.7506">
        <ele>1667.6</ele>
        <time>2021-01-26T14:16:33Z</time>
      </trkpt>
      <trkpt lat="45.30825" lon="5.75058">
        <ele>1667.6</ele>
        <time>2021-01-26T14:16:35Z</time>
      </trkpt>
      <trkpt lat="45.30824" lon="5.75056">
        <ele>1673.4</ele>
        <time>2021-01-26T14:16:39Z</time>
      </trkpt>
      <trkpt lat="45.30823" lon="5.75054">
        <ele>1673.4</ele>
        <time>2021-01-26T14:16:42Z</time>
      </trkpt>
      <trkpt lat="45.30821" lon="5.75052">
        <ele>1673.4</ele>
        <time>2021-01-26T14:16:46Z</time>
      </trkpt>
      <trkpt lat="45.30819" lon="5.75051">
        <ele>1673.4</ele>
        <time>2021-01-26T14:16:48Z</time>
      </trkpt>
      <trkpt lat="45.30816" lon="5.75048">
        <ele>1673.4</ele>
        <time>2021-01-26T14:16:52Z</time>
      </trkpt>
      <trkpt lat="45.30814" lon="5.75047">
        <ele>1673.4</ele>
        <time>2021-01-26T14:16:54Z</time>
      </trkpt>
      <trkpt lat="45.30813" lon="5.75045">
        <ele>1673.4</ele>
        <time>2021-01-26T14:16:56Z</time>
      </trkpt>
      <trkpt lat="45.30811" lon="5.75042">
        <ele>1673.4</ele>
        <time>2021-01-26T14:17:00Z</time>
      </trkpt>
      <trkpt lat="45.3081" lon="5.75041">
        <ele>1673.4</ele>
        <time>2021-01-26T14:17:02Z</time>
      </trkpt>
      <trkpt lat="45.30808" lon="5.75041">
        <ele>1673.4</ele>
        <time>2021-01-26T14:17:04Z</time>
      </trkpt>
      <trkpt lat="45.30806" lon="5.75041">
        <ele>1673.4</ele>
        <time>2021-01-26T14:17:07Z</time>
      </trkpt>
      <trkpt lat="45.30804" lon="5.7504">
        <ele>1673.4</ele>
        <time>2021-01-26T14:17:10Z</time>
      </trkpt>
      <trkpt lat="45.30802" lon="5.75039">
        <ele>1673.4</ele>
        <time>2021-01-26T14:17:13Z</time>
      </trkpt>
      <trkpt lat="45.308" lon="5.75037">
        <ele>1673.4</ele>
        <time>2021-01-26T14:17:16Z</time>
      </trkpt>
      <trkpt lat="45.30799" lon="5.75035">
        <ele>1673.4</ele>
        <time>2021-01-26T14:17:18Z</time>
      </trkpt>
      <trkpt lat="45.30799" lon="5.75032">
        <ele>1673.4</ele>
        <time>2021-01-26T14:17:20Z</time>
      </trkpt>
      <trkpt lat="45.30799" lon="5.75029">
        <ele>1673.4</ele>
        <time>2021-01-26T14:17:22Z</time>
      </trkpt>
      <trkpt lat="45.30799" lon="5.75026">
        <ele>1673.4</ele>
        <time>2021-01-26T14:17:24Z</time>
      </trkpt>
      <trkpt lat="45.308" lon="5.75022">
        <ele>1673.4</ele>
        <time>2021-01-26T14:17:27Z</time>
      </trkpt>
      <trkpt lat="45.30801" lon="5.75021">
        <ele>1673.4</ele>
        <time>2021-01-26T14:17:28Z</time>
      </trkpt>
      <trkpt lat="45.30802" lon="5.75018">
        <ele>1673.4</ele>
        <time>2021-01-26T14:17:30Z</time>
      </trkpt>
      <trkpt lat="45.30803" lon="5.75016">
        <ele>1673.4</ele>
        <time>2021-01-26T14:17:33Z</time>
      </trkpt>
      <trkpt lat="45.30803" lon="5.75013">
        <ele>1673.4</ele>
        <time>2021-01-26T14:17:35Z</time>
      </trkpt>
      <trkpt lat="45.30804" lon="5.7501">
        <ele>1673.4</ele>
        <time>2021-01-26T14:17:38Z</time>
      </trkpt>
      <trkpt lat="45.30802" lon="5.75009">
        <ele>1673.4</ele>
        <time>2021-01-26T14:17:41Z</time>
      </trkpt>
      <trkpt lat="45.308" lon="5.75008">
        <ele>1673.4</ele>
        <time>2021-01-26T14:17:44Z</time>
      </trkpt>
      <trkpt lat="45.30798" lon="5.75004">
        <ele>1673.4</ele>
        <time>2021-01-26T14:17:47Z</time>
      </trkpt>
      <trkpt lat="45.30797" lon="5.75002">
        <ele>1692</ele>
        <time>2021-01-26T14:17:49Z</time>
      </trkpt>
      <trkpt lat="45.30797" lon="5.74997">
        <ele>1692</ele>
        <time>2021-01-26T14:17:52Z</time>
      </trkpt>
      <trkpt lat="45.30797" lon="5.74995">
        <ele>1692</ele>
        <time>2021-01-26T14:17:54Z</time>
      </trkpt>
      <trkpt lat="45.30797" lon="5.74992">
        <ele>1692</ele>
        <time>2021-01-26T14:17:56Z</time>
      </trkpt>
      <trkpt lat="45.30797" lon="5.74989">
        <ele>1692</ele>
        <time>2021-01-26T14:17:58Z</time>
      </trkpt>
      <trkpt lat="45.30797" lon="5.74986">
        <ele>1692</ele>
        <time>2021-01-26T14:18:00Z</time>
      </trkpt>
      <trkpt lat="45.30797" lon="5.74983">
        <ele>1692</ele>
        <time>2021-01-26T14:18:02Z</time>
      </trkpt>
      <trkpt lat="45.30797" lon="5.7498">
        <ele>1692</ele>
        <time>2021-01-26T14:18:05Z</time>
      </trkpt>
      <trkpt lat="45.30796" lon="5.74978">
        <ele>1692</ele>
        <time>2021-01-26T14:18:08Z</time>
      </trkpt>
      <trkpt lat="45.30795" lon="5.74975">
        <ele>1692</ele>
        <time>2021-01-26T14:18:11Z</time>
      </trkpt>
      <trkpt lat="45.30794" lon="5.74972">
        <ele>1692</ele>
        <time>2021-01-26T14:18:13Z</time>
      </trkpt>
      <trkpt lat="45.30795" lon="5.74969">
        <ele>1692</ele>
        <time>2021-01-26T14:18:15Z</time>
      </trkpt>
      <trkpt lat="45.30795" lon="5.74966">
        <ele>1692</ele>
        <time>2021-01-26T14:18:17Z</time>
      </trkpt>
      <trkpt lat="45.30795" lon="5.74964">
        <ele>1699.6</ele>
        <time>2021-01-26T14:18:19Z</time>
      </trkpt>
      <trkpt lat="45.30794" lon="5.74961">
        <ele>1699.6</ele>
        <time>2021-01-26T14:18:21Z</time>
      </trkpt>
      <trkpt lat="45.30792" lon="5.7496">
        <ele>1699.6</ele>
        <time>2021-01-26T14:18:23Z</time>
      </trkpt>
      <trkpt lat="45.30791" lon="5.74957">
        <ele>1699.6</ele>
        <time>2021-01-26T14:18:25Z</time>
      </trkpt>
      <trkpt lat="45.30789" lon="5.74954">
        <ele>1699.6</ele>
        <time>2021-01-26T14:18:28Z</time>
      </trkpt>
      <trkpt lat="45.30787" lon="5.74952">
        <ele>1699.6</ele>
        <time>2021-01-26T14:18:30Z</time>
      </trkpt>
      <trkpt lat="45.30786" lon="5.7495">
        <ele>1699.6</ele>
        <time>2021-01-26T14:18:32Z</time>
      </trkpt>
      <trkpt lat="45.30785" lon="5.74948">
        <ele>1699.6</ele>
        <time>2021-01-26T14:18:34Z</time>
      </trkpt>
      <trkpt lat="45.30783" lon="5.74945">
        <ele>1699.6</ele>
        <time>2021-01-26T14:18:37Z</time>
      </trkpt>
      <trkpt lat="45.30783" lon="5.74943">
        <ele>1699.6</ele>
        <time>2021-01-26T14:18:40Z</time>
      </trkpt>
      <trkpt lat="45.30782" lon="5.74939">
        <ele>1699.6</ele>
        <time>2021-01-26T14:18:43Z</time>
      </trkpt>
      <trkpt lat="45.30782" lon="5.74936">
        <ele>1699.6</ele>
        <time>2021-01-26T14:18:45Z</time>
      </trkpt>
      <trkpt lat="45.30783" lon="5.74933">
        <ele>1699.6</ele>
        <time>2021-01-26T14:18:47Z</time>
      </trkpt>
      <trkpt lat="45.30782" lon="5.7493">
        <ele>1699.6</ele>
        <time>2021-01-26T14:18:50Z</time>
      </trkpt>
      <trkpt lat="45.3078" lon="5.74928">
        <ele>1699.6</ele>
        <time>2021-01-26T14:19:05Z</time>
      </trkpt>
      <trkpt lat="45.30779" lon="5.74925">
        <ele>1699.6</ele>
        <time>2021-01-26T14:19:10Z</time>
      </trkpt>
      <trkpt lat="45.30776" lon="5.74922">
        <ele>1699.6</ele>
        <time>2021-01-26T14:19:14Z</time>
      </trkpt>
      <trkpt lat="45.30775" lon="5.74922">
        <ele>1699.6</ele>
        <time>2021-01-26T14:19:15Z</time>
      </trkpt>
      <trkpt lat="45.30773" lon="5.74919">
        <ele>1699.6</ele>
        <time>2021-01-26T14:19:17Z</time>
      </trkpt>
      <trkpt lat="45.30772" lon="5.74917">
        <ele>1707.8</ele>
        <time>2021-01-26T14:19:19Z</time>
      </trkpt>
      <trkpt lat="45.3077" lon="5.74915">
        <ele>1707.8</ele>
        <time>2021-01-26T14:19:21Z</time>
      </trkpt>
      <trkpt lat="45.30769" lon="5.74912">
        <ele>1707.8</ele>
        <time>2021-01-26T14:19:23Z</time>
      </trkpt>
      <trkpt lat="45.30767" lon="5.7491">
        <ele>1707.8</ele>
        <time>2021-01-26T14:19:25Z</time>
      </trkpt>
      <trkpt lat="45.30766" lon="5.74907">
        <ele>1707.8</ele>
        <time>2021-01-26T14:19:27Z</time>
      </trkpt>
      <trkpt lat="45.30765" lon="5.74904">
        <ele>1708.6</ele>
        <time>2021-01-26T14:19:29Z</time>
      </trkpt>
      <trkpt lat="45.30764" lon="5.74902">
        <ele>1708.6</ele>
        <time>2021-01-26T14:19:31Z</time>
      </trkpt>
      <trkpt lat="45.30764" lon="5.74898">
        <ele>1708.6</ele>
        <time>2021-01-26T14:19:34Z</time>
      </trkpt>
      <trkpt lat="45.30763" lon="5.74896">
        <ele>1708.6</ele>
        <time>2021-01-26T14:19:35Z</time>
      </trkpt>
      <trkpt lat="45.30764" lon="5.74893">
        <ele>1708.6</ele>
        <time>2021-01-26T14:19:38Z</time>
      </trkpt>
      <trkpt lat="45.30764" lon="5.7489">
        <ele>1708.6</ele>
        <time>2021-01-26T14:19:40Z</time>
      </trkpt>
      <trkpt lat="45.30764" lon="5.74887">
        <ele>1708.6</ele>
        <time>2021-01-26T14:19:42Z</time>
      </trkpt>
      <trkpt lat="45.30764" lon="5.74884">
        <ele>1708.6</ele>
        <time>2021-01-26T14:19:44Z</time>
      </trkpt>
      <trkpt lat="45.30764" lon="5.74881">
        <ele>1708.6</ele>
        <time>2021-01-26T14:19:46Z</time>
      </trkpt>
      <trkpt lat="45.30762" lon="5.74878">
        <ele>1711.4</ele>
        <time>2021-01-26T14:19:49Z</time>
      </trkpt>
      <trkpt lat="45.30761" lon="5.74876">
        <ele>1711.4</ele>
        <time>2021-01-26T14:19:50Z</time>
      </trkpt>
      <trkpt lat="45.30759" lon="5.74873">
        <ele>1711.4</ele>
        <time>2021-01-26T14:19:52Z</time>
      </trkpt>
      <trkpt lat="45.30757" lon="5.7487">
        <ele>1711.4</ele>
        <time>2021-01-26T14:19:54Z</time>
      </trkpt>
      <trkpt lat="45.30756" lon="5.74867">
        <ele>1711.4</ele>
        <time>2021-01-26T14:19:58Z</time>
      </trkpt>
      <trkpt lat="45.30754" lon="5.74864">
        <ele>1711.4</ele>
        <time>2021-01-26T14:20:01Z</time>
      </trkpt>
      <trkpt lat="45.30754" lon="5.74863">
        <ele>1711.4</ele>
        <time>2021-01-26T14:20:02Z</time>
      </trkpt>
      <trkpt lat="45.30752" lon="5.74859">
        <ele>1711.4</ele>
        <time>2021-01-26T14:20:05Z</time>
      </trkpt>
      <trkpt lat="45.30751" lon="5.74858">
        <ele>1711.4</ele>
        <time>2021-01-26T14:20:06Z</time>
      </trkpt>
      <trkpt lat="45.30749" lon="5.74856">
        <ele>1711.4</ele>
        <time>2021-01-26T14:20:08Z</time>
      </trkpt>
      <trkpt lat="45.30747" lon="5.74854">
        <ele>1711.4</ele>
        <time>2021-01-26T14:20:10Z</time>
      </trkpt>
      <trkpt lat="45.30745" lon="5.74852">
        <ele>1711.4</ele>
        <time>2021-01-26T14:20:12Z</time>
      </trkpt>
      <trkpt lat="45.30743" lon="5.74849">
        <ele>1711.4</ele>
        <time>2021-01-26T14:20:14Z</time>
      </trkpt>
      <trkpt lat="45.30741" lon="5.74848">
        <ele>1711.4</ele>
        <time>2021-01-26T14:20:15Z</time>
      </trkpt>
      <trkpt lat="45.30739" lon="5.74846">
        <ele>1711.4</ele>
        <time>2021-01-26T14:20:16Z</time>
      </trkpt>
      <trkpt lat="45.30738" lon="5.74845">
        <ele>1711.4</ele>
        <time>2021-01-26T14:20:17Z</time>
      </trkpt>
      <trkpt lat="45.30736" lon="5.74843">
        <ele>1711.4</ele>
        <time>2021-01-26T14:20:18Z</time>
      </trkpt>
      <trkpt lat="45.30735" lon="5.74841">
        <ele>1711.8</ele>
        <time>2021-01-26T14:20:19Z</time>
      </trkpt>
      <trkpt lat="45.30733" lon="5.74839">
        <ele>1711.8</ele>
        <time>2021-01-26T14:20:20Z</time>
      </trkpt>
      <trkpt lat="45.3073" lon="5.74837">
        <ele>1711.8</ele>
        <time>2021-01-26T14:20:21Z</time>
      </trkpt>
      <trkpt lat="45.30728" lon="5.74834">
        <ele>1711.8</ele>
        <time>2021-01-26T14:20:22Z</time>
      </trkpt>
      <trkpt lat="45.30724" lon="5.74832">
        <ele>1711.8</ele>
        <time>2021-01-26T14:20:23Z</time>
      </trkpt>
      <trkpt lat="45.30719" lon="5.74827">
        <ele>1711.8</ele>
        <time>2021-01-26T14:20:25Z</time>
      </trkpt>
      <trkpt lat="45.30717" lon="5.74825">
        <ele>1711.8</ele>
        <time>2021-01-26T14:20:26Z</time>
      </trkpt>
      <trkpt lat="45.30715" lon="5.74824">
        <ele>1711.8</ele>
        <time>2021-01-26T14:20:27Z</time>
      </trkpt>
      <trkpt lat="45.30714" lon="5.74822">
        <ele>1711.8</ele>
        <time>2021-01-26T14:20:28Z</time>
      </trkpt>
      <trkpt lat="45.30712" lon="5.7482">
        <ele>1709.4</ele>
        <time>2021-01-26T14:20:29Z</time>
      </trkpt>
      <trkpt lat="45.30711" lon="5.74818">
        <ele>1709.4</ele>
        <time>2021-01-26T14:20:30Z</time>
      </trkpt>
      <trkpt lat="45.30709" lon="5.74815">
        <ele>1709.4</ele>
        <time>2021-01-26T14:20:31Z</time>
      </trkpt>
      <trkpt lat="45.30708" lon="5.74812">
        <ele>1709.4</ele>
        <time>2021-01-26T14:20:32Z</time>
      </trkpt>
      <trkpt lat="45.30708" lon="5.7481">
        <ele>1709.4</ele>
        <time>2021-01-26T14:20:33Z</time>
      </trkpt>
      <trkpt lat="45.30707" lon="5.74806">
        <ele>1709.4</ele>
        <time>2021-01-26T14:20:35Z</time>
      </trkpt>
      <trkpt lat="45.30705" lon="5.74802">
        <ele>1709.4</ele>
        <time>2021-01-26T14:20:37Z</time>
      </trkpt>
      <trkpt lat="45.30704" lon="5.748">
        <ele>1709.4</ele>
        <time>2021-01-26T14:20:38Z</time>
      </trkpt>
      <trkpt lat="45.30703" lon="5.74798">
        <ele>1708.4</ele>
        <time>2021-01-26T14:20:39Z</time>
      </trkpt>
      <trkpt lat="45.30701" lon="5.74795">
        <ele>1708.4</ele>
        <time>2021-01-26T14:20:41Z</time>
      </trkpt>
      <trkpt lat="45.30699" lon="5.74791">
        <ele>1708.4</ele>
        <time>2021-01-26T14:20:43Z</time>
      </trkpt>
      <trkpt lat="45.30697" lon="5.74788">
        <ele>1708.4</ele>
        <time>2021-01-26T14:20:45Z</time>
      </trkpt>
      <trkpt lat="45.30695" lon="5.74784">
        <ele>1708.4</ele>
        <time>2021-01-26T14:20:47Z</time>
      </trkpt>
      <trkpt lat="45.30693" lon="5.7478">
        <ele>1708</ele>
        <time>2021-01-26T14:20:49Z</time>
      </trkpt>
      <trkpt lat="45.30691" lon="5.74777">
        <ele>1708</ele>
        <time>2021-01-26T14:20:51Z</time>
      </trkpt>
      <trkpt lat="45.30689" lon="5.74775">
        <ele>1708</ele>
        <time>2021-01-26T14:20:52Z</time>
      </trkpt>
      <trkpt lat="45.30688" lon="5.74773">
        <ele>1708</ele>
        <time>2021-01-26T14:20:53Z</time>
      </trkpt>
      <trkpt lat="45.30686" lon="5.74772">
        <ele>1708</ele>
        <time>2021-01-26T14:20:54Z</time>
      </trkpt>
      <trkpt lat="45.30683" lon="5.74769">
        <ele>1708</ele>
        <time>2021-01-26T14:20:56Z</time>
      </trkpt>
      <trkpt lat="45.30682" lon="5.74768">
        <ele>1708</ele>
        <time>2021-01-26T14:20:57Z</time>
      </trkpt>
      <trkpt lat="45.3068" lon="5.74766">
        <ele>1708</ele>
        <time>2021-01-26T14:20:58Z</time>
      </trkpt>
      <trkpt lat="45.30678" lon="5.74765">
        <ele>1707.2</ele>
        <time>2021-01-26T14:20:59Z</time>
      </trkpt>
      <trkpt lat="45.30676" lon="5.74763">
        <ele>1707.2</ele>
        <time>2021-01-26T14:21:00Z</time>
      </trkpt>
      <trkpt lat="45.30674" lon="5.74762">
        <ele>1707.2</ele>
        <time>2021-01-26T14:21:01Z</time>
      </trkpt>
      <trkpt lat="45.30672" lon="5.74761">
        <ele>1707.2</ele>
        <time>2021-01-26T14:21:02Z</time>
      </trkpt>
      <trkpt lat="45.3067" lon="5.7476">
        <ele>1707.2</ele>
        <time>2021-01-26T14:21:03Z</time>
      </trkpt>
      <trkpt lat="45.30668" lon="5.74758">
        <ele>1707.2</ele>
        <time>2021-01-26T14:21:04Z</time>
      </trkpt>
      <trkpt lat="45.30665" lon="5.74757">
        <ele>1707.2</ele>
        <time>2021-01-26T14:21:05Z</time>
      </trkpt>
      <trkpt lat="45.30663" lon="5.74756">
        <ele>1707.2</ele>
        <time>2021-01-26T14:21:06Z</time>
      </trkpt>
      <trkpt lat="45.30661" lon="5.74755">
        <ele>1707.2</ele>
        <time>2021-01-26T14:21:07Z</time>
      </trkpt>
      <trkpt lat="45.30659" lon="5.74753">
        <ele>1707.2</ele>
        <time>2021-01-26T14:21:08Z</time>
      </trkpt>
      <trkpt lat="45.30656" lon="5.74752">
        <ele>1704.8</ele>
        <time>2021-01-26T14:21:09Z</time>
      </trkpt>
      <trkpt lat="45.30653" lon="5.74751">
        <ele>1704.8</ele>
        <time>2021-01-26T14:21:10Z</time>
      </trkpt>
      <trkpt lat="45.3065" lon="5.74751">
        <ele>1704.8</ele>
        <time>2021-01-26T14:21:11Z</time>
      </trkpt>
      <trkpt lat="45.30647" lon="5.74749">
        <ele>1704.8</ele>
        <time>2021-01-26T14:21:12Z</time>
      </trkpt>
      <trkpt lat="45.30643" lon="5.74748">
        <ele>1704.8</ele>
        <time>2021-01-26T14:21:13Z</time>
      </trkpt>
      <trkpt lat="45.30639" lon="5.74747">
        <ele>1704.8</ele>
        <time>2021-01-26T14:21:14Z</time>
      </trkpt>
      <trkpt lat="45.30635" lon="5.74745">
        <ele>1704.8</ele>
        <time>2021-01-26T14:21:15Z</time>
      </trkpt>
      <trkpt lat="45.30632" lon="5.74742">
        <ele>1704.8</ele>
        <time>2021-01-26T14:21:16Z</time>
      </trkpt>
      <trkpt lat="45.30628" lon="5.74739">
        <ele>1704.8</ele>
        <time>2021-01-26T14:21:17Z</time>
      </trkpt>
      <trkpt lat="45.30624" lon="5.74736">
        <ele>1704.8</ele>
        <time>2021-01-26T14:21:18Z</time>
      </trkpt>
      <trkpt lat="45.30621" lon="5.74733">
        <ele>1698.8</ele>
        <time>2021-01-26T14:21:19Z</time>
      </trkpt>
      <trkpt lat="45.30618" lon="5.74729">
        <ele>1698.8</ele>
        <time>2021-01-26T14:21:20Z</time>
      </trkpt>
      <trkpt lat="45.30614" lon="5.74727">
        <ele>1698.8</ele>
        <time>2021-01-26T14:21:21Z</time>
      </trkpt>
      <trkpt lat="45.3061" lon="5.74726">
        <ele>1698.8</ele>
        <time>2021-01-26T14:21:22Z</time>
      </trkpt>
      <trkpt lat="45.30605" lon="5.74724">
        <ele>1698.8</ele>
        <time>2021-01-26T14:21:23Z</time>
      </trkpt>
      <trkpt lat="45.30599" lon="5.74722">
        <ele>1698.8</ele>
        <time>2021-01-26T14:21:24Z</time>
      </trkpt>
      <trkpt lat="45.30595" lon="5.7472">
        <ele>1698.8</ele>
        <time>2021-01-26T14:21:25Z</time>
      </trkpt>
      <trkpt lat="45.3059" lon="5.74717">
        <ele>1698.8</ele>
        <time>2021-01-26T14:21:26Z</time>
      </trkpt>
      <trkpt lat="45.30586" lon="5.74713">
        <ele>1698.8</ele>
        <time>2021-01-26T14:21:27Z</time>
      </trkpt>
      <trkpt lat="45.30582" lon="5.7471">
        <ele>1698.8</ele>
        <time>2021-01-26T14:21:28Z</time>
      </trkpt>
      <trkpt lat="45.30579" lon="5.74707">
        <ele>1689.2</ele>
        <time>2021-01-26T14:21:29Z</time>
      </trkpt>
      <trkpt lat="45.30574" lon="5.74699">
        <ele>1689.2</ele>
        <time>2021-01-26T14:21:31Z</time>
      </trkpt>
      <trkpt lat="45.30569" lon="5.7469">
        <ele>1689.2</ele>
        <time>2021-01-26T14:21:33Z</time>
      </trkpt>
      <trkpt lat="45.30559" lon="5.74684">
        <ele>1689.2</ele>
        <time>2021-01-26T14:21:43Z</time>
      </trkpt>
      <trkpt lat="45.3054" lon="5.74675">
        <ele>1689.2</ele>
        <time>2021-01-26T14:21:47Z</time>
      </trkpt>
      <trkpt lat="45.30534" lon="5.74671">
        <ele>1689.2</ele>
        <time>2021-01-26T14:21:48Z</time>
      </trkpt>
      <trkpt lat="45.30528" lon="5.74669">
        <ele>1674.6</ele>
        <time>2021-01-26T14:21:49Z</time>
      </trkpt>
      <trkpt lat="45.30522" lon="5.74667">
        <ele>1674.6</ele>
        <time>2021-01-26T14:21:50Z</time>
      </trkpt>
      <trkpt lat="45.30515" lon="5.74665">
        <ele>1674.6</ele>
        <time>2021-01-26T14:21:51Z</time>
      </trkpt>
      <trkpt lat="45.3051" lon="5.74665">
        <ele>1674.6</ele>
        <time>2021-01-26T14:21:52Z</time>
      </trkpt>
      <trkpt lat="45.30505" lon="5.74664">
        <ele>1674.6</ele>
        <time>2021-01-26T14:21:53Z</time>
      </trkpt>
      <trkpt lat="45.30502" lon="5.74664">
        <ele>1674.6</ele>
        <time>2021-01-26T14:21:54Z</time>
      </trkpt>
      <trkpt lat="45.30499" lon="5.74664">
        <ele>1674.6</ele>
        <time>2021-01-26T14:21:55Z</time>
      </trkpt>
      <trkpt lat="45.30496" lon="5.74664">
        <ele>1674.6</ele>
        <time>2021-01-26T14:21:56Z</time>
      </trkpt>
      <trkpt lat="45.30494" lon="5.74663">
        <ele>1674.6</ele>
        <time>2021-01-26T14:21:57Z</time>
      </trkpt>
      <trkpt lat="45.30492" lon="5.74663">
        <ele>1674.6</ele>
        <time>2021-01-26T14:21:58Z</time>
      </trkpt>
      <trkpt lat="45.30489" lon="5.74662">
        <ele>1674.6</ele>
        <time>2021-01-26T14:22:00Z</time>
      </trkpt>
      <trkpt lat="45.30487" lon="5.74663">
        <ele>1674.6</ele>
        <time>2021-01-26T14:22:02Z</time>
      </trkpt>
      <trkpt lat="45.30484" lon="5.74662">
        <ele>1674.6</ele>
        <time>2021-01-26T14:22:04Z</time>
      </trkpt>
      <trkpt lat="45.30482" lon="5.74662">
        <ele>1674.6</ele>
        <time>2021-01-26T14:22:05Z</time>
      </trkpt>
      <trkpt lat="45.3048" lon="5.74662">
        <ele>1674.6</ele>
        <time>2021-01-26T14:22:06Z</time>
      </trkpt>
      <trkpt lat="45.30477" lon="5.7466">
        <ele>1674.6</ele>
        <time>2021-01-26T14:22:07Z</time>
      </trkpt>
      <trkpt lat="45.30471" lon="5.74659">
        <ele>1667.2</ele>
        <time>2021-01-26T14:22:09Z</time>
      </trkpt>
      <trkpt lat="45.30469" lon="5.74658">
        <ele>1667.2</ele>
        <time>2021-01-26T14:22:10Z</time>
      </trkpt>
      <trkpt lat="45.30466" lon="5.74657">
        <ele>1667.2</ele>
        <time>2021-01-26T14:22:11Z</time>
      </trkpt>
      <trkpt lat="45.30463" lon="5.74657">
        <ele>1667.2</ele>
        <time>2021-01-26T14:22:12Z</time>
      </trkpt>
      <trkpt lat="45.3046" lon="5.74656">
        <ele>1667.2</ele>
        <time>2021-01-26T14:22:13Z</time>
      </trkpt>
      <trkpt lat="45.30457" lon="5.74655">
        <ele>1667.2</ele>
        <time>2021-01-26T14:22:14Z</time>
      </trkpt>
      <trkpt lat="45.30453" lon="5.74655">
        <ele>1667.2</ele>
        <time>2021-01-26T14:22:15Z</time>
      </trkpt>
      <trkpt lat="45.3045" lon="5.74654">
        <ele>1667.2</ele>
        <time>2021-01-26T14:22:16Z</time>
      </trkpt>
      <trkpt lat="45.30446" lon="5.74653">
        <ele>1667.2</ele>
        <time>2021-01-26T14:22:17Z</time>
      </trkpt>
      <trkpt lat="45.30442" lon="5.74652">
        <ele>1667.2</ele>
        <time>2021-01-26T14:22:18Z</time>
      </trkpt>
      <trkpt lat="45.30439" lon="5.74651">
        <ele>1664.8</ele>
        <time>2021-01-26T14:22:19Z</time>
      </trkpt>
      <trkpt lat="45.30436" lon="5.7465">
        <ele>1664.8</ele>
        <time>2021-01-26T14:22:20Z</time>
      </trkpt>
      <trkpt lat="45.30433" lon="5.74649">
        <ele>1664.8</ele>
        <time>2021-01-26T14:22:21Z</time>
      </trkpt>
      <trkpt lat="45.3043" lon="5.74648">
        <ele>1664.8</ele>
        <time>2021-01-26T14:22:22Z</time>
      </trkpt>
      <trkpt lat="45.30427" lon="5.74647">
        <ele>1664.8</ele>
        <time>2021-01-26T14:22:23Z</time>
      </trkpt>
      <trkpt lat="45.30425" lon="5.74646">
        <ele>1664.8</ele>
        <time>2021-01-26T14:22:24Z</time>
      </trkpt>
      <trkpt lat="45.30423" lon="5.74644">
        <ele>1664.8</ele>
        <time>2021-01-26T14:22:25Z</time>
      </trkpt>
      <trkpt lat="45.30419" lon="5.74642">
        <ele>1664.8</ele>
        <time>2021-01-26T14:22:27Z</time>
      </trkpt>
      <trkpt lat="45.30416" lon="5.7464">
        <ele>1664.8</ele>
        <time>2021-01-26T14:22:28Z</time>
      </trkpt>
      <trkpt lat="45.30411" lon="5.74639">
        <ele>1664.8</ele>
        <time>2021-01-26T14:22:30Z</time>
      </trkpt>
      <trkpt lat="45.30409" lon="5.74639">
        <ele>1664.8</ele>
        <time>2021-01-26T14:22:31Z</time>
      </trkpt>
      <trkpt lat="45.30407" lon="5.74639">
        <ele>1664.8</ele>
        <time>2021-01-26T14:22:32Z</time>
      </trkpt>
      <trkpt lat="45.30403" lon="5.74638">
        <ele>1664.8</ele>
        <time>2021-01-26T14:22:33Z</time>
      </trkpt>
      <trkpt lat="45.30399" lon="5.74637">
        <ele>1664.8</ele>
        <time>2021-01-26T14:22:34Z</time>
      </trkpt>
      <trkpt lat="45.30395" lon="5.74635">
        <ele>1664.8</ele>
        <time>2021-01-26T14:22:35Z</time>
      </trkpt>
      <trkpt lat="45.30391" lon="5.74632">
        <ele>1664.8</ele>
        <time>2021-01-26T14:22:36Z</time>
      </trkpt>
      <trkpt lat="45.30384" lon="5.74627">
        <ele>1664.8</ele>
        <time>2021-01-26T14:22:38Z</time>
      </trkpt>
      <trkpt lat="45.3038" lon="5.74626">
        <ele>1659</ele>
        <time>2021-01-26T14:22:39Z</time>
      </trkpt>
      <trkpt lat="45.30376" lon="5.74625">
        <ele>1659</ele>
        <time>2021-01-26T14:22:40Z</time>
      </trkpt>
      <trkpt lat="45.30372" lon="5.74623">
        <ele>1659</ele>
        <time>2021-01-26T14:22:41Z</time>
      </trkpt>
      <trkpt lat="45.30368" lon="5.74621">
        <ele>1659</ele>
        <time>2021-01-26T14:22:42Z</time>
      </trkpt>
      <trkpt lat="45.30365" lon="5.74618">
        <ele>1659</ele>
        <time>2021-01-26T14:22:43Z</time>
      </trkpt>
      <trkpt lat="45.30361" lon="5.74615">
        <ele>1659</ele>
        <time>2021-01-26T14:22:44Z</time>
      </trkpt>
      <trkpt lat="45.30358" lon="5.74612">
        <ele>1659</ele>
        <time>2021-01-26T14:22:45Z</time>
      </trkpt>
      <trkpt lat="45.30355" lon="5.7461">
        <ele>1659</ele>
        <time>2021-01-26T14:22:46Z</time>
      </trkpt>
      <trkpt lat="45.30351" lon="5.74609">
        <ele>1659</ele>
        <time>2021-01-26T14:22:47Z</time>
      </trkpt>
      <trkpt lat="45.30346" lon="5.74607">
        <ele>1659</ele>
        <time>2021-01-26T14:22:48Z</time>
      </trkpt>
      <trkpt lat="45.30342" lon="5.74606">
        <ele>1651.6</ele>
        <time>2021-01-26T14:22:49Z</time>
      </trkpt>
      <trkpt lat="45.30338" lon="5.74605">
        <ele>1651.6</ele>
        <time>2021-01-26T14:22:50Z</time>
      </trkpt>
      <trkpt lat="45.30335" lon="5.74604">
        <ele>1651.6</ele>
        <time>2021-01-26T14:22:51Z</time>
      </trkpt>
      <trkpt lat="45.30332" lon="5.74604">
        <ele>1651.6</ele>
        <time>2021-01-26T14:22:52Z</time>
      </trkpt>
      <trkpt lat="45.3033" lon="5.74604">
        <ele>1651.6</ele>
        <time>2021-01-26T14:22:53Z</time>
      </trkpt>
      <trkpt lat="45.30327" lon="5.74603">
        <ele>1651.6</ele>
        <time>2021-01-26T14:22:54Z</time>
      </trkpt>
      <trkpt lat="45.30318" lon="5.74594">
        <ele>1648.6</ele>
        <time>2021-01-26T14:22:59Z</time>
      </trkpt>
      <trkpt lat="45.30312" lon="5.74588">
        <ele>1648.6</ele>
        <time>2021-01-26T14:23:02Z</time>
      </trkpt>
      <trkpt lat="45.30305" lon="5.74585">
        <ele>1648.6</ele>
        <time>2021-01-26T14:23:05Z</time>
      </trkpt>
      <trkpt lat="45.30302" lon="5.74584">
        <ele>1648.6</ele>
        <time>2021-01-26T14:23:07Z</time>
      </trkpt>
      <trkpt lat="45.30296" lon="5.74582">
        <ele>1648.6</ele>
        <time>2021-01-26T14:23:10Z</time>
      </trkpt>
      <trkpt lat="45.30293" lon="5.7458">
        <ele>1648.6</ele>
        <time>2021-01-26T14:23:11Z</time>
      </trkpt>
      <trkpt lat="45.30289" lon="5.74577">
        <ele>1648.6</ele>
        <time>2021-01-26T14:23:12Z</time>
      </trkpt>
      <trkpt lat="45.30286" lon="5.74576">
        <ele>1648.6</ele>
        <time>2021-01-26T14:23:13Z</time>
      </trkpt>
      <trkpt lat="45.30283" lon="5.74574">
        <ele>1648.6</ele>
        <time>2021-01-26T14:23:14Z</time>
      </trkpt>
      <trkpt lat="45.30281" lon="5.74572">
        <ele>1648.6</ele>
        <time>2021-01-26T14:23:15Z</time>
      </trkpt>
      <trkpt lat="45.30279" lon="5.74571">
        <ele>1648.6</ele>
        <time>2021-01-26T14:23:16Z</time>
      </trkpt>
      <trkpt lat="45.30273" lon="5.74568">
        <ele>1644.4</ele>
        <time>2021-01-26T14:23:19Z</time>
      </trkpt>
      <trkpt lat="45.3027" lon="5.74566">
        <ele>1644.4</ele>
        <time>2021-01-26T14:23:21Z</time>
      </trkpt>
      <trkpt lat="45.30268" lon="5.74565">
        <ele>1644.4</ele>
        <time>2021-01-26T14:23:22Z</time>
      </trkpt>
      <trkpt lat="45.30266" lon="5.74564">
        <ele>1644.4</ele>
        <time>2021-01-26T14:23:23Z</time>
      </trkpt>
      <trkpt lat="45.30265" lon="5.74562">
        <ele>1644.4</ele>
        <time>2021-01-26T14:23:24Z</time>
      </trkpt>
      <trkpt lat="45.30263" lon="5.74561">
        <ele>1644.4</ele>
        <time>2021-01-26T14:23:25Z</time>
      </trkpt>
      <trkpt lat="45.3026" lon="5.74559">
        <ele>1644.4</ele>
        <time>2021-01-26T14:23:26Z</time>
      </trkpt>
      <trkpt lat="45.30258" lon="5.74557">
        <ele>1644.4</ele>
        <time>2021-01-26T14:23:27Z</time>
      </trkpt>
      <trkpt lat="45.30256" lon="5.74556">
        <ele>1644.4</ele>
        <time>2021-01-26T14:23:28Z</time>
      </trkpt>
      <trkpt lat="45.30254" lon="5.74554">
        <ele>1642.8</ele>
        <time>2021-01-26T14:23:29Z</time>
      </trkpt>
      <trkpt lat="45.3025" lon="5.74552">
        <ele>1642.8</ele>
        <time>2021-01-26T14:23:31Z</time>
      </trkpt>
      <trkpt lat="45.30247" lon="5.74551">
        <ele>1642.8</ele>
        <time>2021-01-26T14:23:32Z</time>
      </trkpt>
      <trkpt lat="45.30245" lon="5.7455">
        <ele>1642.8</ele>
        <time>2021-01-26T14:23:33Z</time>
      </trkpt>
      <trkpt lat="45.30243" lon="5.74549">
        <ele>1642.8</ele>
        <time>2021-01-26T14:23:35Z</time>
      </trkpt>
      <trkpt lat="45.3024" lon="5.74548">
        <ele>1642.8</ele>
        <time>2021-01-26T14:23:36Z</time>
      </trkpt>
      <trkpt lat="45.30238" lon="5.74547">
        <ele>1642.8</ele>
        <time>2021-01-26T14:23:37Z</time>
      </trkpt>
      <trkpt lat="45.30235" lon="5.74545">
        <ele>1642.8</ele>
        <time>2021-01-26T14:23:38Z</time>
      </trkpt>
      <trkpt lat="45.30232" lon="5.74543">
        <ele>1641.2</ele>
        <time>2021-01-26T14:23:39Z</time>
      </trkpt>
      <trkpt lat="45.3023" lon="5.74542">
        <ele>1641.2</ele>
        <time>2021-01-26T14:23:40Z</time>
      </trkpt>
      <trkpt lat="45.30227" lon="5.7454">
        <ele>1641.2</ele>
        <time>2021-01-26T14:23:41Z</time>
      </trkpt>
      <trkpt lat="45.30225" lon="5.74537">
        <ele>1641.2</ele>
        <time>2021-01-26T14:23:42Z</time>
      </trkpt>
      <trkpt lat="45.30222" lon="5.74535">
        <ele>1641.2</ele>
        <time>2021-01-26T14:23:43Z</time>
      </trkpt>
      <trkpt lat="45.3022" lon="5.74531">
        <ele>1641.2</ele>
        <time>2021-01-26T14:23:44Z</time>
      </trkpt>
      <trkpt lat="45.30217" lon="5.74529">
        <ele>1641.2</ele>
        <time>2021-01-26T14:23:45Z</time>
      </trkpt>
      <trkpt lat="45.30215" lon="5.74527">
        <ele>1641.2</ele>
        <time>2021-01-26T14:23:46Z</time>
      </trkpt>
      <trkpt lat="45.30213" lon="5.74525">
        <ele>1641.2</ele>
        <time>2021-01-26T14:23:47Z</time>
      </trkpt>
      <trkpt lat="45.30211" lon="5.74524">
        <ele>1641.2</ele>
        <time>2021-01-26T14:23:48Z</time>
      </trkpt>
      <trkpt lat="45.30209" lon="5.74522">
        <ele>1638.2</ele>
        <time>2021-01-26T14:23:49Z</time>
      </trkpt>
      <trkpt lat="45.30198" lon="5.74515">
        <ele>1638.2</ele>
        <time>2021-01-26T14:23:53Z</time>
      </trkpt>
      <trkpt lat="45.30193" lon="5.74512">
        <ele>1638.2</ele>
        <time>2021-01-26T14:23:55Z</time>
      </trkpt>
      <trkpt lat="45.30191" lon="5.74511">
        <ele>1638.2</ele>
        <time>2021-01-26T14:23:56Z</time>
      </trkpt>
      <trkpt lat="45.30189" lon="5.74509">
        <ele>1638.2</ele>
        <time>2021-01-26T14:23:57Z</time>
      </trkpt>
      <trkpt lat="45.30187" lon="5.74508">
        <ele>1638.2</ele>
        <time>2021-01-26T14:23:58Z</time>
      </trkpt>
      <trkpt lat="45.30184" lon="5.74505">
        <ele>1638.2</ele>
        <time>2021-01-26T14:24:00Z</time>
      </trkpt>
      <trkpt lat="45.30182" lon="5.74504">
        <ele>1638.2</ele>
        <time>2021-01-26T14:24:01Z</time>
      </trkpt>
      <trkpt lat="45.30179" lon="5.74503">
        <ele>1638.2</ele>
        <time>2021-01-26T14:24:02Z</time>
      </trkpt>
      <trkpt lat="45.30176" lon="5.74502">
        <ele>1638.2</ele>
        <time>2021-01-26T14:24:03Z</time>
      </trkpt>
      <trkpt lat="45.30174" lon="5.74501">
        <ele>1638.2</ele>
        <time>2021-01-26T14:24:04Z</time>
      </trkpt>
      <trkpt lat="45.30172" lon="5.745">
        <ele>1638.2</ele>
        <time>2021-01-26T14:24:05Z</time>
      </trkpt>
      <trkpt lat="45.3017" lon="5.74499">
        <ele>1638.2</ele>
        <time>2021-01-26T14:24:06Z</time>
      </trkpt>
      <trkpt lat="45.30167" lon="5.74497">
        <ele>1638.2</ele>
        <time>2021-01-26T14:24:07Z</time>
      </trkpt>
      <trkpt lat="45.30165" lon="5.74496">
        <ele>1638.2</ele>
        <time>2021-01-26T14:24:08Z</time>
      </trkpt>
      <trkpt lat="45.30163" lon="5.74494">
        <ele>1635.4</ele>
        <time>2021-01-26T14:24:09Z</time>
      </trkpt>
      <trkpt lat="45.30159" lon="5.74492">
        <ele>1635.4</ele>
        <time>2021-01-26T14:24:11Z</time>
      </trkpt>
      <trkpt lat="45.30157" lon="5.7449">
        <ele>1635.4</ele>
        <time>2021-01-26T14:24:12Z</time>
      </trkpt>
      <trkpt lat="45.30154" lon="5.74487">
        <ele>1635.4</ele>
        <time>2021-01-26T14:24:14Z</time>
      </trkpt>
      <trkpt lat="45.30152" lon="5.74486">
        <ele>1635.4</ele>
        <time>2021-01-26T14:24:15Z</time>
      </trkpt>
      <trkpt lat="45.3015" lon="5.74485">
        <ele>1635.4</ele>
        <time>2021-01-26T14:24:16Z</time>
      </trkpt>
      <trkpt lat="45.30148" lon="5.74484">
        <ele>1635.4</ele>
        <time>2021-01-26T14:24:17Z</time>
      </trkpt>
      <trkpt lat="45.30146" lon="5.74483">
        <ele>1635.4</ele>
        <time>2021-01-26T14:24:18Z</time>
      </trkpt>
      <trkpt lat="45.30144" lon="5.74481">
        <ele>1634.8</ele>
        <time>2021-01-26T14:24:19Z</time>
      </trkpt>
      <trkpt lat="45.30143" lon="5.7448">
        <ele>1634.8</ele>
        <time>2021-01-26T14:24:20Z</time>
      </trkpt>
      <trkpt lat="45.30141" lon="5.74478">
        <ele>1634.8</ele>
        <time>2021-01-26T14:24:21Z</time>
      </trkpt>
      <trkpt lat="45.30139" lon="5.74477">
        <ele>1634.8</ele>
        <time>2021-01-26T14:24:22Z</time>
      </trkpt>
      <trkpt lat="45.30137" lon="5.74475">
        <ele>1634.8</ele>
        <time>2021-01-26T14:24:23Z</time>
      </trkpt>
      <trkpt lat="45.30133" lon="5.74473">
        <ele>1634.8</ele>
        <time>2021-01-26T14:24:25Z</time>
      </trkpt>
      <trkpt lat="45.30129" lon="5.74469">
        <ele>1634.8</ele>
        <time>2021-01-26T14:24:27Z</time>
      </trkpt>
      <trkpt lat="45.30127" lon="5.74468">
        <ele>1634.8</ele>
        <time>2021-01-26T14:24:28Z</time>
      </trkpt>
      <trkpt lat="45.30125" lon="5.74467">
        <ele>1633.8</ele>
        <time>2021-01-26T14:24:29Z</time>
      </trkpt>
      <trkpt lat="45.30123" lon="5.74466">
        <ele>1633.8</ele>
        <time>2021-01-26T14:24:31Z</time>
      </trkpt>
      <trkpt lat="45.3012" lon="5.74463">
        <ele>1633.8</ele>
        <time>2021-01-26T14:24:33Z</time>
      </trkpt>
      <trkpt lat="45.30118" lon="5.74462">
        <ele>1633.8</ele>
        <time>2021-01-26T14:24:34Z</time>
      </trkpt>
      <trkpt lat="45.30115" lon="5.7446">
        <ele>1633.8</ele>
        <time>2021-01-26T14:24:35Z</time>
      </trkpt>
      <trkpt lat="45.30114" lon="5.7446">
        <ele>1633.8</ele>
        <time>2021-01-26T14:24:36Z</time>
      </trkpt>
      <trkpt lat="45.30112" lon="5.7446">
        <ele>1633.8</ele>
        <time>2021-01-26T14:24:37Z</time>
      </trkpt>
      <trkpt lat="45.30109" lon="5.74459">
        <ele>1633.8</ele>
        <time>2021-01-26T14:24:38Z</time>
      </trkpt>
      <trkpt lat="45.30106" lon="5.74458">
        <ele>1631.6</ele>
        <time>2021-01-26T14:24:39Z</time>
      </trkpt>
      <trkpt lat="45.30104" lon="5.74456">
        <ele>1631.6</ele>
        <time>2021-01-26T14:24:40Z</time>
      </trkpt>
      <trkpt lat="45.30096" lon="5.74454">
        <ele>1631.6</ele>
        <time>2021-01-26T14:24:42Z</time>
      </trkpt>
      <trkpt lat="45.30092" lon="5.74452">
        <ele>1631.6</ele>
        <time>2021-01-26T14:24:43Z</time>
      </trkpt>
      <trkpt lat="45.30086" lon="5.74451">
        <ele>1631.6</ele>
        <time>2021-01-26T14:24:44Z</time>
      </trkpt>
      <trkpt lat="45.3008" lon="5.74449">
        <ele>1631.6</ele>
        <time>2021-01-26T14:24:45Z</time>
      </trkpt>
      <trkpt lat="45.30072" lon="5.74442">
        <ele>1631.6</ele>
        <time>2021-01-26T14:24:47Z</time>
      </trkpt>
      <trkpt lat="45.30062" lon="5.74437">
        <ele>1631.6</ele>
        <time>2021-01-26T14:24:53Z</time>
      </trkpt>
      <trkpt lat="45.30054" lon="5.74429">
        <ele>1631.6</ele>
        <time>2021-01-26T14:25:01Z</time>
      </trkpt>
      <trkpt lat="45.3005" lon="5.74427">
        <ele>1631.6</ele>
        <time>2021-01-26T14:25:04Z</time>
      </trkpt>
      <trkpt lat="45.30048" lon="5.74426">
        <ele>1631.6</ele>
        <time>2021-01-26T14:25:06Z</time>
      </trkpt>
      <trkpt lat="45.30044" lon="5.74427">
        <ele>1631.6</ele>
        <time>2021-01-26T14:25:10Z</time>
      </trkpt>
      <trkpt lat="45.30043" lon="5.74426">
        <ele>1631.6</ele>
        <time>2021-01-26T14:25:11Z</time>
      </trkpt>
      <trkpt lat="45.3004" lon="5.74426">
        <ele>1631.6</ele>
        <time>2021-01-26T14:25:13Z</time>
      </trkpt>
      <trkpt lat="45.30038" lon="5.74426">
        <ele>1631.6</ele>
        <time>2021-01-26T14:25:14Z</time>
      </trkpt>
      <trkpt lat="45.30036" lon="5.74425">
        <ele>1631.6</ele>
        <time>2021-01-26T14:25:15Z</time>
      </trkpt>
      <trkpt lat="45.30033" lon="5.74424">
        <ele>1631.6</ele>
        <time>2021-01-26T14:25:17Z</time>
      </trkpt>
      <trkpt lat="45.30032" lon="5.74421">
        <ele>1630.2</ele>
        <time>2021-01-26T14:25:19Z</time>
      </trkpt>
      <trkpt lat="45.3003" lon="5.74418">
        <ele>1630.2</ele>
        <time>2021-01-26T14:25:21Z</time>
      </trkpt>
      <trkpt lat="45.30028" lon="5.74416">
        <ele>1630.2</ele>
        <time>2021-01-26T14:25:23Z</time>
      </trkpt>
      <trkpt lat="45.30025" lon="5.74414">
        <ele>1630.2</ele>
        <time>2021-01-26T14:25:25Z</time>
      </trkpt>
      <trkpt lat="45.30023" lon="5.74412">
        <ele>1630.2</ele>
        <time>2021-01-26T14:25:27Z</time>
      </trkpt>
      <trkpt lat="45.3002" lon="5.74409">
        <ele>1630.8</ele>
        <time>2021-01-26T14:25:29Z</time>
      </trkpt>
      <trkpt lat="45.30017" lon="5.74407">
        <ele>1630.8</ele>
        <time>2021-01-26T14:25:31Z</time>
      </trkpt>
      <trkpt lat="45.30015" lon="5.74405">
        <ele>1630.8</ele>
        <time>2021-01-26T14:25:33Z</time>
      </trkpt>
      <trkpt lat="45.30012" lon="5.74403">
        <ele>1630.8</ele>
        <time>2021-01-26T14:25:35Z</time>
      </trkpt>
      <trkpt lat="45.3001" lon="5.74402">
        <ele>1630.8</ele>
        <time>2021-01-26T14:25:37Z</time>
      </trkpt>
      <trkpt lat="45.30007" lon="5.74401">
        <ele>1630.8</ele>
        <time>2021-01-26T14:25:40Z</time>
      </trkpt>
      <trkpt lat="45.30006" lon="5.744">
        <ele>1630.8</ele>
        <time>2021-01-26T14:25:42Z</time>
      </trkpt>
      <trkpt lat="45.30001" lon="5.74399">
        <ele>1630.8</ele>
        <time>2021-01-26T14:25:47Z</time>
      </trkpt>
      <trkpt lat="45.29999" lon="5.74398">
        <ele>1630.8</ele>
        <time>2021-01-26T14:25:50Z</time>
      </trkpt>
      <trkpt lat="45.29997" lon="5.74397">
        <ele>1630.8</ele>
        <time>2021-01-26T14:25:52Z</time>
      </trkpt>
      <trkpt lat="45.29995" lon="5.74393">
        <ele>1630.8</ele>
        <time>2021-01-26T14:25:56Z</time>
      </trkpt>
      <trkpt lat="45.29986" lon="5.74387">
        <ele>1630.8</ele>
        <time>2021-01-26T14:26:03Z</time>
      </trkpt>
      <trkpt lat="45.29977" lon="5.7438">
        <ele>1630.8</ele>
        <time>2021-01-26T14:26:10Z</time>
      </trkpt>
      <trkpt lat="45.29976" lon="5.74378">
        <ele>1630.8</ele>
        <time>2021-01-26T14:26:12Z</time>
      </trkpt>
      <trkpt lat="45.29969" lon="5.74373">
        <ele>1642.8</ele>
        <time>2021-01-26T14:26:19Z</time>
      </trkpt>
      <trkpt lat="45.29967" lon="5.74371">
        <ele>1642.8</ele>
        <time>2021-01-26T14:26:22Z</time>
      </trkpt>
      <trkpt lat="45.29965" lon="5.7437">
        <ele>1642.8</ele>
        <time>2021-01-26T14:26:24Z</time>
      </trkpt>
      <trkpt lat="45.29964" lon="5.74368">
        <ele>1642.8</ele>
        <time>2021-01-26T14:26:26Z</time>
      </trkpt>
      <trkpt lat="45.29961" lon="5.74366">
        <ele>1645.8</ele>
        <time>2021-01-26T14:26:29Z</time>
      </trkpt>
      <trkpt lat="45.29959" lon="5.74366">
        <ele>1645.8</ele>
        <time>2021-01-26T14:26:33Z</time>
      </trkpt>
      <trkpt lat="45.29958" lon="5.74369">
        <ele>1645.8</ele>
        <time>2021-01-26T14:26:38Z</time>
      </trkpt>
      <trkpt lat="45.29958" lon="5.74372">
        <ele>1645.8</ele>
        <time>2021-01-26T14:26:42Z</time>
      </trkpt>
      <trkpt lat="45.29956" lon="5.74373">
        <ele>1645.8</ele>
        <time>2021-01-26T14:26:44Z</time>
      </trkpt>
      <trkpt lat="45.29953" lon="5.74373">
        <ele>1645.8</ele>
        <time>2021-01-26T14:26:46Z</time>
      </trkpt>
      <trkpt lat="45.29951" lon="5.74372">
        <ele>1645.8</ele>
        <time>2021-01-26T14:26:48Z</time>
      </trkpt>
      <trkpt lat="45.29949" lon="5.7437">
        <ele>1645.8</ele>
        <time>2021-01-26T14:26:50Z</time>
      </trkpt>
      <trkpt lat="45.29948" lon="5.74367">
        <ele>1645.8</ele>
        <time>2021-01-26T14:26:53Z</time>
      </trkpt>
      <trkpt lat="45.29947" lon="5.74364">
        <ele>1645.8</ele>
        <time>2021-01-26T14:26:56Z</time>
      </trkpt>
      <trkpt lat="45.29945" lon="5.74364">
        <ele>1645.8</ele>
        <time>2021-01-26T14:27:01Z</time>
      </trkpt>
      <trkpt lat="45.29943" lon="5.74363">
        <ele>1645.8</ele>
        <time>2021-01-26T14:27:03Z</time>
      </trkpt>
      <trkpt lat="45.29941" lon="5.74363">
        <ele>1645.8</ele>
        <time>2021-01-26T14:27:06Z</time>
      </trkpt>
      <trkpt lat="45.29939" lon="5.74362">
        <ele>1645.8</ele>
        <time>2021-01-26T14:27:12Z</time>
      </trkpt>
      <trkpt lat="45.29937" lon="5.7436">
        <ele>1645.8</ele>
        <time>2021-01-26T14:27:15Z</time>
      </trkpt>
      <trkpt lat="45.29935" lon="5.74358">
        <ele>1645.8</ele>
        <time>2021-01-26T14:27:17Z</time>
      </trkpt>
      <trkpt lat="45.29933" lon="5.74357">
        <ele>1645.8</ele>
        <time>2021-01-26T14:27:20Z</time>
      </trkpt>
      <trkpt lat="45.2993" lon="5.74356">
        <ele>1645.8</ele>
        <time>2021-01-26T14:27:23Z</time>
      </trkpt>
      <trkpt lat="45.29928" lon="5.74355">
        <ele>1645.8</ele>
        <time>2021-01-26T14:27:26Z</time>
      </trkpt>
      <trkpt lat="45.29926" lon="5.74353">
        <ele>1659.4</ele>
        <time>2021-01-26T14:27:29Z</time>
      </trkpt>
      <trkpt lat="45.29924" lon="5.74351">
        <ele>1659.4</ele>
        <time>2021-01-26T14:27:31Z</time>
      </trkpt>
      <trkpt lat="45.29922" lon="5.74349">
        <ele>1659.4</ele>
        <time>2021-01-26T14:27:33Z</time>
      </trkpt>
      <trkpt lat="45.2992" lon="5.74348">
        <ele>1659.4</ele>
        <time>2021-01-26T14:27:35Z</time>
      </trkpt>
      <trkpt lat="45.29918" lon="5.74347">
        <ele>1659.4</ele>
        <time>2021-01-26T14:27:37Z</time>
      </trkpt>
      <trkpt lat="45.29915" lon="5.74346">
        <ele>1660.6</ele>
        <time>2021-01-26T14:27:39Z</time>
      </trkpt>
      <trkpt lat="45.29912" lon="5.74345">
        <ele>1660.6</ele>
        <time>2021-01-26T14:27:41Z</time>
      </trkpt>
      <trkpt lat="45.2991" lon="5.74343">
        <ele>1660.6</ele>
        <time>2021-01-26T14:27:43Z</time>
      </trkpt>
      <trkpt lat="45.29908" lon="5.74341">
        <ele>1660.6</ele>
        <time>2021-01-26T14:27:45Z</time>
      </trkpt>
      <trkpt lat="45.29906" lon="5.74339">
        <ele>1660.6</ele>
        <time>2021-01-26T14:27:47Z</time>
      </trkpt>
      <trkpt lat="45.29903" lon="5.74336">
        <ele>1660.6</ele>
        <time>2021-01-26T14:27:50Z</time>
      </trkpt>
      <trkpt lat="45.299" lon="5.74335">
        <ele>1660.6</ele>
        <time>2021-01-26T14:27:52Z</time>
      </trkpt>
      <trkpt lat="45.29897" lon="5.74333">
        <ele>1660.6</ele>
        <time>2021-01-26T14:27:54Z</time>
      </trkpt>
      <trkpt lat="45.29895" lon="5.74331">
        <ele>1660.6</ele>
        <time>2021-01-26T14:27:56Z</time>
      </trkpt>
      <trkpt lat="45.29892" lon="5.74328">
        <ele>1660.6</ele>
        <time>2021-01-26T14:27:58Z</time>
      </trkpt>
      <trkpt lat="45.2989" lon="5.74327">
        <ele>1663</ele>
        <time>2021-01-26T14:27:59Z</time>
      </trkpt>
      <trkpt lat="45.29888" lon="5.74325">
        <ele>1663</ele>
        <time>2021-01-26T14:28:01Z</time>
      </trkpt>
      <trkpt lat="45.29884" lon="5.74323">
        <ele>1663</ele>
        <time>2021-01-26T14:28:03Z</time>
      </trkpt>
      <trkpt lat="45.29883" lon="5.74321">
        <ele>1663</ele>
        <time>2021-01-26T14:28:04Z</time>
      </trkpt>
      <trkpt lat="45.29881" lon="5.7432">
        <ele>1663</ele>
        <time>2021-01-26T14:28:05Z</time>
      </trkpt>
      <trkpt lat="45.29879" lon="5.74318">
        <ele>1663</ele>
        <time>2021-01-26T14:28:06Z</time>
      </trkpt>
      <trkpt lat="45.29878" lon="5.74316">
        <ele>1663</ele>
        <time>2021-01-26T14:28:07Z</time>
      </trkpt>
      <trkpt lat="45.29876" lon="5.74314">
        <ele>1663</ele>
        <time>2021-01-26T14:28:08Z</time>
      </trkpt>
      <trkpt lat="45.29875" lon="5.74312">
        <ele>1662.6</ele>
        <time>2021-01-26T14:28:09Z</time>
      </trkpt>
      <trkpt lat="45.29873" lon="5.7431">
        <ele>1662.6</ele>
        <time>2021-01-26T14:28:10Z</time>
      </trkpt>
      <trkpt lat="45.29871" lon="5.74307">
        <ele>1662.6</ele>
        <time>2021-01-26T14:28:11Z</time>
      </trkpt>
      <trkpt lat="45.29868" lon="5.74305">
        <ele>1662.6</ele>
        <time>2021-01-26T14:28:12Z</time>
      </trkpt>
      <trkpt lat="45.29867" lon="5.74303">
        <ele>1662.6</ele>
        <time>2021-01-26T14:28:13Z</time>
      </trkpt>
      <trkpt lat="45.29865" lon="5.74301">
        <ele>1662.6</ele>
        <time>2021-01-26T14:28:14Z</time>
      </trkpt>
      <trkpt lat="45.29864" lon="5.74297">
        <ele>1662.6</ele>
        <time>2021-01-26T14:28:16Z</time>
      </trkpt>
      <trkpt lat="45.29862" lon="5.74293">
        <ele>1662.6</ele>
        <time>2021-01-26T14:28:18Z</time>
      </trkpt>
      <trkpt lat="45.29861" lon="5.74291">
        <ele>1661.2</ele>
        <time>2021-01-26T14:28:19Z</time>
      </trkpt>
      <trkpt lat="45.29857" lon="5.74289">
        <ele>1661.2</ele>
        <time>2021-01-26T14:28:21Z</time>
      </trkpt>
      <trkpt lat="45.29854" lon="5.74288">
        <ele>1661.2</ele>
        <time>2021-01-26T14:28:23Z</time>
      </trkpt>
      <trkpt lat="45.29853" lon="5.74286">
        <ele>1661.2</ele>
        <time>2021-01-26T14:28:26Z</time>
      </trkpt>
      <trkpt lat="45.29851" lon="5.74284">
        <ele>1662</ele>
        <time>2021-01-26T14:28:29Z</time>
      </trkpt>
      <trkpt lat="45.29848" lon="5.74283">
        <ele>1662</ele>
        <time>2021-01-26T14:28:31Z</time>
      </trkpt>
      <trkpt lat="45.29845" lon="5.74283">
        <ele>1662</ele>
        <time>2021-01-26T14:28:33Z</time>
      </trkpt>
      <trkpt lat="45.29842" lon="5.74283">
        <ele>1662</ele>
        <time>2021-01-26T14:28:35Z</time>
      </trkpt>
      <trkpt lat="45.29839" lon="5.74282">
        <ele>1662</ele>
        <time>2021-01-26T14:28:37Z</time>
      </trkpt>
      <trkpt lat="45.29837" lon="5.7428">
        <ele>1662.4</ele>
        <time>2021-01-26T14:28:39Z</time>
      </trkpt>
      <trkpt lat="45.29834" lon="5.74277">
        <ele>1662.4</ele>
        <time>2021-01-26T14:28:41Z</time>
      </trkpt>
      <trkpt lat="45.29832" lon="5.74275">
        <ele>1662.4</ele>
        <time>2021-01-26T14:28:43Z</time>
      </trkpt>
      <trkpt lat="45.2983" lon="5.74274">
        <ele>1662.4</ele>
        <time>2021-01-26T14:28:44Z</time>
      </trkpt>
      <trkpt lat="45.29828" lon="5.74273">
        <ele>1662.4</ele>
        <time>2021-01-26T14:28:45Z</time>
      </trkpt>
      <trkpt lat="45.29826" lon="5.74273">
        <ele>1662.4</ele>
        <time>2021-01-26T14:28:46Z</time>
      </trkpt>
      <trkpt lat="45.29824" lon="5.74272">
        <ele>1662.4</ele>
        <time>2021-01-26T14:28:47Z</time>
      </trkpt>
      <trkpt lat="45.29822" lon="5.74271">
        <ele>1662.4</ele>
        <time>2021-01-26T14:28:48Z</time>
      </trkpt>
      <trkpt lat="45.2982" lon="5.7427">
        <ele>1662.6</ele>
        <time>2021-01-26T14:28:49Z</time>
      </trkpt>
      <trkpt lat="45.29818" lon="5.74268">
        <ele>1662.6</ele>
        <time>2021-01-26T14:28:50Z</time>
      </trkpt>
      <trkpt lat="45.29816" lon="5.74267">
        <ele>1662.6</ele>
        <time>2021-01-26T14:28:51Z</time>
      </trkpt>
      <trkpt lat="45.29813" lon="5.74266">
        <ele>1662.6</ele>
        <time>2021-01-26T14:28:53Z</time>
      </trkpt>
      <trkpt lat="45.2981" lon="5.74265">
        <ele>1662.6</ele>
        <time>2021-01-26T14:28:54Z</time>
      </trkpt>
      <trkpt lat="45.29808" lon="5.74264">
        <ele>1662.6</ele>
        <time>2021-01-26T14:28:55Z</time>
      </trkpt>
      <trkpt lat="45.29805" lon="5.74263">
        <ele>1662.6</ele>
        <time>2021-01-26T14:28:56Z</time>
      </trkpt>
      <trkpt lat="45.29802" lon="5.74263">
        <ele>1662.6</ele>
        <time>2021-01-26T14:28:57Z</time>
      </trkpt>
      <trkpt lat="45.29798" lon="5.74262">
        <ele>1662.6</ele>
        <time>2021-01-26T14:28:58Z</time>
      </trkpt>
      <trkpt lat="45.29795" lon="5.74261">
        <ele>1660</ele>
        <time>2021-01-26T14:28:59Z</time>
      </trkpt>
      <trkpt lat="45.29792" lon="5.74262">
        <ele>1660</ele>
        <time>2021-01-26T14:29:00Z</time>
      </trkpt>
      <trkpt lat="45.29789" lon="5.74262">
        <ele>1660</ele>
        <time>2021-01-26T14:29:01Z</time>
      </trkpt>
      <trkpt lat="45.29787" lon="5.74262">
        <ele>1660</ele>
        <time>2021-01-26T14:29:02Z</time>
      </trkpt>
      <trkpt lat="45.29785" lon="5.74262">
        <ele>1660</ele>
        <time>2021-01-26T14:29:03Z</time>
      </trkpt>
      <trkpt lat="45.29782" lon="5.74263">
        <ele>1660</ele>
        <time>2021-01-26T14:29:04Z</time>
      </trkpt>
      <trkpt lat="45.29779" lon="5.74264">
        <ele>1660</ele>
        <time>2021-01-26T14:29:06Z</time>
      </trkpt>
      <trkpt lat="45.29776" lon="5.74265">
        <ele>1660</ele>
        <time>2021-01-26T14:29:08Z</time>
      </trkpt>
      <trkpt lat="45.29773" lon="5.74268">
        <ele>1660</ele>
        <time>2021-01-26T14:29:10Z</time>
      </trkpt>
      <trkpt lat="45.29771" lon="5.74271">
        <ele>1660</ele>
        <time>2021-01-26T14:29:12Z</time>
      </trkpt>
      <trkpt lat="45.2977" lon="5.74274">
        <ele>1660</ele>
        <time>2021-01-26T14:29:14Z</time>
      </trkpt>
      <trkpt lat="45.29767" lon="5.74278">
        <ele>1660</ele>
        <time>2021-01-26T14:29:16Z</time>
      </trkpt>
      <trkpt lat="45.29765" lon="5.7428">
        <ele>1660</ele>
        <time>2021-01-26T14:29:18Z</time>
      </trkpt>
      <trkpt lat="45.29763" lon="5.74292">
        <ele>1660</ele>
        <time>2021-01-26T14:29:26Z</time>
      </trkpt>
      <trkpt lat="45.29762" lon="5.74294">
        <ele>1660</ele>
        <time>2021-01-26T14:29:28Z</time>
      </trkpt>
      <trkpt lat="45.29761" lon="5.74297">
        <ele>1660</ele>
        <time>2021-01-26T14:29:31Z</time>
      </trkpt>
      <trkpt lat="45.29759" lon="5.743">
        <ele>1660</ele>
        <time>2021-01-26T14:29:33Z</time>
      </trkpt>
      <trkpt lat="45.29759" lon="5.74303">
        <ele>1660</ele>
        <time>2021-01-26T14:29:35Z</time>
      </trkpt>
      <trkpt lat="45.29758" lon="5.74307">
        <ele>1660</ele>
        <time>2021-01-26T14:29:38Z</time>
      </trkpt>
      <trkpt lat="45.29757" lon="5.7431">
        <ele>1660</ele>
        <time>2021-01-26T14:29:41Z</time>
      </trkpt>
      <trkpt lat="45.29755" lon="5.74313">
        <ele>1660</ele>
        <time>2021-01-26T14:29:45Z</time>
      </trkpt>
      <trkpt lat="45.29753" lon="5.74313">
        <ele>1660</ele>
        <time>2021-01-26T14:29:46Z</time>
      </trkpt>
      <trkpt lat="45.29751" lon="5.74315">
        <ele>1660</ele>
        <time>2021-01-26T14:29:48Z</time>
      </trkpt>
      <trkpt lat="45.29749" lon="5.74316">
        <ele>1660</ele>
        <time>2021-01-26T14:29:51Z</time>
      </trkpt>
      <trkpt lat="45.29747" lon="5.74318">
        <ele>1660</ele>
        <time>2021-01-26T14:29:53Z</time>
      </trkpt>
      <trkpt lat="45.29746" lon="5.7432">
        <ele>1660</ele>
        <time>2021-01-26T14:29:55Z</time>
      </trkpt>
      <trkpt lat="45.29744" lon="5.74323">
        <ele>1660</ele>
        <time>2021-01-26T14:29:57Z</time>
      </trkpt>
      <trkpt lat="45.29742" lon="5.74324">
        <ele>1667.6</ele>
        <time>2021-01-26T14:29:59Z</time>
      </trkpt>
      <trkpt lat="45.2974" lon="5.74327">
        <ele>1667.6</ele>
        <time>2021-01-26T14:30:01Z</time>
      </trkpt>
      <trkpt lat="45.29738" lon="5.74332">
        <ele>1667.6</ele>
        <time>2021-01-26T14:30:04Z</time>
      </trkpt>
      <trkpt lat="45.29737" lon="5.74333">
        <ele>1667.6</ele>
        <time>2021-01-26T14:30:05Z</time>
      </trkpt>
      <trkpt lat="45.29735" lon="5.74336">
        <ele>1667.6</ele>
        <time>2021-01-26T14:30:07Z</time>
      </trkpt>
      <trkpt lat="45.29732" lon="5.74337">
        <ele>1667.8</ele>
        <time>2021-01-26T14:30:09Z</time>
      </trkpt>
      <trkpt lat="45.2973" lon="5.74338">
        <ele>1667.8</ele>
        <time>2021-01-26T14:30:10Z</time>
      </trkpt>
      <trkpt lat="45.29728" lon="5.74338">
        <ele>1667.8</ele>
        <time>2021-01-26T14:30:11Z</time>
      </trkpt>
      <trkpt lat="45.29722" lon="5.74342">
        <ele>1667.8</ele>
        <time>2021-01-26T14:30:14Z</time>
      </trkpt>
      <trkpt lat="45.2972" lon="5.74345">
        <ele>1667.8</ele>
        <time>2021-01-26T14:30:15Z</time>
      </trkpt>
      <trkpt lat="45.29718" lon="5.74347">
        <ele>1667.8</ele>
        <time>2021-01-26T14:30:16Z</time>
      </trkpt>
      <trkpt lat="45.29716" lon="5.74349">
        <ele>1667.8</ele>
        <time>2021-01-26T14:30:17Z</time>
      </trkpt>
      <trkpt lat="45.29714" lon="5.74351">
        <ele>1666.6</ele>
        <time>2021-01-26T14:30:19Z</time>
      </trkpt>
      <trkpt lat="45.29712" lon="5.74353">
        <ele>1666.6</ele>
        <time>2021-01-26T14:30:20Z</time>
      </trkpt>
      <trkpt lat="45.2971" lon="5.74354">
        <ele>1666.6</ele>
        <time>2021-01-26T14:30:21Z</time>
      </trkpt>
      <trkpt lat="45.29708" lon="5.74357">
        <ele>1666.6</ele>
        <time>2021-01-26T14:30:23Z</time>
      </trkpt>
      <trkpt lat="45.29706" lon="5.7436">
        <ele>1666.6</ele>
        <time>2021-01-26T14:30:25Z</time>
      </trkpt>
      <trkpt lat="45.29705" lon="5.74363">
        <ele>1666.6</ele>
        <time>2021-01-26T14:30:27Z</time>
      </trkpt>
      <trkpt lat="45.29702" lon="5.74367">
        <ele>1667.2</ele>
        <time>2021-01-26T14:30:29Z</time>
      </trkpt>
      <trkpt lat="45.297" lon="5.74369">
        <ele>1667.2</ele>
        <time>2021-01-26T14:30:30Z</time>
      </trkpt>
      <trkpt lat="45.29699" lon="5.74371">
        <ele>1667.2</ele>
        <time>2021-01-26T14:30:31Z</time>
      </trkpt>
      <trkpt lat="45.29697" lon="5.74373">
        <ele>1667.2</ele>
        <time>2021-01-26T14:30:32Z</time>
      </trkpt>
      <trkpt lat="45.29694" lon="5.74376">
        <ele>1667.2</ele>
        <time>2021-01-26T14:30:33Z</time>
      </trkpt>
      <trkpt lat="45.29692" lon="5.74378">
        <ele>1667.2</ele>
        <time>2021-01-26T14:30:34Z</time>
      </trkpt>
      <trkpt lat="45.29688" lon="5.74382">
        <ele>1667.2</ele>
        <time>2021-01-26T14:30:36Z</time>
      </trkpt>
      <trkpt lat="45.29686" lon="5.74384">
        <ele>1667.2</ele>
        <time>2021-01-26T14:30:37Z</time>
      </trkpt>
      <trkpt lat="45.29684" lon="5.74386">
        <ele>1667.2</ele>
        <time>2021-01-26T14:30:38Z</time>
      </trkpt>
      <trkpt lat="45.2968" lon="5.74389">
        <ele>1667.2</ele>
        <time>2021-01-26T14:30:41Z</time>
      </trkpt>
      <trkpt lat="45.29678" lon="5.7439">
        <ele>1667.2</ele>
        <time>2021-01-26T14:30:43Z</time>
      </trkpt>
      <trkpt lat="45.29676" lon="5.74391">
        <ele>1667.2</ele>
        <time>2021-01-26T14:30:44Z</time>
      </trkpt>
      <trkpt lat="45.29673" lon="5.74392">
        <ele>1667.2</ele>
        <time>2021-01-26T14:30:46Z</time>
      </trkpt>
      <trkpt lat="45.29671" lon="5.74392">
        <ele>1667.2</ele>
        <time>2021-01-26T14:30:48Z</time>
      </trkpt>
      <trkpt lat="45.29668" lon="5.74394">
        <ele>1667.2</ele>
        <time>2021-01-26T14:30:50Z</time>
      </trkpt>
      <trkpt lat="45.29666" lon="5.74394">
        <ele>1667.2</ele>
        <time>2021-01-26T14:30:52Z</time>
      </trkpt>
      <trkpt lat="45.29664" lon="5.74395">
        <ele>1667.2</ele>
        <time>2021-01-26T14:30:54Z</time>
      </trkpt>
      <trkpt lat="45.29661" lon="5.74395">
        <ele>1667.2</ele>
        <time>2021-01-26T14:30:56Z</time>
      </trkpt>
      <trkpt lat="45.29659" lon="5.74396">
        <ele>1667.2</ele>
        <time>2021-01-26T14:30:58Z</time>
      </trkpt>
      <trkpt lat="45.29656" lon="5.74396">
        <ele>1667.2</ele>
        <time>2021-01-26T14:31:00Z</time>
      </trkpt>
      <trkpt lat="45.29653" lon="5.74397">
        <ele>1667.2</ele>
        <time>2021-01-26T14:31:02Z</time>
      </trkpt>
      <trkpt lat="45.29651" lon="5.74397">
        <ele>1667.2</ele>
        <time>2021-01-26T14:31:03Z</time>
      </trkpt>
      <trkpt lat="45.29648" lon="5.74396">
        <ele>1667.2</ele>
        <time>2021-01-26T14:31:05Z</time>
      </trkpt>
      <trkpt lat="45.29646" lon="5.74395">
        <ele>1667.2</ele>
        <time>2021-01-26T14:31:06Z</time>
      </trkpt>
      <trkpt lat="45.29644" lon="5.74395">
        <ele>1667.2</ele>
        <time>2021-01-26T14:31:07Z</time>
      </trkpt>
      <trkpt lat="45.2964" lon="5.74394">
        <ele>1669</ele>
        <time>2021-01-26T14:31:09Z</time>
      </trkpt>
      <trkpt lat="45.29637" lon="5.74392">
        <ele>1669</ele>
        <time>2021-01-26T14:31:11Z</time>
      </trkpt>
      <trkpt lat="45.29634" lon="5.74389">
        <ele>1669</ele>
        <time>2021-01-26T14:31:13Z</time>
      </trkpt>
      <trkpt lat="45.29631" lon="5.74388">
        <ele>1669</ele>
        <time>2021-01-26T14:31:14Z</time>
      </trkpt>
      <trkpt lat="45.29629" lon="5.74387">
        <ele>1669</ele>
        <time>2021-01-26T14:31:15Z</time>
      </trkpt>
      <trkpt lat="45.29626" lon="5.74386">
        <ele>1669</ele>
        <time>2021-01-26T14:31:16Z</time>
      </trkpt>
      <trkpt lat="45.29622" lon="5.74387">
        <ele>1669</ele>
        <time>2021-01-26T14:31:17Z</time>
      </trkpt>
      <trkpt lat="45.29617" lon="5.74386">
        <ele>1669</ele>
        <time>2021-01-26T14:31:18Z</time>
      </trkpt>
      <trkpt lat="45.29608" lon="5.74383">
        <ele>1669</ele>
        <time>2021-01-26T14:31:20Z</time>
      </trkpt>
      <trkpt lat="45.29596" lon="5.74378">
        <ele>1669</ele>
        <time>2021-01-26T14:31:23Z</time>
      </trkpt>
      <trkpt lat="45.29586" lon="5.74376">
        <ele>1669</ele>
        <time>2021-01-26T14:31:25Z</time>
      </trkpt>
      <trkpt lat="45.29577" lon="5.74373">
        <ele>1669</ele>
        <time>2021-01-26T14:31:27Z</time>
      </trkpt>
      <trkpt lat="45.29572" lon="5.74371">
        <ele>1669</ele>
        <time>2021-01-26T14:31:28Z</time>
      </trkpt>
      <trkpt lat="45.29569" lon="5.74369">
        <ele>1655.2</ele>
        <time>2021-01-26T14:31:29Z</time>
      </trkpt>
      <trkpt lat="45.29565" lon="5.74367">
        <ele>1655.2</ele>
        <time>2021-01-26T14:31:30Z</time>
      </trkpt>
      <trkpt lat="45.29552" lon="5.7436">
        <ele>1655.2</ele>
        <time>2021-01-26T14:31:33Z</time>
      </trkpt>
      <trkpt lat="45.29539" lon="5.74359">
        <ele>1655.2</ele>
        <time>2021-01-26T14:31:35Z</time>
      </trkpt>
      <trkpt lat="45.29518" lon="5.74357">
        <ele>1655.2</ele>
        <time>2021-01-26T14:31:38Z</time>
      </trkpt>
      <trkpt lat="45.29512" lon="5.74356">
        <ele>1644.4</ele>
        <time>2021-01-26T14:31:39Z</time>
      </trkpt>
      <trkpt lat="45.29507" lon="5.74355">
        <ele>1644.4</ele>
        <time>2021-01-26T14:31:40Z</time>
      </trkpt>
      <trkpt lat="45.29496" lon="5.74352">
        <ele>1644.4</ele>
        <time>2021-01-26T14:31:42Z</time>
      </trkpt>
      <trkpt lat="45.29479" lon="5.74351">
        <ele>1644.4</ele>
        <time>2021-01-26T14:31:45Z</time>
      </trkpt>
      <trkpt lat="45.29474" lon="5.74351">
        <ele>1644.4</ele>
        <time>2021-01-26T14:31:46Z</time>
      </trkpt>
      <trkpt lat="45.29464" lon="5.74353">
        <ele>1644.4</ele>
        <time>2021-01-26T14:31:48Z</time>
      </trkpt>
      <trkpt lat="45.29454" lon="5.74356">
        <ele>1644.4</ele>
        <time>2021-01-26T14:31:50Z</time>
      </trkpt>
      <trkpt lat="45.29442" lon="5.74355">
        <ele>1644.4</ele>
        <time>2021-01-26T14:31:52Z</time>
      </trkpt>
      <trkpt lat="45.29432" lon="5.74356">
        <ele>1644.4</ele>
        <time>2021-01-26T14:31:54Z</time>
      </trkpt>
      <trkpt lat="45.29422" lon="5.7436">
        <ele>1644.4</ele>
        <time>2021-01-26T14:31:56Z</time>
      </trkpt>
      <trkpt lat="45.29412" lon="5.74361">
        <ele>1644.4</ele>
        <time>2021-01-26T14:31:58Z</time>
      </trkpt>
      <trkpt lat="45.29402" lon="5.7436">
        <ele>1644.4</ele>
        <time>2021-01-26T14:32:00Z</time>
      </trkpt>
      <trkpt lat="45.29391" lon="5.74361">
        <ele>1644.4</ele>
        <time>2021-01-26T14:32:03Z</time>
      </trkpt>
      <trkpt lat="45.29379" lon="5.74365">
        <ele>1644.4</ele>
        <time>2021-01-26T14:32:06Z</time>
      </trkpt>
      <trkpt lat="45.29375" lon="5.74367">
        <ele>1644.4</ele>
        <time>2021-01-26T14:32:07Z</time>
      </trkpt>
      <trkpt lat="45.29368" lon="5.7437">
        <ele>1616.4</ele>
        <time>2021-01-26T14:32:09Z</time>
      </trkpt>
      <trkpt lat="45.29364" lon="5.74372">
        <ele>1616.4</ele>
        <time>2021-01-26T14:32:10Z</time>
      </trkpt>
      <trkpt lat="45.2936" lon="5.74373">
        <ele>1616.4</ele>
        <time>2021-01-26T14:32:11Z</time>
      </trkpt>
      <trkpt lat="45.29358" lon="5.74374">
        <ele>1616.4</ele>
        <time>2021-01-26T14:32:12Z</time>
      </trkpt>
      <trkpt lat="45.29356" lon="5.74374">
        <ele>1616.4</ele>
        <time>2021-01-26T14:32:13Z</time>
      </trkpt>
      <trkpt lat="45.29354" lon="5.74376">
        <ele>1616.4</ele>
        <time>2021-01-26T14:32:14Z</time>
      </trkpt>
      <trkpt lat="45.29353" lon="5.74378">
        <ele>1616.4</ele>
        <time>2021-01-26T14:32:15Z</time>
      </trkpt>
      <trkpt lat="45.29351" lon="5.7438">
        <ele>1616.4</ele>
        <time>2021-01-26T14:32:16Z</time>
      </trkpt>
      <trkpt lat="45.29349" lon="5.74382">
        <ele>1616.4</ele>
        <time>2021-01-26T14:32:17Z</time>
      </trkpt>
      <trkpt lat="45.29347" lon="5.74384">
        <ele>1616.4</ele>
        <time>2021-01-26T14:32:18Z</time>
      </trkpt>
      <trkpt lat="45.29345" lon="5.74387">
        <ele>1616.4</ele>
        <time>2021-01-26T14:32:20Z</time>
      </trkpt>
      <trkpt lat="45.29343" lon="5.74388">
        <ele>1616.4</ele>
        <time>2021-01-26T14:32:22Z</time>
      </trkpt>
      <trkpt lat="45.29339" lon="5.7439">
        <ele>1616.4</ele>
        <time>2021-01-26T14:32:24Z</time>
      </trkpt>
      <trkpt lat="45.29336" lon="5.74392">
        <ele>1616.4</ele>
        <time>2021-01-26T14:32:26Z</time>
      </trkpt>
      <trkpt lat="45.29334" lon="5.74394">
        <ele>1616.4</ele>
        <time>2021-01-26T14:32:28Z</time>
      </trkpt>
      <trkpt lat="45.2933" lon="5.74396">
        <ele>1616.4</ele>
        <time>2021-01-26T14:32:30Z</time>
      </trkpt>
      <trkpt lat="45.29326" lon="5.74397">
        <ele>1616.4</ele>
        <time>2021-01-26T14:32:32Z</time>
      </trkpt>
      <trkpt lat="45.29325" lon="5.74398">
        <ele>1616.4</ele>
        <time>2021-01-26T14:32:33Z</time>
      </trkpt>
      <trkpt lat="45.29323" lon="5.74399">
        <ele>1616.4</ele>
        <time>2021-01-26T14:32:34Z</time>
      </trkpt>
      <trkpt lat="45.29321" lon="5.74401">
        <ele>1616.4</ele>
        <time>2021-01-26T14:32:35Z</time>
      </trkpt>
      <trkpt lat="45.29319" lon="5.74402">
        <ele>1616.4</ele>
        <time>2021-01-26T14:32:36Z</time>
      </trkpt>
      <trkpt lat="45.29316" lon="5.74402">
        <ele>1616.4</ele>
        <time>2021-01-26T14:32:38Z</time>
      </trkpt>
      <trkpt lat="45.29313" lon="5.74404">
        <ele>1616.4</ele>
        <time>2021-01-26T14:32:42Z</time>
      </trkpt>
      <trkpt lat="45.29313" lon="5.74406">
        <ele>1616.4</ele>
        <time>2021-01-26T14:32:48Z</time>
      </trkpt>
      <trkpt lat="45.29312" lon="5.74409">
        <ele>1616.4</ele>
        <time>2021-01-26T14:32:51Z</time>
      </trkpt>
      <trkpt lat="45.2931" lon="5.74411">
        <ele>1616.4</ele>
        <time>2021-01-26T14:32:53Z</time>
      </trkpt>
      <trkpt lat="45.29307" lon="5.74413">
        <ele>1616.4</ele>
        <time>2021-01-26T14:32:55Z</time>
      </trkpt>
      <trkpt lat="45.29304" lon="5.74415">
        <ele>1616.4</ele>
        <time>2021-01-26T14:32:57Z</time>
      </trkpt>
      <trkpt lat="45.29302" lon="5.74418">
        <ele>1615.2</ele>
        <time>2021-01-26T14:32:59Z</time>
      </trkpt>
      <trkpt lat="45.29299" lon="5.74419">
        <ele>1615.2</ele>
        <time>2021-01-26T14:33:01Z</time>
      </trkpt>
      <trkpt lat="45.29297" lon="5.7442">
        <ele>1615.2</ele>
        <time>2021-01-26T14:33:03Z</time>
      </trkpt>
      <trkpt lat="45.29295" lon="5.74422">
        <ele>1615.2</ele>
        <time>2021-01-26T14:33:05Z</time>
      </trkpt>
      <trkpt lat="45.29291" lon="5.74423">
        <ele>1615.2</ele>
        <time>2021-01-26T14:33:08Z</time>
      </trkpt>
      <trkpt lat="45.2929" lon="5.74424">
        <ele>1618</ele>
        <time>2021-01-26T14:33:09Z</time>
      </trkpt>
      <trkpt lat="45.29288" lon="5.74425">
        <ele>1618</ele>
        <time>2021-01-26T14:33:11Z</time>
      </trkpt>
      <trkpt lat="45.29285" lon="5.74427">
        <ele>1618</ele>
        <time>2021-01-26T14:33:13Z</time>
      </trkpt>
      <trkpt lat="45.29283" lon="5.74429">
        <ele>1618</ele>
        <time>2021-01-26T14:33:17Z</time>
      </trkpt>
      <trkpt lat="45.29281" lon="5.74431">
        <ele>1618</ele>
        <time>2021-01-26T14:33:20Z</time>
      </trkpt>
      <trkpt lat="45.2928" lon="5.74433">
        <ele>1618</ele>
        <time>2021-01-26T14:33:22Z</time>
      </trkpt>
      <trkpt lat="45.29278" lon="5.74435">
        <ele>1618</ele>
        <time>2021-01-26T14:33:24Z</time>
      </trkpt>
      <trkpt lat="45.29276" lon="5.74438">
        <ele>1618</ele>
        <time>2021-01-26T14:33:26Z</time>
      </trkpt>
      <trkpt lat="45.29275" lon="5.7444">
        <ele>1618</ele>
        <time>2021-01-26T14:33:28Z</time>
      </trkpt>
      <trkpt lat="45.29275" lon="5.74443">
        <ele>1618</ele>
        <time>2021-01-26T14:33:32Z</time>
      </trkpt>
      <trkpt lat="45.29273" lon="5.74445">
        <ele>1618</ele>
        <time>2021-01-26T14:33:35Z</time>
      </trkpt>
      <trkpt lat="45.2927" lon="5.74447">
        <ele>1618</ele>
        <time>2021-01-26T14:33:37Z</time>
      </trkpt>
      <trkpt lat="45.29267" lon="5.74448">
        <ele>1625.8</ele>
        <time>2021-01-26T14:33:39Z</time>
      </trkpt>
      <trkpt lat="45.29266" lon="5.74449">
        <ele>1625.8</ele>
        <time>2021-01-26T14:33:41Z</time>
      </trkpt>
      <trkpt lat="45.29264" lon="5.74452">
        <ele>1625.8</ele>
        <time>2021-01-26T14:33:44Z</time>
      </trkpt>
      <trkpt lat="45.29262" lon="5.74454">
        <ele>1625.8</ele>
        <time>2021-01-26T14:33:47Z</time>
      </trkpt>
      <trkpt lat="45.29259" lon="5.74455">
        <ele>1628.2</ele>
        <time>2021-01-26T14:33:49Z</time>
      </trkpt>
      <trkpt lat="45.29257" lon="5.74456">
        <ele>1628.2</ele>
        <time>2021-01-26T14:33:51Z</time>
      </trkpt>
      <trkpt lat="45.29255" lon="5.74458">
        <ele>1628.2</ele>
        <time>2021-01-26T14:33:54Z</time>
      </trkpt>
      <trkpt lat="45.29252" lon="5.7446">
        <ele>1628.2</ele>
        <time>2021-01-26T14:33:57Z</time>
      </trkpt>
      <trkpt lat="45.2925" lon="5.7446">
        <ele>1628.2</ele>
        <time>2021-01-26T14:34:00Z</time>
      </trkpt>
      <trkpt lat="45.29247" lon="5.74461">
        <ele>1628.2</ele>
        <time>2021-01-26T14:34:03Z</time>
      </trkpt>
      <trkpt lat="45.29245" lon="5.74461">
        <ele>1628.2</ele>
        <time>2021-01-26T14:34:05Z</time>
      </trkpt>
      <trkpt lat="45.29243" lon="5.74462">
        <ele>1628.2</ele>
        <time>2021-01-26T14:34:07Z</time>
      </trkpt>
      <trkpt lat="45.2924" lon="5.74462">
        <ele>1633.6</ele>
        <time>2021-01-26T14:34:09Z</time>
      </trkpt>
      <trkpt lat="45.29239" lon="5.74461">
        <ele>1633.6</ele>
        <time>2021-01-26T14:34:11Z</time>
      </trkpt>
      <trkpt lat="45.29237" lon="5.7446">
        <ele>1633.6</ele>
        <time>2021-01-26T14:34:13Z</time>
      </trkpt>
      <trkpt lat="45.29235" lon="5.74461">
        <ele>1633.6</ele>
        <time>2021-01-26T14:34:15Z</time>
      </trkpt>
      <trkpt lat="45.29232" lon="5.7446">
        <ele>1633.6</ele>
        <time>2021-01-26T14:34:18Z</time>
      </trkpt>
      <trkpt lat="45.2923" lon="5.74459">
        <ele>1633.6</ele>
        <time>2021-01-26T14:34:20Z</time>
      </trkpt>
      <trkpt lat="45.29227" lon="5.74458">
        <ele>1633.6</ele>
        <time>2021-01-26T14:34:22Z</time>
      </trkpt>
      <trkpt lat="45.29224" lon="5.74459">
        <ele>1633.6</ele>
        <time>2021-01-26T14:34:24Z</time>
      </trkpt>
      <trkpt lat="45.29221" lon="5.74458">
        <ele>1633.6</ele>
        <time>2021-01-26T14:34:26Z</time>
      </trkpt>
      <trkpt lat="45.29218" lon="5.74459">
        <ele>1633.6</ele>
        <time>2021-01-26T14:34:28Z</time>
      </trkpt>
      <trkpt lat="45.29215" lon="5.74458">
        <ele>1633.6</ele>
        <time>2021-01-26T14:34:30Z</time>
      </trkpt>
      <trkpt lat="45.29214" lon="5.74457">
        <ele>1633.6</ele>
        <time>2021-01-26T14:34:31Z</time>
      </trkpt>
      <trkpt lat="45.29212" lon="5.74457">
        <ele>1633.6</ele>
        <time>2021-01-26T14:34:32Z</time>
      </trkpt>
      <trkpt lat="45.29208" lon="5.74456">
        <ele>1633.6</ele>
        <time>2021-01-26T14:34:34Z</time>
      </trkpt>
      <trkpt lat="45.29205" lon="5.74456">
        <ele>1633.6</ele>
        <time>2021-01-26T14:34:36Z</time>
      </trkpt>
      <trkpt lat="45.29203" lon="5.74456">
        <ele>1633.6</ele>
        <time>2021-01-26T14:34:38Z</time>
      </trkpt>
      <trkpt lat="45.292" lon="5.74456">
        <ele>1633.6</ele>
        <time>2021-01-26T14:34:41Z</time>
      </trkpt>
      <trkpt lat="45.29198" lon="5.74457">
        <ele>1633.6</ele>
        <time>2021-01-26T14:34:45Z</time>
      </trkpt>
      <trkpt lat="45.29194" lon="5.74459">
        <ele>1633.6</ele>
        <time>2021-01-26T14:34:50Z</time>
      </trkpt>
      <trkpt lat="45.29193" lon="5.74459">
        <ele>1633.6</ele>
        <time>2021-01-26T14:34:51Z</time>
      </trkpt>
      <trkpt lat="45.2919" lon="5.74458">
        <ele>1633.6</ele>
        <time>2021-01-26T14:34:53Z</time>
      </trkpt>
      <trkpt lat="45.29188" lon="5.74456">
        <ele>1633.6</ele>
        <time>2021-01-26T14:34:55Z</time>
      </trkpt>
      <trkpt lat="45.29185" lon="5.74455">
        <ele>1633.6</ele>
        <time>2021-01-26T14:34:57Z</time>
      </trkpt>
      <trkpt lat="45.29183" lon="5.74453">
        <ele>1641</ele>
        <time>2021-01-26T14:34:59Z</time>
      </trkpt>
      <trkpt lat="45.2918" lon="5.74452">
        <ele>1641</ele>
        <time>2021-01-26T14:35:01Z</time>
      </trkpt>
      <trkpt lat="45.29177" lon="5.74451">
        <ele>1641</ele>
        <time>2021-01-26T14:35:03Z</time>
      </trkpt>
      <trkpt lat="45.29175" lon="5.7445">
        <ele>1641</ele>
        <time>2021-01-26T14:35:05Z</time>
      </trkpt>
      <trkpt lat="45.2917" lon="5.74445">
        <ele>1641</ele>
        <time>2021-01-26T14:35:08Z</time>
      </trkpt>
      <trkpt lat="45.29168" lon="5.74444">
        <ele>1642</ele>
        <time>2021-01-26T14:35:09Z</time>
      </trkpt>
      <trkpt lat="45.29166" lon="5.74443">
        <ele>1642</ele>
        <time>2021-01-26T14:35:10Z</time>
      </trkpt>
      <trkpt lat="45.29164" lon="5.74441">
        <ele>1642</ele>
        <time>2021-01-26T14:35:11Z</time>
      </trkpt>
      <trkpt lat="45.2916" lon="5.74435">
        <ele>1642</ele>
        <time>2021-01-26T14:35:14Z</time>
      </trkpt>
      <trkpt lat="45.29159" lon="5.74433">
        <ele>1642</ele>
        <time>2021-01-26T14:35:15Z</time>
      </trkpt>
      <trkpt lat="45.29157" lon="5.74429">
        <ele>1642</ele>
        <time>2021-01-26T14:35:16Z</time>
      </trkpt>
      <trkpt lat="45.29154" lon="5.74426">
        <ele>1642</ele>
        <time>2021-01-26T14:35:17Z</time>
      </trkpt>
      <trkpt lat="45.29151" lon="5.74423">
        <ele>1642</ele>
        <time>2021-01-26T14:35:18Z</time>
      </trkpt>
      <trkpt lat="45.29149" lon="5.74421">
        <ele>1639.8</ele>
        <time>2021-01-26T14:35:19Z</time>
      </trkpt>
      <trkpt lat="45.29146" lon="5.74417">
        <ele>1639.8</ele>
        <time>2021-01-26T14:35:20Z</time>
      </trkpt>
      <trkpt lat="45.29144" lon="5.74414">
        <ele>1639.8</ele>
        <time>2021-01-26T14:35:21Z</time>
      </trkpt>
      <trkpt lat="45.29142" lon="5.74412">
        <ele>1639.8</ele>
        <time>2021-01-26T14:35:22Z</time>
      </trkpt>
      <trkpt lat="45.29139" lon="5.7441">
        <ele>1639.8</ele>
        <time>2021-01-26T14:35:23Z</time>
      </trkpt>
      <trkpt lat="45.29137" lon="5.74408">
        <ele>1639.8</ele>
        <time>2021-01-26T14:35:24Z</time>
      </trkpt>
      <trkpt lat="45.29136" lon="5.74405">
        <ele>1639.8</ele>
        <time>2021-01-26T14:35:25Z</time>
      </trkpt>
      <trkpt lat="45.29134" lon="5.74403">
        <ele>1639.8</ele>
        <time>2021-01-26T14:35:26Z</time>
      </trkpt>
      <trkpt lat="45.29132" lon="5.74401">
        <ele>1639.8</ele>
        <time>2021-01-26T14:35:27Z</time>
      </trkpt>
      <trkpt lat="45.29131" lon="5.74399">
        <ele>1639.8</ele>
        <time>2021-01-26T14:35:28Z</time>
      </trkpt>
      <trkpt lat="45.29129" lon="5.74395">
        <ele>1639.8</ele>
        <time>2021-01-26T14:35:30Z</time>
      </trkpt>
      <trkpt lat="45.29127" lon="5.74393">
        <ele>1639.8</ele>
        <time>2021-01-26T14:35:31Z</time>
      </trkpt>
      <trkpt lat="45.29125" lon="5.7439">
        <ele>1639.8</ele>
        <time>2021-01-26T14:35:32Z</time>
      </trkpt>
      <trkpt lat="45.29124" lon="5.74387">
        <ele>1639.8</ele>
        <time>2021-01-26T14:35:33Z</time>
      </trkpt>
      <trkpt lat="45.29123" lon="5.74385">
        <ele>1639.8</ele>
        <time>2021-01-26T14:35:34Z</time>
      </trkpt>
      <trkpt lat="45.29122" lon="5.7438">
        <ele>1639.8</ele>
        <time>2021-01-26T14:35:36Z</time>
      </trkpt>
      <trkpt lat="45.29121" lon="5.74376">
        <ele>1639.8</ele>
        <time>2021-01-26T14:35:38Z</time>
      </trkpt>
      <trkpt lat="45.2912" lon="5.74374">
        <ele>1634.4</ele>
        <time>2021-01-26T14:35:39Z</time>
      </trkpt>
      <trkpt lat="45.29118" lon="5.74371">
        <ele>1634.4</ele>
        <time>2021-01-26T14:35:40Z</time>
      </trkpt>
      <trkpt lat="45.29118" lon="5.74368">
        <ele>1634.4</ele>
        <time>2021-01-26T14:35:41Z</time>
      </trkpt>
      <trkpt lat="45.29117" lon="5.74365">
        <ele>1634.4</ele>
        <time>2021-01-26T14:35:42Z</time>
      </trkpt>
      <trkpt lat="45.29115" lon="5.74363">
        <ele>1634.4</ele>
        <time>2021-01-26T14:35:43Z</time>
      </trkpt>
      <trkpt lat="45.29114" lon="5.74361">
        <ele>1634.4</ele>
        <time>2021-01-26T14:35:44Z</time>
      </trkpt>
      <trkpt lat="45.29112" lon="5.74358">
        <ele>1634.4</ele>
        <time>2021-01-26T14:35:45Z</time>
      </trkpt>
      <trkpt lat="45.29111" lon="5.74356">
        <ele>1634.4</ele>
        <time>2021-01-26T14:35:46Z</time>
      </trkpt>
      <trkpt lat="45.2911" lon="5.74353">
        <ele>1634.4</ele>
        <time>2021-01-26T14:35:47Z</time>
      </trkpt>
      <trkpt lat="45.29109" lon="5.74349">
        <ele>1634.4</ele>
        <time>2021-01-26T14:35:48Z</time>
      </trkpt>
      <trkpt lat="45.29109" lon="5.74346">
        <ele>1633.8</ele>
        <time>2021-01-26T14:35:49Z</time>
      </trkpt>
      <trkpt lat="45.29109" lon="5.74343">
        <ele>1633.8</ele>
        <time>2021-01-26T14:35:50Z</time>
      </trkpt>
      <trkpt lat="45.29107" lon="5.74339">
        <ele>1633.8</ele>
        <time>2021-01-26T14:35:52Z</time>
      </trkpt>
      <trkpt lat="45.29106" lon="5.74336">
        <ele>1633.8</ele>
        <time>2021-01-26T14:35:53Z</time>
      </trkpt>
      <trkpt lat="45.29102" lon="5.7433">
        <ele>1633.8</ele>
        <time>2021-01-26T14:35:55Z</time>
      </trkpt>
      <trkpt lat="45.29099" lon="5.74325">
        <ele>1633.8</ele>
        <time>2021-01-26T14:35:57Z</time>
      </trkpt>
      <trkpt lat="45.29098" lon="5.74322">
        <ele>1633.8</ele>
        <time>2021-01-26T14:35:58Z</time>
      </trkpt>
      <trkpt lat="45.29095" lon="5.7432">
        <ele>1632</ele>
        <time>2021-01-26T14:35:59Z</time>
      </trkpt>
      <trkpt lat="45.29093" lon="5.74318">
        <ele>1632</ele>
        <time>2021-01-26T14:36:00Z</time>
      </trkpt>
      <trkpt lat="45.2909" lon="5.74316">
        <ele>1632</ele>
        <time>2021-01-26T14:36:01Z</time>
      </trkpt>
      <trkpt lat="45.29088" lon="5.74313">
        <ele>1632</ele>
        <time>2021-01-26T14:36:02Z</time>
      </trkpt>
      <trkpt lat="45.29087" lon="5.74311">
        <ele>1632</ele>
        <time>2021-01-26T14:36:03Z</time>
      </trkpt>
      <trkpt lat="45.29086" lon="5.74308">
        <ele>1632</ele>
        <time>2021-01-26T14:36:04Z</time>
      </trkpt>
      <trkpt lat="45.29084" lon="5.74305">
        <ele>1632</ele>
        <time>2021-01-26T14:36:06Z</time>
      </trkpt>
      <trkpt lat="45.29083" lon="5.74302">
        <ele>1632</ele>
        <time>2021-01-26T14:36:07Z</time>
      </trkpt>
      <trkpt lat="45.29082" lon="5.74299">
        <ele>1632</ele>
        <time>2021-01-26T14:36:08Z</time>
      </trkpt>
      <trkpt lat="45.2908" lon="5.74296">
        <ele>1629.4</ele>
        <time>2021-01-26T14:36:09Z</time>
      </trkpt>
      <trkpt lat="45.29079" lon="5.74293">
        <ele>1629.4</ele>
        <time>2021-01-26T14:36:10Z</time>
      </trkpt>
      <trkpt lat="45.29078" lon="5.74291">
        <ele>1629.4</ele>
        <time>2021-01-26T14:36:11Z</time>
      </trkpt>
      <trkpt lat="45.29076" lon="5.74289">
        <ele>1629.4</ele>
        <time>2021-01-26T14:36:12Z</time>
      </trkpt>
      <trkpt lat="45.29074" lon="5.74288">
        <ele>1629.4</ele>
        <time>2021-01-26T14:36:13Z</time>
      </trkpt>
      <trkpt lat="45.29071" lon="5.74286">
        <ele>1629.4</ele>
        <time>2021-01-26T14:36:15Z</time>
      </trkpt>
      <trkpt lat="45.2907" lon="5.74284">
        <ele>1629.4</ele>
        <time>2021-01-26T14:36:16Z</time>
      </trkpt>
      <trkpt lat="45.29068" lon="5.7428">
        <ele>1629.4</ele>
        <time>2021-01-26T14:36:17Z</time>
      </trkpt>
      <trkpt lat="45.29066" lon="5.74277">
        <ele>1629.4</ele>
        <time>2021-01-26T14:36:18Z</time>
      </trkpt>
      <trkpt lat="45.29064" lon="5.74275">
        <ele>1628.8</ele>
        <time>2021-01-26T14:36:19Z</time>
      </trkpt>
      <trkpt lat="45.29063" lon="5.74272">
        <ele>1628.8</ele>
        <time>2021-01-26T14:36:20Z</time>
      </trkpt>
      <trkpt lat="45.29062" lon="5.74269">
        <ele>1628.8</ele>
        <time>2021-01-26T14:36:21Z</time>
      </trkpt>
      <trkpt lat="45.29061" lon="5.74267">
        <ele>1628.8</ele>
        <time>2021-01-26T14:36:22Z</time>
      </trkpt>
      <trkpt lat="45.29061" lon="5.74265">
        <ele>1628.8</ele>
        <time>2021-01-26T14:36:23Z</time>
      </trkpt>
      <trkpt lat="45.29056" lon="5.74257">
        <ele>1628.8</ele>
        <time>2021-01-26T14:36:26Z</time>
      </trkpt>
      <trkpt lat="45.29051" lon="5.74244">
        <ele>1628.8</ele>
        <time>2021-01-26T14:36:30Z</time>
      </trkpt>
      <trkpt lat="45.29043" lon="5.74237">
        <ele>1628.8</ele>
        <time>2021-01-26T14:36:34Z</time>
      </trkpt>
      <trkpt lat="45.2904" lon="5.74233">
        <ele>1628.8</ele>
        <time>2021-01-26T14:36:37Z</time>
      </trkpt>
      <trkpt lat="45.29038" lon="5.74231">
        <ele>1628.8</ele>
        <time>2021-01-26T14:36:40Z</time>
      </trkpt>
      <trkpt lat="45.29036" lon="5.74228">
        <ele>1628.8</ele>
        <time>2021-01-26T14:36:42Z</time>
      </trkpt>
      <trkpt lat="45.29034" lon="5.74225">
        <ele>1628.8</ele>
        <time>2021-01-26T14:36:45Z</time>
      </trkpt>
      <trkpt lat="45.29031" lon="5.74222">
        <ele>1628.8</ele>
        <time>2021-01-26T14:36:47Z</time>
      </trkpt>
      <trkpt lat="45.29028" lon="5.7422">
        <ele>1628.8</ele>
        <time>2021-01-26T14:36:50Z</time>
      </trkpt>
      <trkpt lat="45.29027" lon="5.74218">
        <ele>1628.8</ele>
        <time>2021-01-26T14:36:51Z</time>
      </trkpt>
      <trkpt lat="45.29027" lon="5.74214">
        <ele>1628.8</ele>
        <time>2021-01-26T14:36:53Z</time>
      </trkpt>
      <trkpt lat="45.29026" lon="5.74212">
        <ele>1628.8</ele>
        <time>2021-01-26T14:36:56Z</time>
      </trkpt>
      <trkpt lat="45.29025" lon="5.74209">
        <ele>1625.4</ele>
        <time>2021-01-26T14:36:59Z</time>
      </trkpt>
      <trkpt lat="45.29024" lon="5.74207">
        <ele>1625.4</ele>
        <time>2021-01-26T14:37:01Z</time>
      </trkpt>
      <trkpt lat="45.29023" lon="5.74205">
        <ele>1625.4</ele>
        <time>2021-01-26T14:37:03Z</time>
      </trkpt>
      <trkpt lat="45.29022" lon="5.74201">
        <ele>1625.4</ele>
        <time>2021-01-26T14:37:05Z</time>
      </trkpt>
      <trkpt lat="45.29021" lon="5.74198">
        <ele>1625.4</ele>
        <time>2021-01-26T14:37:07Z</time>
      </trkpt>
      <trkpt lat="45.2902" lon="5.74194">
        <ele>1627.6</ele>
        <time>2021-01-26T14:37:09Z</time>
      </trkpt>
      <trkpt lat="45.29021" lon="5.7419">
        <ele>1627.6</ele>
        <time>2021-01-26T14:37:11Z</time>
      </trkpt>
      <trkpt lat="45.29019" lon="5.74187">
        <ele>1627.6</ele>
        <time>2021-01-26T14:37:14Z</time>
      </trkpt>
      <trkpt lat="45.29019" lon="5.74183">
        <ele>1627.6</ele>
        <time>2021-01-26T14:37:16Z</time>
      </trkpt>
      <trkpt lat="45.29019" lon="5.7418">
        <ele>1627.6</ele>
        <time>2021-01-26T14:37:18Z</time>
      </trkpt>
      <trkpt lat="45.29018" lon="5.74173">
        <ele>1627.6</ele>
        <time>2021-01-26T14:37:22Z</time>
      </trkpt>
      <trkpt lat="45.29018" lon="5.7417">
        <ele>1627.6</ele>
        <time>2021-01-26T14:37:24Z</time>
      </trkpt>
      <trkpt lat="45.29017" lon="5.74167">
        <ele>1627.6</ele>
        <time>2021-01-26T14:37:26Z</time>
      </trkpt>
      <trkpt lat="45.29017" lon="5.74164">
        <ele>1627.6</ele>
        <time>2021-01-26T14:37:28Z</time>
      </trkpt>
      <trkpt lat="45.29017" lon="5.7416">
        <ele>1627.6</ele>
        <time>2021-01-26T14:37:30Z</time>
      </trkpt>
      <trkpt lat="45.29016" lon="5.74157">
        <ele>1627.6</ele>
        <time>2021-01-26T14:37:33Z</time>
      </trkpt>
      <trkpt lat="45.29016" lon="5.74154">
        <ele>1627.6</ele>
        <time>2021-01-26T14:37:36Z</time>
      </trkpt>
      <trkpt lat="45.29015" lon="5.7415">
        <ele>1627.6</ele>
        <time>2021-01-26T14:37:40Z</time>
      </trkpt>
      <trkpt lat="45.29013" lon="5.74148">
        <ele>1627.6</ele>
        <time>2021-01-26T14:37:43Z</time>
      </trkpt>
      <trkpt lat="45.29013" lon="5.74145">
        <ele>1627.6</ele>
        <time>2021-01-26T14:37:45Z</time>
      </trkpt>
      <trkpt lat="45.29012" lon="5.74143">
        <ele>1627.6</ele>
        <time>2021-01-26T14:37:47Z</time>
      </trkpt>
      <trkpt lat="45.29011" lon="5.74141">
        <ele>1634.8</ele>
        <time>2021-01-26T14:37:49Z</time>
      </trkpt>
      <trkpt lat="45.29011" lon="5.74137">
        <ele>1634.8</ele>
        <time>2021-01-26T14:37:51Z</time>
      </trkpt>
      <trkpt lat="45.29009" lon="5.74134">
        <ele>1634.8</ele>
        <time>2021-01-26T14:37:54Z</time>
      </trkpt>
      <trkpt lat="45.29008" lon="5.74131">
        <ele>1634.8</ele>
        <time>2021-01-26T14:37:57Z</time>
      </trkpt>
      <trkpt lat="45.29006" lon="5.74129">
        <ele>1634.8</ele>
        <time>2021-01-26T14:38:00Z</time>
      </trkpt>
      <trkpt lat="45.29004" lon="5.74128">
        <ele>1634.8</ele>
        <time>2021-01-26T14:38:03Z</time>
      </trkpt>
      <trkpt lat="45.29002" lon="5.74126">
        <ele>1634.8</ele>
        <time>2021-01-26T14:38:06Z</time>
      </trkpt>
      <trkpt lat="45.29001" lon="5.74124">
        <ele>1634.8</ele>
        <time>2021-01-26T14:38:10Z</time>
      </trkpt>
      <trkpt lat="45.28999" lon="5.74123">
        <ele>1634.8</ele>
        <time>2021-01-26T14:38:13Z</time>
      </trkpt>
      <trkpt lat="45.28997" lon="5.7412">
        <ele>1634.8</ele>
        <time>2021-01-26T14:38:16Z</time>
      </trkpt>
      <trkpt lat="45.28996" lon="5.74117">
        <ele>1642</ele>
        <time>2021-01-26T14:38:19Z</time>
      </trkpt>
      <trkpt lat="45.28994" lon="5.74115">
        <ele>1642</ele>
        <time>2021-01-26T14:38:21Z</time>
      </trkpt>
      <trkpt lat="45.28992" lon="5.74113">
        <ele>1642</ele>
        <time>2021-01-26T14:38:25Z</time>
      </trkpt>
      <trkpt lat="45.28989" lon="5.74112">
        <ele>1642</ele>
        <time>2021-01-26T14:38:28Z</time>
      </trkpt>
      <trkpt lat="45.28987" lon="5.74112">
        <ele>1642</ele>
        <time>2021-01-26T14:38:31Z</time>
      </trkpt>
      <trkpt lat="45.28985" lon="5.7411">
        <ele>1642</ele>
        <time>2021-01-26T14:38:34Z</time>
      </trkpt>
      <trkpt lat="45.28983" lon="5.74108">
        <ele>1642</ele>
        <time>2021-01-26T14:38:36Z</time>
      </trkpt>
      <trkpt lat="45.28982" lon="5.74106">
        <ele>1642</ele>
        <time>2021-01-26T14:38:38Z</time>
      </trkpt>
      <trkpt lat="45.2898" lon="5.74104">
        <ele>1642</ele>
        <time>2021-01-26T14:38:40Z</time>
      </trkpt>
      <trkpt lat="45.28978" lon="5.74101">
        <ele>1642</ele>
        <time>2021-01-26T14:38:43Z</time>
      </trkpt>
      <trkpt lat="45.28977" lon="5.74098">
        <ele>1642</ele>
        <time>2021-01-26T14:38:46Z</time>
      </trkpt>
      <trkpt lat="45.28975" lon="5.74096">
        <ele>1642</ele>
        <time>2021-01-26T14:38:48Z</time>
      </trkpt>
      <trkpt lat="45.28973" lon="5.74095">
        <ele>1642</ele>
        <time>2021-01-26T14:38:50Z</time>
      </trkpt>
      <trkpt lat="45.28972" lon="5.74093">
        <ele>1642</ele>
        <time>2021-01-26T14:38:52Z</time>
      </trkpt>
      <trkpt lat="45.28971" lon="5.7409">
        <ele>1642</ele>
        <time>2021-01-26T14:38:55Z</time>
      </trkpt>
      <trkpt lat="45.2897" lon="5.74088">
        <ele>1642</ele>
        <time>2021-01-26T14:38:56Z</time>
      </trkpt>
      <trkpt lat="45.28968" lon="5.74086">
        <ele>1642</ele>
        <time>2021-01-26T14:38:58Z</time>
      </trkpt>
      <trkpt lat="45.28967" lon="5.74084">
        <ele>1642</ele>
        <time>2021-01-26T14:39:01Z</time>
      </trkpt>
      <trkpt lat="45.28968" lon="5.74079">
        <ele>1642</ele>
        <time>2021-01-26T14:39:03Z</time>
      </trkpt>
      <trkpt lat="45.28968" lon="5.74076">
        <ele>1642</ele>
        <time>2021-01-26T14:39:05Z</time>
      </trkpt>
      <trkpt lat="45.28968" lon="5.74073">
        <ele>1642</ele>
        <time>2021-01-26T14:39:08Z</time>
      </trkpt>
      <trkpt lat="45.28967" lon="5.74071">
        <ele>1642</ele>
        <time>2021-01-26T14:39:14Z</time>
      </trkpt>
      <trkpt lat="45.28965" lon="5.74072">
        <ele>1642</ele>
        <time>2021-01-26T14:39:18Z</time>
      </trkpt>
      <trkpt lat="45.28963" lon="5.74073">
        <ele>1642</ele>
        <time>2021-01-26T14:39:21Z</time>
      </trkpt>
      <trkpt lat="45.28961" lon="5.74074">
        <ele>1642</ele>
        <time>2021-01-26T14:39:25Z</time>
      </trkpt>
      <trkpt lat="45.28959" lon="5.74074">
        <ele>1642</ele>
        <time>2021-01-26T14:39:28Z</time>
      </trkpt>
      <trkpt lat="45.28957" lon="5.74073">
        <ele>1642</ele>
        <time>2021-01-26T14:39:31Z</time>
      </trkpt>
      <trkpt lat="45.28956" lon="5.74071">
        <ele>1642</ele>
        <time>2021-01-26T14:39:36Z</time>
      </trkpt>
      <trkpt lat="45.28954" lon="5.7407">
        <ele>1642</ele>
        <time>2021-01-26T14:39:38Z</time>
      </trkpt>
      <trkpt lat="45.28952" lon="5.74067">
        <ele>1642</ele>
        <time>2021-01-26T14:39:41Z</time>
      </trkpt>
      <trkpt lat="45.28951" lon="5.74065">
        <ele>1642</ele>
        <time>2021-01-26T14:39:44Z</time>
      </trkpt>
      <trkpt lat="45.2895" lon="5.74063">
        <ele>1642</ele>
        <time>2021-01-26T14:39:47Z</time>
      </trkpt>
      <trkpt lat="45.28948" lon="5.74061">
        <ele>1642</ele>
        <time>2021-01-26T14:39:53Z</time>
      </trkpt>
      <trkpt lat="45.28947" lon="5.74063">
        <ele>1642</ele>
        <time>2021-01-26T14:39:57Z</time>
      </trkpt>
      <trkpt lat="45.28945" lon="5.74063">
        <ele>1642</ele>
        <time>2021-01-26T14:40:00Z</time>
      </trkpt>
      <trkpt lat="45.28943" lon="5.74064">
        <ele>1642</ele>
        <time>2021-01-26T14:40:03Z</time>
      </trkpt>
      <trkpt lat="45.28941" lon="5.74065">
        <ele>1642</ele>
        <time>2021-01-26T14:40:06Z</time>
      </trkpt>
      <trkpt lat="45.2894" lon="5.74067">
        <ele>1642</ele>
        <time>2021-01-26T14:40:08Z</time>
      </trkpt>
      <trkpt lat="45.28937" lon="5.74067">
        <ele>1642</ele>
        <time>2021-01-26T14:40:11Z</time>
      </trkpt>
      <trkpt lat="45.28935" lon="5.74067">
        <ele>1642</ele>
        <time>2021-01-26T14:40:14Z</time>
      </trkpt>
      <trkpt lat="45.28933" lon="5.74067">
        <ele>1642</ele>
        <time>2021-01-26T14:40:18Z</time>
      </trkpt>
      <trkpt lat="45.28931" lon="5.74066">
        <ele>1642</ele>
        <time>2021-01-26T14:40:22Z</time>
      </trkpt>
      <trkpt lat="45.28929" lon="5.74064">
        <ele>1642</ele>
        <time>2021-01-26T14:40:25Z</time>
      </trkpt>
      <trkpt lat="45.28927" lon="5.74063">
        <ele>1642</ele>
        <time>2021-01-26T14:40:28Z</time>
      </trkpt>
      <trkpt lat="45.28925" lon="5.74062">
        <ele>1642</ele>
        <time>2021-01-26T14:40:32Z</time>
      </trkpt>
      <trkpt lat="45.28923" lon="5.74061">
        <ele>1642</ele>
        <time>2021-01-26T14:40:35Z</time>
      </trkpt>
      <trkpt lat="45.28921" lon="5.7406">
        <ele>1642</ele>
        <time>2021-01-26T14:40:38Z</time>
      </trkpt>
      <trkpt lat="45.28919" lon="5.7406">
        <ele>1642</ele>
        <time>2021-01-26T14:40:40Z</time>
      </trkpt>
      <trkpt lat="45.28917" lon="5.74058">
        <ele>1642</ele>
        <time>2021-01-26T14:40:43Z</time>
      </trkpt>
      <trkpt lat="45.28916" lon="5.74058">
        <ele>1642</ele>
        <time>2021-01-26T14:40:45Z</time>
      </trkpt>
      <trkpt lat="45.28914" lon="5.74056">
        <ele>1642</ele>
        <time>2021-01-26T14:40:57Z</time>
      </trkpt>
      <trkpt lat="45.28912" lon="5.74056">
        <ele>1678</ele>
        <time>2021-01-26T14:40:59Z</time>
      </trkpt>
      <trkpt lat="45.28909" lon="5.74054">
        <ele>1678</ele>
        <time>2021-01-26T14:41:02Z</time>
      </trkpt>
      <trkpt lat="45.28907" lon="5.74054">
        <ele>1678</ele>
        <time>2021-01-26T14:41:04Z</time>
      </trkpt>
      <trkpt lat="45.28905" lon="5.74053">
        <ele>1678</ele>
        <time>2021-01-26T14:41:06Z</time>
      </trkpt>
      <trkpt lat="45.28903" lon="5.74052">
        <ele>1678</ele>
        <time>2021-01-26T14:41:08Z</time>
      </trkpt>
      <trkpt lat="45.28901" lon="5.74051">
        <ele>1678</ele>
        <time>2021-01-26T14:41:11Z</time>
      </trkpt>
      <trkpt lat="45.28899" lon="5.7405">
        <ele>1678</ele>
        <time>2021-01-26T14:41:14Z</time>
      </trkpt>
      <trkpt lat="45.28897" lon="5.74049">
        <ele>1678</ele>
        <time>2021-01-26T14:41:17Z</time>
      </trkpt>
      <trkpt lat="45.28895" lon="5.74047">
        <ele>1682.4</ele>
        <time>2021-01-26T14:41:19Z</time>
      </trkpt>
      <trkpt lat="45.28894" lon="5.74046">
        <ele>1682.4</ele>
        <time>2021-01-26T14:41:21Z</time>
      </trkpt>
      <trkpt lat="45.28891" lon="5.74044">
        <ele>1682.4</ele>
        <time>2021-01-26T14:41:24Z</time>
      </trkpt>
      <trkpt lat="45.28889" lon="5.74043">
        <ele>1682.4</ele>
        <time>2021-01-26T14:41:26Z</time>
      </trkpt>
      <trkpt lat="45.28887" lon="5.74042">
        <ele>1682.4</ele>
        <time>2021-01-26T14:41:28Z</time>
      </trkpt>
      <trkpt lat="45.28885" lon="5.74041">
        <ele>1682.4</ele>
        <time>2021-01-26T14:41:30Z</time>
      </trkpt>
      <trkpt lat="45.28883" lon="5.74039">
        <ele>1682.4</ele>
        <time>2021-01-26T14:41:33Z</time>
      </trkpt>
      <trkpt lat="45.28881" lon="5.74037">
        <ele>1682.4</ele>
        <time>2021-01-26T14:41:35Z</time>
      </trkpt>
      <trkpt lat="45.28879" lon="5.74036">
        <ele>1682.4</ele>
        <time>2021-01-26T14:41:37Z</time>
      </trkpt>
      <trkpt lat="45.28877" lon="5.74034">
        <ele>1686.6</ele>
        <time>2021-01-26T14:41:39Z</time>
      </trkpt>
      <trkpt lat="45.28875" lon="5.74032">
        <ele>1686.6</ele>
        <time>2021-01-26T14:41:42Z</time>
      </trkpt>
      <trkpt lat="45.28874" lon="5.74029">
        <ele>1686.6</ele>
        <time>2021-01-26T14:41:45Z</time>
      </trkpt>
      <trkpt lat="45.28872" lon="5.74028">
        <ele>1686.6</ele>
        <time>2021-01-26T14:41:47Z</time>
      </trkpt>
      <trkpt lat="45.2887" lon="5.74026">
        <ele>1688.4</ele>
        <time>2021-01-26T14:41:49Z</time>
      </trkpt>
      <trkpt lat="45.28868" lon="5.74025">
        <ele>1688.4</ele>
        <time>2021-01-26T14:41:51Z</time>
      </trkpt>
      <trkpt lat="45.28866" lon="5.74023">
        <ele>1688.4</ele>
        <time>2021-01-26T14:41:53Z</time>
      </trkpt>
      <trkpt lat="45.28865" lon="5.74022">
        <ele>1688.4</ele>
        <time>2021-01-26T14:41:55Z</time>
      </trkpt>
      <trkpt lat="45.28863" lon="5.7402">
        <ele>1688.4</ele>
        <time>2021-01-26T14:41:57Z</time>
      </trkpt>
      <trkpt lat="45.28861" lon="5.74019">
        <ele>1689.8</ele>
        <time>2021-01-26T14:41:59Z</time>
      </trkpt>
      <trkpt lat="45.28859" lon="5.74018">
        <ele>1689.8</ele>
        <time>2021-01-26T14:42:02Z</time>
      </trkpt>
      <trkpt lat="45.28856" lon="5.74016">
        <ele>1689.8</ele>
        <time>2021-01-26T14:42:04Z</time>
      </trkpt>
      <trkpt lat="45.28855" lon="5.74014">
        <ele>1689.8</ele>
        <time>2021-01-26T14:42:07Z</time>
      </trkpt>
      <trkpt lat="45.28853" lon="5.74012">
        <ele>1691</ele>
        <time>2021-01-26T14:42:09Z</time>
      </trkpt>
      <trkpt lat="45.28852" lon="5.74009">
        <ele>1691</ele>
        <time>2021-01-26T14:42:11Z</time>
      </trkpt>
      <trkpt lat="45.2885" lon="5.74007">
        <ele>1691</ele>
        <time>2021-01-26T14:42:13Z</time>
      </trkpt>
      <trkpt lat="45.28849" lon="5.74005">
        <ele>1691</ele>
        <time>2021-01-26T14:42:15Z</time>
      </trkpt>
      <trkpt lat="45.28847" lon="5.74002">
        <ele>1691</ele>
        <time>2021-01-26T14:42:17Z</time>
      </trkpt>
      <trkpt lat="45.28845" lon="5.74">
        <ele>1692.8</ele>
        <time>2021-01-26T14:42:19Z</time>
      </trkpt>
      <trkpt lat="45.28844" lon="5.73998">
        <ele>1692.8</ele>
        <time>2021-01-26T14:42:21Z</time>
      </trkpt>
      <trkpt lat="45.28842" lon="5.73996">
        <ele>1692.8</ele>
        <time>2021-01-26T14:42:23Z</time>
      </trkpt>
      <trkpt lat="45.28841" lon="5.73993">
        <ele>1692.8</ele>
        <time>2021-01-26T14:42:25Z</time>
      </trkpt>
      <trkpt lat="45.2884" lon="5.73991">
        <ele>1692.8</ele>
        <time>2021-01-26T14:42:27Z</time>
      </trkpt>
      <trkpt lat="45.28839" lon="5.73988">
        <ele>1692.8</ele>
        <time>2021-01-26T14:42:30Z</time>
      </trkpt>
      <trkpt lat="45.28838" lon="5.73986">
        <ele>1692.8</ele>
        <time>2021-01-26T14:42:32Z</time>
      </trkpt>
      <trkpt lat="45.28835" lon="5.73983">
        <ele>1692.8</ele>
        <time>2021-01-26T14:42:35Z</time>
      </trkpt>
      <trkpt lat="45.28834" lon="5.73981">
        <ele>1692.8</ele>
        <time>2021-01-26T14:42:37Z</time>
      </trkpt>
      <trkpt lat="45.28832" lon="5.7398">
        <ele>1697.8</ele>
        <time>2021-01-26T14:42:39Z</time>
      </trkpt>
      <trkpt lat="45.28831" lon="5.73977">
        <ele>1697.8</ele>
        <time>2021-01-26T14:42:47Z</time>
      </trkpt>
      <trkpt lat="45.28829" lon="5.73975">
        <ele>1697.8</ele>
        <time>2021-01-26T14:42:54Z</time>
      </trkpt>
      <trkpt lat="45.28827" lon="5.73974">
        <ele>1697.8</ele>
        <time>2021-01-26T14:42:56Z</time>
      </trkpt>
      <trkpt lat="45.28825" lon="5.73972">
        <ele>1697.8</ele>
        <time>2021-01-26T14:43:02Z</time>
      </trkpt>
      <trkpt lat="45.28827" lon="5.73972">
        <ele>1697.8</ele>
        <time>2021-01-26T14:43:05Z</time>
      </trkpt>
      <trkpt lat="45.28829" lon="5.73973">
        <ele>1697.8</ele>
        <time>2021-01-26T14:43:08Z</time>
      </trkpt>
      <trkpt lat="45.28832" lon="5.73973">
        <ele>1697.8</ele>
        <time>2021-01-26T14:43:11Z</time>
      </trkpt>
      <trkpt lat="45.28834" lon="5.73972">
        <ele>1697.8</ele>
        <time>2021-01-26T14:43:13Z</time>
      </trkpt>
      <trkpt lat="45.28838" lon="5.7397">
        <ele>1697.8</ele>
        <time>2021-01-26T14:43:18Z</time>
      </trkpt>
      <trkpt lat="45.2884" lon="5.7397">
        <ele>1697.8</ele>
        <time>2021-01-26T14:43:21Z</time>
      </trkpt>
      <trkpt lat="45.28842" lon="5.73971">
        <ele>1697.8</ele>
        <time>2021-01-26T14:43:25Z</time>
      </trkpt>
      <trkpt lat="45.28845" lon="5.73972">
        <ele>1697.8</ele>
        <time>2021-01-26T14:43:28Z</time>
      </trkpt>
      <trkpt lat="45.28847" lon="5.73972">
        <ele>1697.8</ele>
        <time>2021-01-26T14:43:30Z</time>
      </trkpt>
      <trkpt lat="45.28849" lon="5.73972">
        <ele>1697.8</ele>
        <time>2021-01-26T14:43:32Z</time>
      </trkpt>
      <trkpt lat="45.28852" lon="5.73973">
        <ele>1697.8</ele>
        <time>2021-01-26T14:43:36Z</time>
      </trkpt>
      <trkpt lat="45.28854" lon="5.73973">
        <ele>1697.8</ele>
        <time>2021-01-26T14:43:41Z</time>
      </trkpt>
      <trkpt lat="45.28856" lon="5.73974">
        <ele>1697.8</ele>
        <time>2021-01-26T14:43:44Z</time>
      </trkpt>
      <trkpt lat="45.28858" lon="5.73975">
        <ele>1697.8</ele>
        <time>2021-01-26T14:43:48Z</time>
      </trkpt>
      <trkpt lat="45.2886" lon="5.73975">
        <ele>1697.8</ele>
        <time>2021-01-26T14:43:50Z</time>
      </trkpt>
      <trkpt lat="45.28863" lon="5.73976">
        <ele>1697.8</ele>
        <time>2021-01-26T14:43:53Z</time>
      </trkpt>
      <trkpt lat="45.28864" lon="5.73977">
        <ele>1697.8</ele>
        <time>2021-01-26T14:43:57Z</time>
      </trkpt>
      <trkpt lat="45.28867" lon="5.73977">
        <ele>1697.8</ele>
        <time>2021-01-26T14:44:00Z</time>
      </trkpt>
      <trkpt lat="45.28866" lon="5.73974">
        <ele>1697.8</ele>
        <time>2021-01-26T14:44:11Z</time>
      </trkpt>
      <trkpt lat="45.28866" lon="5.73971">
        <ele>1697.8</ele>
        <time>2021-01-26T14:44:14Z</time>
      </trkpt>
      <trkpt lat="45.28868" lon="5.73971">
        <ele>1697.8</ele>
        <time>2021-01-26T14:44:18Z</time>
      </trkpt>
      <trkpt lat="45.2887" lon="5.73972">
        <ele>1697.8</ele>
        <time>2021-01-26T14:44:22Z</time>
      </trkpt>
      <trkpt lat="45.28872" lon="5.73972">
        <ele>1697.8</ele>
        <time>2021-01-26T14:44:25Z</time>
      </trkpt>
      <trkpt lat="45.28874" lon="5.73972">
        <ele>1697.8</ele>
        <time>2021-01-26T14:44:28Z</time>
      </trkpt>
      <trkpt lat="45.28876" lon="5.73972">
        <ele>1697.8</ele>
        <time>2021-01-26T14:44:31Z</time>
      </trkpt>
      <trkpt lat="45.28878" lon="5.73972">
        <ele>1697.8</ele>
        <time>2021-01-26T14:44:33Z</time>
      </trkpt>
      <trkpt lat="45.28881" lon="5.73972">
        <ele>1697.8</ele>
        <time>2021-01-26T14:44:37Z</time>
      </trkpt>
      <trkpt lat="45.28882" lon="5.73972">
        <ele>1697.8</ele>
        <time>2021-01-26T14:44:40Z</time>
      </trkpt>
      <trkpt lat="45.28882" lon="5.73969">
        <ele>1697.8</ele>
        <time>2021-01-26T14:44:53Z</time>
      </trkpt>
      <trkpt lat="45.28881" lon="5.73967">
        <ele>1697.8</ele>
        <time>2021-01-26T14:44:56Z</time>
      </trkpt>
      <trkpt lat="45.28879" lon="5.73964">
        <ele>1721.6</ele>
        <time>2021-01-26T14:44:59Z</time>
      </trkpt>
      <trkpt lat="45.28878" lon="5.73962">
        <ele>1721.6</ele>
        <time>2021-01-26T14:45:02Z</time>
      </trkpt>
      <trkpt lat="45.28877" lon="5.73959">
        <ele>1721.6</ele>
        <time>2021-01-26T14:45:07Z</time>
      </trkpt>
      <trkpt lat="45.28875" lon="5.73957">
        <ele>1721.6</ele>
        <time>2021-01-26T14:45:10Z</time>
      </trkpt>
      <trkpt lat="45.28875" lon="5.73955">
        <ele>1721.6</ele>
        <time>2021-01-26T14:45:15Z</time>
      </trkpt>
      <trkpt lat="45.28875" lon="5.73952">
        <ele>1721.6</ele>
        <time>2021-01-26T14:45:58Z</time>
      </trkpt>
      <trkpt lat="45.28875" lon="5.73954">
        <ele>1721.6</ele>
        <time>2021-01-26T14:47:13Z</time>
      </trkpt>
      <trkpt lat="45.28876" lon="5.73952">
        <ele>1723.6</ele>
        <time>2021-01-26T14:47:59Z</time>
      </trkpt>
      <trkpt lat="45.28875" lon="5.73954">
        <ele>1724.8</ele>
        <time>2021-01-26T14:48:09Z</time>
      </trkpt>
      <trkpt lat="45.28873" lon="5.73952">
        <ele>1724.8</ele>
        <time>2021-01-26T14:49:12Z</time>
      </trkpt>
      <trkpt lat="45.28872" lon="5.73955">
        <ele>1724.8</ele>
        <time>2021-01-26T14:49:30Z</time>
      </trkpt>
      <trkpt lat="45.28874" lon="5.73957">
        <ele>1724.8</ele>
        <time>2021-01-26T14:50:18Z</time>
      </trkpt>
      <trkpt lat="45.28871" lon="5.73959">
        <ele>1724.8</ele>
        <time>2021-01-26T14:50:31Z</time>
      </trkpt>
      <trkpt lat="45.28869" lon="5.73961">
        <ele>1724.8</ele>
        <time>2021-01-26T14:50:32Z</time>
      </trkpt>
      <trkpt lat="45.28867" lon="5.73965">
        <ele>1724.8</ele>
        <time>2021-01-26T14:50:33Z</time>
      </trkpt>
      <trkpt lat="45.28866" lon="5.73972">
        <ele>1724.8</ele>
        <time>2021-01-26T14:50:34Z</time>
      </trkpt>
      <trkpt lat="45.28862" lon="5.73978">
        <ele>1724.8</ele>
        <time>2021-01-26T14:50:35Z</time>
      </trkpt>
      <trkpt lat="45.28855" lon="5.73982">
        <ele>1724.8</ele>
        <time>2021-01-26T14:50:36Z</time>
      </trkpt>
      <trkpt lat="45.28847" lon="5.73983">
        <ele>1724.8</ele>
        <time>2021-01-26T14:50:37Z</time>
      </trkpt>
      <trkpt lat="45.28841" lon="5.73983">
        <ele>1724.8</ele>
        <time>2021-01-26T14:50:38Z</time>
      </trkpt>
      <trkpt lat="45.28836" lon="5.73983">
        <ele>1708.8</ele>
        <time>2021-01-26T14:50:39Z</time>
      </trkpt>
      <trkpt lat="45.28832" lon="5.73983">
        <ele>1708.8</ele>
        <time>2021-01-26T14:50:40Z</time>
      </trkpt>
      <trkpt lat="45.28826" lon="5.73983">
        <ele>1708.8</ele>
        <time>2021-01-26T14:50:41Z</time>
      </trkpt>
      <trkpt lat="45.28819" lon="5.73983">
        <ele>1708.8</ele>
        <time>2021-01-26T14:50:42Z</time>
      </trkpt>
      <trkpt lat="45.28812" lon="5.73982">
        <ele>1708.8</ele>
        <time>2021-01-26T14:50:43Z</time>
      </trkpt>
      <trkpt lat="45.28807" lon="5.73982">
        <ele>1708.8</ele>
        <time>2021-01-26T14:50:44Z</time>
      </trkpt>
      <trkpt lat="45.28807" lon="5.73993">
        <ele>1708.8</ele>
        <time>2021-01-26T14:50:56Z</time>
      </trkpt>
      <trkpt lat="45.2881" lon="5.74002">
        <ele>1708.8</ele>
        <time>2021-01-26T14:50:57Z</time>
      </trkpt>
      <trkpt lat="45.28813" lon="5.74011">
        <ele>1708.8</ele>
        <time>2021-01-26T14:50:58Z</time>
      </trkpt>
      <trkpt lat="45.28817" lon="5.74021">
        <ele>1688</ele>
        <time>2021-01-26T14:50:59Z</time>
      </trkpt>
      <trkpt lat="45.2882" lon="5.74028">
        <ele>1688</ele>
        <time>2021-01-26T14:51:00Z</time>
      </trkpt>
      <trkpt lat="45.2882" lon="5.74036">
        <ele>1688</ele>
        <time>2021-01-26T14:51:01Z</time>
      </trkpt>
      <trkpt lat="45.2882" lon="5.74044">
        <ele>1688</ele>
        <time>2021-01-26T14:51:02Z</time>
      </trkpt>
      <trkpt lat="45.28815" lon="5.74056">
        <ele>1688</ele>
        <time>2021-01-26T14:51:04Z</time>
      </trkpt>
      <trkpt lat="45.28809" lon="5.74068">
        <ele>1688</ele>
        <time>2021-01-26T14:51:06Z</time>
      </trkpt>
      <trkpt lat="45.28807" lon="5.74084">
        <ele>1688</ele>
        <time>2021-01-26T14:51:08Z</time>
      </trkpt>
      <trkpt lat="45.28802" lon="5.74105">
        <ele>1688</ele>
        <time>2021-01-26T14:51:11Z</time>
      </trkpt>
      <trkpt lat="45.28799" lon="5.74105">
        <ele>1688</ele>
        <time>2021-01-26T14:51:12Z</time>
      </trkpt>
      <trkpt lat="45.28796" lon="5.74103">
        <ele>1688</ele>
        <time>2021-01-26T14:51:14Z</time>
      </trkpt>
      <trkpt lat="45.28796" lon="5.74101">
        <ele>1688</ele>
        <time>2021-01-26T14:51:17Z</time>
      </trkpt>
      <trkpt lat="45.28792" lon="5.74099">
        <ele>1688</ele>
        <time>2021-01-26T14:51:24Z</time>
      </trkpt>
      <trkpt lat="45.28788" lon="5.74099">
        <ele>1688</ele>
        <time>2021-01-26T14:51:25Z</time>
      </trkpt>
      <trkpt lat="45.28785" lon="5.74102">
        <ele>1688</ele>
        <time>2021-01-26T14:51:26Z</time>
      </trkpt>
      <trkpt lat="45.28784" lon="5.74108">
        <ele>1688</ele>
        <time>2021-01-26T14:51:27Z</time>
      </trkpt>
      <trkpt lat="45.28786" lon="5.74115">
        <ele>1688</ele>
        <time>2021-01-26T14:51:28Z</time>
      </trkpt>
      <trkpt lat="45.28788" lon="5.74123">
        <ele>1635</ele>
        <time>2021-01-26T14:51:29Z</time>
      </trkpt>
      <trkpt lat="45.28791" lon="5.7413">
        <ele>1635</ele>
        <time>2021-01-26T14:51:30Z</time>
      </trkpt>
      <trkpt lat="45.28794" lon="5.74136">
        <ele>1635</ele>
        <time>2021-01-26T14:51:31Z</time>
      </trkpt>
      <trkpt lat="45.288" lon="5.74147">
        <ele>1635</ele>
        <time>2021-01-26T14:51:34Z</time>
      </trkpt>
      <trkpt lat="45.28801" lon="5.74161">
        <ele>1614.8</ele>
        <time>2021-01-26T14:51:39Z</time>
      </trkpt>
      <trkpt lat="45.2881" lon="5.74174">
        <ele>1614.8</ele>
        <time>2021-01-26T14:51:47Z</time>
      </trkpt>
      <trkpt lat="45.28807" lon="5.74188">
        <ele>1614.8</ele>
        <time>2021-01-26T14:51:50Z</time>
      </trkpt>
      <trkpt lat="45.28799" lon="5.74195">
        <ele>1614.8</ele>
        <time>2021-01-26T14:51:52Z</time>
      </trkpt>
      <trkpt lat="45.28788" lon="5.742">
        <ele>1614.8</ele>
        <time>2021-01-26T14:51:55Z</time>
      </trkpt>
      <trkpt lat="45.28779" lon="5.74201">
        <ele>1614.8</ele>
        <time>2021-01-26T14:51:58Z</time>
      </trkpt>
      <trkpt lat="45.2877" lon="5.74204">
        <ele>1614.8</ele>
        <time>2021-01-26T14:52:02Z</time>
      </trkpt>
      <trkpt lat="45.2876" lon="5.74208">
        <ele>1614.8</ele>
        <time>2021-01-26T14:52:08Z</time>
      </trkpt>
      <trkpt lat="45.28746" lon="5.74221">
        <ele>1614.8</ele>
        <time>2021-01-26T14:52:12Z</time>
      </trkpt>
      <trkpt lat="45.28743" lon="5.74227">
        <ele>1614.8</ele>
        <time>2021-01-26T14:52:15Z</time>
      </trkpt>
      <trkpt lat="45.28736" lon="5.74236">
        <ele>1614.8</ele>
        <time>2021-01-26T14:52:22Z</time>
      </trkpt>
      <trkpt lat="45.28727" lon="5.74245">
        <ele>1614.8</ele>
        <time>2021-01-26T14:52:26Z</time>
      </trkpt>
      <trkpt lat="45.28723" lon="5.74259">
        <ele>1614.8</ele>
        <time>2021-01-26T14:52:31Z</time>
      </trkpt>
      <trkpt lat="45.2872" lon="5.74275">
        <ele>1614.8</ele>
        <time>2021-01-26T14:52:34Z</time>
      </trkpt>
      <trkpt lat="45.28709" lon="5.74284">
        <ele>1614.8</ele>
        <time>2021-01-26T14:52:56Z</time>
      </trkpt>
      <trkpt lat="45.28702" lon="5.74284">
        <ele>1534.6</ele>
        <time>2021-01-26T14:52:59Z</time>
      </trkpt>
      <trkpt lat="45.28692" lon="5.74286">
        <ele>1534.6</ele>
        <time>2021-01-26T14:53:04Z</time>
      </trkpt>
      <trkpt lat="45.28682" lon="5.74285">
        <ele>1525.4</ele>
        <time>2021-01-26T14:53:09Z</time>
      </trkpt>
      <trkpt lat="45.28672" lon="5.74289">
        <ele>1525.4</ele>
        <time>2021-01-26T14:53:13Z</time>
      </trkpt>
      <trkpt lat="45.28663" lon="5.74293">
        <ele>1525.4</ele>
        <time>2021-01-26T14:53:16Z</time>
      </trkpt>
      <trkpt lat="45.28655" lon="5.743">
        <ele>1525.4</ele>
        <time>2021-01-26T14:53:18Z</time>
      </trkpt>
      <trkpt lat="45.28646" lon="5.74307">
        <ele>1525.4</ele>
        <time>2021-01-26T14:53:20Z</time>
      </trkpt>
      <trkpt lat="45.28637" lon="5.74312">
        <ele>1525.4</ele>
        <time>2021-01-26T14:53:22Z</time>
      </trkpt>
      <trkpt lat="45.28626" lon="5.74316">
        <ele>1525.4</ele>
        <time>2021-01-26T14:53:25Z</time>
      </trkpt>
      <trkpt lat="45.28616" lon="5.7432">
        <ele>1525.4</ele>
        <time>2021-01-26T14:53:30Z</time>
      </trkpt>
      <trkpt lat="45.28607" lon="5.74326">
        <ele>1525.4</ele>
        <time>2021-01-26T14:53:34Z</time>
      </trkpt>
      <trkpt lat="45.28597" lon="5.7433">
        <ele>1525.4</ele>
        <time>2021-01-26T14:53:36Z</time>
      </trkpt>
      <trkpt lat="45.28584" lon="5.74328">
        <ele>1525.4</ele>
        <time>2021-01-26T14:53:40Z</time>
      </trkpt>
      <trkpt lat="45.28577" lon="5.74337">
        <ele>1484.4</ele>
        <time>2021-01-26T14:53:49Z</time>
      </trkpt>
      <trkpt lat="45.28567" lon="5.74349">
        <ele>1484.4</ele>
        <time>2021-01-26T14:53:54Z</time>
      </trkpt>
      <trkpt lat="45.28557" lon="5.74355">
        <ele>1484.4</ele>
        <time>2021-01-26T14:53:57Z</time>
      </trkpt>
      <trkpt lat="45.28548" lon="5.74362">
        <ele>1468.2</ele>
        <time>2021-01-26T14:53:59Z</time>
      </trkpt>
      <trkpt lat="45.28537" lon="5.74364">
        <ele>1468.2</ele>
        <time>2021-01-26T14:54:01Z</time>
      </trkpt>
      <trkpt lat="45.28526" lon="5.74365">
        <ele>1468.2</ele>
        <time>2021-01-26T14:54:03Z</time>
      </trkpt>
      <trkpt lat="45.28517" lon="5.74369">
        <ele>1468.2</ele>
        <time>2021-01-26T14:54:05Z</time>
      </trkpt>
      <trkpt lat="45.28508" lon="5.74368">
        <ele>1468.2</ele>
        <time>2021-01-26T14:54:11Z</time>
      </trkpt>
      <trkpt lat="45.28507" lon="5.74383">
        <ele>1468.2</ele>
        <time>2021-01-26T14:54:18Z</time>
      </trkpt>
      <trkpt lat="45.28511" lon="5.74398">
        <ele>1468.2</ele>
        <time>2021-01-26T14:54:24Z</time>
      </trkpt>
      <trkpt lat="45.28508" lon="5.7441">
        <ele>1468.2</ele>
        <time>2021-01-26T14:54:30Z</time>
      </trkpt>
      <trkpt lat="45.28503" lon="5.74427">
        <ele>1468.2</ele>
        <time>2021-01-26T14:54:33Z</time>
      </trkpt>
      <trkpt lat="45.28496" lon="5.74443">
        <ele>1468.2</ele>
        <time>2021-01-26T14:54:36Z</time>
      </trkpt>
      <trkpt lat="45.28487" lon="5.74438">
        <ele>1468.2</ele>
        <time>2021-01-26T14:54:43Z</time>
      </trkpt>
      <trkpt lat="45.28476" lon="5.74434">
        <ele>1468.2</ele>
        <time>2021-01-26T14:54:51Z</time>
      </trkpt>
      <trkpt lat="45.28463" lon="5.74425">
        <ele>1468.2</ele>
        <time>2021-01-26T14:54:54Z</time>
      </trkpt>
      <trkpt lat="45.28453" lon="5.74418">
        <ele>1468.2</ele>
        <time>2021-01-26T14:54:56Z</time>
      </trkpt>
      <trkpt lat="45.28441" lon="5.74413">
        <ele>1468.2</ele>
        <time>2021-01-26T14:54:58Z</time>
      </trkpt>
      <trkpt lat="45.28431" lon="5.74407">
        <ele>1468.2</ele>
        <time>2021-01-26T14:55:00Z</time>
      </trkpt>
      <trkpt lat="45.28421" lon="5.74395">
        <ele>1468.2</ele>
        <time>2021-01-26T14:55:03Z</time>
      </trkpt>
      <trkpt lat="45.28412" lon="5.74382">
        <ele>1468.2</ele>
        <time>2021-01-26T14:55:05Z</time>
      </trkpt>
      <trkpt lat="45.28402" lon="5.74369">
        <ele>1468.2</ele>
        <time>2021-01-26T14:55:07Z</time>
      </trkpt>
      <trkpt lat="45.28392" lon="5.74366">
        <ele>1468.2</ele>
        <time>2021-01-26T14:55:10Z</time>
      </trkpt>
      <trkpt lat="45.28383" lon="5.74364">
        <ele>1468.2</ele>
        <time>2021-01-26T14:55:17Z</time>
      </trkpt>
      <trkpt lat="45.28378" lon="5.74378">
        <ele>1468.2</ele>
        <time>2021-01-26T14:55:27Z</time>
      </trkpt>
      <trkpt lat="45.28371" lon="5.74388">
        <ele>1400.6</ele>
        <time>2021-01-26T14:55:29Z</time>
      </trkpt>
      <trkpt lat="45.28361" lon="5.74386">
        <ele>1400.6</ele>
        <time>2021-01-26T14:55:34Z</time>
      </trkpt>
      <trkpt lat="45.28352" lon="5.74388">
        <ele>1400.6</ele>
        <time>2021-01-26T14:55:37Z</time>
      </trkpt>
      <trkpt lat="45.28343" lon="5.74398">
        <ele>1400.6</ele>
        <time>2021-01-26T14:55:41Z</time>
      </trkpt>
      <trkpt lat="45.28339" lon="5.74414">
        <ele>1400.6</ele>
        <time>2021-01-26T14:55:44Z</time>
      </trkpt>
      <trkpt lat="45.28338" lon="5.74427">
        <ele>1400.6</ele>
        <time>2021-01-26T14:55:47Z</time>
      </trkpt>
      <trkpt lat="45.28337" lon="5.7444">
        <ele>1389</ele>
        <time>2021-01-26T14:55:49Z</time>
      </trkpt>
      <trkpt lat="45.28332" lon="5.74454">
        <ele>1389</ele>
        <time>2021-01-26T14:55:51Z</time>
      </trkpt>
      <trkpt lat="45.28327" lon="5.74468">
        <ele>1389</ele>
        <time>2021-01-26T14:55:53Z</time>
      </trkpt>
      <trkpt lat="45.28319" lon="5.7448">
        <ele>1389</ele>
        <time>2021-01-26T14:55:55Z</time>
      </trkpt>
      <trkpt lat="45.28313" lon="5.74489">
        <ele>1374.6</ele>
        <time>2021-01-26T14:55:59Z</time>
      </trkpt>
      <trkpt lat="45.28303" lon="5.74492">
        <ele>1374.6</ele>
        <time>2021-01-26T14:56:06Z</time>
      </trkpt>
      <trkpt lat="45.28294" lon="5.74488">
        <ele>1374.6</ele>
        <time>2021-01-26T14:56:10Z</time>
      </trkpt>
      <trkpt lat="45.28285" lon="5.74483">
        <ele>1374.6</ele>
        <time>2021-01-26T14:56:14Z</time>
      </trkpt>
      <trkpt lat="45.28272" lon="5.74479">
        <ele>1374.6</ele>
        <time>2021-01-26T14:56:17Z</time>
      </trkpt>
      <trkpt lat="45.28257" lon="5.74473">
        <ele>1374.6</ele>
        <time>2021-01-26T14:56:20Z</time>
      </trkpt>
      <trkpt lat="45.28253" lon="5.74472">
        <ele>1374.6</ele>
        <time>2021-01-26T14:56:21Z</time>
      </trkpt>
      <trkpt lat="45.28244" lon="5.74469">
        <ele>1374.6</ele>
        <time>2021-01-26T14:56:26Z</time>
      </trkpt>
      <trkpt lat="45.28228" lon="5.74472">
        <ele>1374.6</ele>
        <time>2021-01-26T14:56:36Z</time>
      </trkpt>
      <trkpt lat="45.2822" lon="5.74468">
        <ele>1374.6</ele>
        <time>2021-01-26T14:56:41Z</time>
      </trkpt>
      <trkpt lat="45.2821" lon="5.74472">
        <ele>1374.6</ele>
        <time>2021-01-26T14:57:12Z</time>
      </trkpt>
      <trkpt lat="45.28199" lon="5.74473">
        <ele>1374.6</ele>
        <time>2021-01-26T14:57:21Z</time>
      </trkpt>
      <trkpt lat="45.28187" lon="5.7447">
        <ele>1374.6</ele>
        <time>2021-01-26T14:57:24Z</time>
      </trkpt>
      <trkpt lat="45.28178" lon="5.74468">
        <ele>1374.6</ele>
        <time>2021-01-26T14:57:27Z</time>
      </trkpt>
      <trkpt lat="45.28167" lon="5.74482">
        <ele>1374.6</ele>
        <time>2021-01-26T14:57:30Z</time>
      </trkpt>
      <trkpt lat="45.28159" lon="5.7449">
        <ele>1374.6</ele>
        <time>2021-01-26T14:57:34Z</time>
      </trkpt>
      <trkpt lat="45.28152" lon="5.74505">
        <ele>1374.6</ele>
        <time>2021-01-26T14:57:38Z</time>
      </trkpt>
      <trkpt lat="45.28143" lon="5.74519">
        <ele>1374.6</ele>
        <time>2021-01-26T14:57:41Z</time>
      </trkpt>
      <trkpt lat="45.28133" lon="5.74528">
        <ele>1374.6</ele>
        <time>2021-01-26T14:57:43Z</time>
      </trkpt>
      <trkpt lat="45.28122" lon="5.74542">
        <ele>1374.6</ele>
        <time>2021-01-26T14:57:45Z</time>
      </trkpt>
      <trkpt lat="45.28116" lon="5.74552">
        <ele>1374.6</ele>
        <time>2021-01-26T14:57:46Z</time>
      </trkpt>
      <trkpt lat="45.28111" lon="5.74563">
        <ele>1374.6</ele>
        <time>2021-01-26T14:57:47Z</time>
      </trkpt>
      <trkpt lat="45.28106" lon="5.74584">
        <ele>1297.6</ele>
        <time>2021-01-26T14:57:49Z</time>
      </trkpt>
      <trkpt lat="45.28102" lon="5.74597">
        <ele>1297.6</ele>
        <time>2021-01-26T14:58:00Z</time>
      </trkpt>
      <trkpt lat="45.28103" lon="5.7461">
        <ele>1289.4</ele>
        <time>2021-01-26T14:58:09Z</time>
      </trkpt>
      <trkpt lat="45.28107" lon="5.74625">
        <ele>1289.4</ele>
        <time>2021-01-26T14:58:13Z</time>
      </trkpt>
      <trkpt lat="45.28114" lon="5.74639">
        <ele>1289.4</ele>
        <time>2021-01-26T14:58:16Z</time>
      </trkpt>
      <trkpt lat="45.2812" lon="5.74654">
        <ele>1284.4</ele>
        <time>2021-01-26T14:58:19Z</time>
      </trkpt>
      <trkpt lat="45.28126" lon="5.74665">
        <ele>1284.4</ele>
        <time>2021-01-26T14:58:22Z</time>
      </trkpt>
      <trkpt lat="45.28134" lon="5.74683">
        <ele>1284.4</ele>
        <time>2021-01-26T14:58:25Z</time>
      </trkpt>
      <trkpt lat="45.28141" lon="5.747">
        <ele>1284.4</ele>
        <time>2021-01-26T14:58:27Z</time>
      </trkpt>
      <trkpt lat="45.28149" lon="5.74717">
        <ele>1269.6</ele>
        <time>2021-01-26T14:58:29Z</time>
      </trkpt>
      <trkpt lat="45.28161" lon="5.74733">
        <ele>1269.6</ele>
        <time>2021-01-26T14:58:31Z</time>
      </trkpt>
      <trkpt lat="45.28168" lon="5.74742">
        <ele>1269.6</ele>
        <time>2021-01-26T14:58:32Z</time>
      </trkpt>
      <trkpt lat="45.28175" lon="5.74753">
        <ele>1269.6</ele>
        <time>2021-01-26T14:58:34Z</time>
      </trkpt>
      <trkpt lat="45.28184" lon="5.74757">
        <ele>1269.6</ele>
        <time>2021-01-26T14:58:44Z</time>
      </trkpt>
      <trkpt lat="45.28192" lon="5.74764">
        <ele>1269.6</ele>
        <time>2021-01-26T14:58:52Z</time>
      </trkpt>
      <trkpt lat="45.28202" lon="5.74774">
        <ele>1269.6</ele>
        <time>2021-01-26T14:58:56Z</time>
      </trkpt>
      <trkpt lat="45.28209" lon="5.74783">
        <ele>1269.6</ele>
        <time>2021-01-26T14:58:58Z</time>
      </trkpt>
      <trkpt lat="45.28221" lon="5.74795">
        <ele>1269.6</ele>
        <time>2021-01-26T14:59:00Z</time>
      </trkpt>
      <trkpt lat="45.28231" lon="5.74806">
        <ele>1269.6</ele>
        <time>2021-01-26T14:59:02Z</time>
      </trkpt>
      <trkpt lat="45.2824" lon="5.74817">
        <ele>1269.6</ele>
        <time>2021-01-26T14:59:04Z</time>
      </trkpt>
      <trkpt lat="45.28247" lon="5.74828">
        <ele>1269.6</ele>
        <time>2021-01-26T14:59:06Z</time>
      </trkpt>
      <trkpt lat="45.28249" lon="5.74841">
        <ele>1269.6</ele>
        <time>2021-01-26T14:59:08Z</time>
      </trkpt>
      <trkpt lat="45.28248" lon="5.74856">
        <ele>1269.6</ele>
        <time>2021-01-26T14:59:11Z</time>
      </trkpt>
      <trkpt lat="45.28248" lon="5.74871">
        <ele>1269.6</ele>
        <time>2021-01-26T14:59:14Z</time>
      </trkpt>
      <trkpt lat="45.28244" lon="5.74887">
        <ele>1269.6</ele>
        <time>2021-01-26T14:59:17Z</time>
      </trkpt>
      <trkpt lat="45.28233" lon="5.74887">
        <ele>1228.6</ele>
        <time>2021-01-26T14:59:19Z</time>
      </trkpt>
      <trkpt lat="45.28243" lon="5.74887">
        <ele>1228.6</ele>
        <time>2021-01-26T14:59:30Z</time>
      </trkpt>
      <trkpt lat="45.28235" lon="5.74895">
        <ele>1228.6</ele>
        <time>2021-01-26T14:59:37Z</time>
      </trkpt>
      <trkpt lat="45.28228" lon="5.74909">
        <ele>1228.6</ele>
        <time>2021-01-26T14:59:40Z</time>
      </trkpt>
      <trkpt lat="45.28221" lon="5.7493">
        <ele>1228.6</ele>
        <time>2021-01-26T14:59:44Z</time>
      </trkpt>
      <trkpt lat="45.2822" lon="5.74938">
        <ele>1228.6</ele>
        <time>2021-01-26T14:59:45Z</time>
      </trkpt>
      <trkpt lat="45.28222" lon="5.74966">
        <ele>1228.6</ele>
        <time>2021-01-26T14:59:48Z</time>
      </trkpt>
      <trkpt lat="45.28224" lon="5.74977">
        <ele>1208</ele>
        <time>2021-01-26T14:59:49Z</time>
      </trkpt>
      <trkpt lat="45.28227" lon="5.74995">
        <ele>1208</ele>
        <time>2021-01-26T14:59:51Z</time>
      </trkpt>
      <trkpt lat="45.28222" lon="5.75006">
        <ele>1208</ele>
        <time>2021-01-26T14:59:58Z</time>
      </trkpt>
      <trkpt lat="45.28221" lon="5.7502">
        <ele>1208</ele>
        <time>2021-01-26T15:00:10Z</time>
      </trkpt>
      <trkpt lat="45.28225" lon="5.75036">
        <ele>1208</ele>
        <time>2021-01-26T15:00:20Z</time>
      </trkpt>
      <trkpt lat="45.28237" lon="5.75044">
        <ele>1208</ele>
        <time>2021-01-26T15:00:27Z</time>
      </trkpt>
      <trkpt lat="45.28244" lon="5.75054">
        <ele>1208</ele>
        <time>2021-01-26T15:00:34Z</time>
      </trkpt>
      <trkpt lat="45.28257" lon="5.75069">
        <ele>1208</ele>
        <time>2021-01-26T15:00:40Z</time>
      </trkpt>
      <trkpt lat="45.28261" lon="5.75075">
        <ele>1208</ele>
        <time>2021-01-26T15:00:41Z</time>
      </trkpt>
      <trkpt lat="45.28268" lon="5.75084">
        <ele>1208</ele>
        <time>2021-01-26T15:00:44Z</time>
      </trkpt>
      <trkpt lat="45.28277" lon="5.75092">
        <ele>1208</ele>
        <time>2021-01-26T15:00:58Z</time>
      </trkpt>
      <trkpt lat="45.28277" lon="5.75105">
        <ele>1208</ele>
        <time>2021-01-26T15:01:01Z</time>
      </trkpt>
      <trkpt lat="45.28279" lon="5.75118">
        <ele>1208</ele>
        <time>2021-01-26T15:01:04Z</time>
      </trkpt>
      <trkpt lat="45.28283" lon="5.75131">
        <ele>1160.8</ele>
        <time>2021-01-26T15:01:09Z</time>
      </trkpt>
      <trkpt lat="45.28288" lon="5.75141">
        <ele>1160.8</ele>
        <time>2021-01-26T15:01:12Z</time>
      </trkpt>
      <trkpt lat="45.28278" lon="5.75152">
        <ele>1160.8</ele>
        <time>2021-01-26T15:01:17Z</time>
      </trkpt>
      <trkpt lat="45.28271" lon="5.7516">
        <ele>1160.8</ele>
        <time>2021-01-26T15:01:20Z</time>
      </trkpt>
      <trkpt lat="45.28263" lon="5.75172">
        <ele>1160.8</ele>
        <time>2021-01-26T15:01:24Z</time>
      </trkpt>
      <trkpt lat="45.28258" lon="5.75184">
        <ele>1160.8</ele>
        <time>2021-01-26T15:01:27Z</time>
      </trkpt>
      <trkpt lat="45.2825" lon="5.75192">
        <ele>1160.8</ele>
        <time>2021-01-26T15:01:31Z</time>
      </trkpt>
      <trkpt lat="45.28248" lon="5.75207">
        <ele>1160.8</ele>
        <time>2021-01-26T15:01:40Z</time>
      </trkpt>
      <trkpt lat="45.28242" lon="5.75217">
        <ele>1160.8</ele>
        <time>2021-01-26T15:01:55Z</time>
      </trkpt>
      <trkpt lat="45.28237" lon="5.7523">
        <ele>1126.8</ele>
        <time>2021-01-26T15:01:59Z</time>
      </trkpt>
      <trkpt lat="45.28231" lon="5.75246">
        <ele>1126.8</ele>
        <time>2021-01-26T15:02:02Z</time>
      </trkpt>
      <trkpt lat="45.28223" lon="5.7526">
        <ele>1126.8</ele>
        <time>2021-01-26T15:02:04Z</time>
      </trkpt>
      <trkpt lat="45.28207" lon="5.75277">
        <ele>1126.8</ele>
        <time>2021-01-26T15:02:07Z</time>
      </trkpt>
      <trkpt lat="45.28198" lon="5.75278">
        <ele>1126.8</ele>
        <time>2021-01-26T15:02:08Z</time>
      </trkpt>
      <trkpt lat="45.2818" lon="5.75272">
        <ele>1126.8</ele>
        <time>2021-01-26T15:02:10Z</time>
      </trkpt>
      <trkpt lat="45.28175" lon="5.75281">
        <ele>1126.8</ele>
        <time>2021-01-26T15:02:14Z</time>
      </trkpt>
      <trkpt lat="45.28169" lon="5.75293">
        <ele>1126.8</ele>
        <time>2021-01-26T15:02:21Z</time>
      </trkpt>
      <trkpt lat="45.28168" lon="5.75309">
        <ele>1126.8</ele>
        <time>2021-01-26T15:02:31Z</time>
      </trkpt>
      <trkpt lat="45.28167" lon="5.75324">
        <ele>1126.8</ele>
        <time>2021-01-26T15:02:34Z</time>
      </trkpt>
      <trkpt lat="45.28158" lon="5.75322">
        <ele>1126.8</ele>
        <time>2021-01-26T15:02:36Z</time>
      </trkpt>
      <trkpt lat="45.28148" lon="5.7532">
        <ele>1126.8</ele>
        <time>2021-01-26T15:02:41Z</time>
      </trkpt>
      <trkpt lat="45.28138" lon="5.75324">
        <ele>1126.8</ele>
        <time>2021-01-26T15:02:46Z</time>
      </trkpt>
      <trkpt lat="45.28148" lon="5.75333">
        <ele>1098.6</ele>
        <time>2021-01-26T15:03:09Z</time>
      </trkpt>
      <trkpt lat="45.28154" lon="5.75342">
        <ele>1098.6</ele>
        <time>2021-01-26T15:03:15Z</time>
      </trkpt>
      <trkpt lat="45.28156" lon="5.75355">
        <ele>1098.6</ele>
        <time>2021-01-26T15:03:21Z</time>
      </trkpt>
      <trkpt lat="45.28148" lon="5.75364">
        <ele>1098.6</ele>
        <time>2021-01-26T15:03:33Z</time>
      </trkpt>
      <trkpt lat="45.28139" lon="5.7536">
        <ele>1098.6</ele>
        <time>2021-01-26T15:03:38Z</time>
      </trkpt>
      <trkpt lat="45.28129" lon="5.75352">
        <ele>1098.6</ele>
        <time>2021-01-26T15:03:43Z</time>
      </trkpt>
      <trkpt lat="45.28122" lon="5.7536">
        <ele>1098.6</ele>
        <time>2021-01-26T15:04:03Z</time>
      </trkpt>
      <trkpt lat="45.28125" lon="5.75373">
        <ele>1095.4</ele>
        <time>2021-01-26T15:04:29Z</time>
      </trkpt>
      <trkpt lat="45.28129" lon="5.75386">
        <ele>1095</ele>
        <time>2021-01-26T15:04:39Z</time>
      </trkpt>
      <trkpt lat="45.28137" lon="5.75396">
        <ele>1095</ele>
        <time>2021-01-26T15:04:55Z</time>
      </trkpt>
      <trkpt lat="45.28137" lon="5.75399">
        <ele>1095</ele>
        <time>2021-01-26T15:04:57Z</time>
      </trkpt>
      <trkpt lat="45.28127" lon="5.75394">
        <ele>1095</ele>
        <time>2021-01-26T15:05:12Z</time>
      </trkpt>
      <trkpt lat="45.28113" lon="5.7539">
        <ele>1095</ele>
        <time>2021-01-26T15:05:14Z</time>
      </trkpt>
      <trkpt lat="45.28103" lon="5.75384">
        <ele>1095</ele>
        <time>2021-01-26T15:05:17Z</time>
      </trkpt>
      <trkpt lat="45.28105" lon="5.75369">
        <ele>1095</ele>
        <time>2021-01-26T15:05:26Z</time>
      </trkpt>
      <trkpt lat="45.281" lon="5.7538">
        <ele>1096</ele>
        <time>2021-01-26T15:05:49Z</time>
      </trkpt>
      <trkpt lat="45.281" lon="5.75367">
        <ele>1096</ele>
        <time>2021-01-26T15:05:55Z</time>
      </trkpt>
    </trkseg>
  </trk>
</gpx>